<?xml version="1.0" encoding="UTF-8" standalone="no" ?>
<gpx xmlns="http://www.topografix.com/GPX/1/1" xmlns:xsi="http://www.w3.org/2001/XMLSchema-instance" xsi:schemaLocation="http://www.topografix.com/GPX/1/1 http://www.topografix.com/GPX/1/1/gpx.xsd" version="1.1" creator="VisuGPX - https://www.visugpx.com">
  <metadata>
    <name>Octocote 2019</name>
  </metadata>
  <trk>
    <name><![CDATA[Octocote 2019]]></name>
    <trkseg>
      <trkpt lat="45.84457" lon="4.85398">
        <ele>206.5</ele>
        <time>2019-08-30T06:38:16Z</time>
      </trkpt>
      <trkpt lat="45.84463" lon="4.85403">
        <ele>206.5</ele>
        <time>2019-08-30T06:38:28Z</time>
      </trkpt>
      <trkpt lat="45.84466" lon="4.8541">
        <ele>206.5</ele>
        <time>2019-08-30T06:38:31Z</time>
      </trkpt>
      <trkpt lat="45.84472" lon="4.8543">
        <ele>206.2</ele>
        <time>2019-08-30T06:38:38Z</time>
      </trkpt>
      <trkpt lat="45.84477" lon="4.85438">
        <ele>207</ele>
        <time>2019-08-30T06:38:41Z</time>
      </trkpt>
      <trkpt lat="45.84482" lon="4.85439">
        <ele>207.5</ele>
        <time>2019-08-30T06:38:43Z</time>
      </trkpt>
      <trkpt lat="45.8449" lon="4.85436">
        <ele>208.2</ele>
        <time>2019-08-30T06:38:47Z</time>
      </trkpt>
      <trkpt lat="45.84492" lon="4.85435">
        <ele>208.4</ele>
        <time>2019-08-30T06:38:48Z</time>
      </trkpt>
      <trkpt lat="45.84515" lon="4.85427">
        <ele>211</ele>
        <time>2019-08-30T06:38:58Z</time>
      </trkpt>
      <trkpt lat="45.84517" lon="4.8543">
        <ele>211.4</ele>
        <time>2019-08-30T06:39:00Z</time>
      </trkpt>
      <trkpt lat="45.84522" lon="4.85436">
        <ele>211.8</ele>
        <time>2019-08-30T06:39:02Z</time>
      </trkpt>
      <trkpt lat="45.84524" lon="4.85448">
        <ele>211.7</ele>
        <time>2019-08-30T06:39:05Z</time>
      </trkpt>
      <trkpt lat="45.84525" lon="4.85452">
        <ele>211.7</ele>
        <time>2019-08-30T06:39:06Z</time>
      </trkpt>
      <trkpt lat="45.84527" lon="4.85469">
        <ele>211.5</ele>
        <time>2019-08-30T06:39:10Z</time>
      </trkpt>
      <trkpt lat="45.84526" lon="4.85482">
        <ele>210.8</ele>
        <time>2019-08-30T06:39:14Z</time>
      </trkpt>
      <trkpt lat="45.84519" lon="4.85506">
        <ele>209.6</ele>
        <time>2019-08-30T06:39:19Z</time>
      </trkpt>
      <trkpt lat="45.8451" lon="4.85529">
        <ele>208.2</ele>
        <time>2019-08-30T06:39:23Z</time>
      </trkpt>
      <trkpt lat="45.84508" lon="4.85536">
        <ele>208.1</ele>
        <time>2019-08-30T06:39:24Z</time>
      </trkpt>
      <trkpt lat="45.84506" lon="4.85543">
        <ele>208.1</ele>
        <time>2019-08-30T06:39:25Z</time>
      </trkpt>
      <trkpt lat="45.84501" lon="4.85565">
        <ele>207.3</ele>
        <time>2019-08-30T06:39:28Z</time>
      </trkpt>
      <trkpt lat="45.84497" lon="4.85587">
        <ele>207.3</ele>
        <time>2019-08-30T06:39:31Z</time>
      </trkpt>
      <trkpt lat="45.84497" lon="4.8561">
        <ele>207.2</ele>
        <time>2019-08-30T06:39:34Z</time>
      </trkpt>
      <trkpt lat="45.84498" lon="4.85631">
        <ele>207</ele>
        <time>2019-08-30T06:39:37Z</time>
      </trkpt>
      <trkpt lat="45.845" lon="4.85644">
        <ele>206.9</ele>
        <time>2019-08-30T06:39:39Z</time>
      </trkpt>
      <trkpt lat="45.84505" lon="4.85655">
        <ele>207.3</ele>
        <time>2019-08-30T06:39:41Z</time>
      </trkpt>
      <trkpt lat="45.84511" lon="4.85664">
        <ele>207.7</ele>
        <time>2019-08-30T06:39:43Z</time>
      </trkpt>
      <trkpt lat="45.84525" lon="4.8568">
        <ele>208.4</ele>
        <time>2019-08-30T06:39:47Z</time>
      </trkpt>
      <trkpt lat="45.84546" lon="4.85708">
        <ele>208.9</ele>
        <time>2019-08-30T06:39:54Z</time>
      </trkpt>
      <trkpt lat="45.84552" lon="4.85716">
        <ele>209.2</ele>
        <time>2019-08-30T06:39:56Z</time>
      </trkpt>
      <trkpt lat="45.84564" lon="4.85731">
        <ele>209.4</ele>
        <time>2019-08-30T06:40:00Z</time>
      </trkpt>
      <trkpt lat="45.84575" lon="4.85747">
        <ele>209.1</ele>
        <time>2019-08-30T06:40:04Z</time>
      </trkpt>
      <trkpt lat="45.8458" lon="4.85756">
        <ele>209</ele>
        <time>2019-08-30T06:40:06Z</time>
      </trkpt>
      <trkpt lat="45.84587" lon="4.85775">
        <ele>208.8</ele>
        <time>2019-08-30T06:40:10Z</time>
      </trkpt>
      <trkpt lat="45.84591" lon="4.85798">
        <ele>208.5</ele>
        <time>2019-08-30T06:40:14Z</time>
      </trkpt>
      <trkpt lat="45.84592" lon="4.8581">
        <ele>208</ele>
        <time>2019-08-30T06:40:16Z</time>
      </trkpt>
      <trkpt lat="45.84591" lon="4.8583">
        <ele>207</ele>
        <time>2019-08-30T06:40:19Z</time>
      </trkpt>
      <trkpt lat="45.84588" lon="4.85848">
        <ele>206.9</ele>
        <time>2019-08-30T06:40:22Z</time>
      </trkpt>
      <trkpt lat="45.84577" lon="4.85892">
        <ele>207.2</ele>
        <time>2019-08-30T06:40:29Z</time>
      </trkpt>
      <trkpt lat="45.84575" lon="4.85897">
        <ele>207.2</ele>
        <time>2019-08-30T06:40:30Z</time>
      </trkpt>
      <trkpt lat="45.84567" lon="4.85933">
        <ele>207.7</ele>
        <time>2019-08-30T06:40:37Z</time>
      </trkpt>
      <trkpt lat="45.84566" lon="4.85948">
        <ele>208.1</ele>
        <time>2019-08-30T06:40:40Z</time>
      </trkpt>
      <trkpt lat="45.84568" lon="4.85963">
        <ele>208.5</ele>
        <time>2019-08-30T06:40:43Z</time>
      </trkpt>
      <trkpt lat="45.84572" lon="4.8599">
        <ele>209.1</ele>
        <time>2019-08-30T06:40:49Z</time>
      </trkpt>
      <trkpt lat="45.84573" lon="4.85994">
        <ele>209.2</ele>
        <time>2019-08-30T06:40:50Z</time>
      </trkpt>
      <trkpt lat="45.84578" lon="4.86011">
        <ele>209.7</ele>
        <time>2019-08-30T06:40:54Z</time>
      </trkpt>
      <trkpt lat="45.84583" lon="4.86022">
        <ele>210.2</ele>
        <time>2019-08-30T06:40:57Z</time>
      </trkpt>
      <trkpt lat="45.84587" lon="4.86029">
        <ele>210.5</ele>
        <time>2019-08-30T06:40:59Z</time>
      </trkpt>
      <trkpt lat="45.84595" lon="4.86043">
        <ele>211</ele>
        <time>2019-08-30T06:41:03Z</time>
      </trkpt>
      <trkpt lat="45.84597" lon="4.86046">
        <ele>211.1</ele>
        <time>2019-08-30T06:41:04Z</time>
      </trkpt>
      <trkpt lat="45.84613" lon="4.86071">
        <ele>212.3</ele>
        <time>2019-08-30T06:41:11Z</time>
      </trkpt>
      <trkpt lat="45.84623" lon="4.86082">
        <ele>213</ele>
        <time>2019-08-30T06:41:15Z</time>
      </trkpt>
      <trkpt lat="45.84645" lon="4.86092">
        <ele>213</ele>
        <time>2019-08-30T06:41:21Z</time>
      </trkpt>
      <trkpt lat="45.84656" lon="4.86099">
        <ele>213.1</ele>
        <time>2019-08-30T06:41:24Z</time>
      </trkpt>
      <trkpt lat="45.84671" lon="4.86108">
        <ele>213.2</ele>
        <time>2019-08-30T06:41:28Z</time>
      </trkpt>
      <trkpt lat="45.84675" lon="4.86111">
        <ele>213.3</ele>
        <time>2019-08-30T06:41:29Z</time>
      </trkpt>
      <trkpt lat="45.84691" lon="4.86125">
        <ele>213.4</ele>
        <time>2019-08-30T06:41:34Z</time>
      </trkpt>
      <trkpt lat="45.84698" lon="4.86132">
        <ele>213.5</ele>
        <time>2019-08-30T06:41:36Z</time>
      </trkpt>
      <trkpt lat="45.84721" lon="4.86166">
        <ele>213.6</ele>
        <time>2019-08-30T06:41:44Z</time>
      </trkpt>
      <trkpt lat="45.84724" lon="4.86168">
        <ele>213.6</ele>
        <time>2019-08-30T06:41:45Z</time>
      </trkpt>
      <trkpt lat="45.84732" lon="4.86168">
        <ele>213.6</ele>
        <time>2019-08-30T06:41:47Z</time>
      </trkpt>
      <trkpt lat="45.84749" lon="4.86161">
        <ele>213.7</ele>
        <time>2019-08-30T06:41:50Z</time>
      </trkpt>
      <trkpt lat="45.84754" lon="4.86159">
        <ele>213.7</ele>
        <time>2019-08-30T06:41:51Z</time>
      </trkpt>
      <trkpt lat="45.84767" lon="4.86155">
        <ele>214.6</ele>
        <time>2019-08-30T06:41:54Z</time>
      </trkpt>
      <trkpt lat="45.84771" lon="4.86157">
        <ele>214.6</ele>
        <time>2019-08-30T06:41:56Z</time>
      </trkpt>
      <trkpt lat="45.84772" lon="4.8616">
        <ele>214.6</ele>
        <time>2019-08-30T06:41:57Z</time>
      </trkpt>
      <trkpt lat="45.8478" lon="4.86178">
        <ele>215.6</ele>
        <time>2019-08-30T06:42:01Z</time>
      </trkpt>
      <trkpt lat="45.84791" lon="4.86212">
        <ele>216.3</ele>
        <time>2019-08-30T06:42:08Z</time>
      </trkpt>
      <trkpt lat="45.84803" lon="4.86248">
        <ele>216.9</ele>
        <time>2019-08-30T06:42:15Z</time>
      </trkpt>
      <trkpt lat="45.84811" lon="4.86279">
        <ele>217.3</ele>
        <time>2019-08-30T06:42:21Z</time>
      </trkpt>
      <trkpt lat="45.84812" lon="4.86285">
        <ele>217.3</ele>
        <time>2019-08-30T06:42:22Z</time>
      </trkpt>
      <trkpt lat="45.84816" lon="4.86308">
        <ele>217.7</ele>
        <time>2019-08-30T06:42:26Z</time>
      </trkpt>
      <trkpt lat="45.84819" lon="4.86326">
        <ele>217.9</ele>
        <time>2019-08-30T06:42:29Z</time>
      </trkpt>
      <trkpt lat="45.8482" lon="4.86332">
        <ele>217.9</ele>
        <time>2019-08-30T06:42:30Z</time>
      </trkpt>
      <trkpt lat="45.84829" lon="4.86374">
        <ele>218.5</ele>
        <time>2019-08-30T06:42:37Z</time>
      </trkpt>
      <trkpt lat="45.84832" lon="4.86385">
        <ele>218.6</ele>
        <time>2019-08-30T06:42:39Z</time>
      </trkpt>
      <trkpt lat="45.84834" lon="4.8639">
        <ele>218.7</ele>
        <time>2019-08-30T06:42:40Z</time>
      </trkpt>
      <trkpt lat="45.84843" lon="4.86403">
        <ele>218.9</ele>
        <time>2019-08-30T06:42:43Z</time>
      </trkpt>
      <trkpt lat="45.84846" lon="4.86408">
        <ele>219</ele>
        <time>2019-08-30T06:42:44Z</time>
      </trkpt>
      <trkpt lat="45.84849" lon="4.86412">
        <ele>219.1</ele>
        <time>2019-08-30T06:42:45Z</time>
      </trkpt>
      <trkpt lat="45.8486" lon="4.86421">
        <ele>219.3</ele>
        <time>2019-08-30T06:42:48Z</time>
      </trkpt>
      <trkpt lat="45.84871" lon="4.86427">
        <ele>219.6</ele>
        <time>2019-08-30T06:42:51Z</time>
      </trkpt>
      <trkpt lat="45.84884" lon="4.86429">
        <ele>219.2</ele>
        <time>2019-08-30T06:42:55Z</time>
      </trkpt>
      <trkpt lat="45.84885" lon="4.8643">
        <ele>219.2</ele>
        <time>2019-08-30T06:42:56Z</time>
      </trkpt>
      <trkpt lat="45.84889" lon="4.8644">
        <ele>219.4</ele>
        <time>2019-08-30T06:43:00Z</time>
      </trkpt>
      <trkpt lat="45.84903" lon="4.86454">
        <ele>220</ele>
        <time>2019-08-30T06:43:05Z</time>
      </trkpt>
      <trkpt lat="45.84907" lon="4.86456">
        <ele>220.1</ele>
        <time>2019-08-30T06:43:06Z</time>
      </trkpt>
      <trkpt lat="45.84914" lon="4.86458">
        <ele>220.3</ele>
        <time>2019-08-30T06:43:09Z</time>
      </trkpt>
      <trkpt lat="45.84913" lon="4.86456">
        <ele>220.4</ele>
        <time>2019-08-30T06:43:10Z</time>
      </trkpt>
      <trkpt lat="45.84904" lon="4.86452">
        <ele>220</ele>
        <time>2019-08-30T06:43:14Z</time>
      </trkpt>
      <trkpt lat="45.84898" lon="4.86449">
        <ele>219.8</ele>
        <time>2019-08-30T06:43:16Z</time>
      </trkpt>
      <trkpt lat="45.84886" lon="4.86445">
        <ele>219.4</ele>
        <time>2019-08-30T06:43:19Z</time>
      </trkpt>
      <trkpt lat="45.84881" lon="4.86444">
        <ele>219.2</ele>
        <time>2019-08-30T06:43:20Z</time>
      </trkpt>
      <trkpt lat="45.84853" lon="4.86445">
        <ele>218.5</ele>
        <time>2019-08-30T06:43:27Z</time>
      </trkpt>
      <trkpt lat="45.84851" lon="4.86449">
        <ele>218.4</ele>
        <time>2019-08-30T06:43:28Z</time>
      </trkpt>
      <trkpt lat="45.84848" lon="4.86456">
        <ele>218.7</ele>
        <time>2019-08-30T06:43:30Z</time>
      </trkpt>
      <trkpt lat="45.84841" lon="4.8648">
        <ele>220.6</ele>
        <time>2019-08-30T06:43:35Z</time>
      </trkpt>
      <trkpt lat="45.84837" lon="4.86487">
        <ele>221.1</ele>
        <time>2019-08-30T06:43:37Z</time>
      </trkpt>
      <trkpt lat="45.84834" lon="4.86495">
        <ele>222.1</ele>
        <time>2019-08-30T06:43:39Z</time>
      </trkpt>
      <trkpt lat="45.84835" lon="4.86499">
        <ele>222.3</ele>
        <time>2019-08-30T06:43:40Z</time>
      </trkpt>
      <trkpt lat="45.84833" lon="4.86518">
        <ele>223.5</ele>
        <time>2019-08-30T06:43:44Z</time>
      </trkpt>
      <trkpt lat="45.84825" lon="4.86528">
        <ele>225.3</ele>
        <time>2019-08-30T06:43:48Z</time>
      </trkpt>
      <trkpt lat="45.84816" lon="4.86539">
        <ele>226.8</ele>
        <time>2019-08-30T06:43:53Z</time>
      </trkpt>
      <trkpt lat="45.84811" lon="4.86543">
        <ele>227.9</ele>
        <time>2019-08-30T06:43:57Z</time>
      </trkpt>
      <trkpt lat="45.84811" lon="4.86557">
        <ele>229.1</ele>
        <time>2019-08-30T06:44:10Z</time>
      </trkpt>
      <trkpt lat="45.84813" lon="4.86568">
        <ele>230.3</ele>
        <time>2019-08-30T06:44:16Z</time>
      </trkpt>
      <trkpt lat="45.84815" lon="4.86573">
        <ele>230.5</ele>
        <time>2019-08-30T06:44:18Z</time>
      </trkpt>
      <trkpt lat="45.8482" lon="4.86587">
        <ele>232.3</ele>
        <time>2019-08-30T06:44:22Z</time>
      </trkpt>
      <trkpt lat="45.84825" lon="4.86597">
        <ele>232.7</ele>
        <time>2019-08-30T06:44:24Z</time>
      </trkpt>
      <trkpt lat="45.84828" lon="4.86601">
        <ele>233</ele>
        <time>2019-08-30T06:44:25Z</time>
      </trkpt>
      <trkpt lat="45.84834" lon="4.86611">
        <ele>233.5</ele>
        <time>2019-08-30T06:44:28Z</time>
      </trkpt>
      <trkpt lat="45.84838" lon="4.86618">
        <ele>234.3</ele>
        <time>2019-08-30T06:44:30Z</time>
      </trkpt>
      <trkpt lat="45.84842" lon="4.86625">
        <ele>234.1</ele>
        <time>2019-08-30T06:44:32Z</time>
      </trkpt>
      <trkpt lat="45.84858" lon="4.8664">
        <ele>234.7</ele>
        <time>2019-08-30T06:44:36Z</time>
      </trkpt>
      <trkpt lat="45.84867" lon="4.86647">
        <ele>234.9</ele>
        <time>2019-08-30T06:44:38Z</time>
      </trkpt>
      <trkpt lat="45.84881" lon="4.86657">
        <ele>234.2</ele>
        <time>2019-08-30T06:44:42Z</time>
      </trkpt>
      <trkpt lat="45.84896" lon="4.86676">
        <ele>234.1</ele>
        <time>2019-08-30T06:44:47Z</time>
      </trkpt>
      <trkpt lat="45.84899" lon="4.8668">
        <ele>234.2</ele>
        <time>2019-08-30T06:44:48Z</time>
      </trkpt>
      <trkpt lat="45.84905" lon="4.86692">
        <ele>235.2</ele>
        <time>2019-08-30T06:44:51Z</time>
      </trkpt>
      <trkpt lat="45.84909" lon="4.86698">
        <ele>235.8</ele>
        <time>2019-08-30T06:44:53Z</time>
      </trkpt>
      <trkpt lat="45.84921" lon="4.86712">
        <ele>235.8</ele>
        <time>2019-08-30T06:44:58Z</time>
      </trkpt>
      <trkpt lat="45.84928" lon="4.86716">
        <ele>234.6</ele>
        <time>2019-08-30T06:45:01Z</time>
      </trkpt>
      <trkpt lat="45.84936" lon="4.86722">
        <ele>234</ele>
        <time>2019-08-30T06:45:04Z</time>
      </trkpt>
      <trkpt lat="45.84944" lon="4.8673">
        <ele>233.3</ele>
        <time>2019-08-30T06:45:08Z</time>
      </trkpt>
      <trkpt lat="45.84945" lon="4.86732">
        <ele>233.3</ele>
        <time>2019-08-30T06:45:09Z</time>
      </trkpt>
      <trkpt lat="45.84951" lon="4.86739">
        <ele>233.1</ele>
        <time>2019-08-30T06:45:12Z</time>
      </trkpt>
      <trkpt lat="45.84958" lon="4.8675">
        <ele>232.8</ele>
        <time>2019-08-30T06:45:15Z</time>
      </trkpt>
      <trkpt lat="45.84962" lon="4.86758">
        <ele>232.8</ele>
        <time>2019-08-30T06:45:17Z</time>
      </trkpt>
      <trkpt lat="45.84966" lon="4.86764">
        <ele>233.2</ele>
        <time>2019-08-30T06:45:19Z</time>
      </trkpt>
      <trkpt lat="45.8497" lon="4.86768">
        <ele>232.7</ele>
        <time>2019-08-30T06:45:21Z</time>
      </trkpt>
      <trkpt lat="45.84979" lon="4.86772">
        <ele>232.2</ele>
        <time>2019-08-30T06:45:24Z</time>
      </trkpt>
      <trkpt lat="45.84986" lon="4.86776">
        <ele>230.9</ele>
        <time>2019-08-30T06:45:27Z</time>
      </trkpt>
      <trkpt lat="45.84992" lon="4.8678">
        <ele>230.4</ele>
        <time>2019-08-30T06:45:29Z</time>
      </trkpt>
      <trkpt lat="45.84998" lon="4.86783">
        <ele>229.8</ele>
        <time>2019-08-30T06:45:31Z</time>
      </trkpt>
      <trkpt lat="45.85004" lon="4.86785">
        <ele>229.2</ele>
        <time>2019-08-30T06:45:33Z</time>
      </trkpt>
      <trkpt lat="45.85011" lon="4.86792">
        <ele>228.8</ele>
        <time>2019-08-30T06:45:36Z</time>
      </trkpt>
      <trkpt lat="45.85013" lon="4.86796">
        <ele>228.8</ele>
        <time>2019-08-30T06:45:37Z</time>
      </trkpt>
      <trkpt lat="45.85026" lon="4.86817">
        <ele>230.1</ele>
        <time>2019-08-30T06:45:42Z</time>
      </trkpt>
      <trkpt lat="45.85031" lon="4.86823">
        <ele>230.2</ele>
        <time>2019-08-30T06:45:44Z</time>
      </trkpt>
      <trkpt lat="45.85048" lon="4.86837">
        <ele>231.2</ele>
        <time>2019-08-30T06:45:50Z</time>
      </trkpt>
      <trkpt lat="45.85063" lon="4.86839">
        <ele>230.6</ele>
        <time>2019-08-30T06:45:54Z</time>
      </trkpt>
      <trkpt lat="45.85069" lon="4.86838">
        <ele>230.5</ele>
        <time>2019-08-30T06:45:55Z</time>
      </trkpt>
      <trkpt lat="45.85074" lon="4.86836">
        <ele>230.4</ele>
        <time>2019-08-30T06:45:56Z</time>
      </trkpt>
      <trkpt lat="45.85084" lon="4.86834">
        <ele>229.8</ele>
        <time>2019-08-30T06:45:58Z</time>
      </trkpt>
      <trkpt lat="45.85088" lon="4.86834">
        <ele>229.8</ele>
        <time>2019-08-30T06:45:59Z</time>
      </trkpt>
      <trkpt lat="45.8511" lon="4.86844">
        <ele>230.5</ele>
        <time>2019-08-30T06:46:04Z</time>
      </trkpt>
      <trkpt lat="45.85111" lon="4.86847">
        <ele>230.7</ele>
        <time>2019-08-30T06:46:05Z</time>
      </trkpt>
      <trkpt lat="45.85114" lon="4.86855">
        <ele>231</ele>
        <time>2019-08-30T06:46:07Z</time>
      </trkpt>
      <trkpt lat="45.8512" lon="4.86869">
        <ele>231.3</ele>
        <time>2019-08-30T06:46:11Z</time>
      </trkpt>
      <trkpt lat="45.85123" lon="4.86874">
        <ele>231.4</ele>
        <time>2019-08-30T06:46:13Z</time>
      </trkpt>
      <trkpt lat="45.85127" lon="4.86886">
        <ele>231.5</ele>
        <time>2019-08-30T06:46:17Z</time>
      </trkpt>
      <trkpt lat="45.85132" lon="4.86901">
        <ele>231.9</ele>
        <time>2019-08-30T06:46:21Z</time>
      </trkpt>
      <trkpt lat="45.85135" lon="4.8691">
        <ele>232.2</ele>
        <time>2019-08-30T06:46:23Z</time>
      </trkpt>
      <trkpt lat="45.85139" lon="4.86923">
        <ele>232.7</ele>
        <time>2019-08-30T06:46:27Z</time>
      </trkpt>
      <trkpt lat="45.85141" lon="4.86928">
        <ele>232.9</ele>
        <time>2019-08-30T06:46:29Z</time>
      </trkpt>
      <trkpt lat="45.85146" lon="4.86928">
        <ele>233.1</ele>
        <time>2019-08-30T06:46:31Z</time>
      </trkpt>
      <trkpt lat="45.85159" lon="4.86925">
        <ele>233.7</ele>
        <time>2019-08-30T06:46:35Z</time>
      </trkpt>
      <trkpt lat="45.85171" lon="4.86936">
        <ele>234.3</ele>
        <time>2019-08-30T06:46:39Z</time>
      </trkpt>
      <trkpt lat="45.85189" lon="4.86965">
        <ele>235</ele>
        <time>2019-08-30T06:46:46Z</time>
      </trkpt>
      <trkpt lat="45.85205" lon="4.86995">
        <ele>235.2</ele>
        <time>2019-08-30T06:46:53Z</time>
      </trkpt>
      <trkpt lat="45.85212" lon="4.87013">
        <ele>235.2</ele>
        <time>2019-08-30T06:46:57Z</time>
      </trkpt>
      <trkpt lat="45.85218" lon="4.87024">
        <ele>235.4</ele>
        <time>2019-08-30T06:47:00Z</time>
      </trkpt>
      <trkpt lat="45.85229" lon="4.87025">
        <ele>236.3</ele>
        <time>2019-08-30T06:47:04Z</time>
      </trkpt>
      <trkpt lat="45.85233" lon="4.87025">
        <ele>236.8</ele>
        <time>2019-08-30T06:47:05Z</time>
      </trkpt>
      <trkpt lat="45.85249" lon="4.87023">
        <ele>238.3</ele>
        <time>2019-08-30T06:47:09Z</time>
      </trkpt>
      <trkpt lat="45.8526" lon="4.87021">
        <ele>239.2</ele>
        <time>2019-08-30T06:47:12Z</time>
      </trkpt>
      <trkpt lat="45.85275" lon="4.87015">
        <ele>241</ele>
        <time>2019-08-30T06:47:17Z</time>
      </trkpt>
      <trkpt lat="45.85278" lon="4.87016">
        <ele>241.3</ele>
        <time>2019-08-30T06:47:20Z</time>
      </trkpt>
      <trkpt lat="45.85286" lon="4.87012">
        <ele>242.2</ele>
        <time>2019-08-30T06:47:24Z</time>
      </trkpt>
      <trkpt lat="45.85289" lon="4.87012">
        <ele>242.5</ele>
        <time>2019-08-30T06:47:25Z</time>
      </trkpt>
      <trkpt lat="45.85291" lon="4.87011">
        <ele>242.7</ele>
        <time>2019-08-30T06:47:26Z</time>
      </trkpt>
      <trkpt lat="45.853" lon="4.87009">
        <ele>243.7</ele>
        <time>2019-08-30T06:47:30Z</time>
      </trkpt>
      <trkpt lat="45.85303" lon="4.87007">
        <ele>244.1</ele>
        <time>2019-08-30T06:47:32Z</time>
      </trkpt>
      <trkpt lat="45.85303" lon="4.87004">
        <ele>244.2</ele>
        <time>2019-08-30T06:47:33Z</time>
      </trkpt>
      <trkpt lat="45.85305" lon="4.86997">
        <ele>245.1</ele>
        <time>2019-08-30T06:47:36Z</time>
      </trkpt>
      <trkpt lat="45.85305" lon="4.86994">
        <ele>245.3</ele>
        <time>2019-08-30T06:47:37Z</time>
      </trkpt>
      <trkpt lat="45.85305" lon="4.86987">
        <ele>245.8</ele>
        <time>2019-08-30T06:47:40Z</time>
      </trkpt>
      <trkpt lat="45.85305" lon="4.86979">
        <ele>246.4</ele>
        <time>2019-08-30T06:47:43Z</time>
      </trkpt>
      <trkpt lat="45.85306" lon="4.86973">
        <ele>246.8</ele>
        <time>2019-08-30T06:47:45Z</time>
      </trkpt>
      <trkpt lat="45.85306" lon="4.8697">
        <ele>247</ele>
        <time>2019-08-30T06:47:46Z</time>
      </trkpt>
      <trkpt lat="45.85306" lon="4.86956">
        <ele>247.9</ele>
        <time>2019-08-30T06:47:51Z</time>
      </trkpt>
      <trkpt lat="45.85306" lon="4.86954">
        <ele>248</ele>
        <time>2019-08-30T06:47:52Z</time>
      </trkpt>
      <trkpt lat="45.85306" lon="4.86951">
        <ele>248.2</ele>
        <time>2019-08-30T06:47:53Z</time>
      </trkpt>
      <trkpt lat="45.85306" lon="4.86945">
        <ele>248.5</ele>
        <time>2019-08-30T06:47:55Z</time>
      </trkpt>
      <trkpt lat="45.85306" lon="4.8694">
        <ele>248.8</ele>
        <time>2019-08-30T06:47:57Z</time>
      </trkpt>
      <trkpt lat="45.85306" lon="4.86935">
        <ele>249.1</ele>
        <time>2019-08-30T06:47:59Z</time>
      </trkpt>
      <trkpt lat="45.85306" lon="4.86932">
        <ele>249.2</ele>
        <time>2019-08-30T06:48:00Z</time>
      </trkpt>
      <trkpt lat="45.85306" lon="4.8693">
        <ele>249.3</ele>
        <time>2019-08-30T06:48:01Z</time>
      </trkpt>
      <trkpt lat="45.85308" lon="4.86923">
        <ele>249.6</ele>
        <time>2019-08-30T06:48:04Z</time>
      </trkpt>
      <trkpt lat="45.8531" lon="4.86918">
        <ele>249.9</ele>
        <time>2019-08-30T06:48:07Z</time>
      </trkpt>
      <trkpt lat="45.85314" lon="4.86907">
        <ele>250.5</ele>
        <time>2019-08-30T06:48:13Z</time>
      </trkpt>
      <trkpt lat="45.85318" lon="4.86898">
        <ele>251</ele>
        <time>2019-08-30T06:48:17Z</time>
      </trkpt>
      <trkpt lat="45.85319" lon="4.86897">
        <ele>251.1</ele>
        <time>2019-08-30T06:48:18Z</time>
      </trkpt>
      <trkpt lat="45.85325" lon="4.86885">
        <ele>251.6</ele>
        <time>2019-08-30T06:48:25Z</time>
      </trkpt>
      <trkpt lat="45.8533" lon="4.86875">
        <ele>251.9</ele>
        <time>2019-08-30T06:48:30Z</time>
      </trkpt>
      <trkpt lat="45.85333" lon="4.86867">
        <ele>252.1</ele>
        <time>2019-08-30T06:48:34Z</time>
      </trkpt>
      <trkpt lat="45.85335" lon="4.86861">
        <ele>252.2</ele>
        <time>2019-08-30T06:48:38Z</time>
      </trkpt>
      <trkpt lat="45.85336" lon="4.86851">
        <ele>252.3</ele>
        <time>2019-08-30T06:48:44Z</time>
      </trkpt>
      <trkpt lat="45.85336" lon="4.86849">
        <ele>252.3</ele>
        <time>2019-08-30T06:48:45Z</time>
      </trkpt>
      <trkpt lat="45.85338" lon="4.86846">
        <ele>252.3</ele>
        <time>2019-08-30T06:48:47Z</time>
      </trkpt>
      <trkpt lat="45.85341" lon="4.86839">
        <ele>252.4</ele>
        <time>2019-08-30T06:48:51Z</time>
      </trkpt>
      <trkpt lat="45.85341" lon="4.86837">
        <ele>252.3</ele>
        <time>2019-08-30T06:48:52Z</time>
      </trkpt>
      <trkpt lat="45.85342" lon="4.86828">
        <ele>252.3</ele>
        <time>2019-08-30T06:48:57Z</time>
      </trkpt>
      <trkpt lat="45.8534" lon="4.86812">
        <ele>252.2</ele>
        <time>2019-08-30T06:49:02Z</time>
      </trkpt>
      <trkpt lat="45.85343" lon="4.86803">
        <ele>252.5</ele>
        <time>2019-08-30T06:49:05Z</time>
      </trkpt>
      <trkpt lat="45.85345" lon="4.86801">
        <ele>252.7</ele>
        <time>2019-08-30T06:49:06Z</time>
      </trkpt>
      <trkpt lat="45.85349" lon="4.86799">
        <ele>253.1</ele>
        <time>2019-08-30T06:49:08Z</time>
      </trkpt>
      <trkpt lat="45.85363" lon="4.86793">
        <ele>254.2</ele>
        <time>2019-08-30T06:49:15Z</time>
      </trkpt>
      <trkpt lat="45.85381" lon="4.86783">
        <ele>254.9</ele>
        <time>2019-08-30T06:49:22Z</time>
      </trkpt>
      <trkpt lat="45.8539" lon="4.86785">
        <ele>255.4</ele>
        <time>2019-08-30T06:49:26Z</time>
      </trkpt>
      <trkpt lat="45.85392" lon="4.86789">
        <ele>255.6</ele>
        <time>2019-08-30T06:49:27Z</time>
      </trkpt>
      <trkpt lat="45.85399" lon="4.86801">
        <ele>256.4</ele>
        <time>2019-08-30T06:49:30Z</time>
      </trkpt>
      <trkpt lat="45.85409" lon="4.86804">
        <ele>256.4</ele>
        <time>2019-08-30T06:49:33Z</time>
      </trkpt>
      <trkpt lat="45.85416" lon="4.86803">
        <ele>256.4</ele>
        <time>2019-08-30T06:49:35Z</time>
      </trkpt>
      <trkpt lat="45.8543" lon="4.86801">
        <ele>256.4</ele>
        <time>2019-08-30T06:49:39Z</time>
      </trkpt>
      <trkpt lat="45.85459" lon="4.86796">
        <ele>255.8</ele>
        <time>2019-08-30T06:49:46Z</time>
      </trkpt>
      <trkpt lat="45.85468" lon="4.86791">
        <ele>255.6</ele>
        <time>2019-08-30T06:49:48Z</time>
      </trkpt>
      <trkpt lat="45.85481" lon="4.86778">
        <ele>255.1</ele>
        <time>2019-08-30T06:49:51Z</time>
      </trkpt>
      <trkpt lat="45.85521" lon="4.8674">
        <ele>252.9</ele>
        <time>2019-08-30T06:49:59Z</time>
      </trkpt>
      <trkpt lat="45.85537" lon="4.86726">
        <ele>252.4</ele>
        <time>2019-08-30T06:50:02Z</time>
      </trkpt>
      <trkpt lat="45.85557" lon="4.86715">
        <ele>251.8</ele>
        <time>2019-08-30T06:50:06Z</time>
      </trkpt>
      <trkpt lat="45.85566" lon="4.86709">
        <ele>251.7</ele>
        <time>2019-08-30T06:50:08Z</time>
      </trkpt>
      <trkpt lat="45.85584" lon="4.86693">
        <ele>251.3</ele>
        <time>2019-08-30T06:50:12Z</time>
      </trkpt>
      <trkpt lat="45.85594" lon="4.86686">
        <ele>251</ele>
        <time>2019-08-30T06:50:14Z</time>
      </trkpt>
      <trkpt lat="45.85625" lon="4.86661">
        <ele>250</ele>
        <time>2019-08-30T06:50:20Z</time>
      </trkpt>
      <trkpt lat="45.85636" lon="4.86653">
        <ele>249.5</ele>
        <time>2019-08-30T06:50:22Z</time>
      </trkpt>
      <trkpt lat="45.85677" lon="4.8663">
        <ele>246.8</ele>
        <time>2019-08-30T06:50:28Z</time>
      </trkpt>
      <trkpt lat="45.85685" lon="4.86626">
        <ele>246.3</ele>
        <time>2019-08-30T06:50:29Z</time>
      </trkpt>
      <trkpt lat="45.85717" lon="4.86612">
        <ele>244.7</ele>
        <time>2019-08-30T06:50:33Z</time>
      </trkpt>
      <trkpt lat="45.85742" lon="4.86601">
        <ele>243.6</ele>
        <time>2019-08-30T06:50:36Z</time>
      </trkpt>
      <trkpt lat="45.85766" lon="4.86589">
        <ele>242.4</ele>
        <time>2019-08-30T06:50:39Z</time>
      </trkpt>
      <trkpt lat="45.85786" lon="4.86572">
        <ele>241.2</ele>
        <time>2019-08-30T06:50:42Z</time>
      </trkpt>
      <trkpt lat="45.85803" lon="4.86547">
        <ele>240.4</ele>
        <time>2019-08-30T06:50:45Z</time>
      </trkpt>
      <trkpt lat="45.85809" lon="4.8654">
        <ele>240.5</ele>
        <time>2019-08-30T06:50:46Z</time>
      </trkpt>
      <trkpt lat="45.85815" lon="4.86534">
        <ele>240.5</ele>
        <time>2019-08-30T06:50:47Z</time>
      </trkpt>
      <trkpt lat="45.85822" lon="4.86528">
        <ele>240.6</ele>
        <time>2019-08-30T06:50:48Z</time>
      </trkpt>
      <trkpt lat="45.85836" lon="4.8652">
        <ele>240.6</ele>
        <time>2019-08-30T06:50:50Z</time>
      </trkpt>
      <trkpt lat="45.85842" lon="4.86518">
        <ele>240.6</ele>
        <time>2019-08-30T06:50:51Z</time>
      </trkpt>
      <trkpt lat="45.85855" lon="4.86515">
        <ele>240.3</ele>
        <time>2019-08-30T06:50:53Z</time>
      </trkpt>
      <trkpt lat="45.8586" lon="4.86517">
        <ele>240.1</ele>
        <time>2019-08-30T06:50:54Z</time>
      </trkpt>
      <trkpt lat="45.85871" lon="4.86531">
        <ele>239.4</ele>
        <time>2019-08-30T06:50:57Z</time>
      </trkpt>
      <trkpt lat="45.85885" lon="4.86544">
        <ele>239.2</ele>
        <time>2019-08-30T06:51:00Z</time>
      </trkpt>
      <trkpt lat="45.85894" lon="4.86543">
        <ele>239.1</ele>
        <time>2019-08-30T06:51:02Z</time>
      </trkpt>
      <trkpt lat="45.85905" lon="4.86539">
        <ele>239.8</ele>
        <time>2019-08-30T06:51:05Z</time>
      </trkpt>
      <trkpt lat="45.8592" lon="4.86531">
        <ele>240.5</ele>
        <time>2019-08-30T06:51:10Z</time>
      </trkpt>
      <trkpt lat="45.85935" lon="4.86528">
        <ele>241.5</ele>
        <time>2019-08-30T06:51:16Z</time>
      </trkpt>
      <trkpt lat="45.85943" lon="4.86525">
        <ele>242.2</ele>
        <time>2019-08-30T06:51:20Z</time>
      </trkpt>
      <trkpt lat="45.85947" lon="4.86522">
        <ele>242.6</ele>
        <time>2019-08-30T06:51:22Z</time>
      </trkpt>
      <trkpt lat="45.85957" lon="4.86517">
        <ele>243.7</ele>
        <time>2019-08-30T06:51:27Z</time>
      </trkpt>
      <trkpt lat="45.85958" lon="4.86515">
        <ele>244</ele>
        <time>2019-08-30T06:51:28Z</time>
      </trkpt>
      <trkpt lat="45.85964" lon="4.8651">
        <ele>244.8</ele>
        <time>2019-08-30T06:51:32Z</time>
      </trkpt>
      <trkpt lat="45.85969" lon="4.86509">
        <ele>245.7</ele>
        <time>2019-08-30T06:51:35Z</time>
      </trkpt>
      <trkpt lat="45.85972" lon="4.86507">
        <ele>246.4</ele>
        <time>2019-08-30T06:51:37Z</time>
      </trkpt>
      <trkpt lat="45.85974" lon="4.86505">
        <ele>246.7</ele>
        <time>2019-08-30T06:51:38Z</time>
      </trkpt>
      <trkpt lat="45.85976" lon="4.86502">
        <ele>247.4</ele>
        <time>2019-08-30T06:51:40Z</time>
      </trkpt>
      <trkpt lat="45.8598" lon="4.86496">
        <ele>248.6</ele>
        <time>2019-08-30T06:51:43Z</time>
      </trkpt>
      <trkpt lat="45.8598" lon="4.86489">
        <ele>249.8</ele>
        <time>2019-08-30T06:51:47Z</time>
      </trkpt>
      <trkpt lat="45.85979" lon="4.86488">
        <ele>250.1</ele>
        <time>2019-08-30T06:51:48Z</time>
      </trkpt>
      <trkpt lat="45.85971" lon="4.86483">
        <ele>250.3</ele>
        <time>2019-08-30T06:51:52Z</time>
      </trkpt>
      <trkpt lat="45.85957" lon="4.86473">
        <ele>249.5</ele>
        <time>2019-08-30T06:51:58Z</time>
      </trkpt>
      <trkpt lat="45.8595" lon="4.8646">
        <ele>248.8</ele>
        <time>2019-08-30T06:52:02Z</time>
      </trkpt>
      <trkpt lat="45.85949" lon="4.86454">
        <ele>248.6</ele>
        <time>2019-08-30T06:52:03Z</time>
      </trkpt>
      <trkpt lat="45.85948" lon="4.8644">
        <ele>248.3</ele>
        <time>2019-08-30T06:52:06Z</time>
      </trkpt>
      <trkpt lat="45.85941" lon="4.86423">
        <ele>248.2</ele>
        <time>2019-08-30T06:52:10Z</time>
      </trkpt>
      <trkpt lat="45.85937" lon="4.86415">
        <ele>248.2</ele>
        <time>2019-08-30T06:52:12Z</time>
      </trkpt>
      <trkpt lat="45.85932" lon="4.86412">
        <ele>248.2</ele>
        <time>2019-08-30T06:52:15Z</time>
      </trkpt>
      <trkpt lat="45.85928" lon="4.8641">
        <ele>248.1</ele>
        <time>2019-08-30T06:52:20Z</time>
      </trkpt>
      <trkpt lat="45.85923" lon="4.86406">
        <ele>248.1</ele>
        <time>2019-08-30T06:52:23Z</time>
      </trkpt>
      <trkpt lat="45.85911" lon="4.86393">
        <ele>247.7</ele>
        <time>2019-08-30T06:52:32Z</time>
      </trkpt>
      <trkpt lat="45.85902" lon="4.86388">
        <ele>247.4</ele>
        <time>2019-08-30T06:52:35Z</time>
      </trkpt>
      <trkpt lat="45.85896" lon="4.86386">
        <ele>247</ele>
        <time>2019-08-30T06:52:37Z</time>
      </trkpt>
      <trkpt lat="45.85892" lon="4.86385">
        <ele>246.7</ele>
        <time>2019-08-30T06:52:39Z</time>
      </trkpt>
      <trkpt lat="45.85889" lon="4.86384">
        <ele>246.3</ele>
        <time>2019-08-30T06:52:41Z</time>
      </trkpt>
      <trkpt lat="45.85885" lon="4.86379">
        <ele>245.7</ele>
        <time>2019-08-30T06:52:42Z</time>
      </trkpt>
      <trkpt lat="45.85882" lon="4.86374">
        <ele>245.2</ele>
        <time>2019-08-30T06:52:43Z</time>
      </trkpt>
      <trkpt lat="45.85875" lon="4.86361">
        <ele>244.1</ele>
        <time>2019-08-30T06:52:45Z</time>
      </trkpt>
      <trkpt lat="45.85871" lon="4.86354">
        <ele>243.2</ele>
        <time>2019-08-30T06:52:46Z</time>
      </trkpt>
      <trkpt lat="45.85866" lon="4.8634">
        <ele>241.8</ele>
        <time>2019-08-30T06:52:48Z</time>
      </trkpt>
      <trkpt lat="45.85864" lon="4.86332">
        <ele>241.2</ele>
        <time>2019-08-30T06:52:49Z</time>
      </trkpt>
      <trkpt lat="45.85861" lon="4.86315">
        <ele>240.4</ele>
        <time>2019-08-30T06:52:51Z</time>
      </trkpt>
      <trkpt lat="45.85857" lon="4.86298">
        <ele>239.8</ele>
        <time>2019-08-30T06:52:53Z</time>
      </trkpt>
      <trkpt lat="45.85855" lon="4.8629">
        <ele>239.6</ele>
        <time>2019-08-30T06:52:54Z</time>
      </trkpt>
      <trkpt lat="45.85845" lon="4.86257">
        <ele>238.6</ele>
        <time>2019-08-30T06:52:58Z</time>
      </trkpt>
      <trkpt lat="45.85843" lon="4.86251">
        <ele>238.4</ele>
        <time>2019-08-30T06:52:59Z</time>
      </trkpt>
      <trkpt lat="45.8584" lon="4.86245">
        <ele>238.2</ele>
        <time>2019-08-30T06:53:00Z</time>
      </trkpt>
      <trkpt lat="45.85832" lon="4.86233">
        <ele>237.9</ele>
        <time>2019-08-30T06:53:03Z</time>
      </trkpt>
      <trkpt lat="45.85832" lon="4.86227">
        <ele>237.8</ele>
        <time>2019-08-30T06:53:04Z</time>
      </trkpt>
      <trkpt lat="45.85833" lon="4.86215">
        <ele>237.6</ele>
        <time>2019-08-30T06:53:06Z</time>
      </trkpt>
      <trkpt lat="45.85834" lon="4.86211">
        <ele>237.6</ele>
        <time>2019-08-30T06:53:07Z</time>
      </trkpt>
      <trkpt lat="45.8584" lon="4.86207">
        <ele>237.6</ele>
        <time>2019-08-30T06:53:09Z</time>
      </trkpt>
      <trkpt lat="45.85845" lon="4.86206">
        <ele>237.6</ele>
        <time>2019-08-30T06:53:11Z</time>
      </trkpt>
      <trkpt lat="45.85849" lon="4.86203">
        <ele>237.7</ele>
        <time>2019-08-30T06:53:13Z</time>
      </trkpt>
      <trkpt lat="45.85857" lon="4.86187">
        <ele>237.9</ele>
        <time>2019-08-30T06:53:18Z</time>
      </trkpt>
      <trkpt lat="45.85857" lon="4.86182">
        <ele>238</ele>
        <time>2019-08-30T06:53:19Z</time>
      </trkpt>
      <trkpt lat="45.85856" lon="4.86164">
        <ele>238</ele>
        <time>2019-08-30T06:53:22Z</time>
      </trkpt>
      <trkpt lat="45.85857" lon="4.8616">
        <ele>238</ele>
        <time>2019-08-30T06:53:23Z</time>
      </trkpt>
      <trkpt lat="45.85857" lon="4.86147">
        <ele>237.9</ele>
        <time>2019-08-30T06:53:26Z</time>
      </trkpt>
      <trkpt lat="45.85856" lon="4.86143">
        <ele>237.9</ele>
        <time>2019-08-30T06:53:27Z</time>
      </trkpt>
      <trkpt lat="45.85854" lon="4.86133">
        <ele>237.7</ele>
        <time>2019-08-30T06:53:29Z</time>
      </trkpt>
      <trkpt lat="45.85855" lon="4.86123">
        <ele>237.4</ele>
        <time>2019-08-30T06:53:30Z</time>
      </trkpt>
      <trkpt lat="45.85856" lon="4.86089">
        <ele>236.8</ele>
        <time>2019-08-30T06:53:34Z</time>
      </trkpt>
      <trkpt lat="45.85858" lon="4.86074">
        <ele>236.6</ele>
        <time>2019-08-30T06:53:36Z</time>
      </trkpt>
      <trkpt lat="45.85858" lon="4.86066">
        <ele>236.5</ele>
        <time>2019-08-30T06:53:37Z</time>
      </trkpt>
      <trkpt lat="45.85853" lon="4.86044">
        <ele>236</ele>
        <time>2019-08-30T06:53:40Z</time>
      </trkpt>
      <trkpt lat="45.85847" lon="4.86028">
        <ele>235.5</ele>
        <time>2019-08-30T06:53:43Z</time>
      </trkpt>
      <trkpt lat="45.85846" lon="4.86024">
        <ele>235.5</ele>
        <time>2019-08-30T06:53:44Z</time>
      </trkpt>
      <trkpt lat="45.8584" lon="4.86006">
        <ele>235.2</ele>
        <time>2019-08-30T06:53:48Z</time>
      </trkpt>
      <trkpt lat="45.85839" lon="4.85996">
        <ele>235.1</ele>
        <time>2019-08-30T06:53:50Z</time>
      </trkpt>
      <trkpt lat="45.85837" lon="4.85984">
        <ele>234.9</ele>
        <time>2019-08-30T06:53:52Z</time>
      </trkpt>
      <trkpt lat="45.85831" lon="4.85971">
        <ele>234.7</ele>
        <time>2019-08-30T06:53:54Z</time>
      </trkpt>
      <trkpt lat="45.85827" lon="4.85964">
        <ele>234.5</ele>
        <time>2019-08-30T06:53:55Z</time>
      </trkpt>
      <trkpt lat="45.85824" lon="4.85959">
        <ele>234.4</ele>
        <time>2019-08-30T06:53:56Z</time>
      </trkpt>
      <trkpt lat="45.85814" lon="4.85943">
        <ele>233.9</ele>
        <time>2019-08-30T06:54:00Z</time>
      </trkpt>
      <trkpt lat="45.8581" lon="4.85922">
        <ele>233.5</ele>
        <time>2019-08-30T06:54:04Z</time>
      </trkpt>
      <trkpt lat="45.85811" lon="4.859">
        <ele>233.1</ele>
        <time>2019-08-30T06:54:08Z</time>
      </trkpt>
      <trkpt lat="45.85811" lon="4.8589">
        <ele>233</ele>
        <time>2019-08-30T06:54:10Z</time>
      </trkpt>
      <trkpt lat="45.85812" lon="4.8588">
        <ele>232.8</ele>
        <time>2019-08-30T06:54:13Z</time>
      </trkpt>
      <trkpt lat="45.85811" lon="4.85876">
        <ele>232.7</ele>
        <time>2019-08-30T06:54:14Z</time>
      </trkpt>
      <trkpt lat="45.85806" lon="4.85862">
        <ele>232.4</ele>
        <time>2019-08-30T06:54:17Z</time>
      </trkpt>
      <trkpt lat="45.858" lon="4.85846">
        <ele>232.1</ele>
        <time>2019-08-30T06:54:21Z</time>
      </trkpt>
      <trkpt lat="45.85795" lon="4.8583">
        <ele>231.9</ele>
        <time>2019-08-30T06:54:26Z</time>
      </trkpt>
      <trkpt lat="45.85797" lon="4.85827">
        <ele>231.9</ele>
        <time>2019-08-30T06:54:27Z</time>
      </trkpt>
      <trkpt lat="45.85801" lon="4.85817">
        <ele>231.8</ele>
        <time>2019-08-30T06:54:30Z</time>
      </trkpt>
      <trkpt lat="45.85795" lon="4.85799">
        <ele>231.6</ele>
        <time>2019-08-30T06:54:34Z</time>
      </trkpt>
      <trkpt lat="45.85787" lon="4.85785">
        <ele>231.5</ele>
        <time>2019-08-30T06:54:37Z</time>
      </trkpt>
      <trkpt lat="45.85778" lon="4.8577">
        <ele>231.4</ele>
        <time>2019-08-30T06:54:40Z</time>
      </trkpt>
      <trkpt lat="45.85775" lon="4.85764">
        <ele>231.3</ele>
        <time>2019-08-30T06:54:41Z</time>
      </trkpt>
      <trkpt lat="45.85773" lon="4.85758">
        <ele>231.3</ele>
        <time>2019-08-30T06:54:42Z</time>
      </trkpt>
      <trkpt lat="45.85771" lon="4.85746">
        <ele>231.1</ele>
        <time>2019-08-30T06:54:44Z</time>
      </trkpt>
      <trkpt lat="45.85771" lon="4.8574">
        <ele>231</ele>
        <time>2019-08-30T06:54:45Z</time>
      </trkpt>
      <trkpt lat="45.85767" lon="4.85724">
        <ele>230.7</ele>
        <time>2019-08-30T06:54:48Z</time>
      </trkpt>
      <trkpt lat="45.85765" lon="4.85718">
        <ele>230.6</ele>
        <time>2019-08-30T06:54:49Z</time>
      </trkpt>
      <trkpt lat="45.85761" lon="4.85704">
        <ele>230.3</ele>
        <time>2019-08-30T06:54:51Z</time>
      </trkpt>
      <trkpt lat="45.85758" lon="4.85697">
        <ele>230.1</ele>
        <time>2019-08-30T06:54:52Z</time>
      </trkpt>
      <trkpt lat="45.85755" lon="4.8569">
        <ele>230</ele>
        <time>2019-08-30T06:54:53Z</time>
      </trkpt>
      <trkpt lat="45.85752" lon="4.85667">
        <ele>229.7</ele>
        <time>2019-08-30T06:54:57Z</time>
      </trkpt>
      <trkpt lat="45.85752" lon="4.85661">
        <ele>229.6</ele>
        <time>2019-08-30T06:54:58Z</time>
      </trkpt>
      <trkpt lat="45.85747" lon="4.85638">
        <ele>229.1</ele>
        <time>2019-08-30T06:55:02Z</time>
      </trkpt>
      <trkpt lat="45.85736" lon="4.85604">
        <ele>228.7</ele>
        <time>2019-08-30T06:55:08Z</time>
      </trkpt>
      <trkpt lat="45.8573" lon="4.85592">
        <ele>228.6</ele>
        <time>2019-08-30T06:55:12Z</time>
      </trkpt>
      <trkpt lat="45.85719" lon="4.85586">
        <ele>228.6</ele>
        <time>2019-08-30T06:55:16Z</time>
      </trkpt>
      <trkpt lat="45.85716" lon="4.85583">
        <ele>228.6</ele>
        <time>2019-08-30T06:55:17Z</time>
      </trkpt>
      <trkpt lat="45.85713" lon="4.85579">
        <ele>228.6</ele>
        <time>2019-08-30T06:55:18Z</time>
      </trkpt>
      <trkpt lat="45.85709" lon="4.8557">
        <ele>228.6</ele>
        <time>2019-08-30T06:55:20Z</time>
      </trkpt>
      <trkpt lat="45.85707" lon="4.85565">
        <ele>228.6</ele>
        <time>2019-08-30T06:55:21Z</time>
      </trkpt>
      <trkpt lat="45.85702" lon="4.85556">
        <ele>228.7</ele>
        <time>2019-08-30T06:55:23Z</time>
      </trkpt>
      <trkpt lat="45.85694" lon="4.85548">
        <ele>228.8</ele>
        <time>2019-08-30T06:55:25Z</time>
      </trkpt>
      <trkpt lat="45.85674" lon="4.85524">
        <ele>228.4</ele>
        <time>2019-08-30T06:55:31Z</time>
      </trkpt>
      <trkpt lat="45.85666" lon="4.85517">
        <ele>228.1</ele>
        <time>2019-08-30T06:55:35Z</time>
      </trkpt>
      <trkpt lat="45.85662" lon="4.85514">
        <ele>228</ele>
        <time>2019-08-30T06:55:39Z</time>
      </trkpt>
      <trkpt lat="45.85657" lon="4.85515">
        <ele>227.8</ele>
        <time>2019-08-30T06:55:41Z</time>
      </trkpt>
      <trkpt lat="45.85651" lon="4.85517">
        <ele>227.8</ele>
        <time>2019-08-30T06:55:43Z</time>
      </trkpt>
      <trkpt lat="45.85643" lon="4.85518">
        <ele>227.5</ele>
        <time>2019-08-30T06:55:46Z</time>
      </trkpt>
      <trkpt lat="45.85641" lon="4.85516">
        <ele>227.4</ele>
        <time>2019-08-30T06:55:47Z</time>
      </trkpt>
      <trkpt lat="45.85634" lon="4.8551">
        <ele>227</ele>
        <time>2019-08-30T06:55:50Z</time>
      </trkpt>
      <trkpt lat="45.85632" lon="4.85507">
        <ele>226.9</ele>
        <time>2019-08-30T06:55:51Z</time>
      </trkpt>
      <trkpt lat="45.85627" lon="4.855">
        <ele>226.6</ele>
        <time>2019-08-30T06:55:53Z</time>
      </trkpt>
      <trkpt lat="45.85619" lon="4.85481">
        <ele>226.3</ele>
        <time>2019-08-30T06:55:58Z</time>
      </trkpt>
      <trkpt lat="45.85603" lon="4.85461">
        <ele>226.3</ele>
        <time>2019-08-30T06:56:04Z</time>
      </trkpt>
      <trkpt lat="45.85591" lon="4.85458">
        <ele>228.4</ele>
        <time>2019-08-30T06:56:08Z</time>
      </trkpt>
      <trkpt lat="45.85589" lon="4.85459">
        <ele>228.8</ele>
        <time>2019-08-30T06:56:09Z</time>
      </trkpt>
      <trkpt lat="45.85575" lon="4.85467">
        <ele>230.8</ele>
        <time>2019-08-30T06:56:15Z</time>
      </trkpt>
      <trkpt lat="45.85573" lon="4.85469">
        <ele>231</ele>
        <time>2019-08-30T06:56:16Z</time>
      </trkpt>
      <trkpt lat="45.85555" lon="4.8548">
        <ele>232.7</ele>
        <time>2019-08-30T06:56:24Z</time>
      </trkpt>
      <trkpt lat="45.85545" lon="4.85485">
        <ele>233.5</ele>
        <time>2019-08-30T06:56:29Z</time>
      </trkpt>
      <trkpt lat="45.85542" lon="4.85487">
        <ele>233.8</ele>
        <time>2019-08-30T06:56:31Z</time>
      </trkpt>
      <trkpt lat="45.8554" lon="4.85488">
        <ele>234</ele>
        <time>2019-08-30T06:56:32Z</time>
      </trkpt>
      <trkpt lat="45.85537" lon="4.8549">
        <ele>234.3</ele>
        <time>2019-08-30T06:56:33Z</time>
      </trkpt>
      <trkpt lat="45.85531" lon="4.85493">
        <ele>234.8</ele>
        <time>2019-08-30T06:56:36Z</time>
      </trkpt>
      <trkpt lat="45.85527" lon="4.85494">
        <ele>235.1</ele>
        <time>2019-08-30T06:56:38Z</time>
      </trkpt>
      <trkpt lat="45.85522" lon="4.85496">
        <ele>235.5</ele>
        <time>2019-08-30T06:56:40Z</time>
      </trkpt>
      <trkpt lat="45.85517" lon="4.85498">
        <ele>235.9</ele>
        <time>2019-08-30T06:56:43Z</time>
      </trkpt>
      <trkpt lat="45.85512" lon="4.855">
        <ele>236.3</ele>
        <time>2019-08-30T06:56:46Z</time>
      </trkpt>
      <trkpt lat="45.85508" lon="4.85501">
        <ele>236.5</ele>
        <time>2019-08-30T06:56:48Z</time>
      </trkpt>
      <trkpt lat="45.85505" lon="4.85503">
        <ele>236.8</ele>
        <time>2019-08-30T06:56:50Z</time>
      </trkpt>
      <trkpt lat="45.855" lon="4.85505">
        <ele>237.3</ele>
        <time>2019-08-30T06:56:53Z</time>
      </trkpt>
      <trkpt lat="45.85499" lon="4.85506">
        <ele>237.5</ele>
        <time>2019-08-30T06:56:54Z</time>
      </trkpt>
      <trkpt lat="45.85497" lon="4.85507">
        <ele>237.7</ele>
        <time>2019-08-30T06:56:55Z</time>
      </trkpt>
      <trkpt lat="45.85492" lon="4.8551">
        <ele>238.2</ele>
        <time>2019-08-30T06:56:58Z</time>
      </trkpt>
      <trkpt lat="45.85485" lon="4.85513">
        <ele>239</ele>
        <time>2019-08-30T06:57:02Z</time>
      </trkpt>
      <trkpt lat="45.85484" lon="4.85514">
        <ele>239.1</ele>
        <time>2019-08-30T06:57:03Z</time>
      </trkpt>
      <trkpt lat="45.85481" lon="4.85516">
        <ele>239.4</ele>
        <time>2019-08-30T06:57:05Z</time>
      </trkpt>
      <trkpt lat="45.85472" lon="4.85522">
        <ele>240.1</ele>
        <time>2019-08-30T06:57:11Z</time>
      </trkpt>
      <trkpt lat="45.85471" lon="4.85523">
        <ele>240.1</ele>
        <time>2019-08-30T06:57:12Z</time>
      </trkpt>
      <trkpt lat="45.85458" lon="4.8553">
        <ele>240.7</ele>
        <time>2019-08-30T06:57:20Z</time>
      </trkpt>
      <trkpt lat="45.85446" lon="4.85525">
        <ele>241.1</ele>
        <time>2019-08-30T06:57:25Z</time>
      </trkpt>
      <trkpt lat="45.8543" lon="4.85513">
        <ele>241.5</ele>
        <time>2019-08-30T06:57:31Z</time>
      </trkpt>
      <trkpt lat="45.85408" lon="4.85498">
        <ele>241.7</ele>
        <time>2019-08-30T06:57:37Z</time>
      </trkpt>
      <trkpt lat="45.85392" lon="4.85477">
        <ele>240.6</ele>
        <time>2019-08-30T06:57:44Z</time>
      </trkpt>
      <trkpt lat="45.8539" lon="4.85468">
        <ele>240</ele>
        <time>2019-08-30T06:57:49Z</time>
      </trkpt>
      <trkpt lat="45.85391" lon="4.85466">
        <ele>239.9</ele>
        <time>2019-08-30T06:57:50Z</time>
      </trkpt>
      <trkpt lat="45.85399" lon="4.85444">
        <ele>239.3</ele>
        <time>2019-08-30T06:57:55Z</time>
      </trkpt>
      <trkpt lat="45.85406" lon="4.85406">
        <ele>238.2</ele>
        <time>2019-08-30T06:58:01Z</time>
      </trkpt>
      <trkpt lat="45.854" lon="4.85382">
        <ele>237.4</ele>
        <time>2019-08-30T06:58:03Z</time>
      </trkpt>
      <trkpt lat="45.85398" lon="4.85371">
        <ele>237</ele>
        <time>2019-08-30T06:58:04Z</time>
      </trkpt>
      <trkpt lat="45.85394" lon="4.85349">
        <ele>236.2</ele>
        <time>2019-08-30T06:58:06Z</time>
      </trkpt>
      <trkpt lat="45.85387" lon="4.85325">
        <ele>234.8</ele>
        <time>2019-08-30T06:58:08Z</time>
      </trkpt>
      <trkpt lat="45.85383" lon="4.85313">
        <ele>233.8</ele>
        <time>2019-08-30T06:58:09Z</time>
      </trkpt>
      <trkpt lat="45.85378" lon="4.85303">
        <ele>232.5</ele>
        <time>2019-08-30T06:58:10Z</time>
      </trkpt>
      <trkpt lat="45.85367" lon="4.8528">
        <ele>229.5</ele>
        <time>2019-08-30T06:58:12Z</time>
      </trkpt>
      <trkpt lat="45.85355" lon="4.85254">
        <ele>226.7</ele>
        <time>2019-08-30T06:58:14Z</time>
      </trkpt>
      <trkpt lat="45.85345" lon="4.85229">
        <ele>224.8</ele>
        <time>2019-08-30T06:58:16Z</time>
      </trkpt>
      <trkpt lat="45.85341" lon="4.85214">
        <ele>223.9</ele>
        <time>2019-08-30T06:58:17Z</time>
      </trkpt>
      <trkpt lat="45.85338" lon="4.852">
        <ele>223.2</ele>
        <time>2019-08-30T06:58:18Z</time>
      </trkpt>
      <trkpt lat="45.85334" lon="4.85188">
        <ele>222.6</ele>
        <time>2019-08-30T06:58:19Z</time>
      </trkpt>
      <trkpt lat="45.85328" lon="4.85167">
        <ele>221.5</ele>
        <time>2019-08-30T06:58:21Z</time>
      </trkpt>
      <trkpt lat="45.85322" lon="4.85146">
        <ele>220.6</ele>
        <time>2019-08-30T06:58:23Z</time>
      </trkpt>
      <trkpt lat="45.85319" lon="4.85136">
        <ele>220.2</ele>
        <time>2019-08-30T06:58:24Z</time>
      </trkpt>
      <trkpt lat="45.85312" lon="4.85116">
        <ele>219.4</ele>
        <time>2019-08-30T06:58:26Z</time>
      </trkpt>
      <trkpt lat="45.85308" lon="4.85108">
        <ele>219.2</ele>
        <time>2019-08-30T06:58:27Z</time>
      </trkpt>
      <trkpt lat="45.85302" lon="4.85099">
        <ele>218.8</ele>
        <time>2019-08-30T06:58:29Z</time>
      </trkpt>
      <trkpt lat="45.85299" lon="4.85096">
        <ele>218.7</ele>
        <time>2019-08-30T06:58:31Z</time>
      </trkpt>
      <trkpt lat="45.85294" lon="4.85099">
        <ele>218.5</ele>
        <time>2019-08-30T06:58:50Z</time>
      </trkpt>
      <trkpt lat="45.85286" lon="4.85107">
        <ele>218.6</ele>
        <time>2019-08-30T06:58:57Z</time>
      </trkpt>
      <trkpt lat="45.85277" lon="4.85118">
        <ele>219.1</ele>
        <time>2019-08-30T06:59:05Z</time>
      </trkpt>
      <trkpt lat="45.85274" lon="4.85122">
        <ele>219.3</ele>
        <time>2019-08-30T06:59:08Z</time>
      </trkpt>
      <trkpt lat="45.8527" lon="4.85128">
        <ele>219.9</ele>
        <time>2019-08-30T06:59:12Z</time>
      </trkpt>
      <trkpt lat="45.85265" lon="4.85132">
        <ele>220.5</ele>
        <time>2019-08-30T06:59:16Z</time>
      </trkpt>
      <trkpt lat="45.85262" lon="4.85137">
        <ele>221.2</ele>
        <time>2019-08-30T06:59:19Z</time>
      </trkpt>
      <trkpt lat="45.85261" lon="4.85138">
        <ele>221.5</ele>
        <time>2019-08-30T06:59:20Z</time>
      </trkpt>
      <trkpt lat="45.85256" lon="4.85144">
        <ele>222.7</ele>
        <time>2019-08-30T06:59:25Z</time>
      </trkpt>
      <trkpt lat="45.85255" lon="4.85145">
        <ele>222.9</ele>
        <time>2019-08-30T06:59:26Z</time>
      </trkpt>
      <trkpt lat="45.85219" lon="4.85193">
        <ele>232.8</ele>
        <time>2019-08-30T07:00:25Z</time>
      </trkpt>
      <trkpt lat="45.85216" lon="4.85193">
        <ele>233.4</ele>
        <time>2019-08-30T07:00:26Z</time>
      </trkpt>
      <trkpt lat="45.85213" lon="4.85192">
        <ele>233.9</ele>
        <time>2019-08-30T07:00:28Z</time>
      </trkpt>
      <trkpt lat="45.8521" lon="4.8519">
        <ele>233.9</ele>
        <time>2019-08-30T07:00:30Z</time>
      </trkpt>
      <trkpt lat="45.85205" lon="4.85184">
        <ele>233.8</ele>
        <time>2019-08-30T07:00:34Z</time>
      </trkpt>
      <trkpt lat="45.85204" lon="4.85181">
        <ele>233.8</ele>
        <time>2019-08-30T07:00:35Z</time>
      </trkpt>
      <trkpt lat="45.85186" lon="4.85153">
        <ele>233.6</ele>
        <time>2019-08-30T07:00:43Z</time>
      </trkpt>
      <trkpt lat="45.85171" lon="4.85128">
        <ele>233.5</ele>
        <time>2019-08-30T07:00:49Z</time>
      </trkpt>
      <trkpt lat="45.85166" lon="4.85118">
        <ele>233.4</ele>
        <time>2019-08-30T07:00:51Z</time>
      </trkpt>
      <trkpt lat="45.85149" lon="4.85086">
        <ele>233.3</ele>
        <time>2019-08-30T07:00:57Z</time>
      </trkpt>
      <trkpt lat="45.85146" lon="4.8508">
        <ele>233.3</ele>
        <time>2019-08-30T07:00:58Z</time>
      </trkpt>
      <trkpt lat="45.85128" lon="4.85058">
        <ele>233.8</ele>
        <time>2019-08-30T07:01:04Z</time>
      </trkpt>
      <trkpt lat="45.85121" lon="4.85069">
        <ele>234.1</ele>
        <time>2019-08-30T07:01:07Z</time>
      </trkpt>
      <trkpt lat="45.85118" lon="4.85073">
        <ele>234.2</ele>
        <time>2019-08-30T07:01:08Z</time>
      </trkpt>
      <trkpt lat="45.85106" lon="4.85088">
        <ele>234.7</ele>
        <time>2019-08-30T07:01:13Z</time>
      </trkpt>
      <trkpt lat="45.85084" lon="4.85113">
        <ele>235.5</ele>
        <time>2019-08-30T07:01:21Z</time>
      </trkpt>
      <trkpt lat="45.85073" lon="4.85115">
        <ele>235.6</ele>
        <time>2019-08-30T07:01:24Z</time>
      </trkpt>
      <trkpt lat="45.8507" lon="4.85112">
        <ele>235.6</ele>
        <time>2019-08-30T07:01:25Z</time>
      </trkpt>
      <trkpt lat="45.85062" lon="4.85097">
        <ele>235.4</ele>
        <time>2019-08-30T07:01:28Z</time>
      </trkpt>
      <trkpt lat="45.8506" lon="4.85091">
        <ele>235.4</ele>
        <time>2019-08-30T07:01:29Z</time>
      </trkpt>
      <trkpt lat="45.85037" lon="4.85055">
        <ele>235</ele>
        <time>2019-08-30T07:01:36Z</time>
      </trkpt>
      <trkpt lat="45.85033" lon="4.85051">
        <ele>234.9</ele>
        <time>2019-08-30T07:01:37Z</time>
      </trkpt>
      <trkpt lat="45.85018" lon="4.85043">
        <ele>234.7</ele>
        <time>2019-08-30T07:01:40Z</time>
      </trkpt>
      <trkpt lat="45.84996" lon="4.85032">
        <ele>234.2</ele>
        <time>2019-08-30T07:01:44Z</time>
      </trkpt>
      <trkpt lat="45.8498" lon="4.85024">
        <ele>233.6</ele>
        <time>2019-08-30T07:01:47Z</time>
      </trkpt>
      <trkpt lat="45.84966" lon="4.85017">
        <ele>233</ele>
        <time>2019-08-30T07:01:51Z</time>
      </trkpt>
      <trkpt lat="45.84964" lon="4.85015">
        <ele>232.9</ele>
        <time>2019-08-30T07:01:53Z</time>
      </trkpt>
      <trkpt lat="45.84964" lon="4.85012">
        <ele>232.8</ele>
        <time>2019-08-30T07:01:55Z</time>
      </trkpt>
      <trkpt lat="45.84973" lon="4.85009">
        <ele>232</ele>
        <time>2019-08-30T07:01:59Z</time>
      </trkpt>
      <trkpt lat="45.84979" lon="4.8501">
        <ele>232</ele>
        <time>2019-08-30T07:02:01Z</time>
      </trkpt>
      <trkpt lat="45.84985" lon="4.85009">
        <ele>232</ele>
        <time>2019-08-30T07:02:04Z</time>
      </trkpt>
      <trkpt lat="45.84991" lon="4.8501">
        <ele>231.8</ele>
        <time>2019-08-30T07:02:09Z</time>
      </trkpt>
      <trkpt lat="45.8499" lon="4.85014">
        <ele>231.7</ele>
        <time>2019-08-30T07:02:12Z</time>
      </trkpt>
      <trkpt lat="45.84977" lon="4.85012">
        <ele>232</ele>
        <time>2019-08-30T07:02:17Z</time>
      </trkpt>
      <trkpt lat="45.84974" lon="4.85011">
        <ele>232</ele>
        <time>2019-08-30T07:02:18Z</time>
      </trkpt>
      <trkpt lat="45.84964" lon="4.85012">
        <ele>232</ele>
        <time>2019-08-30T07:02:22Z</time>
      </trkpt>
      <trkpt lat="45.84956" lon="4.85017">
        <ele>232.2</ele>
        <time>2019-08-30T07:02:26Z</time>
      </trkpt>
      <trkpt lat="45.84955" lon="4.85017">
        <ele>232.2</ele>
        <time>2019-08-30T07:02:27Z</time>
      </trkpt>
      <trkpt lat="45.84955" lon="4.85013">
        <ele>232.4</ele>
        <time>2019-08-30T07:02:31Z</time>
      </trkpt>
      <trkpt lat="45.84956" lon="4.85011">
        <ele>232.5</ele>
        <time>2019-08-30T07:02:32Z</time>
      </trkpt>
      <trkpt lat="45.84959" lon="4.85005">
        <ele>231.6</ele>
        <time>2019-08-30T07:02:35Z</time>
      </trkpt>
      <trkpt lat="45.84964" lon="4.84994">
        <ele>230.1</ele>
        <time>2019-08-30T07:02:38Z</time>
      </trkpt>
      <trkpt lat="45.84966" lon="4.84989">
        <ele>229.5</ele>
        <time>2019-08-30T07:02:39Z</time>
      </trkpt>
      <trkpt lat="45.84969" lon="4.84974">
        <ele>227.7</ele>
        <time>2019-08-30T07:02:42Z</time>
      </trkpt>
      <trkpt lat="45.84973" lon="4.84966">
        <ele>226.8</ele>
        <time>2019-08-30T07:02:44Z</time>
      </trkpt>
      <trkpt lat="45.84977" lon="4.84963">
        <ele>226.6</ele>
        <time>2019-08-30T07:02:45Z</time>
      </trkpt>
      <trkpt lat="45.84991" lon="4.84958">
        <ele>226.2</ele>
        <time>2019-08-30T07:02:48Z</time>
      </trkpt>
      <trkpt lat="45.84996" lon="4.84956">
        <ele>226.1</ele>
        <time>2019-08-30T07:02:49Z</time>
      </trkpt>
      <trkpt lat="45.85002" lon="4.84955">
        <ele>226</ele>
        <time>2019-08-30T07:02:50Z</time>
      </trkpt>
      <trkpt lat="45.85012" lon="4.84953">
        <ele>225.5</ele>
        <time>2019-08-30T07:02:52Z</time>
      </trkpt>
      <trkpt lat="45.85021" lon="4.84952">
        <ele>225.2</ele>
        <time>2019-08-30T07:02:54Z</time>
      </trkpt>
      <trkpt lat="45.85035" lon="4.84947">
        <ele>224.5</ele>
        <time>2019-08-30T07:02:57Z</time>
      </trkpt>
      <trkpt lat="45.85042" lon="4.84943">
        <ele>224.2</ele>
        <time>2019-08-30T07:02:59Z</time>
      </trkpt>
      <trkpt lat="45.85045" lon="4.84939">
        <ele>224.1</ele>
        <time>2019-08-30T07:03:00Z</time>
      </trkpt>
      <trkpt lat="45.85055" lon="4.84927">
        <ele>223.7</ele>
        <time>2019-08-30T07:03:03Z</time>
      </trkpt>
      <trkpt lat="45.85057" lon="4.84921">
        <ele>223.5</ele>
        <time>2019-08-30T07:03:04Z</time>
      </trkpt>
      <trkpt lat="45.85059" lon="4.84914">
        <ele>223.4</ele>
        <time>2019-08-30T07:03:05Z</time>
      </trkpt>
      <trkpt lat="45.85062" lon="4.84908">
        <ele>223.2</ele>
        <time>2019-08-30T07:03:06Z</time>
      </trkpt>
      <trkpt lat="45.85066" lon="4.84903">
        <ele>223</ele>
        <time>2019-08-30T07:03:07Z</time>
      </trkpt>
      <trkpt lat="45.85075" lon="4.84896">
        <ele>222.5</ele>
        <time>2019-08-30T07:03:09Z</time>
      </trkpt>
      <trkpt lat="45.85079" lon="4.84893">
        <ele>222.3</ele>
        <time>2019-08-30T07:03:10Z</time>
      </trkpt>
      <trkpt lat="45.85084" lon="4.84891">
        <ele>221.9</ele>
        <time>2019-08-30T07:03:11Z</time>
      </trkpt>
      <trkpt lat="45.85098" lon="4.84887">
        <ele>220.7</ele>
        <time>2019-08-30T07:03:14Z</time>
      </trkpt>
      <trkpt lat="45.85107" lon="4.84885">
        <ele>219.5</ele>
        <time>2019-08-30T07:03:16Z</time>
      </trkpt>
      <trkpt lat="45.85112" lon="4.8488">
        <ele>218.6</ele>
        <time>2019-08-30T07:03:18Z</time>
      </trkpt>
      <trkpt lat="45.8511" lon="4.8487">
        <ele>218.2</ele>
        <time>2019-08-30T07:03:21Z</time>
      </trkpt>
      <trkpt lat="45.85099" lon="4.84858">
        <ele>217.7</ele>
        <time>2019-08-30T07:03:25Z</time>
      </trkpt>
      <trkpt lat="45.85096" lon="4.84856">
        <ele>217.5</ele>
        <time>2019-08-30T07:03:26Z</time>
      </trkpt>
      <trkpt lat="45.85092" lon="4.84854">
        <ele>217.3</ele>
        <time>2019-08-30T07:03:27Z</time>
      </trkpt>
      <trkpt lat="45.85073" lon="4.84837">
        <ele>216.5</ele>
        <time>2019-08-30T07:03:32Z</time>
      </trkpt>
      <trkpt lat="45.8507" lon="4.84834">
        <ele>216.3</ele>
        <time>2019-08-30T07:03:33Z</time>
      </trkpt>
      <trkpt lat="45.85059" lon="4.84829">
        <ele>215.9</ele>
        <time>2019-08-30T07:03:36Z</time>
      </trkpt>
      <trkpt lat="45.85031" lon="4.84822">
        <ele>215.2</ele>
        <time>2019-08-30T07:03:43Z</time>
      </trkpt>
      <trkpt lat="45.85016" lon="4.84824">
        <ele>215</ele>
        <time>2019-08-30T07:03:47Z</time>
      </trkpt>
      <trkpt lat="45.85012" lon="4.84824">
        <ele>214.9</ele>
        <time>2019-08-30T07:03:48Z</time>
      </trkpt>
      <trkpt lat="45.84997" lon="4.84823">
        <ele>214.6</ele>
        <time>2019-08-30T07:03:52Z</time>
      </trkpt>
      <trkpt lat="45.84993" lon="4.84819">
        <ele>214.5</ele>
        <time>2019-08-30T07:03:54Z</time>
      </trkpt>
      <trkpt lat="45.84987" lon="4.84803">
        <ele>214.2</ele>
        <time>2019-08-30T07:03:59Z</time>
      </trkpt>
      <trkpt lat="45.84983" lon="4.84772">
        <ele>213.9</ele>
        <time>2019-08-30T07:04:04Z</time>
      </trkpt>
      <trkpt lat="45.8498" lon="4.84741">
        <ele>213.7</ele>
        <time>2019-08-30T07:04:08Z</time>
      </trkpt>
      <trkpt lat="45.84974" lon="4.84726">
        <ele>213.6</ele>
        <time>2019-08-30T07:04:10Z</time>
      </trkpt>
      <trkpt lat="45.84968" lon="4.84711">
        <ele>213.6</ele>
        <time>2019-08-30T07:04:12Z</time>
      </trkpt>
      <trkpt lat="45.8496" lon="4.84682">
        <ele>213.3</ele>
        <time>2019-08-30T07:04:16Z</time>
      </trkpt>
      <trkpt lat="45.84952" lon="4.84675">
        <ele>213.2</ele>
        <time>2019-08-30T07:04:17Z</time>
      </trkpt>
      <trkpt lat="45.84941" lon="4.84665">
        <ele>212.9</ele>
        <time>2019-08-30T07:04:19Z</time>
      </trkpt>
      <trkpt lat="45.84935" lon="4.84665">
        <ele>212.7</ele>
        <time>2019-08-30T07:04:20Z</time>
      </trkpt>
      <trkpt lat="45.84927" lon="4.84668">
        <ele>212.5</ele>
        <time>2019-08-30T07:04:22Z</time>
      </trkpt>
      <trkpt lat="45.84923" lon="4.8467">
        <ele>212.4</ele>
        <time>2019-08-30T07:04:23Z</time>
      </trkpt>
      <trkpt lat="45.84918" lon="4.84673">
        <ele>212.2</ele>
        <time>2019-08-30T07:04:24Z</time>
      </trkpt>
      <trkpt lat="45.84913" lon="4.84676">
        <ele>212.1</ele>
        <time>2019-08-30T07:04:25Z</time>
      </trkpt>
      <trkpt lat="45.84892" lon="4.84683">
        <ele>211.6</ele>
        <time>2019-08-30T07:04:29Z</time>
      </trkpt>
      <trkpt lat="45.84888" lon="4.84683">
        <ele>211.4</ele>
        <time>2019-08-30T07:04:30Z</time>
      </trkpt>
      <trkpt lat="45.84882" lon="4.84679">
        <ele>211.3</ele>
        <time>2019-08-30T07:04:32Z</time>
      </trkpt>
      <trkpt lat="45.84876" lon="4.84672">
        <ele>211</ele>
        <time>2019-08-30T07:04:34Z</time>
      </trkpt>
      <trkpt lat="45.84866" lon="4.8466">
        <ele>210.7</ele>
        <time>2019-08-30T07:04:37Z</time>
      </trkpt>
      <trkpt lat="45.8485" lon="4.84647">
        <ele>210.2</ele>
        <time>2019-08-30T07:04:42Z</time>
      </trkpt>
      <trkpt lat="45.84841" lon="4.84633">
        <ele>209.6</ele>
        <time>2019-08-30T07:04:46Z</time>
      </trkpt>
      <trkpt lat="45.84837" lon="4.84623">
        <ele>209.3</ele>
        <time>2019-08-30T07:04:48Z</time>
      </trkpt>
      <trkpt lat="45.84833" lon="4.84597">
        <ele>208.7</ele>
        <time>2019-08-30T07:04:52Z</time>
      </trkpt>
      <trkpt lat="45.84825" lon="4.84577">
        <ele>208.3</ele>
        <time>2019-08-30T07:04:56Z</time>
      </trkpt>
      <trkpt lat="45.84816" lon="4.84557">
        <ele>207.9</ele>
        <time>2019-08-30T07:05:00Z</time>
      </trkpt>
      <trkpt lat="45.84817" lon="4.84549">
        <ele>207.8</ele>
        <time>2019-08-30T07:05:01Z</time>
      </trkpt>
      <trkpt lat="45.84826" lon="4.84535">
        <ele>208.6</ele>
        <time>2019-08-30T07:05:04Z</time>
      </trkpt>
      <trkpt lat="45.84829" lon="4.84532">
        <ele>208.6</ele>
        <time>2019-08-30T07:05:05Z</time>
      </trkpt>
      <trkpt lat="45.84844" lon="4.84518">
        <ele>207.7</ele>
        <time>2019-08-30T07:05:10Z</time>
      </trkpt>
      <trkpt lat="45.84853" lon="4.84511">
        <ele>207.9</ele>
        <time>2019-08-30T07:05:15Z</time>
      </trkpt>
      <trkpt lat="45.84862" lon="4.84509">
        <ele>208.4</ele>
        <time>2019-08-30T07:05:21Z</time>
      </trkpt>
      <trkpt lat="45.84863" lon="4.84509">
        <ele>208.4</ele>
        <time>2019-08-30T07:05:22Z</time>
      </trkpt>
      <trkpt lat="45.84936" lon="4.84519">
        <ele>218.5</ele>
        <time>2019-08-30T07:06:42Z</time>
      </trkpt>
      <trkpt lat="45.85045" lon="4.84538">
        <ele>237.9</ele>
        <time>2019-08-30T07:09:10Z</time>
      </trkpt>
      <trkpt lat="45.85049" lon="4.84538">
        <ele>238.6</ele>
        <time>2019-08-30T07:09:12Z</time>
      </trkpt>
      <trkpt lat="45.85063" lon="4.8454">
        <ele>243</ele>
        <time>2019-08-30T07:09:19Z</time>
      </trkpt>
      <trkpt lat="45.85079" lon="4.84551">
        <ele>242.9</ele>
        <time>2019-08-30T07:09:25Z</time>
      </trkpt>
      <trkpt lat="45.85085" lon="4.84556">
        <ele>242.9</ele>
        <time>2019-08-30T07:09:27Z</time>
      </trkpt>
      <trkpt lat="45.85096" lon="4.84569">
        <ele>243</ele>
        <time>2019-08-30T07:09:31Z</time>
      </trkpt>
      <trkpt lat="45.85102" lon="4.84575">
        <ele>243.1</ele>
        <time>2019-08-30T07:09:33Z</time>
      </trkpt>
      <trkpt lat="45.85126" lon="4.84597">
        <ele>243.4</ele>
        <time>2019-08-30T07:09:42Z</time>
      </trkpt>
      <trkpt lat="45.85151" lon="4.84619">
        <ele>243.9</ele>
        <time>2019-08-30T07:09:51Z</time>
      </trkpt>
      <trkpt lat="45.85174" lon="4.8463">
        <ele>244.9</ele>
        <time>2019-08-30T07:09:58Z</time>
      </trkpt>
      <trkpt lat="45.85187" lon="4.8464">
        <ele>245.3</ele>
        <time>2019-08-30T07:10:03Z</time>
      </trkpt>
      <trkpt lat="45.85201" lon="4.84659">
        <ele>246.2</ele>
        <time>2019-08-30T07:10:09Z</time>
      </trkpt>
      <trkpt lat="45.8522" lon="4.84681">
        <ele>247.3</ele>
        <time>2019-08-30T07:10:17Z</time>
      </trkpt>
      <trkpt lat="45.85233" lon="4.847">
        <ele>248.2</ele>
        <time>2019-08-30T07:10:23Z</time>
      </trkpt>
      <trkpt lat="45.85238" lon="4.84711">
        <ele>248.6</ele>
        <time>2019-08-30T07:10:26Z</time>
      </trkpt>
      <trkpt lat="45.85243" lon="4.84717">
        <ele>249</ele>
        <time>2019-08-30T07:10:28Z</time>
      </trkpt>
      <trkpt lat="45.85254" lon="4.84725">
        <ele>249.6</ele>
        <time>2019-08-30T07:10:32Z</time>
      </trkpt>
      <trkpt lat="45.85265" lon="4.84731">
        <ele>250.3</ele>
        <time>2019-08-30T07:10:36Z</time>
      </trkpt>
      <trkpt lat="45.85274" lon="4.84733">
        <ele>250.9</ele>
        <time>2019-08-30T07:10:39Z</time>
      </trkpt>
      <trkpt lat="45.85276" lon="4.84733">
        <ele>251.1</ele>
        <time>2019-08-30T07:10:40Z</time>
      </trkpt>
      <trkpt lat="45.85287" lon="4.84737">
        <ele>251.9</ele>
        <time>2019-08-30T07:10:44Z</time>
      </trkpt>
      <trkpt lat="45.85296" lon="4.8474">
        <ele>252.6</ele>
        <time>2019-08-30T07:10:47Z</time>
      </trkpt>
      <trkpt lat="45.85302" lon="4.84742">
        <ele>253</ele>
        <time>2019-08-30T07:10:49Z</time>
      </trkpt>
      <trkpt lat="45.85312" lon="4.84745">
        <ele>253.9</ele>
        <time>2019-08-30T07:10:53Z</time>
      </trkpt>
      <trkpt lat="45.85323" lon="4.84749">
        <ele>254.8</ele>
        <time>2019-08-30T07:10:57Z</time>
      </trkpt>
      <trkpt lat="45.85332" lon="4.84752">
        <ele>255.6</ele>
        <time>2019-08-30T07:11:01Z</time>
      </trkpt>
      <trkpt lat="45.85342" lon="4.84755">
        <ele>256.3</ele>
        <time>2019-08-30T07:11:05Z</time>
      </trkpt>
      <trkpt lat="45.85351" lon="4.84758">
        <ele>256.9</ele>
        <time>2019-08-30T07:11:09Z</time>
      </trkpt>
      <trkpt lat="45.85361" lon="4.84761">
        <ele>257.2</ele>
        <time>2019-08-30T07:11:13Z</time>
      </trkpt>
      <trkpt lat="45.85365" lon="4.84763">
        <ele>257.4</ele>
        <time>2019-08-30T07:11:15Z</time>
      </trkpt>
      <trkpt lat="45.85374" lon="4.84766">
        <ele>257.8</ele>
        <time>2019-08-30T07:11:19Z</time>
      </trkpt>
      <trkpt lat="45.85386" lon="4.84773">
        <ele>258</ele>
        <time>2019-08-30T07:11:24Z</time>
      </trkpt>
      <trkpt lat="45.85405" lon="4.84788">
        <ele>258.3</ele>
        <time>2019-08-30T07:11:30Z</time>
      </trkpt>
      <trkpt lat="45.85438" lon="4.84819">
        <ele>257.7</ele>
        <time>2019-08-30T07:11:38Z</time>
      </trkpt>
      <trkpt lat="45.85452" lon="4.84832">
        <ele>257.3</ele>
        <time>2019-08-30T07:11:41Z</time>
      </trkpt>
      <trkpt lat="45.85464" lon="4.84845">
        <ele>257</ele>
        <time>2019-08-30T07:11:44Z</time>
      </trkpt>
      <trkpt lat="45.85476" lon="4.84859">
        <ele>256.6</ele>
        <time>2019-08-30T07:11:47Z</time>
      </trkpt>
      <trkpt lat="45.85493" lon="4.84877">
        <ele>255.9</ele>
        <time>2019-08-30T07:11:51Z</time>
      </trkpt>
      <trkpt lat="45.85504" lon="4.84886">
        <ele>255.6</ele>
        <time>2019-08-30T07:11:53Z</time>
      </trkpt>
      <trkpt lat="45.85516" lon="4.84893">
        <ele>255.3</ele>
        <time>2019-08-30T07:11:55Z</time>
      </trkpt>
      <trkpt lat="45.85521" lon="4.84895">
        <ele>255.2</ele>
        <time>2019-08-30T07:11:56Z</time>
      </trkpt>
      <trkpt lat="45.85533" lon="4.84898">
        <ele>254.9</ele>
        <time>2019-08-30T07:11:58Z</time>
      </trkpt>
      <trkpt lat="45.85563" lon="4.84905">
        <ele>254.7</ele>
        <time>2019-08-30T07:12:04Z</time>
      </trkpt>
      <trkpt lat="45.85568" lon="4.84906">
        <ele>254.6</ele>
        <time>2019-08-30T07:12:05Z</time>
      </trkpt>
      <trkpt lat="45.85577" lon="4.84912">
        <ele>254.6</ele>
        <time>2019-08-30T07:12:07Z</time>
      </trkpt>
      <trkpt lat="45.85591" lon="4.84926">
        <ele>254.6</ele>
        <time>2019-08-30T07:12:10Z</time>
      </trkpt>
      <trkpt lat="45.85596" lon="4.84932">
        <ele>254.5</ele>
        <time>2019-08-30T07:12:11Z</time>
      </trkpt>
      <trkpt lat="45.85604" lon="4.84954">
        <ele>254.9</ele>
        <time>2019-08-30T07:12:14Z</time>
      </trkpt>
      <trkpt lat="45.85605" lon="4.8496">
        <ele>254.9</ele>
        <time>2019-08-30T07:12:15Z</time>
      </trkpt>
      <trkpt lat="45.85611" lon="4.84971">
        <ele>255.6</ele>
        <time>2019-08-30T07:12:18Z</time>
      </trkpt>
      <trkpt lat="45.85618" lon="4.84978">
        <ele>256.9</ele>
        <time>2019-08-30T07:12:22Z</time>
      </trkpt>
      <trkpt lat="45.85622" lon="4.84985">
        <ele>258</ele>
        <time>2019-08-30T07:12:27Z</time>
      </trkpt>
      <trkpt lat="45.85629" lon="4.84991">
        <ele>259.1</ele>
        <time>2019-08-30T07:12:32Z</time>
      </trkpt>
      <trkpt lat="45.85633" lon="4.84995">
        <ele>259.7</ele>
        <time>2019-08-30T07:12:34Z</time>
      </trkpt>
      <trkpt lat="45.85637" lon="4.85001">
        <ele>260.6</ele>
        <time>2019-08-30T07:12:37Z</time>
      </trkpt>
      <trkpt lat="45.85642" lon="4.85006">
        <ele>261.6</ele>
        <time>2019-08-30T07:12:40Z</time>
      </trkpt>
      <trkpt lat="45.85646" lon="4.8501">
        <ele>262.2</ele>
        <time>2019-08-30T07:12:42Z</time>
      </trkpt>
      <trkpt lat="45.85649" lon="4.85015">
        <ele>262.8</ele>
        <time>2019-08-30T07:12:44Z</time>
      </trkpt>
      <trkpt lat="45.85653" lon="4.85022">
        <ele>263.6</ele>
        <time>2019-08-30T07:12:47Z</time>
      </trkpt>
      <trkpt lat="45.85654" lon="4.85024">
        <ele>263.9</ele>
        <time>2019-08-30T07:12:48Z</time>
      </trkpt>
      <trkpt lat="45.85655" lon="4.85029">
        <ele>264.4</ele>
        <time>2019-08-30T07:12:50Z</time>
      </trkpt>
      <trkpt lat="45.85658" lon="4.85035">
        <ele>264.9</ele>
        <time>2019-08-30T07:12:53Z</time>
      </trkpt>
      <trkpt lat="45.85661" lon="4.85042">
        <ele>265.5</ele>
        <time>2019-08-30T07:12:56Z</time>
      </trkpt>
      <trkpt lat="45.85662" lon="4.85045">
        <ele>265.7</ele>
        <time>2019-08-30T07:12:57Z</time>
      </trkpt>
      <trkpt lat="45.85666" lon="4.85054">
        <ele>266.3</ele>
        <time>2019-08-30T07:13:01Z</time>
      </trkpt>
      <trkpt lat="45.8567" lon="4.85061">
        <ele>266.6</ele>
        <time>2019-08-30T07:13:03Z</time>
      </trkpt>
      <trkpt lat="45.8569" lon="4.85084">
        <ele>267.5</ele>
        <time>2019-08-30T07:13:11Z</time>
      </trkpt>
      <trkpt lat="45.85712" lon="4.851">
        <ele>267.9</ele>
        <time>2019-08-30T07:13:18Z</time>
      </trkpt>
      <trkpt lat="45.85726" lon="4.85109">
        <ele>268.2</ele>
        <time>2019-08-30T07:13:22Z</time>
      </trkpt>
      <trkpt lat="45.85742" lon="4.85125">
        <ele>268.5</ele>
        <time>2019-08-30T07:13:27Z</time>
      </trkpt>
      <trkpt lat="45.85768" lon="4.85154">
        <ele>268.9</ele>
        <time>2019-08-30T07:13:36Z</time>
      </trkpt>
      <trkpt lat="45.85788" lon="4.85172">
        <ele>269</ele>
        <time>2019-08-30T07:13:42Z</time>
      </trkpt>
      <trkpt lat="45.85796" lon="4.85176">
        <ele>269</ele>
        <time>2019-08-30T07:13:44Z</time>
      </trkpt>
      <trkpt lat="45.85804" lon="4.85179">
        <ele>269</ele>
        <time>2019-08-30T07:13:46Z</time>
      </trkpt>
      <trkpt lat="45.85827" lon="4.85187">
        <ele>268.9</ele>
        <time>2019-08-30T07:13:51Z</time>
      </trkpt>
      <trkpt lat="45.85858" lon="4.85209">
        <ele>268.7</ele>
        <time>2019-08-30T07:13:58Z</time>
      </trkpt>
      <trkpt lat="45.85881" lon="4.85235">
        <ele>268.5</ele>
        <time>2019-08-30T07:14:04Z</time>
      </trkpt>
      <trkpt lat="45.85917" lon="4.85284">
        <ele>268</ele>
        <time>2019-08-30T07:14:14Z</time>
      </trkpt>
      <trkpt lat="45.85943" lon="4.85324">
        <ele>269.2</ele>
        <time>2019-08-30T07:14:21Z</time>
      </trkpt>
      <trkpt lat="45.85961" lon="4.85355">
        <ele>270.4</ele>
        <time>2019-08-30T07:14:26Z</time>
      </trkpt>
      <trkpt lat="45.85963" lon="4.85362">
        <ele>270.6</ele>
        <time>2019-08-30T07:14:27Z</time>
      </trkpt>
      <trkpt lat="45.85964" lon="4.85368">
        <ele>270.6</ele>
        <time>2019-08-30T07:14:28Z</time>
      </trkpt>
      <trkpt lat="45.85964" lon="4.85382">
        <ele>270.6</ele>
        <time>2019-08-30T07:14:30Z</time>
      </trkpt>
      <trkpt lat="45.85965" lon="4.85388">
        <ele>270.6</ele>
        <time>2019-08-30T07:14:31Z</time>
      </trkpt>
      <trkpt lat="45.85973" lon="4.85402">
        <ele>270.7</ele>
        <time>2019-08-30T07:14:35Z</time>
      </trkpt>
      <trkpt lat="45.85978" lon="4.85407">
        <ele>270.8</ele>
        <time>2019-08-30T07:14:37Z</time>
      </trkpt>
      <trkpt lat="45.85989" lon="4.85415">
        <ele>271.2</ele>
        <time>2019-08-30T07:14:42Z</time>
      </trkpt>
      <trkpt lat="45.86003" lon="4.85425">
        <ele>271.5</ele>
        <time>2019-08-30T07:14:47Z</time>
      </trkpt>
      <trkpt lat="45.86025" lon="4.8544">
        <ele>272.8</ele>
        <time>2019-08-30T07:14:55Z</time>
      </trkpt>
      <trkpt lat="45.86046" lon="4.85455">
        <ele>274</ele>
        <time>2019-08-30T07:15:03Z</time>
      </trkpt>
      <trkpt lat="45.86066" lon="4.85469">
        <ele>274.9</ele>
        <time>2019-08-30T07:15:10Z</time>
      </trkpt>
      <trkpt lat="45.86075" lon="4.85476">
        <ele>275.3</ele>
        <time>2019-08-30T07:15:13Z</time>
      </trkpt>
      <trkpt lat="45.86087" lon="4.85485">
        <ele>275.8</ele>
        <time>2019-08-30T07:15:17Z</time>
      </trkpt>
      <trkpt lat="45.86099" lon="4.85493">
        <ele>276.3</ele>
        <time>2019-08-30T07:15:21Z</time>
      </trkpt>
      <trkpt lat="45.86115" lon="4.85506">
        <ele>276.8</ele>
        <time>2019-08-30T07:15:26Z</time>
      </trkpt>
      <trkpt lat="45.86126" lon="4.85517">
        <ele>277.2</ele>
        <time>2019-08-30T07:15:30Z</time>
      </trkpt>
      <trkpt lat="45.86129" lon="4.85519">
        <ele>277.3</ele>
        <time>2019-08-30T07:15:31Z</time>
      </trkpt>
      <trkpt lat="45.86151" lon="4.85544">
        <ele>277.9</ele>
        <time>2019-08-30T07:15:39Z</time>
      </trkpt>
      <trkpt lat="45.86157" lon="4.85551">
        <ele>278.1</ele>
        <time>2019-08-30T07:15:41Z</time>
      </trkpt>
      <trkpt lat="45.86165" lon="4.8556">
        <ele>278.2</ele>
        <time>2019-08-30T07:15:44Z</time>
      </trkpt>
      <trkpt lat="45.86179" lon="4.85576">
        <ele>278.4</ele>
        <time>2019-08-30T07:15:49Z</time>
      </trkpt>
      <trkpt lat="45.86193" lon="4.85594">
        <ele>278.7</ele>
        <time>2019-08-30T07:15:54Z</time>
      </trkpt>
      <trkpt lat="45.86202" lon="4.85607">
        <ele>278.8</ele>
        <time>2019-08-30T07:15:57Z</time>
      </trkpt>
      <trkpt lat="45.86224" lon="4.85643">
        <ele>279.1</ele>
        <time>2019-08-30T07:16:05Z</time>
      </trkpt>
      <trkpt lat="45.8623" lon="4.85652">
        <ele>279.2</ele>
        <time>2019-08-30T07:16:07Z</time>
      </trkpt>
      <trkpt lat="45.86258" lon="4.85684">
        <ele>279.9</ele>
        <time>2019-08-30T07:16:15Z</time>
      </trkpt>
      <trkpt lat="45.86269" lon="4.85693">
        <ele>280.1</ele>
        <time>2019-08-30T07:16:18Z</time>
      </trkpt>
      <trkpt lat="45.86281" lon="4.85701">
        <ele>280.4</ele>
        <time>2019-08-30T07:16:21Z</time>
      </trkpt>
      <trkpt lat="45.86285" lon="4.85703">
        <ele>280.5</ele>
        <time>2019-08-30T07:16:22Z</time>
      </trkpt>
      <trkpt lat="45.86308" lon="4.85708">
        <ele>280.5</ele>
        <time>2019-08-30T07:16:28Z</time>
      </trkpt>
      <trkpt lat="45.86324" lon="4.85709">
        <ele>280.1</ele>
        <time>2019-08-30T07:16:32Z</time>
      </trkpt>
      <trkpt lat="45.86334" lon="4.85712">
        <ele>279.9</ele>
        <time>2019-08-30T07:16:34Z</time>
      </trkpt>
      <trkpt lat="45.86337" lon="4.85726">
        <ele>280.1</ele>
        <time>2019-08-30T07:16:36Z</time>
      </trkpt>
      <trkpt lat="45.86337" lon="4.85741">
        <ele>280.2</ele>
        <time>2019-08-30T07:16:38Z</time>
      </trkpt>
      <trkpt lat="45.86339" lon="4.85769">
        <ele>280</ele>
        <time>2019-08-30T07:16:42Z</time>
      </trkpt>
      <trkpt lat="45.86343" lon="4.85805">
        <ele>281.1</ele>
        <time>2019-08-30T07:16:48Z</time>
      </trkpt>
      <trkpt lat="45.86343" lon="4.85811">
        <ele>281.2</ele>
        <time>2019-08-30T07:16:49Z</time>
      </trkpt>
      <trkpt lat="45.86347" lon="4.85837">
        <ele>282.5</ele>
        <time>2019-08-30T07:16:55Z</time>
      </trkpt>
      <trkpt lat="45.86353" lon="4.85831">
        <ele>282.3</ele>
        <time>2019-08-30T07:16:58Z</time>
      </trkpt>
      <trkpt lat="45.86355" lon="4.85826">
        <ele>282.3</ele>
        <time>2019-08-30T07:16:59Z</time>
      </trkpt>
      <trkpt lat="45.86366" lon="4.85802">
        <ele>282.1</ele>
        <time>2019-08-30T07:17:03Z</time>
      </trkpt>
      <trkpt lat="45.86372" lon="4.85786">
        <ele>279.7</ele>
        <time>2019-08-30T07:17:05Z</time>
      </trkpt>
      <trkpt lat="45.86378" lon="4.85769">
        <ele>276.9</ele>
        <time>2019-08-30T07:17:07Z</time>
      </trkpt>
      <trkpt lat="45.8638" lon="4.8576">
        <ele>275.7</ele>
        <time>2019-08-30T07:17:08Z</time>
      </trkpt>
      <trkpt lat="45.86391" lon="4.85719">
        <ele>271</ele>
        <time>2019-08-30T07:17:13Z</time>
      </trkpt>
      <trkpt lat="45.86397" lon="4.8569">
        <ele>267.5</ele>
        <time>2019-08-30T07:17:17Z</time>
      </trkpt>
      <trkpt lat="45.86399" lon="4.85682">
        <ele>266.5</ele>
        <time>2019-08-30T07:17:18Z</time>
      </trkpt>
      <trkpt lat="45.864" lon="4.85675">
        <ele>265.6</ele>
        <time>2019-08-30T07:17:19Z</time>
      </trkpt>
      <trkpt lat="45.86401" lon="4.85667">
        <ele>264.7</ele>
        <time>2019-08-30T07:17:20Z</time>
      </trkpt>
      <trkpt lat="45.86404" lon="4.85652">
        <ele>263.4</ele>
        <time>2019-08-30T07:17:22Z</time>
      </trkpt>
      <trkpt lat="45.86405" lon="4.85645">
        <ele>262.8</ele>
        <time>2019-08-30T07:17:23Z</time>
      </trkpt>
      <trkpt lat="45.86406" lon="4.85639">
        <ele>262</ele>
        <time>2019-08-30T07:17:24Z</time>
      </trkpt>
      <trkpt lat="45.86406" lon="4.85629">
        <ele>260.8</ele>
        <time>2019-08-30T07:17:26Z</time>
      </trkpt>
      <trkpt lat="45.86406" lon="4.85625">
        <ele>260.2</ele>
        <time>2019-08-30T07:17:27Z</time>
      </trkpt>
      <trkpt lat="45.86406" lon="4.8562">
        <ele>259.5</ele>
        <time>2019-08-30T07:17:28Z</time>
      </trkpt>
      <trkpt lat="45.86407" lon="4.85608">
        <ele>257.8</ele>
        <time>2019-08-30T07:17:30Z</time>
      </trkpt>
      <trkpt lat="45.86407" lon="4.85598">
        <ele>256.3</ele>
        <time>2019-08-30T07:17:32Z</time>
      </trkpt>
      <trkpt lat="45.86406" lon="4.85588">
        <ele>254.9</ele>
        <time>2019-08-30T07:17:34Z</time>
      </trkpt>
      <trkpt lat="45.86407" lon="4.85579">
        <ele>253.8</ele>
        <time>2019-08-30T07:17:36Z</time>
      </trkpt>
      <trkpt lat="45.86407" lon="4.85574">
        <ele>253.3</ele>
        <time>2019-08-30T07:17:37Z</time>
      </trkpt>
      <trkpt lat="45.86408" lon="4.85568">
        <ele>252.7</ele>
        <time>2019-08-30T07:17:38Z</time>
      </trkpt>
      <trkpt lat="45.86409" lon="4.85558">
        <ele>251.8</ele>
        <time>2019-08-30T07:17:40Z</time>
      </trkpt>
      <trkpt lat="45.86411" lon="4.85549">
        <ele>250.7</ele>
        <time>2019-08-30T07:17:42Z</time>
      </trkpt>
      <trkpt lat="45.86412" lon="4.85544">
        <ele>250</ele>
        <time>2019-08-30T07:17:43Z</time>
      </trkpt>
      <trkpt lat="45.86412" lon="4.85538">
        <ele>249.1</ele>
        <time>2019-08-30T07:17:44Z</time>
      </trkpt>
      <trkpt lat="45.86417" lon="4.85512">
        <ele>245.5</ele>
        <time>2019-08-30T07:17:48Z</time>
      </trkpt>
      <trkpt lat="45.86419" lon="4.85499">
        <ele>244.4</ele>
        <time>2019-08-30T07:17:50Z</time>
      </trkpt>
      <trkpt lat="45.86421" lon="4.85477">
        <ele>242.2</ele>
        <time>2019-08-30T07:17:54Z</time>
      </trkpt>
      <trkpt lat="45.8642" lon="4.85467">
        <ele>241</ele>
        <time>2019-08-30T07:17:55Z</time>
      </trkpt>
      <trkpt lat="45.86419" lon="4.85458">
        <ele>239.8</ele>
        <time>2019-08-30T07:17:56Z</time>
      </trkpt>
      <trkpt lat="45.86417" lon="4.85439">
        <ele>237.5</ele>
        <time>2019-08-30T07:17:58Z</time>
      </trkpt>
      <trkpt lat="45.86416" lon="4.85409">
        <ele>234.2</ele>
        <time>2019-08-30T07:18:01Z</time>
      </trkpt>
      <trkpt lat="45.86419" lon="4.85391">
        <ele>232.9</ele>
        <time>2019-08-30T07:18:03Z</time>
      </trkpt>
      <trkpt lat="45.86428" lon="4.85335">
        <ele>228.6</ele>
        <time>2019-08-30T07:18:10Z</time>
      </trkpt>
      <trkpt lat="45.86427" lon="4.85328">
        <ele>228.1</ele>
        <time>2019-08-30T07:18:11Z</time>
      </trkpt>
      <trkpt lat="45.86426" lon="4.85299">
        <ele>226.6</ele>
        <time>2019-08-30T07:18:15Z</time>
      </trkpt>
      <trkpt lat="45.86424" lon="4.85287">
        <ele>225.7</ele>
        <time>2019-08-30T07:18:17Z</time>
      </trkpt>
      <trkpt lat="45.86423" lon="4.85282">
        <ele>225.3</ele>
        <time>2019-08-30T07:18:18Z</time>
      </trkpt>
      <trkpt lat="45.86421" lon="4.85277">
        <ele>225</ele>
        <time>2019-08-30T07:18:19Z</time>
      </trkpt>
      <trkpt lat="45.86421" lon="4.85273">
        <ele>224.7</ele>
        <time>2019-08-30T07:18:20Z</time>
      </trkpt>
      <trkpt lat="45.8642" lon="4.85268">
        <ele>224.4</ele>
        <time>2019-08-30T07:18:22Z</time>
      </trkpt>
      <trkpt lat="45.8642" lon="4.85266">
        <ele>224.2</ele>
        <time>2019-08-30T07:18:23Z</time>
      </trkpt>
      <trkpt lat="45.8642" lon="4.85262">
        <ele>224</ele>
        <time>2019-08-30T07:18:24Z</time>
      </trkpt>
      <trkpt lat="45.86421" lon="4.85247">
        <ele>223</ele>
        <time>2019-08-30T07:18:27Z</time>
      </trkpt>
      <trkpt lat="45.8642" lon="4.85239">
        <ele>222.3</ele>
        <time>2019-08-30T07:18:28Z</time>
      </trkpt>
      <trkpt lat="45.86415" lon="4.85218">
        <ele>219.7</ele>
        <time>2019-08-30T07:18:30Z</time>
      </trkpt>
      <trkpt lat="45.86408" lon="4.85208">
        <ele>218.1</ele>
        <time>2019-08-30T07:18:31Z</time>
      </trkpt>
      <trkpt lat="45.86397" lon="4.85194">
        <ele>215.7</ele>
        <time>2019-08-30T07:18:33Z</time>
      </trkpt>
      <trkpt lat="45.86385" lon="4.85183">
        <ele>213.9</ele>
        <time>2019-08-30T07:18:35Z</time>
      </trkpt>
      <trkpt lat="45.86378" lon="4.85177">
        <ele>213.2</ele>
        <time>2019-08-30T07:18:36Z</time>
      </trkpt>
      <trkpt lat="45.8637" lon="4.85171">
        <ele>212.5</ele>
        <time>2019-08-30T07:18:37Z</time>
      </trkpt>
      <trkpt lat="45.86351" lon="4.85158">
        <ele>210.5</ele>
        <time>2019-08-30T07:18:39Z</time>
      </trkpt>
      <trkpt lat="45.8634" lon="4.85153">
        <ele>209.5</ele>
        <time>2019-08-30T07:18:40Z</time>
      </trkpt>
      <trkpt lat="45.86331" lon="4.85148">
        <ele>208.6</ele>
        <time>2019-08-30T07:18:41Z</time>
      </trkpt>
      <trkpt lat="45.86323" lon="4.85141">
        <ele>207.8</ele>
        <time>2019-08-30T07:18:42Z</time>
      </trkpt>
      <trkpt lat="45.86318" lon="4.85133">
        <ele>207.1</ele>
        <time>2019-08-30T07:18:43Z</time>
      </trkpt>
      <trkpt lat="45.86313" lon="4.85123">
        <ele>206.3</ele>
        <time>2019-08-30T07:18:44Z</time>
      </trkpt>
      <trkpt lat="45.8631" lon="4.85112">
        <ele>205.5</ele>
        <time>2019-08-30T07:18:45Z</time>
      </trkpt>
      <trkpt lat="45.86307" lon="4.851">
        <ele>204.7</ele>
        <time>2019-08-30T07:18:46Z</time>
      </trkpt>
      <trkpt lat="45.863" lon="4.85077">
        <ele>202.9</ele>
        <time>2019-08-30T07:18:48Z</time>
      </trkpt>
      <trkpt lat="45.86297" lon="4.85067">
        <ele>202.3</ele>
        <time>2019-08-30T07:18:49Z</time>
      </trkpt>
      <trkpt lat="45.86296" lon="4.85056">
        <ele>201.8</ele>
        <time>2019-08-30T07:18:50Z</time>
      </trkpt>
      <trkpt lat="45.86296" lon="4.85045">
        <ele>201.1</ele>
        <time>2019-08-30T07:18:51Z</time>
      </trkpt>
      <trkpt lat="45.86299" lon="4.85034">
        <ele>200.2</ele>
        <time>2019-08-30T07:18:52Z</time>
      </trkpt>
      <trkpt lat="45.86303" lon="4.85012">
        <ele>198.8</ele>
        <time>2019-08-30T07:18:54Z</time>
      </trkpt>
      <trkpt lat="45.86306" lon="4.85">
        <ele>198</ele>
        <time>2019-08-30T07:18:55Z</time>
      </trkpt>
      <trkpt lat="45.86312" lon="4.84978">
        <ele>196.6</ele>
        <time>2019-08-30T07:18:57Z</time>
      </trkpt>
      <trkpt lat="45.86314" lon="4.84969">
        <ele>196.1</ele>
        <time>2019-08-30T07:18:58Z</time>
      </trkpt>
      <trkpt lat="45.86315" lon="4.84963">
        <ele>195.6</ele>
        <time>2019-08-30T07:18:59Z</time>
      </trkpt>
      <trkpt lat="45.86318" lon="4.84953">
        <ele>194.6</ele>
        <time>2019-08-30T07:19:01Z</time>
      </trkpt>
      <trkpt lat="45.86322" lon="4.84944">
        <ele>194.7</ele>
        <time>2019-08-30T07:19:03Z</time>
      </trkpt>
      <trkpt lat="45.86325" lon="4.84945">
        <ele>194.7</ele>
        <time>2019-08-30T07:19:04Z</time>
      </trkpt>
      <trkpt lat="45.86328" lon="4.84946">
        <ele>194.7</ele>
        <time>2019-08-30T07:19:05Z</time>
      </trkpt>
      <trkpt lat="45.86335" lon="4.84948">
        <ele>194.8</ele>
        <time>2019-08-30T07:19:07Z</time>
      </trkpt>
      <trkpt lat="45.86338" lon="4.84948">
        <ele>194.9</ele>
        <time>2019-08-30T07:19:08Z</time>
      </trkpt>
      <trkpt lat="45.86344" lon="4.84949">
        <ele>195</ele>
        <time>2019-08-30T07:19:10Z</time>
      </trkpt>
      <trkpt lat="45.86346" lon="4.8495">
        <ele>195</ele>
        <time>2019-08-30T07:19:11Z</time>
      </trkpt>
      <trkpt lat="45.86349" lon="4.8495">
        <ele>195</ele>
        <time>2019-08-30T07:19:12Z</time>
      </trkpt>
      <trkpt lat="45.86356" lon="4.84952">
        <ele>195.2</ele>
        <time>2019-08-30T07:19:14Z</time>
      </trkpt>
      <trkpt lat="45.86361" lon="4.8495">
        <ele>195.3</ele>
        <time>2019-08-30T07:19:16Z</time>
      </trkpt>
      <trkpt lat="45.86363" lon="4.84948">
        <ele>195.1</ele>
        <time>2019-08-30T07:19:17Z</time>
      </trkpt>
      <trkpt lat="45.86368" lon="4.84942">
        <ele>194.7</ele>
        <time>2019-08-30T07:19:19Z</time>
      </trkpt>
      <trkpt lat="45.86369" lon="4.84937">
        <ele>194.5</ele>
        <time>2019-08-30T07:19:20Z</time>
      </trkpt>
      <trkpt lat="45.8637" lon="4.84931">
        <ele>194.2</ele>
        <time>2019-08-30T07:19:21Z</time>
      </trkpt>
      <trkpt lat="45.86371" lon="4.84919">
        <ele>193.6</ele>
        <time>2019-08-30T07:19:23Z</time>
      </trkpt>
      <trkpt lat="45.8637" lon="4.84905">
        <ele>193</ele>
        <time>2019-08-30T07:19:25Z</time>
      </trkpt>
      <trkpt lat="45.8637" lon="4.84897">
        <ele>192.6</ele>
        <time>2019-08-30T07:19:26Z</time>
      </trkpt>
      <trkpt lat="45.86369" lon="4.84879">
        <ele>191.7</ele>
        <time>2019-08-30T07:19:28Z</time>
      </trkpt>
      <trkpt lat="45.86367" lon="4.84862">
        <ele>190.8</ele>
        <time>2019-08-30T07:19:30Z</time>
      </trkpt>
      <trkpt lat="45.86366" lon="4.84844">
        <ele>189.9</ele>
        <time>2019-08-30T07:19:32Z</time>
      </trkpt>
      <trkpt lat="45.86365" lon="4.84817">
        <ele>188.5</ele>
        <time>2019-08-30T07:19:35Z</time>
      </trkpt>
      <trkpt lat="45.8636" lon="4.84797">
        <ele>187.6</ele>
        <time>2019-08-30T07:19:37Z</time>
      </trkpt>
      <trkpt lat="45.86349" lon="4.84768">
        <ele>185.5</ele>
        <time>2019-08-30T07:19:40Z</time>
      </trkpt>
      <trkpt lat="45.86341" lon="4.84748">
        <ele>184.5</ele>
        <time>2019-08-30T07:19:42Z</time>
      </trkpt>
      <trkpt lat="45.86338" lon="4.84739">
        <ele>184</ele>
        <time>2019-08-30T07:19:43Z</time>
      </trkpt>
      <trkpt lat="45.86337" lon="4.84729">
        <ele>183.6</ele>
        <time>2019-08-30T07:19:44Z</time>
      </trkpt>
      <trkpt lat="45.86338" lon="4.84719">
        <ele>183.3</ele>
        <time>2019-08-30T07:19:45Z</time>
      </trkpt>
      <trkpt lat="45.86339" lon="4.84709">
        <ele>183</ele>
        <time>2019-08-30T07:19:46Z</time>
      </trkpt>
      <trkpt lat="45.86341" lon="4.84695">
        <ele>182.9</ele>
        <time>2019-08-30T07:19:48Z</time>
      </trkpt>
      <trkpt lat="45.86341" lon="4.84689">
        <ele>182.8</ele>
        <time>2019-08-30T07:19:49Z</time>
      </trkpt>
      <trkpt lat="45.86342" lon="4.84674">
        <ele>182.4</ele>
        <time>2019-08-30T07:20:07Z</time>
      </trkpt>
      <trkpt lat="45.8634" lon="4.84665">
        <ele>182.3</ele>
        <time>2019-08-30T07:20:09Z</time>
      </trkpt>
      <trkpt lat="45.86341" lon="4.84655">
        <ele>182.3</ele>
        <time>2019-08-30T07:20:11Z</time>
      </trkpt>
      <trkpt lat="45.86343" lon="4.84643">
        <ele>182</ele>
        <time>2019-08-30T07:20:13Z</time>
      </trkpt>
      <trkpt lat="45.86346" lon="4.84616">
        <ele>181.2</ele>
        <time>2019-08-30T07:20:17Z</time>
      </trkpt>
      <trkpt lat="45.86346" lon="4.8461">
        <ele>181.1</ele>
        <time>2019-08-30T07:20:18Z</time>
      </trkpt>
      <trkpt lat="45.86352" lon="4.84589">
        <ele>180.5</ele>
        <time>2019-08-30T07:20:22Z</time>
      </trkpt>
      <trkpt lat="45.86356" lon="4.84587">
        <ele>180.7</ele>
        <time>2019-08-30T07:20:23Z</time>
      </trkpt>
      <trkpt lat="45.86367" lon="4.84591">
        <ele>181.1</ele>
        <time>2019-08-30T07:20:26Z</time>
      </trkpt>
      <trkpt lat="45.86371" lon="4.84593">
        <ele>181.3</ele>
        <time>2019-08-30T07:20:27Z</time>
      </trkpt>
      <trkpt lat="45.86394" lon="4.84602">
        <ele>182.5</ele>
        <time>2019-08-30T07:20:33Z</time>
      </trkpt>
      <trkpt lat="45.86422" lon="4.84609">
        <ele>183.2</ele>
        <time>2019-08-30T07:20:41Z</time>
      </trkpt>
      <trkpt lat="45.86426" lon="4.84593">
        <ele>182.6</ele>
        <time>2019-08-30T07:20:44Z</time>
      </trkpt>
      <trkpt lat="45.86426" lon="4.84587">
        <ele>182.4</ele>
        <time>2019-08-30T07:20:45Z</time>
      </trkpt>
      <trkpt lat="45.86428" lon="4.84548">
        <ele>181.3</ele>
        <time>2019-08-30T07:20:50Z</time>
      </trkpt>
      <trkpt lat="45.86429" lon="4.84496">
        <ele>180.1</ele>
        <time>2019-08-30T07:20:56Z</time>
      </trkpt>
      <trkpt lat="45.86429" lon="4.8443">
        <ele>178.9</ele>
        <time>2019-08-30T07:21:03Z</time>
      </trkpt>
      <trkpt lat="45.86429" lon="4.84405">
        <ele>178.5</ele>
        <time>2019-08-30T07:21:06Z</time>
      </trkpt>
      <trkpt lat="45.86429" lon="4.84393">
        <ele>178.5</ele>
        <time>2019-08-30T07:21:08Z</time>
      </trkpt>
      <trkpt lat="45.86429" lon="4.84387">
        <ele>178.6</ele>
        <time>2019-08-30T07:21:10Z</time>
      </trkpt>
      <trkpt lat="45.86431" lon="4.84385">
        <ele>178.7</ele>
        <time>2019-08-30T07:21:11Z</time>
      </trkpt>
      <trkpt lat="45.86437" lon="4.84381">
        <ele>178.8</ele>
        <time>2019-08-30T07:21:13Z</time>
      </trkpt>
      <trkpt lat="45.86445" lon="4.84377">
        <ele>179.1</ele>
        <time>2019-08-30T07:21:15Z</time>
      </trkpt>
      <trkpt lat="45.86454" lon="4.84374">
        <ele>179.4</ele>
        <time>2019-08-30T07:21:17Z</time>
      </trkpt>
      <trkpt lat="45.86473" lon="4.84369">
        <ele>179.9</ele>
        <time>2019-08-30T07:21:21Z</time>
      </trkpt>
      <trkpt lat="45.86482" lon="4.84366">
        <ele>180.2</ele>
        <time>2019-08-30T07:21:23Z</time>
      </trkpt>
      <trkpt lat="45.86499" lon="4.8436">
        <ele>180.8</ele>
        <time>2019-08-30T07:21:27Z</time>
      </trkpt>
      <trkpt lat="45.86508" lon="4.84357">
        <ele>181.1</ele>
        <time>2019-08-30T07:21:29Z</time>
      </trkpt>
      <trkpt lat="45.86521" lon="4.84353">
        <ele>181.5</ele>
        <time>2019-08-30T07:21:32Z</time>
      </trkpt>
      <trkpt lat="45.86536" lon="4.84352">
        <ele>182.3</ele>
        <time>2019-08-30T07:21:36Z</time>
      </trkpt>
      <trkpt lat="45.86567" lon="4.84359">
        <ele>184</ele>
        <time>2019-08-30T07:21:44Z</time>
      </trkpt>
      <trkpt lat="45.86589" lon="4.84372">
        <ele>184.8</ele>
        <time>2019-08-30T07:21:50Z</time>
      </trkpt>
      <trkpt lat="45.86596" lon="4.84377">
        <ele>185.3</ele>
        <time>2019-08-30T07:21:52Z</time>
      </trkpt>
      <trkpt lat="45.86603" lon="4.84382">
        <ele>186</ele>
        <time>2019-08-30T07:21:54Z</time>
      </trkpt>
      <trkpt lat="45.86622" lon="4.8439">
        <ele>187.1</ele>
        <time>2019-08-30T07:21:59Z</time>
      </trkpt>
      <trkpt lat="45.86645" lon="4.8439">
        <ele>187.7</ele>
        <time>2019-08-30T07:22:05Z</time>
      </trkpt>
      <trkpt lat="45.86655" lon="4.84389">
        <ele>187.9</ele>
        <time>2019-08-30T07:22:08Z</time>
      </trkpt>
      <trkpt lat="45.8667" lon="4.84385">
        <ele>187.9</ele>
        <time>2019-08-30T07:22:12Z</time>
      </trkpt>
      <trkpt lat="45.86674" lon="4.84385">
        <ele>187.9</ele>
        <time>2019-08-30T07:22:13Z</time>
      </trkpt>
      <trkpt lat="45.86705" lon="4.84374">
        <ele>187.5</ele>
        <time>2019-08-30T07:22:20Z</time>
      </trkpt>
      <trkpt lat="45.86715" lon="4.8437">
        <ele>187.4</ele>
        <time>2019-08-30T07:22:22Z</time>
      </trkpt>
      <trkpt lat="45.8673" lon="4.84371">
        <ele>187.3</ele>
        <time>2019-08-30T07:22:25Z</time>
      </trkpt>
      <trkpt lat="45.86736" lon="4.8436">
        <ele>187</ele>
        <time>2019-08-30T07:22:27Z</time>
      </trkpt>
      <trkpt lat="45.86739" lon="4.84339">
        <ele>186.6</ele>
        <time>2019-08-30T07:22:30Z</time>
      </trkpt>
      <trkpt lat="45.86746" lon="4.84318">
        <ele>186.3</ele>
        <time>2019-08-30T07:22:33Z</time>
      </trkpt>
      <trkpt lat="45.86748" lon="4.84311">
        <ele>186.2</ele>
        <time>2019-08-30T07:22:34Z</time>
      </trkpt>
      <trkpt lat="45.8675" lon="4.84303">
        <ele>186.1</ele>
        <time>2019-08-30T07:22:35Z</time>
      </trkpt>
      <trkpt lat="45.86769" lon="4.84259">
        <ele>185.1</ele>
        <time>2019-08-30T07:22:41Z</time>
      </trkpt>
      <trkpt lat="45.86783" lon="4.84216">
        <ele>183.7</ele>
        <time>2019-08-30T07:22:46Z</time>
      </trkpt>
      <trkpt lat="45.86794" lon="4.84169">
        <ele>181.8</ele>
        <time>2019-08-30T07:22:51Z</time>
      </trkpt>
      <trkpt lat="45.86797" lon="4.8416">
        <ele>181.5</ele>
        <time>2019-08-30T07:22:52Z</time>
      </trkpt>
      <trkpt lat="45.86802" lon="4.84151">
        <ele>181.1</ele>
        <time>2019-08-30T07:22:53Z</time>
      </trkpt>
      <trkpt lat="45.86807" lon="4.84143">
        <ele>180.7</ele>
        <time>2019-08-30T07:22:54Z</time>
      </trkpt>
      <trkpt lat="45.86812" lon="4.84134">
        <ele>180.2</ele>
        <time>2019-08-30T07:22:55Z</time>
      </trkpt>
      <trkpt lat="45.8683" lon="4.84108">
        <ele>178.3</ele>
        <time>2019-08-30T07:22:58Z</time>
      </trkpt>
      <trkpt lat="45.86833" lon="4.84095">
        <ele>177.4</ele>
        <time>2019-08-30T07:22:59Z</time>
      </trkpt>
      <trkpt lat="45.86835" lon="4.84081">
        <ele>176.7</ele>
        <time>2019-08-30T07:23:00Z</time>
      </trkpt>
      <trkpt lat="45.86835" lon="4.84041">
        <ele>174.8</ele>
        <time>2019-08-30T07:23:03Z</time>
      </trkpt>
      <trkpt lat="45.86833" lon="4.84026">
        <ele>174.2</ele>
        <time>2019-08-30T07:23:04Z</time>
      </trkpt>
      <trkpt lat="45.86832" lon="4.84012">
        <ele>173.6</ele>
        <time>2019-08-30T07:23:05Z</time>
      </trkpt>
      <trkpt lat="45.86833" lon="4.84001">
        <ele>173.1</ele>
        <time>2019-08-30T07:23:06Z</time>
      </trkpt>
      <trkpt lat="45.86836" lon="4.83993">
        <ele>172.4</ele>
        <time>2019-08-30T07:23:07Z</time>
      </trkpt>
      <trkpt lat="45.86842" lon="4.83977">
        <ele>171.2</ele>
        <time>2019-08-30T07:23:09Z</time>
      </trkpt>
      <trkpt lat="45.86844" lon="4.8397">
        <ele>171</ele>
        <time>2019-08-30T07:23:10Z</time>
      </trkpt>
      <trkpt lat="45.86845" lon="4.83963">
        <ele>170.9</ele>
        <time>2019-08-30T07:23:11Z</time>
      </trkpt>
      <trkpt lat="45.86842" lon="4.83956">
        <ele>170.9</ele>
        <time>2019-08-30T07:23:12Z</time>
      </trkpt>
      <trkpt lat="45.86835" lon="4.83952">
        <ele>170.9</ele>
        <time>2019-08-30T07:23:14Z</time>
      </trkpt>
      <trkpt lat="45.86822" lon="4.83954">
        <ele>170.8</ele>
        <time>2019-08-30T07:23:16Z</time>
      </trkpt>
      <trkpt lat="45.86816" lon="4.83954">
        <ele>170.8</ele>
        <time>2019-08-30T07:23:17Z</time>
      </trkpt>
      <trkpt lat="45.86778" lon="4.83953">
        <ele>170.6</ele>
        <time>2019-08-30T07:23:23Z</time>
      </trkpt>
      <trkpt lat="45.86772" lon="4.8395">
        <ele>170.5</ele>
        <time>2019-08-30T07:23:24Z</time>
      </trkpt>
      <trkpt lat="45.86753" lon="4.83949">
        <ele>170.3</ele>
        <time>2019-08-30T07:23:27Z</time>
      </trkpt>
      <trkpt lat="45.8674" lon="4.83948">
        <ele>170.1</ele>
        <time>2019-08-30T07:23:29Z</time>
      </trkpt>
      <trkpt lat="45.86708" lon="4.83944">
        <ele>169.7</ele>
        <time>2019-08-30T07:23:34Z</time>
      </trkpt>
      <trkpt lat="45.86662" lon="4.83944">
        <ele>169.3</ele>
        <time>2019-08-30T07:23:42Z</time>
      </trkpt>
      <trkpt lat="45.86653" lon="4.83942">
        <ele>169.1</ele>
        <time>2019-08-30T07:23:45Z</time>
      </trkpt>
      <trkpt lat="45.86651" lon="4.83939">
        <ele>169</ele>
        <time>2019-08-30T07:23:46Z</time>
      </trkpt>
      <trkpt lat="45.86651" lon="4.83925">
        <ele>166.3</ele>
        <time>2019-08-30T07:23:50Z</time>
      </trkpt>
      <trkpt lat="45.86652" lon="4.8392">
        <ele>166.3</ele>
        <time>2019-08-30T07:23:51Z</time>
      </trkpt>
      <trkpt lat="45.86655" lon="4.83913">
        <ele>166.2</ele>
        <time>2019-08-30T07:23:52Z</time>
      </trkpt>
      <trkpt lat="45.86658" lon="4.83907">
        <ele>166.2</ele>
        <time>2019-08-30T07:23:53Z</time>
      </trkpt>
      <trkpt lat="45.86667" lon="4.83893">
        <ele>166.1</ele>
        <time>2019-08-30T07:23:56Z</time>
      </trkpt>
      <trkpt lat="45.86672" lon="4.83888">
        <ele>166.1</ele>
        <time>2019-08-30T07:23:57Z</time>
      </trkpt>
      <trkpt lat="45.86677" lon="4.83884">
        <ele>166.1</ele>
        <time>2019-08-30T07:23:58Z</time>
      </trkpt>
      <trkpt lat="45.8671" lon="4.83847">
        <ele>166.2</ele>
        <time>2019-08-30T07:24:05Z</time>
      </trkpt>
      <trkpt lat="45.8674" lon="4.83821">
        <ele>166.3</ele>
        <time>2019-08-30T07:24:11Z</time>
      </trkpt>
      <trkpt lat="45.86749" lon="4.83812">
        <ele>166.2</ele>
        <time>2019-08-30T07:24:13Z</time>
      </trkpt>
      <trkpt lat="45.86787" lon="4.83775">
        <ele>166</ele>
        <time>2019-08-30T07:24:21Z</time>
      </trkpt>
      <trkpt lat="45.8683" lon="4.83748">
        <ele>166.1</ele>
        <time>2019-08-30T07:24:29Z</time>
      </trkpt>
      <trkpt lat="45.8684" lon="4.83742">
        <ele>166.1</ele>
        <time>2019-08-30T07:24:31Z</time>
      </trkpt>
      <trkpt lat="45.86876" lon="4.83718">
        <ele>166</ele>
        <time>2019-08-30T07:24:38Z</time>
      </trkpt>
      <trkpt lat="45.86905" lon="4.83711">
        <ele>166.1</ele>
        <time>2019-08-30T07:24:43Z</time>
      </trkpt>
      <trkpt lat="45.86911" lon="4.83709">
        <ele>166.2</ele>
        <time>2019-08-30T07:24:44Z</time>
      </trkpt>
      <trkpt lat="45.86923" lon="4.83706">
        <ele>166.2</ele>
        <time>2019-08-30T07:24:46Z</time>
      </trkpt>
      <trkpt lat="45.86948" lon="4.83702">
        <ele>166</ele>
        <time>2019-08-30T07:24:50Z</time>
      </trkpt>
      <trkpt lat="45.8699" lon="4.837">
        <ele>165.8</ele>
        <time>2019-08-30T07:24:57Z</time>
      </trkpt>
      <trkpt lat="45.87037" lon="4.837">
        <ele>165.9</ele>
        <time>2019-08-30T07:25:05Z</time>
      </trkpt>
      <trkpt lat="45.87083" lon="4.83702">
        <ele>166</ele>
        <time>2019-08-30T07:25:13Z</time>
      </trkpt>
      <trkpt lat="45.87122" lon="4.83709">
        <ele>166</ele>
        <time>2019-08-30T07:25:20Z</time>
      </trkpt>
      <trkpt lat="45.87146" lon="4.83712">
        <ele>166</ele>
        <time>2019-08-30T07:25:24Z</time>
      </trkpt>
      <trkpt lat="45.87157" lon="4.83715">
        <ele>166.1</ele>
        <time>2019-08-30T07:25:26Z</time>
      </trkpt>
      <trkpt lat="45.87162" lon="4.83716">
        <ele>166.1</ele>
        <time>2019-08-30T07:25:27Z</time>
      </trkpt>
      <trkpt lat="45.87207" lon="4.83724">
        <ele>166.1</ele>
        <time>2019-08-30T07:25:35Z</time>
      </trkpt>
      <trkpt lat="45.87224" lon="4.83727">
        <ele>166.1</ele>
        <time>2019-08-30T07:25:38Z</time>
      </trkpt>
      <trkpt lat="45.87235" lon="4.83725">
        <ele>166.1</ele>
        <time>2019-08-30T07:25:40Z</time>
      </trkpt>
      <trkpt lat="45.87267" lon="4.83729">
        <ele>166.1</ele>
        <time>2019-08-30T07:25:46Z</time>
      </trkpt>
      <trkpt lat="45.87288" lon="4.83732">
        <ele>166</ele>
        <time>2019-08-30T07:25:50Z</time>
      </trkpt>
      <trkpt lat="45.87315" lon="4.83736">
        <ele>166</ele>
        <time>2019-08-30T07:25:55Z</time>
      </trkpt>
      <trkpt lat="45.87347" lon="4.83741">
        <ele>166</ele>
        <time>2019-08-30T07:26:01Z</time>
      </trkpt>
      <trkpt lat="45.87396" lon="4.83753">
        <ele>166.1</ele>
        <time>2019-08-30T07:26:10Z</time>
      </trkpt>
      <trkpt lat="45.8743" lon="4.83755">
        <ele>166.3</ele>
        <time>2019-08-30T07:26:16Z</time>
      </trkpt>
      <trkpt lat="45.87451" lon="4.8376">
        <ele>166.6</ele>
        <time>2019-08-30T07:26:20Z</time>
      </trkpt>
      <trkpt lat="45.87467" lon="4.83764">
        <ele>166.7</ele>
        <time>2019-08-30T07:26:23Z</time>
      </trkpt>
      <trkpt lat="45.87483" lon="4.83768">
        <ele>166.6</ele>
        <time>2019-08-30T07:26:26Z</time>
      </trkpt>
      <trkpt lat="45.875" lon="4.83769">
        <ele>166.5</ele>
        <time>2019-08-30T07:26:29Z</time>
      </trkpt>
      <trkpt lat="45.87549" lon="4.83777">
        <ele>166.2</ele>
        <time>2019-08-30T07:26:38Z</time>
      </trkpt>
      <trkpt lat="45.87569" lon="4.83781">
        <ele>166.1</ele>
        <time>2019-08-30T07:26:42Z</time>
      </trkpt>
      <trkpt lat="45.87579" lon="4.83779">
        <ele>166.1</ele>
        <time>2019-08-30T07:26:44Z</time>
      </trkpt>
      <trkpt lat="45.87588" lon="4.83781">
        <ele>166</ele>
        <time>2019-08-30T07:26:46Z</time>
      </trkpt>
      <trkpt lat="45.87603" lon="4.83785">
        <ele>166</ele>
        <time>2019-08-30T07:26:49Z</time>
      </trkpt>
      <trkpt lat="45.87637" lon="4.83787">
        <ele>166.1</ele>
        <time>2019-08-30T07:26:57Z</time>
      </trkpt>
      <trkpt lat="45.87655" lon="4.83785">
        <ele>166.1</ele>
        <time>2019-08-30T07:27:01Z</time>
      </trkpt>
      <trkpt lat="45.87664" lon="4.83786">
        <ele>166.1</ele>
        <time>2019-08-30T07:27:03Z</time>
      </trkpt>
      <trkpt lat="45.87691" lon="4.83784">
        <ele>166.1</ele>
        <time>2019-08-30T07:27:09Z</time>
      </trkpt>
      <trkpt lat="45.87713" lon="4.83779">
        <ele>166.1</ele>
        <time>2019-08-30T07:27:15Z</time>
      </trkpt>
      <trkpt lat="45.87722" lon="4.83782">
        <ele>166.1</ele>
        <time>2019-08-30T07:27:20Z</time>
      </trkpt>
      <trkpt lat="45.87722" lon="4.8379">
        <ele>166.1</ele>
        <time>2019-08-30T07:27:26Z</time>
      </trkpt>
      <trkpt lat="45.87722" lon="4.83793">
        <ele>166.1</ele>
        <time>2019-08-30T07:27:27Z</time>
      </trkpt>
      <trkpt lat="45.87721" lon="4.83805">
        <ele>165.7</ele>
        <time>2019-08-30T07:27:32Z</time>
      </trkpt>
      <trkpt lat="45.87718" lon="4.83822">
        <ele>166</ele>
        <time>2019-08-30T07:27:38Z</time>
      </trkpt>
      <trkpt lat="45.87716" lon="4.83822">
        <ele>166.1</ele>
        <time>2019-08-30T07:27:39Z</time>
      </trkpt>
      <trkpt lat="45.87712" lon="4.8382">
        <ele>166.3</ele>
        <time>2019-08-30T07:27:41Z</time>
      </trkpt>
      <trkpt lat="45.87706" lon="4.8381">
        <ele>165.6</ele>
        <time>2019-08-30T07:27:43Z</time>
      </trkpt>
      <trkpt lat="45.87704" lon="4.83804">
        <ele>165.6</ele>
        <time>2019-08-30T07:27:44Z</time>
      </trkpt>
      <trkpt lat="45.87702" lon="4.83782">
        <ele>165.9</ele>
        <time>2019-08-30T07:27:48Z</time>
      </trkpt>
      <trkpt lat="45.87699" lon="4.83731">
        <ele>166.9</ele>
        <time>2019-08-30T07:27:57Z</time>
      </trkpt>
      <trkpt lat="45.87698" lon="4.83721">
        <ele>167.1</ele>
        <time>2019-08-30T07:27:59Z</time>
      </trkpt>
      <trkpt lat="45.87695" lon="4.83707">
        <ele>167.5</ele>
        <time>2019-08-30T07:28:04Z</time>
      </trkpt>
      <trkpt lat="45.87695" lon="4.83701">
        <ele>167.6</ele>
        <time>2019-08-30T07:28:08Z</time>
      </trkpt>
      <trkpt lat="45.87696" lon="4.83698">
        <ele>167.7</ele>
        <time>2019-08-30T07:28:09Z</time>
      </trkpt>
      <trkpt lat="45.87695" lon="4.83685">
        <ele>167.8</ele>
        <time>2019-08-30T07:28:12Z</time>
      </trkpt>
      <trkpt lat="45.87694" lon="4.83678">
        <ele>167.8</ele>
        <time>2019-08-30T07:28:13Z</time>
      </trkpt>
      <trkpt lat="45.8769" lon="4.83626">
        <ele>167.3</ele>
        <time>2019-08-30T07:28:22Z</time>
      </trkpt>
      <trkpt lat="45.87688" lon="4.83594">
        <ele>166.7</ele>
        <time>2019-08-30T07:28:27Z</time>
      </trkpt>
      <trkpt lat="45.87686" lon="4.83575">
        <ele>166.1</ele>
        <time>2019-08-30T07:28:30Z</time>
      </trkpt>
      <trkpt lat="45.87687" lon="4.83554">
        <ele>165.5</ele>
        <time>2019-08-30T07:28:35Z</time>
      </trkpt>
      <trkpt lat="45.87687" lon="4.83529">
        <ele>167.8</ele>
        <time>2019-08-30T07:28:39Z</time>
      </trkpt>
      <trkpt lat="45.87684" lon="4.83516">
        <ele>169.7</ele>
        <time>2019-08-30T07:28:41Z</time>
      </trkpt>
      <trkpt lat="45.87676" lon="4.83486">
        <ele>171.1</ele>
        <time>2019-08-30T07:28:45Z</time>
      </trkpt>
      <trkpt lat="45.87663" lon="4.83452">
        <ele>171.6</ele>
        <time>2019-08-30T07:28:50Z</time>
      </trkpt>
      <trkpt lat="45.87656" lon="4.83439">
        <ele>171.9</ele>
        <time>2019-08-30T07:28:52Z</time>
      </trkpt>
      <trkpt lat="45.87637" lon="4.83412">
        <ele>172.9</ele>
        <time>2019-08-30T07:28:57Z</time>
      </trkpt>
      <trkpt lat="45.87632" lon="4.83407">
        <ele>173</ele>
        <time>2019-08-30T07:28:58Z</time>
      </trkpt>
      <trkpt lat="45.876" lon="4.83377">
        <ele>174.7</ele>
        <time>2019-08-30T07:29:05Z</time>
      </trkpt>
      <trkpt lat="45.87592" lon="4.83368">
        <ele>175</ele>
        <time>2019-08-30T07:29:07Z</time>
      </trkpt>
      <trkpt lat="45.87578" lon="4.8335">
        <ele>175.7</ele>
        <time>2019-08-30T07:29:11Z</time>
      </trkpt>
      <trkpt lat="45.87569" lon="4.83336">
        <ele>176.2</ele>
        <time>2019-08-30T07:29:14Z</time>
      </trkpt>
      <trkpt lat="45.87563" lon="4.83327">
        <ele>176.5</ele>
        <time>2019-08-30T07:29:16Z</time>
      </trkpt>
      <trkpt lat="45.8756" lon="4.83323">
        <ele>176.6</ele>
        <time>2019-08-30T07:29:17Z</time>
      </trkpt>
      <trkpt lat="45.87551" lon="4.83307">
        <ele>177.3</ele>
        <time>2019-08-30T07:29:21Z</time>
      </trkpt>
      <trkpt lat="45.87547" lon="4.83299">
        <ele>177.6</ele>
        <time>2019-08-30T07:29:23Z</time>
      </trkpt>
      <trkpt lat="45.87544" lon="4.8328">
        <ele>178.3</ele>
        <time>2019-08-30T07:29:27Z</time>
      </trkpt>
      <trkpt lat="45.87544" lon="4.83275">
        <ele>178.5</ele>
        <time>2019-08-30T07:29:28Z</time>
      </trkpt>
      <trkpt lat="45.87549" lon="4.83262">
        <ele>179.3</ele>
        <time>2019-08-30T07:29:31Z</time>
      </trkpt>
      <trkpt lat="45.87551" lon="4.83258">
        <ele>179.4</ele>
        <time>2019-08-30T07:29:32Z</time>
      </trkpt>
      <trkpt lat="45.8756" lon="4.8325">
        <ele>179.8</ele>
        <time>2019-08-30T07:29:35Z</time>
      </trkpt>
      <trkpt lat="45.87569" lon="4.83241">
        <ele>180.2</ele>
        <time>2019-08-30T07:29:38Z</time>
      </trkpt>
      <trkpt lat="45.87573" lon="4.83235">
        <ele>180.5</ele>
        <time>2019-08-30T07:29:40Z</time>
      </trkpt>
      <trkpt lat="45.87575" lon="4.83222">
        <ele>180.8</ele>
        <time>2019-08-30T07:29:43Z</time>
      </trkpt>
      <trkpt lat="45.87574" lon="4.83218">
        <ele>180.9</ele>
        <time>2019-08-30T07:29:44Z</time>
      </trkpt>
      <trkpt lat="45.87569" lon="4.83207">
        <ele>181.7</ele>
        <time>2019-08-30T07:29:47Z</time>
      </trkpt>
      <trkpt lat="45.87566" lon="4.832">
        <ele>182.1</ele>
        <time>2019-08-30T07:29:49Z</time>
      </trkpt>
      <trkpt lat="45.87555" lon="4.83179">
        <ele>183.6</ele>
        <time>2019-08-30T07:29:56Z</time>
      </trkpt>
      <trkpt lat="45.87549" lon="4.83167">
        <ele>184.5</ele>
        <time>2019-08-30T07:30:00Z</time>
      </trkpt>
      <trkpt lat="45.87548" lon="4.8316">
        <ele>184.9</ele>
        <time>2019-08-30T07:30:02Z</time>
      </trkpt>
      <trkpt lat="45.8755" lon="4.83144">
        <ele>186.2</ele>
        <time>2019-08-30T07:30:08Z</time>
      </trkpt>
      <trkpt lat="45.8755" lon="4.83141">
        <ele>186.4</ele>
        <time>2019-08-30T07:30:09Z</time>
      </trkpt>
      <trkpt lat="45.87549" lon="4.83118">
        <ele>188</ele>
        <time>2019-08-30T07:30:17Z</time>
      </trkpt>
      <trkpt lat="45.87549" lon="4.83115">
        <ele>188.2</ele>
        <time>2019-08-30T07:30:18Z</time>
      </trkpt>
      <trkpt lat="45.87547" lon="4.83095">
        <ele>189.6</ele>
        <time>2019-08-30T07:30:24Z</time>
      </trkpt>
      <trkpt lat="45.87546" lon="4.8309">
        <ele>190</ele>
        <time>2019-08-30T07:30:26Z</time>
      </trkpt>
      <trkpt lat="45.87545" lon="4.83085">
        <ele>190.5</ele>
        <time>2019-08-30T07:30:28Z</time>
      </trkpt>
      <trkpt lat="45.87544" lon="4.83069">
        <ele>191.9</ele>
        <time>2019-08-30T07:30:34Z</time>
      </trkpt>
      <trkpt lat="45.87543" lon="4.83067">
        <ele>192.1</ele>
        <time>2019-08-30T07:30:35Z</time>
      </trkpt>
      <trkpt lat="45.87541" lon="4.83059">
        <ele>192.8</ele>
        <time>2019-08-30T07:30:39Z</time>
      </trkpt>
      <trkpt lat="45.8754" lon="4.8305">
        <ele>193.9</ele>
        <time>2019-08-30T07:30:43Z</time>
      </trkpt>
      <trkpt lat="45.8754" lon="4.83047">
        <ele>194.2</ele>
        <time>2019-08-30T07:30:44Z</time>
      </trkpt>
      <trkpt lat="45.87539" lon="4.83042">
        <ele>194.8</ele>
        <time>2019-08-30T07:30:47Z</time>
      </trkpt>
      <trkpt lat="45.87539" lon="4.83036">
        <ele>195.6</ele>
        <time>2019-08-30T07:30:50Z</time>
      </trkpt>
      <trkpt lat="45.87538" lon="4.83032">
        <ele>196.1</ele>
        <time>2019-08-30T07:30:52Z</time>
      </trkpt>
      <trkpt lat="45.87538" lon="4.83022">
        <ele>198.5</ele>
        <time>2019-08-30T07:30:56Z</time>
      </trkpt>
      <trkpt lat="45.87538" lon="4.83016">
        <ele>198.8</ele>
        <time>2019-08-30T07:30:59Z</time>
      </trkpt>
      <trkpt lat="45.87539" lon="4.83014">
        <ele>198.9</ele>
        <time>2019-08-30T07:31:00Z</time>
      </trkpt>
      <trkpt lat="45.87539" lon="4.83">
        <ele>200.2</ele>
        <time>2019-08-30T07:31:07Z</time>
      </trkpt>
      <trkpt lat="45.87537" lon="4.8299">
        <ele>201</ele>
        <time>2019-08-30T07:31:11Z</time>
      </trkpt>
      <trkpt lat="45.87534" lon="4.82974">
        <ele>202</ele>
        <time>2019-08-30T07:31:17Z</time>
      </trkpt>
      <trkpt lat="45.87532" lon="4.82969">
        <ele>202.4</ele>
        <time>2019-08-30T07:31:19Z</time>
      </trkpt>
      <trkpt lat="45.87531" lon="4.82962">
        <ele>202.8</ele>
        <time>2019-08-30T07:31:22Z</time>
      </trkpt>
      <trkpt lat="45.87526" lon="4.82946">
        <ele>203.9</ele>
        <time>2019-08-30T07:31:28Z</time>
      </trkpt>
      <trkpt lat="45.87526" lon="4.82943">
        <ele>204.1</ele>
        <time>2019-08-30T07:31:29Z</time>
      </trkpt>
      <trkpt lat="45.87522" lon="4.82934">
        <ele>204.8</ele>
        <time>2019-08-30T07:31:33Z</time>
      </trkpt>
      <trkpt lat="45.87521" lon="4.82931">
        <ele>205</ele>
        <time>2019-08-30T07:31:34Z</time>
      </trkpt>
      <trkpt lat="45.87515" lon="4.82913">
        <ele>206</ele>
        <time>2019-08-30T07:31:41Z</time>
      </trkpt>
      <trkpt lat="45.87514" lon="4.82911">
        <ele>206</ele>
        <time>2019-08-30T07:31:42Z</time>
      </trkpt>
      <trkpt lat="45.8751" lon="4.82897">
        <ele>206.3</ele>
        <time>2019-08-30T07:31:47Z</time>
      </trkpt>
      <trkpt lat="45.87507" lon="4.82887">
        <ele>206.5</ele>
        <time>2019-08-30T07:31:50Z</time>
      </trkpt>
      <trkpt lat="45.87505" lon="4.8288">
        <ele>206.7</ele>
        <time>2019-08-30T07:31:52Z</time>
      </trkpt>
      <trkpt lat="45.87502" lon="4.82871">
        <ele>206.9</ele>
        <time>2019-08-30T07:31:55Z</time>
      </trkpt>
      <trkpt lat="45.87498" lon="4.82861">
        <ele>206.8</ele>
        <time>2019-08-30T07:31:58Z</time>
      </trkpt>
      <trkpt lat="45.87491" lon="4.82843">
        <ele>206.8</ele>
        <time>2019-08-30T07:32:03Z</time>
      </trkpt>
      <trkpt lat="45.87485" lon="4.8283">
        <ele>206.7</ele>
        <time>2019-08-30T07:32:07Z</time>
      </trkpt>
      <trkpt lat="45.87481" lon="4.82822">
        <ele>206.8</ele>
        <time>2019-08-30T07:32:09Z</time>
      </trkpt>
      <trkpt lat="45.87476" lon="4.8281">
        <ele>207.2</ele>
        <time>2019-08-30T07:32:12Z</time>
      </trkpt>
      <trkpt lat="45.87466" lon="4.82789">
        <ele>207.2</ele>
        <time>2019-08-30T07:32:17Z</time>
      </trkpt>
      <trkpt lat="45.87448" lon="4.82753">
        <ele>207.2</ele>
        <time>2019-08-30T07:32:25Z</time>
      </trkpt>
      <trkpt lat="45.87426" lon="4.82708">
        <ele>207.3</ele>
        <time>2019-08-30T07:32:35Z</time>
      </trkpt>
      <trkpt lat="45.87412" lon="4.82678">
        <ele>210.1</ele>
        <time>2019-08-30T07:32:42Z</time>
      </trkpt>
      <trkpt lat="45.8739" lon="4.82631">
        <ele>210.9</ele>
        <time>2019-08-30T07:32:52Z</time>
      </trkpt>
      <trkpt lat="45.87372" lon="4.82593">
        <ele>210.7</ele>
        <time>2019-08-30T07:32:59Z</time>
      </trkpt>
      <trkpt lat="45.87369" lon="4.82588">
        <ele>210.7</ele>
        <time>2019-08-30T07:33:00Z</time>
      </trkpt>
      <trkpt lat="45.87346" lon="4.82538">
        <ele>211.5</ele>
        <time>2019-08-30T07:33:09Z</time>
      </trkpt>
      <trkpt lat="45.87325" lon="4.82491">
        <ele>211.9</ele>
        <time>2019-08-30T07:33:17Z</time>
      </trkpt>
      <trkpt lat="45.87303" lon="4.82449">
        <ele>211.1</ele>
        <time>2019-08-30T07:33:24Z</time>
      </trkpt>
      <trkpt lat="45.87289" lon="4.82424">
        <ele>210.5</ele>
        <time>2019-08-30T07:33:28Z</time>
      </trkpt>
      <trkpt lat="45.87285" lon="4.82417">
        <ele>210.3</ele>
        <time>2019-08-30T07:33:29Z</time>
      </trkpt>
      <trkpt lat="45.87272" lon="4.82394">
        <ele>209.9</ele>
        <time>2019-08-30T07:33:32Z</time>
      </trkpt>
      <trkpt lat="45.87261" lon="4.82376">
        <ele>209.5</ele>
        <time>2019-08-30T07:33:34Z</time>
      </trkpt>
      <trkpt lat="45.87255" lon="4.82367">
        <ele>209.3</ele>
        <time>2019-08-30T07:33:35Z</time>
      </trkpt>
      <trkpt lat="45.87244" lon="4.82348">
        <ele>209.1</ele>
        <time>2019-08-30T07:33:37Z</time>
      </trkpt>
      <trkpt lat="45.87232" lon="4.82327">
        <ele>209.4</ele>
        <time>2019-08-30T07:33:39Z</time>
      </trkpt>
      <trkpt lat="45.87226" lon="4.82317">
        <ele>209.5</ele>
        <time>2019-08-30T07:33:40Z</time>
      </trkpt>
      <trkpt lat="45.8722" lon="4.82307">
        <ele>209.6</ele>
        <time>2019-08-30T07:33:41Z</time>
      </trkpt>
      <trkpt lat="45.87212" lon="4.82289">
        <ele>209.8</ele>
        <time>2019-08-30T07:33:43Z</time>
      </trkpt>
      <trkpt lat="45.87212" lon="4.82281">
        <ele>209.2</ele>
        <time>2019-08-30T07:33:44Z</time>
      </trkpt>
      <trkpt lat="45.87216" lon="4.82275">
        <ele>208.7</ele>
        <time>2019-08-30T07:33:45Z</time>
      </trkpt>
      <trkpt lat="45.87221" lon="4.8227">
        <ele>208</ele>
        <time>2019-08-30T07:33:46Z</time>
      </trkpt>
      <trkpt lat="45.87227" lon="4.82267">
        <ele>207.3</ele>
        <time>2019-08-30T07:33:47Z</time>
      </trkpt>
      <trkpt lat="45.87234" lon="4.82264">
        <ele>206.5</ele>
        <time>2019-08-30T07:33:48Z</time>
      </trkpt>
      <trkpt lat="45.87246" lon="4.82259">
        <ele>205.3</ele>
        <time>2019-08-30T07:33:50Z</time>
      </trkpt>
      <trkpt lat="45.87255" lon="4.82256">
        <ele>204.4</ele>
        <time>2019-08-30T07:33:53Z</time>
      </trkpt>
      <trkpt lat="45.87259" lon="4.82256">
        <ele>204.3</ele>
        <time>2019-08-30T07:33:54Z</time>
      </trkpt>
      <trkpt lat="45.87264" lon="4.82256">
        <ele>204.1</ele>
        <time>2019-08-30T07:33:56Z</time>
      </trkpt>
      <trkpt lat="45.87265" lon="4.82258">
        <ele>204.1</ele>
        <time>2019-08-30T07:33:57Z</time>
      </trkpt>
      <trkpt lat="45.87266" lon="4.82259">
        <ele>204.1</ele>
        <time>2019-08-30T07:33:58Z</time>
      </trkpt>
      <trkpt lat="45.87272" lon="4.82264">
        <ele>203.7</ele>
        <time>2019-08-30T07:34:01Z</time>
      </trkpt>
      <trkpt lat="45.87275" lon="4.82267">
        <ele>203.4</ele>
        <time>2019-08-30T07:34:02Z</time>
      </trkpt>
      <trkpt lat="45.8729" lon="4.82284">
        <ele>202.2</ele>
        <time>2019-08-30T07:34:06Z</time>
      </trkpt>
      <trkpt lat="45.87299" lon="4.82296">
        <ele>201.9</ele>
        <time>2019-08-30T07:34:08Z</time>
      </trkpt>
      <trkpt lat="45.87303" lon="4.82314">
        <ele>201.8</ele>
        <time>2019-08-30T07:34:11Z</time>
      </trkpt>
      <trkpt lat="45.87305" lon="4.8232">
        <ele>201.8</ele>
        <time>2019-08-30T07:34:12Z</time>
      </trkpt>
      <trkpt lat="45.87317" lon="4.82344">
        <ele>201.3</ele>
        <time>2019-08-30T07:34:16Z</time>
      </trkpt>
      <trkpt lat="45.87325" lon="4.82351">
        <ele>201</ele>
        <time>2019-08-30T07:34:19Z</time>
      </trkpt>
      <trkpt lat="45.87328" lon="4.82347">
        <ele>201</ele>
        <time>2019-08-30T07:34:21Z</time>
      </trkpt>
      <trkpt lat="45.87332" lon="4.82337">
        <ele>201.6</ele>
        <time>2019-08-30T07:34:23Z</time>
      </trkpt>
      <trkpt lat="45.87344" lon="4.82312">
        <ele>203.1</ele>
        <time>2019-08-30T07:34:28Z</time>
      </trkpt>
      <trkpt lat="45.87347" lon="4.82308">
        <ele>203.4</ele>
        <time>2019-08-30T07:34:29Z</time>
      </trkpt>
      <trkpt lat="45.87368" lon="4.82296">
        <ele>205</ele>
        <time>2019-08-30T07:34:35Z</time>
      </trkpt>
      <trkpt lat="45.87379" lon="4.82292">
        <ele>206</ele>
        <time>2019-08-30T07:34:40Z</time>
      </trkpt>
      <trkpt lat="45.8738" lon="4.82291">
        <ele>206.1</ele>
        <time>2019-08-30T07:34:41Z</time>
      </trkpt>
      <trkpt lat="45.87383" lon="4.82291">
        <ele>206.4</ele>
        <time>2019-08-30T07:34:43Z</time>
      </trkpt>
      <trkpt lat="45.87385" lon="4.8229">
        <ele>206.5</ele>
        <time>2019-08-30T07:34:45Z</time>
      </trkpt>
      <trkpt lat="45.87386" lon="4.8229">
        <ele>206.6</ele>
        <time>2019-08-30T07:34:46Z</time>
      </trkpt>
      <trkpt lat="45.87388" lon="4.82292">
        <ele>206.6</ele>
        <time>2019-08-30T07:34:47Z</time>
      </trkpt>
      <trkpt lat="45.87393" lon="4.8229">
        <ele>206.8</ele>
        <time>2019-08-30T07:34:50Z</time>
      </trkpt>
      <trkpt lat="45.87399" lon="4.82285">
        <ele>207.1</ele>
        <time>2019-08-30T07:34:53Z</time>
      </trkpt>
      <trkpt lat="45.87402" lon="4.82285">
        <ele>207.2</ele>
        <time>2019-08-30T07:34:54Z</time>
      </trkpt>
      <trkpt lat="45.87413" lon="4.82292">
        <ele>207.7</ele>
        <time>2019-08-30T07:34:59Z</time>
      </trkpt>
      <trkpt lat="45.87418" lon="4.82299">
        <ele>208</ele>
        <time>2019-08-30T07:35:02Z</time>
      </trkpt>
      <trkpt lat="45.87421" lon="4.82303">
        <ele>208.2</ele>
        <time>2019-08-30T07:35:04Z</time>
      </trkpt>
      <trkpt lat="45.87425" lon="4.82308">
        <ele>208.6</ele>
        <time>2019-08-30T07:35:06Z</time>
      </trkpt>
      <trkpt lat="45.87435" lon="4.8232">
        <ele>209.4</ele>
        <time>2019-08-30T07:35:11Z</time>
      </trkpt>
      <trkpt lat="45.87437" lon="4.82321">
        <ele>209.5</ele>
        <time>2019-08-30T07:35:12Z</time>
      </trkpt>
      <trkpt lat="45.87439" lon="4.82321">
        <ele>209.6</ele>
        <time>2019-08-30T07:35:13Z</time>
      </trkpt>
      <trkpt lat="45.87441" lon="4.82317">
        <ele>209.9</ele>
        <time>2019-08-30T07:35:15Z</time>
      </trkpt>
      <trkpt lat="45.87441" lon="4.82315">
        <ele>210</ele>
        <time>2019-08-30T07:35:16Z</time>
      </trkpt>
      <trkpt lat="45.8744" lon="4.82309">
        <ele>210.2</ele>
        <time>2019-08-30T07:35:18Z</time>
      </trkpt>
      <trkpt lat="45.87437" lon="4.823">
        <ele>210.5</ele>
        <time>2019-08-30T07:35:21Z</time>
      </trkpt>
      <trkpt lat="45.87434" lon="4.8229">
        <ele>210.8</ele>
        <time>2019-08-30T07:35:25Z</time>
      </trkpt>
      <trkpt lat="45.8743" lon="4.82281">
        <ele>211.1</ele>
        <time>2019-08-30T07:35:30Z</time>
      </trkpt>
      <trkpt lat="45.87427" lon="4.82275">
        <ele>211.3</ele>
        <time>2019-08-30T07:35:39Z</time>
      </trkpt>
      <trkpt lat="45.87426" lon="4.82273">
        <ele>211.4</ele>
        <time>2019-08-30T07:35:40Z</time>
      </trkpt>
      <trkpt lat="45.87424" lon="4.82266">
        <ele>211.6</ele>
        <time>2019-08-30T07:35:43Z</time>
      </trkpt>
      <trkpt lat="45.8742" lon="4.82255">
        <ele>211.9</ele>
        <time>2019-08-30T07:35:48Z</time>
      </trkpt>
      <trkpt lat="45.87413" lon="4.8224">
        <ele>212</ele>
        <time>2019-08-30T07:35:55Z</time>
      </trkpt>
      <trkpt lat="45.87412" lon="4.82234">
        <ele>212</ele>
        <time>2019-08-30T07:35:58Z</time>
      </trkpt>
      <trkpt lat="45.87412" lon="4.82232">
        <ele>212</ele>
        <time>2019-08-30T07:35:59Z</time>
      </trkpt>
      <trkpt lat="45.87415" lon="4.82231">
        <ele>212</ele>
        <time>2019-08-30T07:36:01Z</time>
      </trkpt>
      <trkpt lat="45.87422" lon="4.82239">
        <ele>212</ele>
        <time>2019-08-30T07:36:05Z</time>
      </trkpt>
      <trkpt lat="45.87423" lon="4.82242">
        <ele>212</ele>
        <time>2019-08-30T07:36:06Z</time>
      </trkpt>
      <trkpt lat="45.87428" lon="4.82248">
        <ele>211.9</ele>
        <time>2019-08-30T07:36:09Z</time>
      </trkpt>
      <trkpt lat="45.87436" lon="4.82253">
        <ele>211.8</ele>
        <time>2019-08-30T07:36:13Z</time>
      </trkpt>
      <trkpt lat="45.87437" lon="4.82255">
        <ele>211.8</ele>
        <time>2019-08-30T07:36:14Z</time>
      </trkpt>
      <trkpt lat="45.8744" lon="4.82262">
        <ele>211.8</ele>
        <time>2019-08-30T07:36:17Z</time>
      </trkpt>
      <trkpt lat="45.87448" lon="4.82271">
        <ele>211.8</ele>
        <time>2019-08-30T07:36:21Z</time>
      </trkpt>
      <trkpt lat="45.87451" lon="4.82276">
        <ele>211.8</ele>
        <time>2019-08-30T07:36:23Z</time>
      </trkpt>
      <trkpt lat="45.87457" lon="4.82281">
        <ele>211.9</ele>
        <time>2019-08-30T07:36:26Z</time>
      </trkpt>
      <trkpt lat="45.87461" lon="4.8228">
        <ele>211.9</ele>
        <time>2019-08-30T07:36:28Z</time>
      </trkpt>
      <trkpt lat="45.87466" lon="4.82278">
        <ele>212.3</ele>
        <time>2019-08-30T07:36:30Z</time>
      </trkpt>
      <trkpt lat="45.87474" lon="4.8227">
        <ele>212.7</ele>
        <time>2019-08-30T07:36:33Z</time>
      </trkpt>
      <trkpt lat="45.87486" lon="4.82249">
        <ele>213.3</ele>
        <time>2019-08-30T07:36:40Z</time>
      </trkpt>
      <trkpt lat="45.87485" lon="4.82246">
        <ele>213.4</ele>
        <time>2019-08-30T07:36:41Z</time>
      </trkpt>
      <trkpt lat="45.87475" lon="4.82229">
        <ele>213.5</ele>
        <time>2019-08-30T07:36:46Z</time>
      </trkpt>
      <trkpt lat="45.87459" lon="4.82202">
        <ele>213.6</ele>
        <time>2019-08-30T07:36:54Z</time>
      </trkpt>
      <trkpt lat="45.87457" lon="4.82198">
        <ele>213.7</ele>
        <time>2019-08-30T07:36:55Z</time>
      </trkpt>
      <trkpt lat="45.87451" lon="4.82176">
        <ele>213.8</ele>
        <time>2019-08-30T07:37:00Z</time>
      </trkpt>
      <trkpt lat="45.87449" lon="4.82138">
        <ele>214</ele>
        <time>2019-08-30T07:37:07Z</time>
      </trkpt>
      <trkpt lat="45.87449" lon="4.82099">
        <ele>214.2</ele>
        <time>2019-08-30T07:37:14Z</time>
      </trkpt>
      <trkpt lat="45.87449" lon="4.82093">
        <ele>214.2</ele>
        <time>2019-08-30T07:37:15Z</time>
      </trkpt>
      <trkpt lat="45.87457" lon="4.8205">
        <ele>214.4</ele>
        <time>2019-08-30T07:37:22Z</time>
      </trkpt>
      <trkpt lat="45.87475" lon="4.81992">
        <ele>214.8</ele>
        <time>2019-08-30T07:37:31Z</time>
      </trkpt>
      <trkpt lat="45.8748" lon="4.81977">
        <ele>214.9</ele>
        <time>2019-08-30T07:37:33Z</time>
      </trkpt>
      <trkpt lat="45.87485" lon="4.81962">
        <ele>214.9</ele>
        <time>2019-08-30T07:37:35Z</time>
      </trkpt>
      <trkpt lat="45.87487" lon="4.81946">
        <ele>215.4</ele>
        <time>2019-08-30T07:37:37Z</time>
      </trkpt>
      <trkpt lat="45.87482" lon="4.81934">
        <ele>215.9</ele>
        <time>2019-08-30T07:37:39Z</time>
      </trkpt>
      <trkpt lat="45.87474" lon="4.81925">
        <ele>216.5</ele>
        <time>2019-08-30T07:37:41Z</time>
      </trkpt>
      <trkpt lat="45.87465" lon="4.81918">
        <ele>217.1</ele>
        <time>2019-08-30T07:37:43Z</time>
      </trkpt>
      <trkpt lat="45.8744" lon="4.81899">
        <ele>219.4</ele>
        <time>2019-08-30T07:37:50Z</time>
      </trkpt>
      <trkpt lat="45.87428" lon="4.81892">
        <ele>220.5</ele>
        <time>2019-08-30T07:37:54Z</time>
      </trkpt>
      <trkpt lat="45.87417" lon="4.81885">
        <ele>221.8</ele>
        <time>2019-08-30T07:37:58Z</time>
      </trkpt>
      <trkpt lat="45.87409" lon="4.81879">
        <ele>222.6</ele>
        <time>2019-08-30T07:38:02Z</time>
      </trkpt>
      <trkpt lat="45.87402" lon="4.81872">
        <ele>223.3</ele>
        <time>2019-08-30T07:38:06Z</time>
      </trkpt>
      <trkpt lat="45.87401" lon="4.81871">
        <ele>223.4</ele>
        <time>2019-08-30T07:38:07Z</time>
      </trkpt>
      <trkpt lat="45.87397" lon="4.81868">
        <ele>223.8</ele>
        <time>2019-08-30T07:38:09Z</time>
      </trkpt>
      <trkpt lat="45.87393" lon="4.81864">
        <ele>224.4</ele>
        <time>2019-08-30T07:38:12Z</time>
      </trkpt>
      <trkpt lat="45.8739" lon="4.81861">
        <ele>224.7</ele>
        <time>2019-08-30T07:38:14Z</time>
      </trkpt>
      <trkpt lat="45.87389" lon="4.8186">
        <ele>224.9</ele>
        <time>2019-08-30T07:38:15Z</time>
      </trkpt>
      <trkpt lat="45.87384" lon="4.81857">
        <ele>225.4</ele>
        <time>2019-08-30T07:38:18Z</time>
      </trkpt>
      <trkpt lat="45.8738" lon="4.81854">
        <ele>225.8</ele>
        <time>2019-08-30T07:38:20Z</time>
      </trkpt>
      <trkpt lat="45.87376" lon="4.81852">
        <ele>226.3</ele>
        <time>2019-08-30T07:38:22Z</time>
      </trkpt>
      <trkpt lat="45.87372" lon="4.8185">
        <ele>226.7</ele>
        <time>2019-08-30T07:38:24Z</time>
      </trkpt>
      <trkpt lat="45.8737" lon="4.8185">
        <ele>226.9</ele>
        <time>2019-08-30T07:38:25Z</time>
      </trkpt>
      <trkpt lat="45.87363" lon="4.8185">
        <ele>227.8</ele>
        <time>2019-08-30T07:38:28Z</time>
      </trkpt>
      <trkpt lat="45.87359" lon="4.81851">
        <ele>228.2</ele>
        <time>2019-08-30T07:38:30Z</time>
      </trkpt>
      <trkpt lat="45.87354" lon="4.81852">
        <ele>228.6</ele>
        <time>2019-08-30T07:38:32Z</time>
      </trkpt>
      <trkpt lat="45.87352" lon="4.81852">
        <ele>228.8</ele>
        <time>2019-08-30T07:38:33Z</time>
      </trkpt>
      <trkpt lat="45.8735" lon="4.81853">
        <ele>229</ele>
        <time>2019-08-30T07:38:34Z</time>
      </trkpt>
      <trkpt lat="45.87344" lon="4.81857">
        <ele>229.7</ele>
        <time>2019-08-30T07:38:37Z</time>
      </trkpt>
      <trkpt lat="45.87339" lon="4.81862">
        <ele>230.2</ele>
        <time>2019-08-30T07:38:39Z</time>
      </trkpt>
      <trkpt lat="45.87334" lon="4.81867">
        <ele>230.6</ele>
        <time>2019-08-30T07:38:41Z</time>
      </trkpt>
      <trkpt lat="45.87327" lon="4.81874">
        <ele>231.2</ele>
        <time>2019-08-30T07:38:44Z</time>
      </trkpt>
      <trkpt lat="45.87316" lon="4.81884">
        <ele>231.9</ele>
        <time>2019-08-30T07:38:48Z</time>
      </trkpt>
      <trkpt lat="45.87314" lon="4.81886">
        <ele>232.1</ele>
        <time>2019-08-30T07:38:49Z</time>
      </trkpt>
      <trkpt lat="45.87305" lon="4.81894">
        <ele>232.7</ele>
        <time>2019-08-30T07:38:53Z</time>
      </trkpt>
      <trkpt lat="45.87296" lon="4.81893">
        <ele>233.4</ele>
        <time>2019-08-30T07:38:55Z</time>
      </trkpt>
      <trkpt lat="45.87291" lon="4.81896">
        <ele>233.2</ele>
        <time>2019-08-30T07:38:57Z</time>
      </trkpt>
      <trkpt lat="45.87279" lon="4.81902">
        <ele>232.9</ele>
        <time>2019-08-30T07:39:01Z</time>
      </trkpt>
      <trkpt lat="45.8727" lon="4.81914">
        <ele>232.5</ele>
        <time>2019-08-30T07:39:04Z</time>
      </trkpt>
      <trkpt lat="45.87267" lon="4.81918">
        <ele>232.4</ele>
        <time>2019-08-30T07:39:05Z</time>
      </trkpt>
      <trkpt lat="45.87253" lon="4.81931">
        <ele>231.9</ele>
        <time>2019-08-30T07:39:09Z</time>
      </trkpt>
      <trkpt lat="45.87249" lon="4.81934">
        <ele>231.8</ele>
        <time>2019-08-30T07:39:10Z</time>
      </trkpt>
      <trkpt lat="45.8724" lon="4.81938">
        <ele>231.7</ele>
        <time>2019-08-30T07:39:12Z</time>
      </trkpt>
      <trkpt lat="45.87215" lon="4.81953">
        <ele>231.3</ele>
        <time>2019-08-30T07:39:18Z</time>
      </trkpt>
      <trkpt lat="45.87183" lon="4.81969">
        <ele>231.2</ele>
        <time>2019-08-30T07:39:24Z</time>
      </trkpt>
      <trkpt lat="45.87152" lon="4.81975">
        <ele>231.2</ele>
        <time>2019-08-30T07:39:29Z</time>
      </trkpt>
      <trkpt lat="45.87145" lon="4.81975">
        <ele>231.2</ele>
        <time>2019-08-30T07:39:30Z</time>
      </trkpt>
      <trkpt lat="45.87108" lon="4.81976">
        <ele>231.4</ele>
        <time>2019-08-30T07:39:35Z</time>
      </trkpt>
      <trkpt lat="45.87081" lon="4.81973">
        <ele>231.6</ele>
        <time>2019-08-30T07:39:38Z</time>
      </trkpt>
      <trkpt lat="45.87064" lon="4.81966">
        <ele>231.8</ele>
        <time>2019-08-30T07:39:40Z</time>
      </trkpt>
      <trkpt lat="45.87039" lon="4.81957">
        <ele>232.3</ele>
        <time>2019-08-30T07:39:43Z</time>
      </trkpt>
      <trkpt lat="45.87015" lon="4.81949">
        <ele>232.9</ele>
        <time>2019-08-30T07:39:46Z</time>
      </trkpt>
      <trkpt lat="45.87007" lon="4.81948">
        <ele>233</ele>
        <time>2019-08-30T07:39:47Z</time>
      </trkpt>
      <trkpt lat="45.8699" lon="4.8195">
        <ele>233.5</ele>
        <time>2019-08-30T07:39:49Z</time>
      </trkpt>
      <trkpt lat="45.86983" lon="4.81953">
        <ele>233.3</ele>
        <time>2019-08-30T07:39:50Z</time>
      </trkpt>
      <trkpt lat="45.86972" lon="4.81965">
        <ele>232.2</ele>
        <time>2019-08-30T07:39:52Z</time>
      </trkpt>
      <trkpt lat="45.86969" lon="4.81969">
        <ele>232</ele>
        <time>2019-08-30T07:39:53Z</time>
      </trkpt>
      <trkpt lat="45.86968" lon="4.8197">
        <ele>232</ele>
        <time>2019-08-30T07:39:54Z</time>
      </trkpt>
      <trkpt lat="45.86967" lon="4.81969">
        <ele>231.9</ele>
        <time>2019-08-30T07:39:55Z</time>
      </trkpt>
      <trkpt lat="45.86966" lon="4.81962">
        <ele>231.7</ele>
        <time>2019-08-30T07:39:57Z</time>
      </trkpt>
      <trkpt lat="45.86966" lon="4.81958">
        <ele>231.6</ele>
        <time>2019-08-30T07:39:58Z</time>
      </trkpt>
      <trkpt lat="45.86965" lon="4.81955">
        <ele>231.5</ele>
        <time>2019-08-30T07:39:59Z</time>
      </trkpt>
      <trkpt lat="45.86963" lon="4.8195">
        <ele>231.5</ele>
        <time>2019-08-30T07:40:01Z</time>
      </trkpt>
      <trkpt lat="45.86959" lon="4.81944">
        <ele>231.5</ele>
        <time>2019-08-30T07:40:03Z</time>
      </trkpt>
      <trkpt lat="45.86957" lon="4.8194">
        <ele>231.5</ele>
        <time>2019-08-30T07:40:04Z</time>
      </trkpt>
      <trkpt lat="45.86946" lon="4.81922">
        <ele>231.5</ele>
        <time>2019-08-30T07:40:09Z</time>
      </trkpt>
      <trkpt lat="45.86944" lon="4.81918">
        <ele>231.6</ele>
        <time>2019-08-30T07:40:10Z</time>
      </trkpt>
      <trkpt lat="45.86925" lon="4.81897">
        <ele>232.2</ele>
        <time>2019-08-30T07:40:18Z</time>
      </trkpt>
      <trkpt lat="45.86913" lon="4.81889">
        <ele>232.9</ele>
        <time>2019-08-30T07:40:23Z</time>
      </trkpt>
      <trkpt lat="45.86908" lon="4.81886">
        <ele>233.1</ele>
        <time>2019-08-30T07:40:25Z</time>
      </trkpt>
      <trkpt lat="45.86892" lon="4.81876">
        <ele>233.9</ele>
        <time>2019-08-30T07:40:31Z</time>
      </trkpt>
      <trkpt lat="45.86882" lon="4.81871">
        <ele>234.7</ele>
        <time>2019-08-30T07:40:36Z</time>
      </trkpt>
      <trkpt lat="45.86877" lon="4.81869">
        <ele>235.1</ele>
        <time>2019-08-30T07:40:38Z</time>
      </trkpt>
      <trkpt lat="45.86869" lon="4.81867">
        <ele>235.4</ele>
        <time>2019-08-30T07:40:41Z</time>
      </trkpt>
      <trkpt lat="45.8686" lon="4.81868">
        <ele>235.7</ele>
        <time>2019-08-30T07:40:44Z</time>
      </trkpt>
      <trkpt lat="45.86856" lon="4.81867">
        <ele>235.9</ele>
        <time>2019-08-30T07:40:46Z</time>
      </trkpt>
      <trkpt lat="45.86852" lon="4.81864">
        <ele>236.1</ele>
        <time>2019-08-30T07:40:48Z</time>
      </trkpt>
      <trkpt lat="45.86848" lon="4.81853">
        <ele>236.5</ele>
        <time>2019-08-30T07:40:51Z</time>
      </trkpt>
      <trkpt lat="45.86843" lon="4.81842">
        <ele>236.8</ele>
        <time>2019-08-30T07:40:54Z</time>
      </trkpt>
      <trkpt lat="45.86838" lon="4.8183">
        <ele>237.2</ele>
        <time>2019-08-30T07:40:57Z</time>
      </trkpt>
      <trkpt lat="45.8683" lon="4.81806">
        <ele>238.3</ele>
        <time>2019-08-30T07:41:03Z</time>
      </trkpt>
      <trkpt lat="45.86829" lon="4.81783">
        <ele>240.6</ele>
        <time>2019-08-30T07:41:09Z</time>
      </trkpt>
      <trkpt lat="45.86828" lon="4.81776">
        <ele>241.4</ele>
        <time>2019-08-30T07:41:11Z</time>
      </trkpt>
      <trkpt lat="45.86826" lon="4.81763">
        <ele>242.9</ele>
        <time>2019-08-30T07:41:16Z</time>
      </trkpt>
      <trkpt lat="45.86825" lon="4.81761">
        <ele>243.1</ele>
        <time>2019-08-30T07:41:17Z</time>
      </trkpt>
      <trkpt lat="45.86823" lon="4.8175">
        <ele>244.6</ele>
        <time>2019-08-30T07:41:22Z</time>
      </trkpt>
      <trkpt lat="45.86823" lon="4.81745">
        <ele>245.1</ele>
        <time>2019-08-30T07:41:24Z</time>
      </trkpt>
      <trkpt lat="45.86822" lon="4.81743">
        <ele>245.4</ele>
        <time>2019-08-30T07:41:25Z</time>
      </trkpt>
      <trkpt lat="45.86822" lon="4.81731">
        <ele>246.9</ele>
        <time>2019-08-30T07:41:30Z</time>
      </trkpt>
      <trkpt lat="45.86822" lon="4.81721">
        <ele>248.2</ele>
        <time>2019-08-30T07:41:34Z</time>
      </trkpt>
      <trkpt lat="45.86824" lon="4.81704">
        <ele>250.4</ele>
        <time>2019-08-30T07:41:42Z</time>
      </trkpt>
      <trkpt lat="45.86824" lon="4.81702">
        <ele>250.7</ele>
        <time>2019-08-30T07:41:43Z</time>
      </trkpt>
      <trkpt lat="45.86825" lon="4.81698">
        <ele>251.2</ele>
        <time>2019-08-30T07:41:45Z</time>
      </trkpt>
      <trkpt lat="45.86827" lon="4.8169">
        <ele>252.2</ele>
        <time>2019-08-30T07:41:49Z</time>
      </trkpt>
      <trkpt lat="45.86828" lon="4.81681">
        <ele>253.3</ele>
        <time>2019-08-30T07:41:53Z</time>
      </trkpt>
      <trkpt lat="45.86829" lon="4.81671">
        <ele>254.6</ele>
        <time>2019-08-30T07:41:58Z</time>
      </trkpt>
      <trkpt lat="45.86829" lon="4.81668">
        <ele>254.8</ele>
        <time>2019-08-30T07:41:59Z</time>
      </trkpt>
      <trkpt lat="45.8683" lon="4.8166">
        <ele>255.9</ele>
        <time>2019-08-30T07:42:03Z</time>
      </trkpt>
      <trkpt lat="45.86831" lon="4.81654">
        <ele>256.6</ele>
        <time>2019-08-30T07:42:06Z</time>
      </trkpt>
      <trkpt lat="45.86832" lon="4.8165">
        <ele>257.1</ele>
        <time>2019-08-30T07:42:08Z</time>
      </trkpt>
      <trkpt lat="45.86833" lon="4.81638">
        <ele>258.4</ele>
        <time>2019-08-30T07:42:13Z</time>
      </trkpt>
      <trkpt lat="45.86833" lon="4.81633">
        <ele>259</ele>
        <time>2019-08-30T07:42:16Z</time>
      </trkpt>
      <trkpt lat="45.86833" lon="4.81631">
        <ele>259.2</ele>
        <time>2019-08-30T07:42:17Z</time>
      </trkpt>
      <trkpt lat="45.86834" lon="4.81625">
        <ele>260</ele>
        <time>2019-08-30T07:42:20Z</time>
      </trkpt>
      <trkpt lat="45.86834" lon="4.81615">
        <ele>261.2</ele>
        <time>2019-08-30T07:42:25Z</time>
      </trkpt>
      <trkpt lat="45.86834" lon="4.81613">
        <ele>261.5</ele>
        <time>2019-08-30T07:42:26Z</time>
      </trkpt>
      <trkpt lat="45.86835" lon="4.81603">
        <ele>263.1</ele>
        <time>2019-08-30T07:42:31Z</time>
      </trkpt>
      <trkpt lat="45.86835" lon="4.81601">
        <ele>263.2</ele>
        <time>2019-08-30T07:42:32Z</time>
      </trkpt>
      <trkpt lat="45.86835" lon="4.81584">
        <ele>265.2</ele>
        <time>2019-08-30T07:42:40Z</time>
      </trkpt>
      <trkpt lat="45.86835" lon="4.8158">
        <ele>265.6</ele>
        <time>2019-08-30T07:42:42Z</time>
      </trkpt>
      <trkpt lat="45.86835" lon="4.81577">
        <ele>265.9</ele>
        <time>2019-08-30T07:42:44Z</time>
      </trkpt>
      <trkpt lat="45.86834" lon="4.81568">
        <ele>266.8</ele>
        <time>2019-08-30T07:42:49Z</time>
      </trkpt>
      <trkpt lat="45.86833" lon="4.81563">
        <ele>267.3</ele>
        <time>2019-08-30T07:42:52Z</time>
      </trkpt>
      <trkpt lat="45.86832" lon="4.81559">
        <ele>267.7</ele>
        <time>2019-08-30T07:42:54Z</time>
      </trkpt>
      <trkpt lat="45.86832" lon="4.81548">
        <ele>268.7</ele>
        <time>2019-08-30T07:42:59Z</time>
      </trkpt>
      <trkpt lat="45.86832" lon="4.81545">
        <ele>269</ele>
        <time>2019-08-30T07:43:00Z</time>
      </trkpt>
      <trkpt lat="45.86831" lon="4.81532">
        <ele>270.3</ele>
        <time>2019-08-30T07:43:05Z</time>
      </trkpt>
      <trkpt lat="45.8683" lon="4.81523">
        <ele>271.3</ele>
        <time>2019-08-30T07:43:09Z</time>
      </trkpt>
      <trkpt lat="45.8683" lon="4.81521">
        <ele>271.5</ele>
        <time>2019-08-30T07:43:10Z</time>
      </trkpt>
      <trkpt lat="45.86829" lon="4.81516">
        <ele>272.1</ele>
        <time>2019-08-30T07:43:12Z</time>
      </trkpt>
      <trkpt lat="45.86827" lon="4.81507">
        <ele>273.3</ele>
        <time>2019-08-30T07:43:17Z</time>
      </trkpt>
      <trkpt lat="45.86826" lon="4.815">
        <ele>274.1</ele>
        <time>2019-08-30T07:43:20Z</time>
      </trkpt>
      <trkpt lat="45.86826" lon="4.81498">
        <ele>274.3</ele>
        <time>2019-08-30T07:43:21Z</time>
      </trkpt>
      <trkpt lat="45.86824" lon="4.81492">
        <ele>275</ele>
        <time>2019-08-30T07:43:24Z</time>
      </trkpt>
      <trkpt lat="45.86823" lon="4.81486">
        <ele>275.7</ele>
        <time>2019-08-30T07:43:27Z</time>
      </trkpt>
      <trkpt lat="45.86822" lon="4.81483">
        <ele>275.9</ele>
        <time>2019-08-30T07:43:28Z</time>
      </trkpt>
      <trkpt lat="45.86819" lon="4.81469">
        <ele>277.2</ele>
        <time>2019-08-30T07:43:34Z</time>
      </trkpt>
      <trkpt lat="45.86816" lon="4.81461">
        <ele>277.9</ele>
        <time>2019-08-30T07:43:37Z</time>
      </trkpt>
      <trkpt lat="45.86816" lon="4.81458">
        <ele>278.3</ele>
        <time>2019-08-30T07:43:38Z</time>
      </trkpt>
      <trkpt lat="45.86813" lon="4.81448">
        <ele>278.9</ele>
        <time>2019-08-30T07:43:42Z</time>
      </trkpt>
      <trkpt lat="45.86812" lon="4.81441">
        <ele>279.3</ele>
        <time>2019-08-30T07:43:45Z</time>
      </trkpt>
      <trkpt lat="45.86812" lon="4.81436">
        <ele>279.5</ele>
        <time>2019-08-30T07:43:47Z</time>
      </trkpt>
      <trkpt lat="45.86807" lon="4.8142">
        <ele>280.9</ele>
        <time>2019-08-30T07:43:53Z</time>
      </trkpt>
      <trkpt lat="45.86806" lon="4.81417">
        <ele>281.3</ele>
        <time>2019-08-30T07:43:54Z</time>
      </trkpt>
      <trkpt lat="45.86804" lon="4.81407">
        <ele>282.2</ele>
        <time>2019-08-30T07:43:57Z</time>
      </trkpt>
      <trkpt lat="45.86802" lon="4.81397">
        <ele>283.1</ele>
        <time>2019-08-30T07:44:00Z</time>
      </trkpt>
      <trkpt lat="45.86799" lon="4.81389">
        <ele>283.9</ele>
        <time>2019-08-30T07:44:03Z</time>
      </trkpt>
      <trkpt lat="45.86799" lon="4.81386">
        <ele>284.1</ele>
        <time>2019-08-30T07:44:04Z</time>
      </trkpt>
      <trkpt lat="45.86797" lon="4.81381">
        <ele>284.5</ele>
        <time>2019-08-30T07:44:06Z</time>
      </trkpt>
      <trkpt lat="45.86795" lon="4.81373">
        <ele>285.2</ele>
        <time>2019-08-30T07:44:09Z</time>
      </trkpt>
      <trkpt lat="45.86794" lon="4.81366">
        <ele>285.6</ele>
        <time>2019-08-30T07:44:12Z</time>
      </trkpt>
      <trkpt lat="45.86793" lon="4.81353">
        <ele>286.4</ele>
        <time>2019-08-30T07:44:17Z</time>
      </trkpt>
      <trkpt lat="45.86791" lon="4.81345">
        <ele>287</ele>
        <time>2019-08-30T07:44:20Z</time>
      </trkpt>
      <trkpt lat="45.86789" lon="4.81336">
        <ele>287.8</ele>
        <time>2019-08-30T07:44:24Z</time>
      </trkpt>
      <trkpt lat="45.86786" lon="4.81325">
        <ele>289</ele>
        <time>2019-08-30T07:44:29Z</time>
      </trkpt>
      <trkpt lat="45.86786" lon="4.81322">
        <ele>289.3</ele>
        <time>2019-08-30T07:44:30Z</time>
      </trkpt>
      <trkpt lat="45.86784" lon="4.81316">
        <ele>289.9</ele>
        <time>2019-08-30T07:44:33Z</time>
      </trkpt>
      <trkpt lat="45.86781" lon="4.81307">
        <ele>290.9</ele>
        <time>2019-08-30T07:44:37Z</time>
      </trkpt>
      <trkpt lat="45.86774" lon="4.81291">
        <ele>292.5</ele>
        <time>2019-08-30T07:44:45Z</time>
      </trkpt>
      <trkpt lat="45.86772" lon="4.81286">
        <ele>292.9</ele>
        <time>2019-08-30T07:44:47Z</time>
      </trkpt>
      <trkpt lat="45.86769" lon="4.81274">
        <ele>293.8</ele>
        <time>2019-08-30T07:44:52Z</time>
      </trkpt>
      <trkpt lat="45.86768" lon="4.81269">
        <ele>294.2</ele>
        <time>2019-08-30T07:44:54Z</time>
      </trkpt>
      <trkpt lat="45.86764" lon="4.81252">
        <ele>295.5</ele>
        <time>2019-08-30T07:45:02Z</time>
      </trkpt>
      <trkpt lat="45.86764" lon="4.81251">
        <ele>295.7</ele>
        <time>2019-08-30T07:45:03Z</time>
      </trkpt>
      <trkpt lat="45.86753" lon="4.81212">
        <ele>299.3</ele>
        <time>2019-08-30T07:45:20Z</time>
      </trkpt>
      <trkpt lat="45.8675" lon="4.81201">
        <ele>300.5</ele>
        <time>2019-08-30T07:45:24Z</time>
      </trkpt>
      <trkpt lat="45.86746" lon="4.81193">
        <ele>301.6</ele>
        <time>2019-08-30T07:45:29Z</time>
      </trkpt>
      <trkpt lat="45.86743" lon="4.81182">
        <ele>302.7</ele>
        <time>2019-08-30T07:45:33Z</time>
      </trkpt>
      <trkpt lat="45.86741" lon="4.81175">
        <ele>303.6</ele>
        <time>2019-08-30T07:45:36Z</time>
      </trkpt>
      <trkpt lat="45.86738" lon="4.81158">
        <ele>305.2</ele>
        <time>2019-08-30T07:45:43Z</time>
      </trkpt>
      <trkpt lat="45.86733" lon="4.81141">
        <ele>306.8</ele>
        <time>2019-08-30T07:45:50Z</time>
      </trkpt>
      <trkpt lat="45.86732" lon="4.81137">
        <ele>307.2</ele>
        <time>2019-08-30T07:45:52Z</time>
      </trkpt>
      <trkpt lat="45.86731" lon="4.81131">
        <ele>307.9</ele>
        <time>2019-08-30T07:45:55Z</time>
      </trkpt>
      <trkpt lat="45.86728" lon="4.81122">
        <ele>309</ele>
        <time>2019-08-30T07:45:59Z</time>
      </trkpt>
      <trkpt lat="45.86725" lon="4.81113">
        <ele>309.8</ele>
        <time>2019-08-30T07:46:03Z</time>
      </trkpt>
      <trkpt lat="45.86724" lon="4.81107">
        <ele>310.3</ele>
        <time>2019-08-30T07:46:06Z</time>
      </trkpt>
      <trkpt lat="45.86722" lon="4.81099">
        <ele>311.1</ele>
        <time>2019-08-30T07:46:11Z</time>
      </trkpt>
      <trkpt lat="45.86722" lon="4.81097">
        <ele>312.5</ele>
        <time>2019-08-30T07:46:12Z</time>
      </trkpt>
      <trkpt lat="45.86719" lon="4.81087">
        <ele>313.2</ele>
        <time>2019-08-30T07:46:17Z</time>
      </trkpt>
      <trkpt lat="45.86717" lon="4.81081">
        <ele>313.6</ele>
        <time>2019-08-30T07:46:20Z</time>
      </trkpt>
      <trkpt lat="45.86714" lon="4.81071">
        <ele>314.4</ele>
        <time>2019-08-30T07:46:24Z</time>
      </trkpt>
      <trkpt lat="45.86712" lon="4.8106">
        <ele>315.1</ele>
        <time>2019-08-30T07:46:29Z</time>
      </trkpt>
      <trkpt lat="45.86712" lon="4.81058">
        <ele>315.3</ele>
        <time>2019-08-30T07:46:30Z</time>
      </trkpt>
      <trkpt lat="45.8671" lon="4.81044">
        <ele>316.2</ele>
        <time>2019-08-30T07:46:36Z</time>
      </trkpt>
      <trkpt lat="45.86708" lon="4.81038">
        <ele>316.7</ele>
        <time>2019-08-30T07:46:39Z</time>
      </trkpt>
      <trkpt lat="45.86708" lon="4.81036">
        <ele>316.8</ele>
        <time>2019-08-30T07:46:40Z</time>
      </trkpt>
      <trkpt lat="45.86703" lon="4.81024">
        <ele>317.8</ele>
        <time>2019-08-30T07:46:47Z</time>
      </trkpt>
      <trkpt lat="45.86702" lon="4.8102">
        <ele>318</ele>
        <time>2019-08-30T07:46:49Z</time>
      </trkpt>
      <trkpt lat="45.86697" lon="4.81006">
        <ele>318.9</ele>
        <time>2019-08-30T07:46:56Z</time>
      </trkpt>
      <trkpt lat="45.86696" lon="4.81004">
        <ele>319</ele>
        <time>2019-08-30T07:46:57Z</time>
      </trkpt>
      <trkpt lat="45.86693" lon="4.80992">
        <ele>319.9</ele>
        <time>2019-08-30T07:47:04Z</time>
      </trkpt>
      <trkpt lat="45.86687" lon="4.80978">
        <ele>321.1</ele>
        <time>2019-08-30T07:47:12Z</time>
      </trkpt>
      <trkpt lat="45.86687" lon="4.80976">
        <ele>321.3</ele>
        <time>2019-08-30T07:47:13Z</time>
      </trkpt>
      <trkpt lat="45.86682" lon="4.80967">
        <ele>322.2</ele>
        <time>2019-08-30T07:47:18Z</time>
      </trkpt>
      <trkpt lat="45.8668" lon="4.8096">
        <ele>322.7</ele>
        <time>2019-08-30T07:47:21Z</time>
      </trkpt>
      <trkpt lat="45.86679" lon="4.80957">
        <ele>323</ele>
        <time>2019-08-30T07:47:23Z</time>
      </trkpt>
      <trkpt lat="45.86676" lon="4.80951">
        <ele>323.6</ele>
        <time>2019-08-30T07:47:27Z</time>
      </trkpt>
      <trkpt lat="45.86673" lon="4.80948">
        <ele>323.9</ele>
        <time>2019-08-30T07:47:29Z</time>
      </trkpt>
      <trkpt lat="45.8667" lon="4.80946">
        <ele>324.2</ele>
        <time>2019-08-30T07:47:31Z</time>
      </trkpt>
      <trkpt lat="45.86667" lon="4.80945">
        <ele>324.6</ele>
        <time>2019-08-30T07:47:34Z</time>
      </trkpt>
      <trkpt lat="45.86665" lon="4.80944">
        <ele>324.8</ele>
        <time>2019-08-30T07:47:36Z</time>
      </trkpt>
      <trkpt lat="45.86663" lon="4.80943">
        <ele>325</ele>
        <time>2019-08-30T07:47:37Z</time>
      </trkpt>
      <trkpt lat="45.86659" lon="4.80941">
        <ele>325.5</ele>
        <time>2019-08-30T07:47:40Z</time>
      </trkpt>
      <trkpt lat="45.86656" lon="4.8094">
        <ele>325.9</ele>
        <time>2019-08-30T07:47:42Z</time>
      </trkpt>
      <trkpt lat="45.86654" lon="4.80939">
        <ele>326.1</ele>
        <time>2019-08-30T07:47:44Z</time>
      </trkpt>
      <trkpt lat="45.86652" lon="4.80938">
        <ele>326.2</ele>
        <time>2019-08-30T07:47:45Z</time>
      </trkpt>
      <trkpt lat="45.86647" lon="4.80937">
        <ele>326.7</ele>
        <time>2019-08-30T07:47:48Z</time>
      </trkpt>
      <trkpt lat="45.86642" lon="4.80936">
        <ele>327.1</ele>
        <time>2019-08-30T07:47:51Z</time>
      </trkpt>
      <trkpt lat="45.86638" lon="4.80936">
        <ele>327.5</ele>
        <time>2019-08-30T07:47:54Z</time>
      </trkpt>
      <trkpt lat="45.86634" lon="4.80935">
        <ele>327.7</ele>
        <time>2019-08-30T07:47:57Z</time>
      </trkpt>
      <trkpt lat="45.86627" lon="4.80936">
        <ele>328.1</ele>
        <time>2019-08-30T07:48:01Z</time>
      </trkpt>
      <trkpt lat="45.86626" lon="4.80936">
        <ele>328.1</ele>
        <time>2019-08-30T07:48:02Z</time>
      </trkpt>
      <trkpt lat="45.86621" lon="4.80935">
        <ele>328.4</ele>
        <time>2019-08-30T07:48:05Z</time>
      </trkpt>
      <trkpt lat="45.86607" lon="4.80938">
        <ele>329.1</ele>
        <time>2019-08-30T07:48:12Z</time>
      </trkpt>
      <trkpt lat="45.86605" lon="4.80939">
        <ele>329.2</ele>
        <time>2019-08-30T07:48:13Z</time>
      </trkpt>
      <trkpt lat="45.86596" lon="4.80941">
        <ele>329.9</ele>
        <time>2019-08-30T07:48:18Z</time>
      </trkpt>
      <trkpt lat="45.8659" lon="4.80941">
        <ele>330.4</ele>
        <time>2019-08-30T07:48:21Z</time>
      </trkpt>
      <trkpt lat="45.86577" lon="4.80941">
        <ele>331.2</ele>
        <time>2019-08-30T07:48:26Z</time>
      </trkpt>
      <trkpt lat="45.86574" lon="4.8094">
        <ele>331.4</ele>
        <time>2019-08-30T07:48:28Z</time>
      </trkpt>
      <trkpt lat="45.8656" lon="4.80937">
        <ele>332.2</ele>
        <time>2019-08-30T07:48:36Z</time>
      </trkpt>
      <trkpt lat="45.86543" lon="4.8093">
        <ele>333.2</ele>
        <time>2019-08-30T07:48:44Z</time>
      </trkpt>
      <trkpt lat="45.86539" lon="4.80927">
        <ele>333.4</ele>
        <time>2019-08-30T07:48:46Z</time>
      </trkpt>
      <trkpt lat="45.86527" lon="4.8092">
        <ele>334.1</ele>
        <time>2019-08-30T07:48:52Z</time>
      </trkpt>
      <trkpt lat="45.86516" lon="4.80912">
        <ele>334.8</ele>
        <time>2019-08-30T07:48:57Z</time>
      </trkpt>
      <trkpt lat="45.86507" lon="4.80908">
        <ele>335.4</ele>
        <time>2019-08-30T07:49:01Z</time>
      </trkpt>
      <trkpt lat="45.86502" lon="4.80903">
        <ele>335.8</ele>
        <time>2019-08-30T07:49:04Z</time>
      </trkpt>
      <trkpt lat="45.8649" lon="4.80892">
        <ele>336.6</ele>
        <time>2019-08-30T07:49:10Z</time>
      </trkpt>
      <trkpt lat="45.86487" lon="4.80891">
        <ele>336.7</ele>
        <time>2019-08-30T07:49:11Z</time>
      </trkpt>
      <trkpt lat="45.86478" lon="4.80882">
        <ele>337.4</ele>
        <time>2019-08-30T07:49:16Z</time>
      </trkpt>
      <trkpt lat="45.86474" lon="4.80878">
        <ele>337.7</ele>
        <time>2019-08-30T07:49:18Z</time>
      </trkpt>
      <trkpt lat="45.86466" lon="4.80873">
        <ele>338.3</ele>
        <time>2019-08-30T07:49:22Z</time>
      </trkpt>
      <trkpt lat="45.86462" lon="4.80867">
        <ele>338.8</ele>
        <time>2019-08-30T07:49:25Z</time>
      </trkpt>
      <trkpt lat="45.86457" lon="4.80861">
        <ele>339.2</ele>
        <time>2019-08-30T07:49:28Z</time>
      </trkpt>
      <trkpt lat="45.86453" lon="4.80857">
        <ele>339.7</ele>
        <time>2019-08-30T07:49:31Z</time>
      </trkpt>
      <trkpt lat="45.86451" lon="4.80856">
        <ele>339.9</ele>
        <time>2019-08-30T07:49:32Z</time>
      </trkpt>
      <trkpt lat="45.86449" lon="4.80853">
        <ele>340.1</ele>
        <time>2019-08-30T07:49:34Z</time>
      </trkpt>
      <trkpt lat="45.86443" lon="4.80846">
        <ele>340.7</ele>
        <time>2019-08-30T07:49:38Z</time>
      </trkpt>
      <trkpt lat="45.8644" lon="4.80843">
        <ele>341</ele>
        <time>2019-08-30T07:49:40Z</time>
      </trkpt>
      <trkpt lat="45.86439" lon="4.80842">
        <ele>341.1</ele>
        <time>2019-08-30T07:49:41Z</time>
      </trkpt>
      <trkpt lat="45.86436" lon="4.8084">
        <ele>341.4</ele>
        <time>2019-08-30T07:49:43Z</time>
      </trkpt>
      <trkpt lat="45.86432" lon="4.80836">
        <ele>341.7</ele>
        <time>2019-08-30T07:49:46Z</time>
      </trkpt>
      <trkpt lat="45.86429" lon="4.80832">
        <ele>341.9</ele>
        <time>2019-08-30T07:49:48Z</time>
      </trkpt>
      <trkpt lat="45.86426" lon="4.80828">
        <ele>343</ele>
        <time>2019-08-30T07:49:51Z</time>
      </trkpt>
      <trkpt lat="45.86422" lon="4.80824">
        <ele>343.6</ele>
        <time>2019-08-30T07:49:54Z</time>
      </trkpt>
      <trkpt lat="45.86418" lon="4.80817">
        <ele>344.5</ele>
        <time>2019-08-30T07:49:58Z</time>
      </trkpt>
      <trkpt lat="45.8641" lon="4.80805">
        <ele>346.3</ele>
        <time>2019-08-30T07:50:06Z</time>
      </trkpt>
      <trkpt lat="45.86409" lon="4.80803">
        <ele>346.6</ele>
        <time>2019-08-30T07:50:07Z</time>
      </trkpt>
      <trkpt lat="45.86411" lon="4.8074">
        <ele>355.2</ele>
        <time>2019-08-30T07:50:41Z</time>
      </trkpt>
      <trkpt lat="45.86412" lon="4.80736">
        <ele>355.7</ele>
        <time>2019-08-30T07:50:43Z</time>
      </trkpt>
      <trkpt lat="45.86415" lon="4.80721">
        <ele>357.4</ele>
        <time>2019-08-30T07:50:51Z</time>
      </trkpt>
      <trkpt lat="45.86415" lon="4.80719">
        <ele>357.6</ele>
        <time>2019-08-30T07:50:52Z</time>
      </trkpt>
      <trkpt lat="45.86417" lon="4.80706">
        <ele>358.9</ele>
        <time>2019-08-30T07:50:59Z</time>
      </trkpt>
      <trkpt lat="45.86417" lon="4.80704">
        <ele>359.1</ele>
        <time>2019-08-30T07:51:00Z</time>
      </trkpt>
      <trkpt lat="45.86421" lon="4.80677">
        <ele>361.8</ele>
        <time>2019-08-30T07:51:14Z</time>
      </trkpt>
      <trkpt lat="45.86421" lon="4.80673">
        <ele>362.4</ele>
        <time>2019-08-30T07:51:16Z</time>
      </trkpt>
      <trkpt lat="45.86421" lon="4.80668">
        <ele>362.9</ele>
        <time>2019-08-30T07:51:18Z</time>
      </trkpt>
      <trkpt lat="45.86419" lon="4.80653">
        <ele>364.3</ele>
        <time>2019-08-30T07:51:25Z</time>
      </trkpt>
      <trkpt lat="45.86415" lon="4.80636">
        <ele>365.4</ele>
        <time>2019-08-30T07:51:33Z</time>
      </trkpt>
      <trkpt lat="45.86414" lon="4.80633">
        <ele>365.7</ele>
        <time>2019-08-30T07:51:35Z</time>
      </trkpt>
      <trkpt lat="45.86412" lon="4.80626">
        <ele>366.2</ele>
        <time>2019-08-30T07:51:39Z</time>
      </trkpt>
      <trkpt lat="45.86409" lon="4.80612">
        <ele>367.8</ele>
        <time>2019-08-30T07:51:46Z</time>
      </trkpt>
      <trkpt lat="45.86404" lon="4.80595">
        <ele>368.9</ele>
        <time>2019-08-30T07:51:54Z</time>
      </trkpt>
      <trkpt lat="45.86401" lon="4.80582">
        <ele>370</ele>
        <time>2019-08-30T07:52:00Z</time>
      </trkpt>
      <trkpt lat="45.864" lon="4.80575">
        <ele>370.7</ele>
        <time>2019-08-30T07:52:03Z</time>
      </trkpt>
      <trkpt lat="45.86396" lon="4.80562">
        <ele>371.9</ele>
        <time>2019-08-30T07:52:09Z</time>
      </trkpt>
      <trkpt lat="45.86395" lon="4.80556">
        <ele>372.4</ele>
        <time>2019-08-30T07:52:12Z</time>
      </trkpt>
      <trkpt lat="45.86393" lon="4.8055">
        <ele>373.1</ele>
        <time>2019-08-30T07:52:15Z</time>
      </trkpt>
      <trkpt lat="45.86392" lon="4.80545">
        <ele>373.7</ele>
        <time>2019-08-30T07:52:18Z</time>
      </trkpt>
      <trkpt lat="45.8639" lon="4.80542">
        <ele>374.1</ele>
        <time>2019-08-30T07:52:20Z</time>
      </trkpt>
      <trkpt lat="45.86389" lon="4.8054">
        <ele>374.3</ele>
        <time>2019-08-30T07:52:21Z</time>
      </trkpt>
      <trkpt lat="45.86388" lon="4.80535">
        <ele>374.7</ele>
        <time>2019-08-30T07:52:23Z</time>
      </trkpt>
      <trkpt lat="45.86385" lon="4.80526">
        <ele>376</ele>
        <time>2019-08-30T07:52:27Z</time>
      </trkpt>
      <trkpt lat="45.86383" lon="4.80522">
        <ele>376.6</ele>
        <time>2019-08-30T07:52:29Z</time>
      </trkpt>
      <trkpt lat="45.86382" lon="4.8052">
        <ele>376.9</ele>
        <time>2019-08-30T07:52:30Z</time>
      </trkpt>
      <trkpt lat="45.8638" lon="4.80509">
        <ele>378.2</ele>
        <time>2019-08-30T07:52:36Z</time>
      </trkpt>
      <trkpt lat="45.86379" lon="4.80507">
        <ele>378.4</ele>
        <time>2019-08-30T07:52:37Z</time>
      </trkpt>
      <trkpt lat="45.86376" lon="4.80498">
        <ele>379.2</ele>
        <time>2019-08-30T07:52:41Z</time>
      </trkpt>
      <trkpt lat="45.86376" lon="4.80497">
        <ele>379.3</ele>
        <time>2019-08-30T07:52:42Z</time>
      </trkpt>
      <trkpt lat="45.86376" lon="4.80494">
        <ele>379.5</ele>
        <time>2019-08-30T07:52:43Z</time>
      </trkpt>
      <trkpt lat="45.86373" lon="4.80487">
        <ele>380.2</ele>
        <time>2019-08-30T07:52:47Z</time>
      </trkpt>
      <trkpt lat="45.86372" lon="4.80482">
        <ele>380.7</ele>
        <time>2019-08-30T07:52:49Z</time>
      </trkpt>
      <trkpt lat="45.86371" lon="4.8048">
        <ele>380.9</ele>
        <time>2019-08-30T07:52:50Z</time>
      </trkpt>
      <trkpt lat="45.86367" lon="4.80471">
        <ele>381.9</ele>
        <time>2019-08-30T07:52:55Z</time>
      </trkpt>
      <trkpt lat="45.86365" lon="4.80467">
        <ele>382.2</ele>
        <time>2019-08-30T07:52:57Z</time>
      </trkpt>
      <trkpt lat="45.86364" lon="4.80463">
        <ele>382.5</ele>
        <time>2019-08-30T07:52:59Z</time>
      </trkpt>
      <trkpt lat="45.86362" lon="4.80455">
        <ele>383.2</ele>
        <time>2019-08-30T07:53:03Z</time>
      </trkpt>
      <trkpt lat="45.8636" lon="4.80447">
        <ele>383.8</ele>
        <time>2019-08-30T07:53:07Z</time>
      </trkpt>
      <trkpt lat="45.86358" lon="4.80441">
        <ele>384.3</ele>
        <time>2019-08-30T07:53:10Z</time>
      </trkpt>
      <trkpt lat="45.86354" lon="4.80431">
        <ele>385.2</ele>
        <time>2019-08-30T07:53:16Z</time>
      </trkpt>
      <trkpt lat="45.86354" lon="4.8043">
        <ele>385.4</ele>
        <time>2019-08-30T07:53:17Z</time>
      </trkpt>
      <trkpt lat="45.86351" lon="4.80422">
        <ele>386.1</ele>
        <time>2019-08-30T07:53:22Z</time>
      </trkpt>
      <trkpt lat="45.8635" lon="4.80417">
        <ele>386.5</ele>
        <time>2019-08-30T07:53:25Z</time>
      </trkpt>
      <trkpt lat="45.86348" lon="4.80411">
        <ele>386.9</ele>
        <time>2019-08-30T07:53:28Z</time>
      </trkpt>
      <trkpt lat="45.86346" lon="4.80401">
        <ele>387.5</ele>
        <time>2019-08-30T07:53:33Z</time>
      </trkpt>
      <trkpt lat="45.86344" lon="4.80395">
        <ele>387.9</ele>
        <time>2019-08-30T07:53:36Z</time>
      </trkpt>
      <trkpt lat="45.86342" lon="4.80388">
        <ele>388.5</ele>
        <time>2019-08-30T07:53:40Z</time>
      </trkpt>
      <trkpt lat="45.8634" lon="4.80382">
        <ele>389.1</ele>
        <time>2019-08-30T07:53:44Z</time>
      </trkpt>
      <trkpt lat="45.86337" lon="4.80364">
        <ele>390.1</ele>
        <time>2019-08-30T07:53:53Z</time>
      </trkpt>
      <trkpt lat="45.86331" lon="4.80346">
        <ele>391.5</ele>
        <time>2019-08-30T07:54:02Z</time>
      </trkpt>
      <trkpt lat="45.86304" lon="4.80284">
        <ele>398.1</ele>
        <time>2019-08-30T07:54:36Z</time>
      </trkpt>
      <trkpt lat="45.86301" lon="4.80276">
        <ele>398.8</ele>
        <time>2019-08-30T07:54:41Z</time>
      </trkpt>
      <trkpt lat="45.86301" lon="4.80274">
        <ele>399</ele>
        <time>2019-08-30T07:54:42Z</time>
      </trkpt>
      <trkpt lat="45.86299" lon="4.80263">
        <ele>400</ele>
        <time>2019-08-30T07:54:48Z</time>
      </trkpt>
      <trkpt lat="45.86295" lon="4.80244">
        <ele>402</ele>
        <time>2019-08-30T07:54:59Z</time>
      </trkpt>
      <trkpt lat="45.86293" lon="4.80237">
        <ele>402.7</ele>
        <time>2019-08-30T07:55:02Z</time>
      </trkpt>
      <trkpt lat="45.86293" lon="4.80231">
        <ele>403.4</ele>
        <time>2019-08-30T07:55:05Z</time>
      </trkpt>
      <trkpt lat="45.86291" lon="4.80223">
        <ele>404.2</ele>
        <time>2019-08-30T07:55:09Z</time>
      </trkpt>
      <trkpt lat="45.86289" lon="4.80217">
        <ele>404.9</ele>
        <time>2019-08-30T07:55:12Z</time>
      </trkpt>
      <trkpt lat="45.86289" lon="4.80216">
        <ele>405.1</ele>
        <time>2019-08-30T07:55:13Z</time>
      </trkpt>
      <trkpt lat="45.86287" lon="4.80212">
        <ele>405.6</ele>
        <time>2019-08-30T07:55:15Z</time>
      </trkpt>
      <trkpt lat="45.86285" lon="4.80209">
        <ele>406</ele>
        <time>2019-08-30T07:55:17Z</time>
      </trkpt>
      <trkpt lat="45.86283" lon="4.80206">
        <ele>406.3</ele>
        <time>2019-08-30T07:55:19Z</time>
      </trkpt>
      <trkpt lat="45.86279" lon="4.80202">
        <ele>406.9</ele>
        <time>2019-08-30T07:55:23Z</time>
      </trkpt>
      <trkpt lat="45.86276" lon="4.802">
        <ele>407.3</ele>
        <time>2019-08-30T07:55:25Z</time>
      </trkpt>
      <trkpt lat="45.86274" lon="4.80197">
        <ele>407.6</ele>
        <time>2019-08-30T07:55:27Z</time>
      </trkpt>
      <trkpt lat="45.86241" lon="4.80037">
        <ele>428.7</ele>
        <time>2019-08-30T07:58:31Z</time>
      </trkpt>
      <trkpt lat="45.86241" lon="4.80035">
        <ele>429</ele>
        <time>2019-08-30T07:58:32Z</time>
      </trkpt>
      <trkpt lat="45.86241" lon="4.80027">
        <ele>429.7</ele>
        <time>2019-08-30T07:58:35Z</time>
      </trkpt>
      <trkpt lat="45.8624" lon="4.80021">
        <ele>430.3</ele>
        <time>2019-08-30T07:58:38Z</time>
      </trkpt>
      <trkpt lat="45.8624" lon="4.80019">
        <ele>430.5</ele>
        <time>2019-08-30T07:58:39Z</time>
      </trkpt>
      <trkpt lat="45.86239" lon="4.80017">
        <ele>430.6</ele>
        <time>2019-08-30T07:58:40Z</time>
      </trkpt>
      <trkpt lat="45.86239" lon="4.80009">
        <ele>431.2</ele>
        <time>2019-08-30T07:58:44Z</time>
      </trkpt>
      <trkpt lat="45.86239" lon="4.80008">
        <ele>431.3</ele>
        <time>2019-08-30T07:58:45Z</time>
      </trkpt>
      <trkpt lat="45.86236" lon="4.80001">
        <ele>431.9</ele>
        <time>2019-08-30T07:59:57Z</time>
      </trkpt>
      <trkpt lat="45.86233" lon="4.80001">
        <ele>432.2</ele>
        <time>2019-08-30T07:59:59Z</time>
      </trkpt>
      <trkpt lat="45.8623" lon="4.80001">
        <ele>432.4</ele>
        <time>2019-08-30T08:00:01Z</time>
      </trkpt>
      <trkpt lat="45.86223" lon="4.79997">
        <ele>433.1</ele>
        <time>2019-08-30T08:00:06Z</time>
      </trkpt>
      <trkpt lat="45.8621" lon="4.7999">
        <ele>434.2</ele>
        <time>2019-08-30T08:00:15Z</time>
      </trkpt>
      <trkpt lat="45.86205" lon="4.79989">
        <ele>434.4</ele>
        <time>2019-08-30T08:00:17Z</time>
      </trkpt>
      <trkpt lat="45.86194" lon="4.79989">
        <ele>435</ele>
        <time>2019-08-30T08:00:23Z</time>
      </trkpt>
      <trkpt lat="45.8619" lon="4.79989">
        <ele>435.2</ele>
        <time>2019-08-30T08:00:25Z</time>
      </trkpt>
      <trkpt lat="45.8618" lon="4.79984">
        <ele>435.5</ele>
        <time>2019-08-30T08:00:31Z</time>
      </trkpt>
      <trkpt lat="45.8618" lon="4.79982">
        <ele>435.6</ele>
        <time>2019-08-30T08:00:32Z</time>
      </trkpt>
      <trkpt lat="45.86183" lon="4.7998">
        <ele>435.7</ele>
        <time>2019-08-30T08:00:34Z</time>
      </trkpt>
      <trkpt lat="45.86184" lon="4.79979">
        <ele>435.8</ele>
        <time>2019-08-30T08:00:35Z</time>
      </trkpt>
      <trkpt lat="45.86198" lon="4.79976">
        <ele>437</ele>
        <time>2019-08-30T08:00:42Z</time>
      </trkpt>
      <trkpt lat="45.86208" lon="4.79967">
        <ele>437.4</ele>
        <time>2019-08-30T08:00:49Z</time>
      </trkpt>
      <trkpt lat="45.86209" lon="4.79965">
        <ele>437.8</ele>
        <time>2019-08-30T08:00:50Z</time>
      </trkpt>
      <trkpt lat="45.86213" lon="4.79947">
        <ele>440</ele>
        <time>2019-08-30T08:00:57Z</time>
      </trkpt>
      <trkpt lat="45.86217" lon="4.79925">
        <ele>442.5</ele>
        <time>2019-08-30T08:01:05Z</time>
      </trkpt>
      <trkpt lat="45.86222" lon="4.79911">
        <ele>444.2</ele>
        <time>2019-08-30T08:01:11Z</time>
      </trkpt>
      <trkpt lat="45.86226" lon="4.79906">
        <ele>444.8</ele>
        <time>2019-08-30T08:01:14Z</time>
      </trkpt>
      <trkpt lat="45.86234" lon="4.79903">
        <ele>445.5</ele>
        <time>2019-08-30T08:01:18Z</time>
      </trkpt>
      <trkpt lat="45.86243" lon="4.79901">
        <ele>446.1</ele>
        <time>2019-08-30T08:01:22Z</time>
      </trkpt>
      <trkpt lat="45.86257" lon="4.79893">
        <ele>447.3</ele>
        <time>2019-08-30T08:01:29Z</time>
      </trkpt>
      <trkpt lat="45.86265" lon="4.79886">
        <ele>448</ele>
        <time>2019-08-30T08:01:33Z</time>
      </trkpt>
      <trkpt lat="45.86281" lon="4.79873">
        <ele>449.4</ele>
        <time>2019-08-30T08:01:41Z</time>
      </trkpt>
      <trkpt lat="45.86284" lon="4.7987">
        <ele>449.7</ele>
        <time>2019-08-30T08:01:43Z</time>
      </trkpt>
      <trkpt lat="45.86297" lon="4.79863">
        <ele>450.2</ele>
        <time>2019-08-30T08:01:48Z</time>
      </trkpt>
      <trkpt lat="45.86316" lon="4.79857">
        <ele>450.7</ele>
        <time>2019-08-30T08:01:54Z</time>
      </trkpt>
      <trkpt lat="45.86338" lon="4.79854">
        <ele>451.8</ele>
        <time>2019-08-30T08:02:00Z</time>
      </trkpt>
      <trkpt lat="45.8635" lon="4.79854">
        <ele>451.9</ele>
        <time>2019-08-30T08:02:03Z</time>
      </trkpt>
      <trkpt lat="45.86365" lon="4.79855">
        <ele>451.9</ele>
        <time>2019-08-30T08:02:07Z</time>
      </trkpt>
      <trkpt lat="45.86398" lon="4.79861">
        <ele>452.1</ele>
        <time>2019-08-30T08:02:16Z</time>
      </trkpt>
      <trkpt lat="45.86424" lon="4.79874">
        <ele>451.7</ele>
        <time>2019-08-30T08:02:23Z</time>
      </trkpt>
      <trkpt lat="45.86463" lon="4.79894">
        <ele>451.7</ele>
        <time>2019-08-30T08:02:33Z</time>
      </trkpt>
      <trkpt lat="45.86495" lon="4.79905">
        <ele>452.2</ele>
        <time>2019-08-30T08:02:41Z</time>
      </trkpt>
      <trkpt lat="45.86506" lon="4.79909">
        <ele>452.4</ele>
        <time>2019-08-30T08:02:44Z</time>
      </trkpt>
      <trkpt lat="45.86521" lon="4.79911">
        <ele>453.5</ele>
        <time>2019-08-30T08:02:48Z</time>
      </trkpt>
      <trkpt lat="45.86531" lon="4.79911">
        <ele>454.1</ele>
        <time>2019-08-30T08:02:51Z</time>
      </trkpt>
      <trkpt lat="45.8655" lon="4.79909">
        <ele>453.4</ele>
        <time>2019-08-30T08:02:57Z</time>
      </trkpt>
      <trkpt lat="45.86562" lon="4.79908">
        <ele>453</ele>
        <time>2019-08-30T08:03:01Z</time>
      </trkpt>
      <trkpt lat="45.86575" lon="4.79908">
        <ele>452.2</ele>
        <time>2019-08-30T08:03:06Z</time>
      </trkpt>
      <trkpt lat="45.86581" lon="4.79909">
        <ele>451.5</ele>
        <time>2019-08-30T08:03:08Z</time>
      </trkpt>
      <trkpt lat="45.86596" lon="4.79918">
        <ele>449.6</ele>
        <time>2019-08-30T08:03:12Z</time>
      </trkpt>
      <trkpt lat="45.86627" lon="4.79936">
        <ele>446.3</ele>
        <time>2019-08-30T08:03:18Z</time>
      </trkpt>
      <trkpt lat="45.86649" lon="4.7995">
        <ele>444.1</ele>
        <time>2019-08-30T08:03:22Z</time>
      </trkpt>
      <trkpt lat="45.86663" lon="4.79963">
        <ele>442.4</ele>
        <time>2019-08-30T08:03:25Z</time>
      </trkpt>
      <trkpt lat="45.86671" lon="4.79972">
        <ele>441.6</ele>
        <time>2019-08-30T08:03:27Z</time>
      </trkpt>
      <trkpt lat="45.86677" lon="4.79977">
        <ele>441.5</ele>
        <time>2019-08-30T08:03:29Z</time>
      </trkpt>
      <trkpt lat="45.86694" lon="4.79981">
        <ele>440.9</ele>
        <time>2019-08-30T08:03:33Z</time>
      </trkpt>
      <trkpt lat="45.86725" lon="4.79994">
        <ele>437.2</ele>
        <time>2019-08-30T08:03:39Z</time>
      </trkpt>
      <trkpt lat="45.86771" lon="4.8001">
        <ele>432.2</ele>
        <time>2019-08-30T08:03:46Z</time>
      </trkpt>
      <trkpt lat="45.86777" lon="4.80014">
        <ele>431.4</ele>
        <time>2019-08-30T08:03:47Z</time>
      </trkpt>
      <trkpt lat="45.86793" lon="4.80028">
        <ele>428.8</ele>
        <time>2019-08-30T08:03:50Z</time>
      </trkpt>
      <trkpt lat="45.86797" lon="4.80033">
        <ele>428</ele>
        <time>2019-08-30T08:03:51Z</time>
      </trkpt>
      <trkpt lat="45.86819" lon="4.80064">
        <ele>424.7</ele>
        <time>2019-08-30T08:03:57Z</time>
      </trkpt>
      <trkpt lat="45.86822" lon="4.80068">
        <ele>424.2</ele>
        <time>2019-08-30T08:03:58Z</time>
      </trkpt>
      <trkpt lat="45.86835" lon="4.80091">
        <ele>422</ele>
        <time>2019-08-30T08:04:03Z</time>
      </trkpt>
      <trkpt lat="45.86848" lon="4.80106">
        <ele>419.8</ele>
        <time>2019-08-30T08:04:07Z</time>
      </trkpt>
      <trkpt lat="45.86864" lon="4.80131">
        <ele>416</ele>
        <time>2019-08-30T08:04:13Z</time>
      </trkpt>
      <trkpt lat="45.86871" lon="4.80141">
        <ele>414.4</ele>
        <time>2019-08-30T08:04:17Z</time>
      </trkpt>
      <trkpt lat="45.86871" lon="4.80147">
        <ele>413.8</ele>
        <time>2019-08-30T08:04:18Z</time>
      </trkpt>
      <trkpt lat="45.86873" lon="4.80158">
        <ele>412.9</ele>
        <time>2019-08-30T08:04:20Z</time>
      </trkpt>
      <trkpt lat="45.86878" lon="4.80176">
        <ele>411</ele>
        <time>2019-08-30T08:04:23Z</time>
      </trkpt>
      <trkpt lat="45.86886" lon="4.80189">
        <ele>409.6</ele>
        <time>2019-08-30T08:04:27Z</time>
      </trkpt>
      <trkpt lat="45.86901" lon="4.80208">
        <ele>406.6</ele>
        <time>2019-08-30T08:04:32Z</time>
      </trkpt>
      <trkpt lat="45.86908" lon="4.80218">
        <ele>404.9</ele>
        <time>2019-08-30T08:04:34Z</time>
      </trkpt>
      <trkpt lat="45.86919" lon="4.80242">
        <ele>401.5</ele>
        <time>2019-08-30T08:04:37Z</time>
      </trkpt>
      <trkpt lat="45.86943" lon="4.80286">
        <ele>394.5</ele>
        <time>2019-08-30T08:04:43Z</time>
      </trkpt>
      <trkpt lat="45.86948" lon="4.80302">
        <ele>392.5</ele>
        <time>2019-08-30T08:04:45Z</time>
      </trkpt>
      <trkpt lat="45.86953" lon="4.8032">
        <ele>390.7</ele>
        <time>2019-08-30T08:04:47Z</time>
      </trkpt>
      <trkpt lat="45.86965" lon="4.80355">
        <ele>386.5</ele>
        <time>2019-08-30T08:04:51Z</time>
      </trkpt>
      <trkpt lat="45.86974" lon="4.80371">
        <ele>384</ele>
        <time>2019-08-30T08:04:53Z</time>
      </trkpt>
      <trkpt lat="45.86982" lon="4.80385">
        <ele>381.7</ele>
        <time>2019-08-30T08:04:55Z</time>
      </trkpt>
      <trkpt lat="45.86995" lon="4.80402">
        <ele>379.1</ele>
        <time>2019-08-30T08:04:58Z</time>
      </trkpt>
      <trkpt lat="45.87" lon="4.80408">
        <ele>378.1</ele>
        <time>2019-08-30T08:04:59Z</time>
      </trkpt>
      <trkpt lat="45.87014" lon="4.80436">
        <ele>372.9</ele>
        <time>2019-08-30T08:05:03Z</time>
      </trkpt>
      <trkpt lat="45.87031" lon="4.80464">
        <ele>368.5</ele>
        <time>2019-08-30T08:05:08Z</time>
      </trkpt>
      <trkpt lat="45.87039" lon="4.80468">
        <ele>367</ele>
        <time>2019-08-30T08:05:11Z</time>
      </trkpt>
      <trkpt lat="45.87043" lon="4.80468">
        <ele>366.2</ele>
        <time>2019-08-30T08:05:13Z</time>
      </trkpt>
      <trkpt lat="45.87048" lon="4.80463">
        <ele>365</ele>
        <time>2019-08-30T08:05:16Z</time>
      </trkpt>
      <trkpt lat="45.87054" lon="4.8045">
        <ele>361.5</ele>
        <time>2019-08-30T08:05:18Z</time>
      </trkpt>
      <trkpt lat="45.87057" lon="4.80442">
        <ele>360.3</ele>
        <time>2019-08-30T08:05:19Z</time>
      </trkpt>
      <trkpt lat="45.87068" lon="4.80405">
        <ele>355.9</ele>
        <time>2019-08-30T08:05:24Z</time>
      </trkpt>
      <trkpt lat="45.87072" lon="4.80398">
        <ele>354.7</ele>
        <time>2019-08-30T08:05:25Z</time>
      </trkpt>
      <trkpt lat="45.87084" lon="4.80383">
        <ele>351.6</ele>
        <time>2019-08-30T08:05:27Z</time>
      </trkpt>
      <trkpt lat="45.87091" lon="4.80376">
        <ele>350.4</ele>
        <time>2019-08-30T08:05:28Z</time>
      </trkpt>
      <trkpt lat="45.87108" lon="4.80363">
        <ele>347.3</ele>
        <time>2019-08-30T08:05:30Z</time>
      </trkpt>
      <trkpt lat="45.87118" lon="4.80359">
        <ele>345.5</ele>
        <time>2019-08-30T08:05:31Z</time>
      </trkpt>
      <trkpt lat="45.87152" lon="4.80345">
        <ele>339.9</ele>
        <time>2019-08-30T08:05:35Z</time>
      </trkpt>
      <trkpt lat="45.87162" lon="4.80344">
        <ele>338.5</ele>
        <time>2019-08-30T08:05:36Z</time>
      </trkpt>
      <trkpt lat="45.87172" lon="4.80344">
        <ele>337.3</ele>
        <time>2019-08-30T08:05:37Z</time>
      </trkpt>
      <trkpt lat="45.87182" lon="4.80345">
        <ele>336.5</ele>
        <time>2019-08-30T08:05:38Z</time>
      </trkpt>
      <trkpt lat="45.87203" lon="4.80347">
        <ele>334.1</ele>
        <time>2019-08-30T08:05:40Z</time>
      </trkpt>
      <trkpt lat="45.87241" lon="4.80353">
        <ele>329.6</ele>
        <time>2019-08-30T08:05:44Z</time>
      </trkpt>
      <trkpt lat="45.8727" lon="4.80359">
        <ele>327.6</ele>
        <time>2019-08-30T08:05:47Z</time>
      </trkpt>
      <trkpt lat="45.87279" lon="4.80363">
        <ele>326.9</ele>
        <time>2019-08-30T08:05:48Z</time>
      </trkpt>
      <trkpt lat="45.87291" lon="4.80378">
        <ele>325.6</ele>
        <time>2019-08-30T08:05:50Z</time>
      </trkpt>
      <trkpt lat="45.87302" lon="4.80405">
        <ele>324.1</ele>
        <time>2019-08-30T08:05:53Z</time>
      </trkpt>
      <trkpt lat="45.87304" lon="4.80413">
        <ele>323.6</ele>
        <time>2019-08-30T08:05:54Z</time>
      </trkpt>
      <trkpt lat="45.87307" lon="4.80424">
        <ele>323.1</ele>
        <time>2019-08-30T08:05:56Z</time>
      </trkpt>
      <trkpt lat="45.87305" lon="4.80429">
        <ele>322.9</ele>
        <time>2019-08-30T08:05:57Z</time>
      </trkpt>
      <trkpt lat="45.87301" lon="4.80434">
        <ele>322.6</ele>
        <time>2019-08-30T08:05:58Z</time>
      </trkpt>
      <trkpt lat="45.87298" lon="4.80439">
        <ele>322.3</ele>
        <time>2019-08-30T08:05:59Z</time>
      </trkpt>
      <trkpt lat="45.87296" lon="4.80444">
        <ele>322.1</ele>
        <time>2019-08-30T08:06:00Z</time>
      </trkpt>
      <trkpt lat="45.87296" lon="4.80448">
        <ele>321.9</ele>
        <time>2019-08-30T08:06:01Z</time>
      </trkpt>
      <trkpt lat="45.87294" lon="4.80455">
        <ele>321.4</ele>
        <time>2019-08-30T08:06:03Z</time>
      </trkpt>
      <trkpt lat="45.87297" lon="4.80464">
        <ele>320.9</ele>
        <time>2019-08-30T08:06:05Z</time>
      </trkpt>
      <trkpt lat="45.87297" lon="4.80469">
        <ele>320.5</ele>
        <time>2019-08-30T08:06:06Z</time>
      </trkpt>
      <trkpt lat="45.873" lon="4.80479">
        <ele>319.8</ele>
        <time>2019-08-30T08:06:08Z</time>
      </trkpt>
      <trkpt lat="45.87305" lon="4.80489">
        <ele>318.9</ele>
        <time>2019-08-30T08:06:10Z</time>
      </trkpt>
      <trkpt lat="45.87314" lon="4.80496">
        <ele>317.7</ele>
        <time>2019-08-30T08:06:12Z</time>
      </trkpt>
      <trkpt lat="45.87317" lon="4.80498">
        <ele>317.3</ele>
        <time>2019-08-30T08:06:13Z</time>
      </trkpt>
      <trkpt lat="45.87321" lon="4.805">
        <ele>316.9</ele>
        <time>2019-08-30T08:06:14Z</time>
      </trkpt>
      <trkpt lat="45.87326" lon="4.80504">
        <ele>316.3</ele>
        <time>2019-08-30T08:06:15Z</time>
      </trkpt>
      <trkpt lat="45.87342" lon="4.80518">
        <ele>313.6</ele>
        <time>2019-08-30T08:06:19Z</time>
      </trkpt>
      <trkpt lat="45.87347" lon="4.8052">
        <ele>312.8</ele>
        <time>2019-08-30T08:06:20Z</time>
      </trkpt>
      <trkpt lat="45.87358" lon="4.80521">
        <ele>311</ele>
        <time>2019-08-30T08:06:22Z</time>
      </trkpt>
      <trkpt lat="45.87363" lon="4.80522">
        <ele>310.2</ele>
        <time>2019-08-30T08:06:23Z</time>
      </trkpt>
      <trkpt lat="45.87374" lon="4.80524">
        <ele>308.5</ele>
        <time>2019-08-30T08:06:25Z</time>
      </trkpt>
      <trkpt lat="45.87392" lon="4.80526">
        <ele>305.3</ele>
        <time>2019-08-30T08:06:28Z</time>
      </trkpt>
      <trkpt lat="45.87405" lon="4.80526">
        <ele>303.2</ele>
        <time>2019-08-30T08:06:30Z</time>
      </trkpt>
      <trkpt lat="45.87432" lon="4.80527">
        <ele>298.9</ele>
        <time>2019-08-30T08:06:33Z</time>
      </trkpt>
      <trkpt lat="45.87441" lon="4.8053">
        <ele>297.6</ele>
        <time>2019-08-30T08:06:34Z</time>
      </trkpt>
      <trkpt lat="45.8745" lon="4.80534">
        <ele>296.2</ele>
        <time>2019-08-30T08:06:35Z</time>
      </trkpt>
      <trkpt lat="45.87467" lon="4.80547">
        <ele>293.6</ele>
        <time>2019-08-30T08:06:37Z</time>
      </trkpt>
      <trkpt lat="45.87475" lon="4.80554">
        <ele>292.1</ele>
        <time>2019-08-30T08:06:38Z</time>
      </trkpt>
      <trkpt lat="45.87492" lon="4.80565">
        <ele>289</ele>
        <time>2019-08-30T08:06:40Z</time>
      </trkpt>
      <trkpt lat="45.87508" lon="4.80575">
        <ele>285.6</ele>
        <time>2019-08-30T08:06:42Z</time>
      </trkpt>
      <trkpt lat="45.87518" lon="4.80576">
        <ele>284</ele>
        <time>2019-08-30T08:06:43Z</time>
      </trkpt>
      <trkpt lat="45.87528" lon="4.80577">
        <ele>282.2</ele>
        <time>2019-08-30T08:06:44Z</time>
      </trkpt>
      <trkpt lat="45.87539" lon="4.80578">
        <ele>280.1</ele>
        <time>2019-08-30T08:06:45Z</time>
      </trkpt>
      <trkpt lat="45.87589" lon="4.80577">
        <ele>272.6</ele>
        <time>2019-08-30T08:06:49Z</time>
      </trkpt>
      <trkpt lat="45.87628" lon="4.80574">
        <ele>268.8</ele>
        <time>2019-08-30T08:06:52Z</time>
      </trkpt>
      <trkpt lat="45.87659" lon="4.80573">
        <ele>266.1</ele>
        <time>2019-08-30T08:06:55Z</time>
      </trkpt>
      <trkpt lat="45.87666" lon="4.80573">
        <ele>265.4</ele>
        <time>2019-08-30T08:06:56Z</time>
      </trkpt>
      <trkpt lat="45.87675" lon="4.80574">
        <ele>264.4</ele>
        <time>2019-08-30T08:06:58Z</time>
      </trkpt>
      <trkpt lat="45.87675" lon="4.80575">
        <ele>263.9</ele>
        <time>2019-08-30T08:06:59Z</time>
      </trkpt>
      <trkpt lat="45.87676" lon="4.80576">
        <ele>263.8</ele>
        <time>2019-08-30T08:07:09Z</time>
      </trkpt>
      <trkpt lat="45.87677" lon="4.80576">
        <ele>263.8</ele>
        <time>2019-08-30T08:07:10Z</time>
      </trkpt>
      <trkpt lat="45.87681" lon="4.80576">
        <ele>263.8</ele>
        <time>2019-08-30T08:07:12Z</time>
      </trkpt>
      <trkpt lat="45.87686" lon="4.80575">
        <ele>263.7</ele>
        <time>2019-08-30T08:07:15Z</time>
      </trkpt>
      <trkpt lat="45.87688" lon="4.80573">
        <ele>263.6</ele>
        <time>2019-08-30T08:07:17Z</time>
      </trkpt>
      <trkpt lat="45.87689" lon="4.80571">
        <ele>263.6</ele>
        <time>2019-08-30T08:07:18Z</time>
      </trkpt>
      <trkpt lat="45.87695" lon="4.80558">
        <ele>263.2</ele>
        <time>2019-08-30T08:07:21Z</time>
      </trkpt>
      <trkpt lat="45.87698" lon="4.80552">
        <ele>263.1</ele>
        <time>2019-08-30T08:07:22Z</time>
      </trkpt>
      <trkpt lat="45.877" lon="4.80545">
        <ele>262.9</ele>
        <time>2019-08-30T08:07:23Z</time>
      </trkpt>
      <trkpt lat="45.87702" lon="4.80537">
        <ele>262.6</ele>
        <time>2019-08-30T08:07:24Z</time>
      </trkpt>
      <trkpt lat="45.87704" lon="4.80529">
        <ele>262.4</ele>
        <time>2019-08-30T08:07:25Z</time>
      </trkpt>
      <trkpt lat="45.87707" lon="4.80511">
        <ele>262</ele>
        <time>2019-08-30T08:07:27Z</time>
      </trkpt>
      <trkpt lat="45.87712" lon="4.80488">
        <ele>261.5</ele>
        <time>2019-08-30T08:07:30Z</time>
      </trkpt>
      <trkpt lat="45.87713" lon="4.80481">
        <ele>261.9</ele>
        <time>2019-08-30T08:07:31Z</time>
      </trkpt>
      <trkpt lat="45.87714" lon="4.80465">
        <ele>262.8</ele>
        <time>2019-08-30T08:07:34Z</time>
      </trkpt>
      <trkpt lat="45.87712" lon="4.80461">
        <ele>262.9</ele>
        <time>2019-08-30T08:07:35Z</time>
      </trkpt>
      <trkpt lat="45.8771" lon="4.8046">
        <ele>263.1</ele>
        <time>2019-08-30T08:07:36Z</time>
      </trkpt>
      <trkpt lat="45.87705" lon="4.80458">
        <ele>263.4</ele>
        <time>2019-08-30T08:07:38Z</time>
      </trkpt>
      <trkpt lat="45.87703" lon="4.80457">
        <ele>263.5</ele>
        <time>2019-08-30T08:07:39Z</time>
      </trkpt>
      <trkpt lat="45.87696" lon="4.80457">
        <ele>264.1</ele>
        <time>2019-08-30T08:07:43Z</time>
      </trkpt>
      <trkpt lat="45.87692" lon="4.80457">
        <ele>264.6</ele>
        <time>2019-08-30T08:07:45Z</time>
      </trkpt>
      <trkpt lat="45.8769" lon="4.80457">
        <ele>264.7</ele>
        <time>2019-08-30T08:07:46Z</time>
      </trkpt>
      <trkpt lat="45.87684" lon="4.80456">
        <ele>265.3</ele>
        <time>2019-08-30T08:07:49Z</time>
      </trkpt>
      <trkpt lat="45.87678" lon="4.80455">
        <ele>265.8</ele>
        <time>2019-08-30T08:07:52Z</time>
      </trkpt>
      <trkpt lat="45.87676" lon="4.80455">
        <ele>266</ele>
        <time>2019-08-30T08:07:53Z</time>
      </trkpt>
      <trkpt lat="45.87673" lon="4.80456">
        <ele>266.3</ele>
        <time>2019-08-30T08:07:55Z</time>
      </trkpt>
      <trkpt lat="45.87668" lon="4.80456">
        <ele>266.9</ele>
        <time>2019-08-30T08:07:58Z</time>
      </trkpt>
      <trkpt lat="45.87665" lon="4.80456">
        <ele>267.3</ele>
        <time>2019-08-30T08:08:00Z</time>
      </trkpt>
      <trkpt lat="45.87663" lon="4.80456">
        <ele>267.5</ele>
        <time>2019-08-30T08:08:01Z</time>
      </trkpt>
      <trkpt lat="45.87658" lon="4.80458">
        <ele>268</ele>
        <time>2019-08-30T08:08:03Z</time>
      </trkpt>
      <trkpt lat="45.87655" lon="4.80457">
        <ele>268.2</ele>
        <time>2019-08-30T08:08:05Z</time>
      </trkpt>
      <trkpt lat="45.87651" lon="4.80456">
        <ele>268.7</ele>
        <time>2019-08-30T08:08:08Z</time>
      </trkpt>
      <trkpt lat="45.8765" lon="4.80455">
        <ele>268.8</ele>
        <time>2019-08-30T08:08:09Z</time>
      </trkpt>
      <trkpt lat="45.8764" lon="4.80451">
        <ele>270</ele>
        <time>2019-08-30T08:08:15Z</time>
      </trkpt>
      <trkpt lat="45.87635" lon="4.80449">
        <ele>270.7</ele>
        <time>2019-08-30T08:08:18Z</time>
      </trkpt>
      <trkpt lat="45.87633" lon="4.80449">
        <ele>270.9</ele>
        <time>2019-08-30T08:08:19Z</time>
      </trkpt>
      <trkpt lat="45.87629" lon="4.8045">
        <ele>271.4</ele>
        <time>2019-08-30T08:08:21Z</time>
      </trkpt>
      <trkpt lat="45.87625" lon="4.80447">
        <ele>272.1</ele>
        <time>2019-08-30T08:08:25Z</time>
      </trkpt>
      <trkpt lat="45.87622" lon="4.80444">
        <ele>272.4</ele>
        <time>2019-08-30T08:08:27Z</time>
      </trkpt>
      <trkpt lat="45.87622" lon="4.8044">
        <ele>272.7</ele>
        <time>2019-08-30T08:08:28Z</time>
      </trkpt>
      <trkpt lat="45.8762" lon="4.80437">
        <ele>273</ele>
        <time>2019-08-30T08:08:29Z</time>
      </trkpt>
      <trkpt lat="45.87612" lon="4.80436">
        <ele>273.7</ele>
        <time>2019-08-30T08:08:32Z</time>
      </trkpt>
      <trkpt lat="45.87609" lon="4.80435">
        <ele>274</ele>
        <time>2019-08-30T08:08:34Z</time>
      </trkpt>
      <trkpt lat="45.87602" lon="4.80433">
        <ele>274.6</ele>
        <time>2019-08-30T08:08:38Z</time>
      </trkpt>
      <trkpt lat="45.87597" lon="4.80431">
        <ele>275</ele>
        <time>2019-08-30T08:08:40Z</time>
      </trkpt>
      <trkpt lat="45.87594" lon="4.8043">
        <ele>275.4</ele>
        <time>2019-08-30T08:08:41Z</time>
      </trkpt>
      <trkpt lat="45.8759" lon="4.8043">
        <ele>275.8</ele>
        <time>2019-08-30T08:08:42Z</time>
      </trkpt>
      <trkpt lat="45.87579" lon="4.80429">
        <ele>276.9</ele>
        <time>2019-08-30T08:08:44Z</time>
      </trkpt>
      <trkpt lat="45.87574" lon="4.80428">
        <ele>277.3</ele>
        <time>2019-08-30T08:08:45Z</time>
      </trkpt>
      <trkpt lat="45.8757" lon="4.80427">
        <ele>277.7</ele>
        <time>2019-08-30T08:08:46Z</time>
      </trkpt>
      <trkpt lat="45.87567" lon="4.80427">
        <ele>278</ele>
        <time>2019-08-30T08:08:47Z</time>
      </trkpt>
      <trkpt lat="45.87563" lon="4.80428">
        <ele>278.4</ele>
        <time>2019-08-30T08:08:49Z</time>
      </trkpt>
      <trkpt lat="45.87562" lon="4.80428">
        <ele>278.5</ele>
        <time>2019-08-30T08:08:50Z</time>
      </trkpt>
      <trkpt lat="45.87561" lon="4.80429">
        <ele>278.6</ele>
        <time>2019-08-30T08:08:51Z</time>
      </trkpt>
      <trkpt lat="45.87562" lon="4.80431">
        <ele>278.8</ele>
        <time>2019-08-30T08:08:52Z</time>
      </trkpt>
      <trkpt lat="45.87563" lon="4.80433">
        <ele>278.9</ele>
        <time>2019-08-30T08:08:53Z</time>
      </trkpt>
      <trkpt lat="45.87564" lon="4.80435">
        <ele>279.1</ele>
        <time>2019-08-30T08:08:54Z</time>
      </trkpt>
      <trkpt lat="45.87564" lon="4.80436">
        <ele>279.2</ele>
        <time>2019-08-30T08:08:55Z</time>
      </trkpt>
      <trkpt lat="45.87564" lon="4.80436">
        <ele>279.2</ele>
        <time>2019-08-30T08:08:56Z</time>
      </trkpt>
      <trkpt lat="45.87564" lon="4.80436">
        <ele>279.3</ele>
        <time>2019-08-30T08:08:57Z</time>
      </trkpt>
      <trkpt lat="45.87563" lon="4.80436">
        <ele>279.4</ele>
        <time>2019-08-30T08:08:58Z</time>
      </trkpt>
      <trkpt lat="45.87563" lon="4.80435">
        <ele>279.4</ele>
        <time>2019-08-30T08:08:59Z</time>
      </trkpt>
      <trkpt lat="45.87562" lon="4.80436">
        <ele>279.5</ele>
        <time>2019-08-30T08:09:00Z</time>
      </trkpt>
      <trkpt lat="45.87562" lon="4.80436">
        <ele>279.5</ele>
        <time>2019-08-30T08:09:01Z</time>
      </trkpt>
      <trkpt lat="45.87561" lon="4.80436">
        <ele>279.6</ele>
        <time>2019-08-30T08:09:02Z</time>
      </trkpt>
      <trkpt lat="45.8756" lon="4.80436">
        <ele>279.7</ele>
        <time>2019-08-30T08:09:03Z</time>
      </trkpt>
      <trkpt lat="45.87559" lon="4.80437">
        <ele>279.8</ele>
        <time>2019-08-30T08:09:04Z</time>
      </trkpt>
      <trkpt lat="45.87556" lon="4.80438">
        <ele>280.1</ele>
        <time>2019-08-30T08:09:06Z</time>
      </trkpt>
      <trkpt lat="45.87555" lon="4.80438">
        <ele>280.2</ele>
        <time>2019-08-30T08:09:07Z</time>
      </trkpt>
      <trkpt lat="45.87554" lon="4.80439">
        <ele>280.4</ele>
        <time>2019-08-30T08:09:08Z</time>
      </trkpt>
      <trkpt lat="45.87551" lon="4.80438">
        <ele>280.7</ele>
        <time>2019-08-30T08:09:10Z</time>
      </trkpt>
      <trkpt lat="45.87549" lon="4.80436">
        <ele>281</ele>
        <time>2019-08-30T08:09:12Z</time>
      </trkpt>
      <trkpt lat="45.87547" lon="4.80435">
        <ele>281.2</ele>
        <time>2019-08-30T08:09:14Z</time>
      </trkpt>
      <trkpt lat="45.87543" lon="4.80434">
        <ele>281.7</ele>
        <time>2019-08-30T08:09:17Z</time>
      </trkpt>
      <trkpt lat="45.87531" lon="4.80431">
        <ele>283.2</ele>
        <time>2019-08-30T08:09:25Z</time>
      </trkpt>
      <trkpt lat="45.8753" lon="4.80431">
        <ele>283.3</ele>
        <time>2019-08-30T08:09:26Z</time>
      </trkpt>
      <trkpt lat="45.87526" lon="4.8043">
        <ele>283.7</ele>
        <time>2019-08-30T08:09:29Z</time>
      </trkpt>
      <trkpt lat="45.87521" lon="4.80431">
        <ele>284.7</ele>
        <time>2019-08-30T08:09:33Z</time>
      </trkpt>
      <trkpt lat="45.87517" lon="4.8043">
        <ele>285.1</ele>
        <time>2019-08-30T08:09:35Z</time>
      </trkpt>
      <trkpt lat="45.87507" lon="4.80427">
        <ele>286.5</ele>
        <time>2019-08-30T08:09:43Z</time>
      </trkpt>
      <trkpt lat="45.87502" lon="4.80423">
        <ele>287.2</ele>
        <time>2019-08-30T08:09:47Z</time>
      </trkpt>
      <trkpt lat="45.87496" lon="4.80421">
        <ele>288</ele>
        <time>2019-08-30T08:09:51Z</time>
      </trkpt>
      <trkpt lat="45.87491" lon="4.80418">
        <ele>288.9</ele>
        <time>2019-08-30T08:09:56Z</time>
      </trkpt>
      <trkpt lat="45.87487" lon="4.80414">
        <ele>289.6</ele>
        <time>2019-08-30T08:09:59Z</time>
      </trkpt>
      <trkpt lat="45.87478" lon="4.80406">
        <ele>291.3</ele>
        <time>2019-08-30T08:10:06Z</time>
      </trkpt>
      <trkpt lat="45.87475" lon="4.80403">
        <ele>291.9</ele>
        <time>2019-08-30T08:10:09Z</time>
      </trkpt>
      <trkpt lat="45.87471" lon="4.80398">
        <ele>292.8</ele>
        <time>2019-08-30T08:10:13Z</time>
      </trkpt>
      <trkpt lat="45.8747" lon="4.80398">
        <ele>292.9</ele>
        <time>2019-08-30T08:10:14Z</time>
      </trkpt>
      <trkpt lat="45.87467" lon="4.80394">
        <ele>293.5</ele>
        <time>2019-08-30T08:10:17Z</time>
      </trkpt>
      <trkpt lat="45.87464" lon="4.80391">
        <ele>294.1</ele>
        <time>2019-08-30T08:10:20Z</time>
      </trkpt>
      <trkpt lat="45.8746" lon="4.80387">
        <ele>294.8</ele>
        <time>2019-08-30T08:10:23Z</time>
      </trkpt>
      <trkpt lat="45.87458" lon="4.80386">
        <ele>295</ele>
        <time>2019-08-30T08:10:24Z</time>
      </trkpt>
      <trkpt lat="45.87453" lon="4.80381">
        <ele>295.9</ele>
        <time>2019-08-30T08:10:28Z</time>
      </trkpt>
      <trkpt lat="45.87451" lon="4.80379">
        <ele>296.3</ele>
        <time>2019-08-30T08:10:30Z</time>
      </trkpt>
      <trkpt lat="45.87448" lon="4.80376">
        <ele>296.7</ele>
        <time>2019-08-30T08:10:32Z</time>
      </trkpt>
      <trkpt lat="45.87443" lon="4.8037">
        <ele>297.9</ele>
        <time>2019-08-30T08:10:37Z</time>
      </trkpt>
      <trkpt lat="45.87438" lon="4.80366">
        <ele>299.1</ele>
        <time>2019-08-30T08:10:41Z</time>
      </trkpt>
      <trkpt lat="45.87434" lon="4.80363">
        <ele>299.8</ele>
        <time>2019-08-30T08:10:44Z</time>
      </trkpt>
      <trkpt lat="45.87425" lon="4.80352">
        <ele>302</ele>
        <time>2019-08-30T08:10:52Z</time>
      </trkpt>
      <trkpt lat="45.87421" lon="4.80348">
        <ele>302.9</ele>
        <time>2019-08-30T08:10:55Z</time>
      </trkpt>
      <trkpt lat="45.87416" lon="4.8034">
        <ele>304.2</ele>
        <time>2019-08-30T08:11:00Z</time>
      </trkpt>
      <trkpt lat="45.87409" lon="4.80328">
        <ele>306.2</ele>
        <time>2019-08-30T08:11:08Z</time>
      </trkpt>
      <trkpt lat="45.87408" lon="4.80324">
        <ele>306.7</ele>
        <time>2019-08-30T08:11:10Z</time>
      </trkpt>
      <trkpt lat="45.87406" lon="4.80318">
        <ele>307.3</ele>
        <time>2019-08-30T08:11:13Z</time>
      </trkpt>
      <trkpt lat="45.87407" lon="4.80314">
        <ele>307.3</ele>
        <time>2019-08-30T08:11:15Z</time>
      </trkpt>
      <trkpt lat="45.8741" lon="4.80305">
        <ele>307.2</ele>
        <time>2019-08-30T08:11:20Z</time>
      </trkpt>
      <trkpt lat="45.87411" lon="4.80304">
        <ele>307.2</ele>
        <time>2019-08-30T08:11:21Z</time>
      </trkpt>
      <trkpt lat="45.8742" lon="4.80292">
        <ele>307.1</ele>
        <time>2019-08-30T08:11:30Z</time>
      </trkpt>
      <trkpt lat="45.8743" lon="4.80285">
        <ele>307.1</ele>
        <time>2019-08-30T08:11:37Z</time>
      </trkpt>
      <trkpt lat="45.87435" lon="4.80281">
        <ele>307.1</ele>
        <time>2019-08-30T08:11:41Z</time>
      </trkpt>
      <trkpt lat="45.87439" lon="4.80276">
        <ele>307</ele>
        <time>2019-08-30T08:11:44Z</time>
      </trkpt>
      <trkpt lat="45.87453" lon="4.80263">
        <ele>307</ele>
        <time>2019-08-30T08:11:53Z</time>
      </trkpt>
      <trkpt lat="45.87465" lon="4.80249">
        <ele>307</ele>
        <time>2019-08-30T08:12:02Z</time>
      </trkpt>
      <trkpt lat="45.87476" lon="4.80241">
        <ele>307</ele>
        <time>2019-08-30T08:12:09Z</time>
      </trkpt>
      <trkpt lat="45.87481" lon="4.80238">
        <ele>307</ele>
        <time>2019-08-30T08:12:12Z</time>
      </trkpt>
      <trkpt lat="45.87493" lon="4.80232">
        <ele>306.9</ele>
        <time>2019-08-30T08:12:19Z</time>
      </trkpt>
      <trkpt lat="45.875" lon="4.80225">
        <ele>306.9</ele>
        <time>2019-08-30T08:12:23Z</time>
      </trkpt>
      <trkpt lat="45.87506" lon="4.80213">
        <ele>307.7</ele>
        <time>2019-08-30T08:12:28Z</time>
      </trkpt>
      <trkpt lat="45.87509" lon="4.80204">
        <ele>308.2</ele>
        <time>2019-08-30T08:12:31Z</time>
      </trkpt>
      <trkpt lat="45.87509" lon="4.80195">
        <ele>308.8</ele>
        <time>2019-08-30T08:12:34Z</time>
      </trkpt>
      <trkpt lat="45.8751" lon="4.8018">
        <ele>309.7</ele>
        <time>2019-08-30T08:12:39Z</time>
      </trkpt>
      <trkpt lat="45.8751" lon="4.80177">
        <ele>309.9</ele>
        <time>2019-08-30T08:12:40Z</time>
      </trkpt>
      <trkpt lat="45.87508" lon="4.80164">
        <ele>310.9</ele>
        <time>2019-08-30T08:12:44Z</time>
      </trkpt>
      <trkpt lat="45.87508" lon="4.80161">
        <ele>311.1</ele>
        <time>2019-08-30T08:12:45Z</time>
      </trkpt>
      <trkpt lat="45.87504" lon="4.8014">
        <ele>312.8</ele>
        <time>2019-08-30T08:12:52Z</time>
      </trkpt>
      <trkpt lat="45.87503" lon="4.80137">
        <ele>313.1</ele>
        <time>2019-08-30T08:12:53Z</time>
      </trkpt>
      <trkpt lat="45.87497" lon="4.80124">
        <ele>314.5</ele>
        <time>2019-08-30T08:12:58Z</time>
      </trkpt>
      <trkpt lat="45.87495" lon="4.80118">
        <ele>315.2</ele>
        <time>2019-08-30T08:13:00Z</time>
      </trkpt>
      <trkpt lat="45.87488" lon="4.80108">
        <ele>316.7</ele>
        <time>2019-08-30T08:13:04Z</time>
      </trkpt>
      <trkpt lat="45.87483" lon="4.801">
        <ele>317.8</ele>
        <time>2019-08-30T08:13:07Z</time>
      </trkpt>
      <trkpt lat="45.87477" lon="4.80086">
        <ele>320.2</ele>
        <time>2019-08-30T08:13:12Z</time>
      </trkpt>
      <trkpt lat="45.87473" lon="4.80078">
        <ele>321.5</ele>
        <time>2019-08-30T08:13:15Z</time>
      </trkpt>
      <trkpt lat="45.87469" lon="4.80067">
        <ele>322.3</ele>
        <time>2019-08-30T08:13:19Z</time>
      </trkpt>
      <trkpt lat="45.87466" lon="4.80057">
        <ele>322.8</ele>
        <time>2019-08-30T08:13:22Z</time>
      </trkpt>
      <trkpt lat="45.87463" lon="4.80045">
        <ele>323.5</ele>
        <time>2019-08-30T08:13:26Z</time>
      </trkpt>
      <trkpt lat="45.87461" lon="4.80036">
        <ele>324.1</ele>
        <time>2019-08-30T08:13:30Z</time>
      </trkpt>
      <trkpt lat="45.87459" lon="4.8002">
        <ele>325.3</ele>
        <time>2019-08-30T08:13:37Z</time>
      </trkpt>
      <trkpt lat="45.87458" lon="4.80018">
        <ele>325.5</ele>
        <time>2019-08-30T08:13:38Z</time>
      </trkpt>
      <trkpt lat="45.87456" lon="4.80003">
        <ele>326.9</ele>
        <time>2019-08-30T08:13:45Z</time>
      </trkpt>
      <trkpt lat="45.87455" lon="4.79986">
        <ele>328.8</ele>
        <time>2019-08-30T08:13:54Z</time>
      </trkpt>
      <trkpt lat="45.87455" lon="4.79976">
        <ele>329.3</ele>
        <time>2019-08-30T08:13:59Z</time>
      </trkpt>
      <trkpt lat="45.87454" lon="4.79968">
        <ele>329.7</ele>
        <time>2019-08-30T08:14:03Z</time>
      </trkpt>
      <trkpt lat="45.87454" lon="4.79966">
        <ele>329.8</ele>
        <time>2019-08-30T08:14:04Z</time>
      </trkpt>
      <trkpt lat="45.87451" lon="4.79961">
        <ele>330.1</ele>
        <time>2019-08-30T08:14:07Z</time>
      </trkpt>
      <trkpt lat="45.8745" lon="4.79957">
        <ele>330.3</ele>
        <time>2019-08-30T08:14:09Z</time>
      </trkpt>
      <trkpt lat="45.87446" lon="4.79951">
        <ele>330.5</ele>
        <time>2019-08-30T08:14:13Z</time>
      </trkpt>
      <trkpt lat="45.87445" lon="4.7995">
        <ele>330.6</ele>
        <time>2019-08-30T08:14:14Z</time>
      </trkpt>
      <trkpt lat="45.8744" lon="4.79943">
        <ele>331</ele>
        <time>2019-08-30T08:14:18Z</time>
      </trkpt>
      <trkpt lat="45.87436" lon="4.79938">
        <ele>331.3</ele>
        <time>2019-08-30T08:14:21Z</time>
      </trkpt>
      <trkpt lat="45.87432" lon="4.79933">
        <ele>331.6</ele>
        <time>2019-08-30T08:14:24Z</time>
      </trkpt>
      <trkpt lat="45.8743" lon="4.79929">
        <ele>331.7</ele>
        <time>2019-08-30T08:14:26Z</time>
      </trkpt>
      <trkpt lat="45.87426" lon="4.79925">
        <ele>332</ele>
        <time>2019-08-30T08:14:29Z</time>
      </trkpt>
      <trkpt lat="45.87425" lon="4.79923">
        <ele>332.1</ele>
        <time>2019-08-30T08:14:30Z</time>
      </trkpt>
      <trkpt lat="45.87423" lon="4.7992">
        <ele>332.2</ele>
        <time>2019-08-30T08:14:32Z</time>
      </trkpt>
      <trkpt lat="45.87419" lon="4.79914">
        <ele>332.5</ele>
        <time>2019-08-30T08:14:35Z</time>
      </trkpt>
      <trkpt lat="45.87416" lon="4.79909">
        <ele>332.7</ele>
        <time>2019-08-30T08:14:38Z</time>
      </trkpt>
      <trkpt lat="45.87411" lon="4.79902">
        <ele>333</ele>
        <time>2019-08-30T08:14:42Z</time>
      </trkpt>
      <trkpt lat="45.87407" lon="4.79896">
        <ele>333.3</ele>
        <time>2019-08-30T08:14:46Z</time>
      </trkpt>
      <trkpt lat="45.87405" lon="4.79893">
        <ele>333.4</ele>
        <time>2019-08-30T08:14:48Z</time>
      </trkpt>
      <trkpt lat="45.87398" lon="4.79886">
        <ele>333.6</ele>
        <time>2019-08-30T08:14:54Z</time>
      </trkpt>
      <trkpt lat="45.87392" lon="4.79878">
        <ele>333.7</ele>
        <time>2019-08-30T08:15:00Z</time>
      </trkpt>
      <trkpt lat="45.87388" lon="4.79876">
        <ele>333.8</ele>
        <time>2019-08-30T08:15:03Z</time>
      </trkpt>
      <trkpt lat="45.87381" lon="4.79872">
        <ele>334.1</ele>
        <time>2019-08-30T08:15:07Z</time>
      </trkpt>
      <trkpt lat="45.87376" lon="4.79869">
        <ele>334.5</ele>
        <time>2019-08-30T08:15:11Z</time>
      </trkpt>
      <trkpt lat="45.8736" lon="4.79864">
        <ele>335.9</ele>
        <time>2019-08-30T08:15:20Z</time>
      </trkpt>
      <trkpt lat="45.87359" lon="4.79864">
        <ele>336</ele>
        <time>2019-08-30T08:15:21Z</time>
      </trkpt>
      <trkpt lat="45.87353" lon="4.79863">
        <ele>336.7</ele>
        <time>2019-08-30T08:15:24Z</time>
      </trkpt>
      <trkpt lat="45.87343" lon="4.7986">
        <ele>337.9</ele>
        <time>2019-08-30T08:15:30Z</time>
      </trkpt>
      <trkpt lat="45.87341" lon="4.79859">
        <ele>338.1</ele>
        <time>2019-08-30T08:15:31Z</time>
      </trkpt>
      <trkpt lat="45.87338" lon="4.79858">
        <ele>338.5</ele>
        <time>2019-08-30T08:15:33Z</time>
      </trkpt>
      <trkpt lat="45.87331" lon="4.79858">
        <ele>339.7</ele>
        <time>2019-08-30T08:15:38Z</time>
      </trkpt>
      <trkpt lat="45.87329" lon="4.79858">
        <ele>339.9</ele>
        <time>2019-08-30T08:15:39Z</time>
      </trkpt>
      <trkpt lat="45.87326" lon="4.79857">
        <ele>340.5</ele>
        <time>2019-08-30T08:15:41Z</time>
      </trkpt>
      <trkpt lat="45.87322" lon="4.79854">
        <ele>341.3</ele>
        <time>2019-08-30T08:15:44Z</time>
      </trkpt>
      <trkpt lat="45.87318" lon="4.79851">
        <ele>341.5</ele>
        <time>2019-08-30T08:15:46Z</time>
      </trkpt>
      <trkpt lat="45.87316" lon="4.79848">
        <ele>341.6</ele>
        <time>2019-08-30T08:15:48Z</time>
      </trkpt>
      <trkpt lat="45.8731" lon="4.79839">
        <ele>341.8</ele>
        <time>2019-08-30T08:15:52Z</time>
      </trkpt>
      <trkpt lat="45.87307" lon="4.79829">
        <ele>342</ele>
        <time>2019-08-30T08:15:54Z</time>
      </trkpt>
      <trkpt lat="45.87303" lon="4.79816">
        <ele>342.2</ele>
        <time>2019-08-30T08:15:56Z</time>
      </trkpt>
      <trkpt lat="45.87298" lon="4.79803">
        <ele>342.4</ele>
        <time>2019-08-30T08:15:58Z</time>
      </trkpt>
      <trkpt lat="45.87292" lon="4.79784">
        <ele>342.9</ele>
        <time>2019-08-30T08:16:01Z</time>
      </trkpt>
      <trkpt lat="45.87282" lon="4.79752">
        <ele>343.5</ele>
        <time>2019-08-30T08:16:07Z</time>
      </trkpt>
      <trkpt lat="45.87273" lon="4.7972">
        <ele>344.2</ele>
        <time>2019-08-30T08:16:14Z</time>
      </trkpt>
      <trkpt lat="45.8727" lon="4.79704">
        <ele>344.5</ele>
        <time>2019-08-30T08:16:17Z</time>
      </trkpt>
      <trkpt lat="45.87265" lon="4.79687">
        <ele>344.8</ele>
        <time>2019-08-30T08:16:20Z</time>
      </trkpt>
      <trkpt lat="45.87254" lon="4.79638">
        <ele>345.4</ele>
        <time>2019-08-30T08:16:28Z</time>
      </trkpt>
      <trkpt lat="45.87249" lon="4.79595">
        <ele>346.2</ele>
        <time>2019-08-30T08:16:35Z</time>
      </trkpt>
      <trkpt lat="45.87247" lon="4.79577">
        <ele>346.8</ele>
        <time>2019-08-30T08:16:38Z</time>
      </trkpt>
      <trkpt lat="45.87245" lon="4.79554">
        <ele>347.8</ele>
        <time>2019-08-30T08:16:42Z</time>
      </trkpt>
      <trkpt lat="45.87244" lon="4.7954">
        <ele>349</ele>
        <time>2019-08-30T08:16:45Z</time>
      </trkpt>
      <trkpt lat="45.87244" lon="4.79532">
        <ele>349.8</ele>
        <time>2019-08-30T08:16:47Z</time>
      </trkpt>
      <trkpt lat="45.87243" lon="4.79515">
        <ele>350.8</ele>
        <time>2019-08-30T08:16:51Z</time>
      </trkpt>
      <trkpt lat="45.87243" lon="4.79505">
        <ele>351.4</ele>
        <time>2019-08-30T08:16:53Z</time>
      </trkpt>
      <trkpt lat="45.87243" lon="4.79495">
        <ele>351.8</ele>
        <time>2019-08-30T08:16:55Z</time>
      </trkpt>
      <trkpt lat="45.87244" lon="4.79479">
        <ele>352.3</ele>
        <time>2019-08-30T08:16:59Z</time>
      </trkpt>
      <trkpt lat="45.87244" lon="4.7947">
        <ele>352.6</ele>
        <time>2019-08-30T08:17:01Z</time>
      </trkpt>
      <trkpt lat="45.87244" lon="4.79465">
        <ele>352.7</ele>
        <time>2019-08-30T08:17:02Z</time>
      </trkpt>
      <trkpt lat="45.87242" lon="4.79435">
        <ele>352.7</ele>
        <time>2019-08-30T08:17:08Z</time>
      </trkpt>
      <trkpt lat="45.87239" lon="4.79398">
        <ele>351.2</ele>
        <time>2019-08-30T08:17:13Z</time>
      </trkpt>
      <trkpt lat="45.87237" lon="4.79376">
        <ele>349.6</ele>
        <time>2019-08-30T08:17:16Z</time>
      </trkpt>
      <trkpt lat="45.87236" lon="4.7936">
        <ele>348.1</ele>
        <time>2019-08-30T08:17:18Z</time>
      </trkpt>
      <trkpt lat="45.87235" lon="4.79353">
        <ele>347.5</ele>
        <time>2019-08-30T08:17:19Z</time>
      </trkpt>
      <trkpt lat="45.87228" lon="4.79341">
        <ele>346.1</ele>
        <time>2019-08-30T08:17:22Z</time>
      </trkpt>
      <trkpt lat="45.87215" lon="4.79341">
        <ele>346.8</ele>
        <time>2019-08-30T08:17:25Z</time>
      </trkpt>
      <trkpt lat="45.87211" lon="4.79342">
        <ele>347.1</ele>
        <time>2019-08-30T08:17:26Z</time>
      </trkpt>
      <trkpt lat="45.87203" lon="4.7934">
        <ele>347.7</ele>
        <time>2019-08-30T08:17:28Z</time>
      </trkpt>
      <trkpt lat="45.87199" lon="4.7934">
        <ele>348</ele>
        <time>2019-08-30T08:17:29Z</time>
      </trkpt>
      <trkpt lat="45.87191" lon="4.7934">
        <ele>348.6</ele>
        <time>2019-08-30T08:17:31Z</time>
      </trkpt>
      <trkpt lat="45.87181" lon="4.79339">
        <ele>349.9</ele>
        <time>2019-08-30T08:17:34Z</time>
      </trkpt>
      <trkpt lat="45.87178" lon="4.79337">
        <ele>350.4</ele>
        <time>2019-08-30T08:17:35Z</time>
      </trkpt>
      <trkpt lat="45.87172" lon="4.79328">
        <ele>351.7</ele>
        <time>2019-08-30T08:17:38Z</time>
      </trkpt>
      <trkpt lat="45.87171" lon="4.79319">
        <ele>352.6</ele>
        <time>2019-08-30T08:17:40Z</time>
      </trkpt>
      <trkpt lat="45.8717" lon="4.79295">
        <ele>355.6</ele>
        <time>2019-08-30T08:17:46Z</time>
      </trkpt>
      <trkpt lat="45.87169" lon="4.79285">
        <ele>356.9</ele>
        <time>2019-08-30T08:17:50Z</time>
      </trkpt>
      <trkpt lat="45.87168" lon="4.79283">
        <ele>357.2</ele>
        <time>2019-08-30T08:17:51Z</time>
      </trkpt>
      <trkpt lat="45.87166" lon="4.79279">
        <ele>357.8</ele>
        <time>2019-08-30T08:17:53Z</time>
      </trkpt>
      <trkpt lat="45.87161" lon="4.79268">
        <ele>359.6</ele>
        <time>2019-08-30T08:17:59Z</time>
      </trkpt>
      <trkpt lat="45.87158" lon="4.79264">
        <ele>360.3</ele>
        <time>2019-08-30T08:18:01Z</time>
      </trkpt>
      <trkpt lat="45.87152" lon="4.79253">
        <ele>361.6</ele>
        <time>2019-08-30T08:18:07Z</time>
      </trkpt>
      <trkpt lat="45.87147" lon="4.79246">
        <ele>362.6</ele>
        <time>2019-08-30T08:18:11Z</time>
      </trkpt>
      <trkpt lat="45.87144" lon="4.79241">
        <ele>363.3</ele>
        <time>2019-08-30T08:18:14Z</time>
      </trkpt>
      <trkpt lat="45.87143" lon="4.79239">
        <ele>363.5</ele>
        <time>2019-08-30T08:18:15Z</time>
      </trkpt>
      <trkpt lat="45.87141" lon="4.79234">
        <ele>364</ele>
        <time>2019-08-30T08:18:18Z</time>
      </trkpt>
      <trkpt lat="45.87136" lon="4.79227">
        <ele>364.7</ele>
        <time>2019-08-30T08:18:22Z</time>
      </trkpt>
      <trkpt lat="45.87135" lon="4.79225">
        <ele>364.9</ele>
        <time>2019-08-30T08:18:23Z</time>
      </trkpt>
      <trkpt lat="45.87131" lon="4.79219">
        <ele>365.4</ele>
        <time>2019-08-30T08:18:26Z</time>
      </trkpt>
      <trkpt lat="45.87129" lon="4.79217">
        <ele>365.6</ele>
        <time>2019-08-30T08:18:28Z</time>
      </trkpt>
      <trkpt lat="45.87124" lon="4.79216">
        <ele>366.3</ele>
        <time>2019-08-30T08:18:31Z</time>
      </trkpt>
      <trkpt lat="45.87119" lon="4.79215">
        <ele>366.7</ele>
        <time>2019-08-30T08:18:34Z</time>
      </trkpt>
      <trkpt lat="45.87108" lon="4.79216">
        <ele>368.1</ele>
        <time>2019-08-30T08:18:40Z</time>
      </trkpt>
      <trkpt lat="45.87092" lon="4.79221">
        <ele>370.4</ele>
        <time>2019-08-30T08:18:48Z</time>
      </trkpt>
      <trkpt lat="45.87077" lon="4.79224">
        <ele>372.3</ele>
        <time>2019-08-30T08:18:56Z</time>
      </trkpt>
      <trkpt lat="45.87073" lon="4.79225">
        <ele>372.7</ele>
        <time>2019-08-30T08:18:58Z</time>
      </trkpt>
      <trkpt lat="45.87065" lon="4.79224">
        <ele>373.3</ele>
        <time>2019-08-30T08:19:03Z</time>
      </trkpt>
      <trkpt lat="45.87059" lon="4.79223">
        <ele>373.4</ele>
        <time>2019-08-30T08:19:07Z</time>
      </trkpt>
      <trkpt lat="45.87055" lon="4.79221">
        <ele>373.4</ele>
        <time>2019-08-30T08:19:09Z</time>
      </trkpt>
      <trkpt lat="45.87054" lon="4.7922">
        <ele>373.4</ele>
        <time>2019-08-30T08:19:10Z</time>
      </trkpt>
      <trkpt lat="45.87052" lon="4.79219">
        <ele>373.3</ele>
        <time>2019-08-30T08:19:11Z</time>
      </trkpt>
      <trkpt lat="45.87044" lon="4.79212">
        <ele>372.7</ele>
        <time>2019-08-30T08:19:15Z</time>
      </trkpt>
      <trkpt lat="45.87027" lon="4.79191">
        <ele>370.7</ele>
        <time>2019-08-30T08:19:21Z</time>
      </trkpt>
      <trkpt lat="45.87015" lon="4.79162">
        <ele>368.3</ele>
        <time>2019-08-30T08:19:25Z</time>
      </trkpt>
      <trkpt lat="45.87011" lon="4.79154">
        <ele>367.6</ele>
        <time>2019-08-30T08:19:26Z</time>
      </trkpt>
      <trkpt lat="45.86996" lon="4.79129">
        <ele>365.4</ele>
        <time>2019-08-30T08:19:29Z</time>
      </trkpt>
      <trkpt lat="45.86982" lon="4.79109">
        <ele>364.6</ele>
        <time>2019-08-30T08:19:32Z</time>
      </trkpt>
      <trkpt lat="45.86973" lon="4.791">
        <ele>364.7</ele>
        <time>2019-08-30T08:19:34Z</time>
      </trkpt>
      <trkpt lat="45.86957" lon="4.7909">
        <ele>367.3</ele>
        <time>2019-08-30T08:19:39Z</time>
      </trkpt>
      <trkpt lat="45.86955" lon="4.79089">
        <ele>368</ele>
        <time>2019-08-30T08:19:40Z</time>
      </trkpt>
      <trkpt lat="45.86948" lon="4.79087">
        <ele>369.4</ele>
        <time>2019-08-30T08:19:42Z</time>
      </trkpt>
      <trkpt lat="45.86941" lon="4.79088">
        <ele>371.2</ele>
        <time>2019-08-30T08:19:47Z</time>
      </trkpt>
      <trkpt lat="45.86933" lon="4.79092">
        <ele>373.5</ele>
        <time>2019-08-30T08:19:54Z</time>
      </trkpt>
      <trkpt lat="45.869" lon="4.79079">
        <ele>383.3</ele>
        <time>2019-08-30T08:20:51Z</time>
      </trkpt>
      <trkpt lat="45.86765" lon="4.78895">
        <ele>403.7</ele>
        <time>2019-08-30T08:25:38Z</time>
      </trkpt>
      <trkpt lat="45.86765" lon="4.78893">
        <ele>403.8</ele>
        <time>2019-08-30T08:25:39Z</time>
      </trkpt>
      <trkpt lat="45.86762" lon="4.78887">
        <ele>403.9</ele>
        <time>2019-08-30T08:25:42Z</time>
      </trkpt>
      <trkpt lat="45.86758" lon="4.78882">
        <ele>404.1</ele>
        <time>2019-08-30T08:25:45Z</time>
      </trkpt>
      <trkpt lat="45.86748" lon="4.78868">
        <ele>404.5</ele>
        <time>2019-08-30T08:25:51Z</time>
      </trkpt>
      <trkpt lat="45.86737" lon="4.78858">
        <ele>404.8</ele>
        <time>2019-08-30T08:25:56Z</time>
      </trkpt>
      <trkpt lat="45.86722" lon="4.78847">
        <ele>405.2</ele>
        <time>2019-08-30T08:26:02Z</time>
      </trkpt>
      <trkpt lat="45.86705" lon="4.78842">
        <ele>405.8</ele>
        <time>2019-08-30T08:26:09Z</time>
      </trkpt>
      <trkpt lat="45.86689" lon="4.78841">
        <ele>406.2</ele>
        <time>2019-08-30T08:26:15Z</time>
      </trkpt>
      <trkpt lat="45.86687" lon="4.78841">
        <ele>406.2</ele>
        <time>2019-08-30T08:26:16Z</time>
      </trkpt>
      <trkpt lat="45.8667" lon="4.78836">
        <ele>406.5</ele>
        <time>2019-08-30T08:26:22Z</time>
      </trkpt>
      <trkpt lat="45.86666" lon="4.78834">
        <ele>406.5</ele>
        <time>2019-08-30T08:26:23Z</time>
      </trkpt>
      <trkpt lat="45.86639" lon="4.78828">
        <ele>406.9</ele>
        <time>2019-08-30T08:26:29Z</time>
      </trkpt>
      <trkpt lat="45.86622" lon="4.78827">
        <ele>406.9</ele>
        <time>2019-08-30T08:26:34Z</time>
      </trkpt>
      <trkpt lat="45.86606" lon="4.78813">
        <ele>407</ele>
        <time>2019-08-30T08:26:39Z</time>
      </trkpt>
      <trkpt lat="45.86583" lon="4.78781">
        <ele>409.2</ele>
        <time>2019-08-30T08:26:45Z</time>
      </trkpt>
      <trkpt lat="45.86576" lon="4.78773">
        <ele>410.3</ele>
        <time>2019-08-30T08:26:47Z</time>
      </trkpt>
      <trkpt lat="45.86567" lon="4.78758">
        <ele>412.6</ele>
        <time>2019-08-30T08:26:51Z</time>
      </trkpt>
      <trkpt lat="45.86559" lon="4.78743">
        <ele>414.9</ele>
        <time>2019-08-30T08:26:55Z</time>
      </trkpt>
      <trkpt lat="45.86556" lon="4.78738">
        <ele>415.8</ele>
        <time>2019-08-30T08:26:57Z</time>
      </trkpt>
      <trkpt lat="45.86547" lon="4.78721">
        <ele>418.9</ele>
        <time>2019-08-30T08:27:05Z</time>
      </trkpt>
      <trkpt lat="45.86477" lon="4.78642">
        <ele>435.7</ele>
        <time>2019-08-30T08:28:13Z</time>
      </trkpt>
      <trkpt lat="45.86473" lon="4.78642">
        <ele>436.6</ele>
        <time>2019-08-30T08:28:16Z</time>
      </trkpt>
      <trkpt lat="45.86462" lon="4.78642">
        <ele>438.5</ele>
        <time>2019-08-30T08:28:23Z</time>
      </trkpt>
      <trkpt lat="45.86455" lon="4.78642">
        <ele>439.5</ele>
        <time>2019-08-30T08:28:27Z</time>
      </trkpt>
      <trkpt lat="45.86452" lon="4.78642">
        <ele>439.8</ele>
        <time>2019-08-30T08:28:28Z</time>
      </trkpt>
      <trkpt lat="45.86442" lon="4.78642">
        <ele>441</ele>
        <time>2019-08-30T08:28:33Z</time>
      </trkpt>
      <trkpt lat="45.8644" lon="4.78642">
        <ele>441.2</ele>
        <time>2019-08-30T08:28:34Z</time>
      </trkpt>
      <trkpt lat="45.86426" lon="4.7864">
        <ele>443.1</ele>
        <time>2019-08-30T08:28:41Z</time>
      </trkpt>
      <trkpt lat="45.86407" lon="4.78641">
        <ele>445.2</ele>
        <time>2019-08-30T08:28:49Z</time>
      </trkpt>
      <trkpt lat="45.86391" lon="4.78641">
        <ele>447.3</ele>
        <time>2019-08-30T08:28:56Z</time>
      </trkpt>
      <trkpt lat="45.86373" lon="4.78641">
        <ele>449.5</ele>
        <time>2019-08-30T08:29:03Z</time>
      </trkpt>
      <trkpt lat="45.86356" lon="4.78643">
        <ele>451.5</ele>
        <time>2019-08-30T08:29:10Z</time>
      </trkpt>
      <trkpt lat="45.86337" lon="4.78638">
        <ele>452.6</ele>
        <time>2019-08-30T08:29:15Z</time>
      </trkpt>
      <trkpt lat="45.86311" lon="4.78622">
        <ele>452.9</ele>
        <time>2019-08-30T08:29:20Z</time>
      </trkpt>
      <trkpt lat="45.86288" lon="4.78609">
        <ele>453</ele>
        <time>2019-08-30T08:29:24Z</time>
      </trkpt>
      <trkpt lat="45.86278" lon="4.78605">
        <ele>453.1</ele>
        <time>2019-08-30T08:29:26Z</time>
      </trkpt>
      <trkpt lat="45.8625" lon="4.78595">
        <ele>453.4</ele>
        <time>2019-08-30T08:29:32Z</time>
      </trkpt>
      <trkpt lat="45.86222" lon="4.78569">
        <ele>453.8</ele>
        <time>2019-08-30T08:29:39Z</time>
      </trkpt>
      <trkpt lat="45.86199" lon="4.78539">
        <ele>454.6</ele>
        <time>2019-08-30T08:29:45Z</time>
      </trkpt>
      <trkpt lat="45.86191" lon="4.78524">
        <ele>455.4</ele>
        <time>2019-08-30T08:29:50Z</time>
      </trkpt>
      <trkpt lat="45.8619" lon="4.78521">
        <ele>455.6</ele>
        <time>2019-08-30T08:29:51Z</time>
      </trkpt>
      <trkpt lat="45.86186" lon="4.78513">
        <ele>456.4</ele>
        <time>2019-08-30T08:29:55Z</time>
      </trkpt>
      <trkpt lat="45.86185" lon="4.78509">
        <ele>456.9</ele>
        <time>2019-08-30T08:29:57Z</time>
      </trkpt>
      <trkpt lat="45.86172" lon="4.78477">
        <ele>461.3</ele>
        <time>2019-08-30T08:31:42Z</time>
      </trkpt>
      <trkpt lat="45.86171" lon="4.78481">
        <ele>461.8</ele>
        <time>2019-08-30T08:31:44Z</time>
      </trkpt>
      <trkpt lat="45.8617" lon="4.78492">
        <ele>462.7</ele>
        <time>2019-08-30T08:31:49Z</time>
      </trkpt>
      <trkpt lat="45.86168" lon="4.78495">
        <ele>463</ele>
        <time>2019-08-30T08:31:51Z</time>
      </trkpt>
      <trkpt lat="45.86161" lon="4.78514">
        <ele>464.7</ele>
        <time>2019-08-30T08:31:59Z</time>
      </trkpt>
      <trkpt lat="45.86156" lon="4.78519">
        <ele>465.2</ele>
        <time>2019-08-30T08:32:02Z</time>
      </trkpt>
      <trkpt lat="45.86149" lon="4.78521">
        <ele>466</ele>
        <time>2019-08-30T08:32:06Z</time>
      </trkpt>
      <trkpt lat="45.86147" lon="4.78521">
        <ele>466.3</ele>
        <time>2019-08-30T08:32:07Z</time>
      </trkpt>
      <trkpt lat="45.86139" lon="4.7852">
        <ele>467</ele>
        <time>2019-08-30T08:32:11Z</time>
      </trkpt>
      <trkpt lat="45.86136" lon="4.78518">
        <ele>467.5</ele>
        <time>2019-08-30T08:32:13Z</time>
      </trkpt>
      <trkpt lat="45.86123" lon="4.78512">
        <ele>469.3</ele>
        <time>2019-08-30T08:32:20Z</time>
      </trkpt>
      <trkpt lat="45.86112" lon="4.78508">
        <ele>470.6</ele>
        <time>2019-08-30T08:32:25Z</time>
      </trkpt>
      <trkpt lat="45.861" lon="4.78507">
        <ele>472</ele>
        <time>2019-08-30T08:32:31Z</time>
      </trkpt>
      <trkpt lat="45.8609" lon="4.7853">
        <ele>470.1</ele>
        <time>2019-08-30T08:32:50Z</time>
      </trkpt>
      <trkpt lat="45.8609" lon="4.78533">
        <ele>470.1</ele>
        <time>2019-08-30T08:32:51Z</time>
      </trkpt>
      <trkpt lat="45.86106" lon="4.78557">
        <ele>469.9</ele>
        <time>2019-08-30T08:33:07Z</time>
      </trkpt>
      <trkpt lat="45.86107" lon="4.78558">
        <ele>469.9</ele>
        <time>2019-08-30T08:33:08Z</time>
      </trkpt>
      <trkpt lat="45.86111" lon="4.78564">
        <ele>470.1</ele>
        <time>2019-08-30T08:33:11Z</time>
      </trkpt>
      <trkpt lat="45.86112" lon="4.78578">
        <ele>470.6</ele>
        <time>2019-08-30T08:33:15Z</time>
      </trkpt>
      <trkpt lat="45.86107" lon="4.78601">
        <ele>471.7</ele>
        <time>2019-08-30T08:33:24Z</time>
      </trkpt>
      <trkpt lat="45.86107" lon="4.78609">
        <ele>472.3</ele>
        <time>2019-08-30T08:33:28Z</time>
      </trkpt>
      <trkpt lat="45.86108" lon="4.78611">
        <ele>472.4</ele>
        <time>2019-08-30T08:33:29Z</time>
      </trkpt>
      <trkpt lat="45.86119" lon="4.78617">
        <ele>472.2</ele>
        <time>2019-08-30T08:33:34Z</time>
      </trkpt>
      <trkpt lat="45.86132" lon="4.78626">
        <ele>471.8</ele>
        <time>2019-08-30T08:33:40Z</time>
      </trkpt>
      <trkpt lat="45.86139" lon="4.7863">
        <ele>471.7</ele>
        <time>2019-08-30T08:33:43Z</time>
      </trkpt>
      <trkpt lat="45.86148" lon="4.78635">
        <ele>471.6</ele>
        <time>2019-08-30T08:33:46Z</time>
      </trkpt>
      <trkpt lat="45.86166" lon="4.78652">
        <ele>471.4</ele>
        <time>2019-08-30T08:33:53Z</time>
      </trkpt>
      <trkpt lat="45.86182" lon="4.78666">
        <ele>471.1</ele>
        <time>2019-08-30T08:33:58Z</time>
      </trkpt>
      <trkpt lat="45.8619" lon="4.78672">
        <ele>470.9</ele>
        <time>2019-08-30T08:34:01Z</time>
      </trkpt>
      <trkpt lat="45.86211" lon="4.78686">
        <ele>470.2</ele>
        <time>2019-08-30T08:34:07Z</time>
      </trkpt>
      <trkpt lat="45.86222" lon="4.78695">
        <ele>469.7</ele>
        <time>2019-08-30T08:34:10Z</time>
      </trkpt>
      <trkpt lat="45.86234" lon="4.78703">
        <ele>469</ele>
        <time>2019-08-30T08:34:13Z</time>
      </trkpt>
      <trkpt lat="45.86245" lon="4.78711">
        <ele>468.5</ele>
        <time>2019-08-30T08:34:16Z</time>
      </trkpt>
      <trkpt lat="45.86262" lon="4.78721">
        <ele>467.6</ele>
        <time>2019-08-30T08:34:20Z</time>
      </trkpt>
      <trkpt lat="45.86281" lon="4.78734">
        <ele>466.7</ele>
        <time>2019-08-30T08:34:24Z</time>
      </trkpt>
      <trkpt lat="45.8629" lon="4.78742">
        <ele>466.1</ele>
        <time>2019-08-30T08:34:26Z</time>
      </trkpt>
      <trkpt lat="45.86314" lon="4.78767">
        <ele>464.1</ele>
        <time>2019-08-30T08:34:31Z</time>
      </trkpt>
      <trkpt lat="45.86319" lon="4.78773">
        <ele>463.5</ele>
        <time>2019-08-30T08:34:32Z</time>
      </trkpt>
      <trkpt lat="45.86338" lon="4.78792">
        <ele>461.2</ele>
        <time>2019-08-30T08:34:35Z</time>
      </trkpt>
      <trkpt lat="45.86359" lon="4.78811">
        <ele>459.4</ele>
        <time>2019-08-30T08:34:38Z</time>
      </trkpt>
      <trkpt lat="45.86366" lon="4.78818">
        <ele>458.8</ele>
        <time>2019-08-30T08:34:39Z</time>
      </trkpt>
      <trkpt lat="45.86386" lon="4.78839">
        <ele>457.1</ele>
        <time>2019-08-30T08:34:42Z</time>
      </trkpt>
      <trkpt lat="45.86392" lon="4.78848">
        <ele>456.6</ele>
        <time>2019-08-30T08:34:43Z</time>
      </trkpt>
      <trkpt lat="45.86397" lon="4.78857">
        <ele>456.1</ele>
        <time>2019-08-30T08:34:44Z</time>
      </trkpt>
      <trkpt lat="45.86401" lon="4.78867">
        <ele>455.7</ele>
        <time>2019-08-30T08:34:45Z</time>
      </trkpt>
      <trkpt lat="45.86413" lon="4.78895">
        <ele>454.5</ele>
        <time>2019-08-30T08:34:48Z</time>
      </trkpt>
      <trkpt lat="45.86421" lon="4.78913">
        <ele>453.9</ele>
        <time>2019-08-30T08:34:50Z</time>
      </trkpt>
      <trkpt lat="45.86428" lon="4.78929">
        <ele>453.4</ele>
        <time>2019-08-30T08:34:52Z</time>
      </trkpt>
      <trkpt lat="45.86448" lon="4.78966">
        <ele>452.5</ele>
        <time>2019-08-30T08:34:57Z</time>
      </trkpt>
      <trkpt lat="45.86463" lon="4.78991">
        <ele>451.9</ele>
        <time>2019-08-30T08:35:01Z</time>
      </trkpt>
      <trkpt lat="45.86475" lon="4.7901">
        <ele>451.7</ele>
        <time>2019-08-30T08:35:04Z</time>
      </trkpt>
      <trkpt lat="45.86482" lon="4.79021">
        <ele>451.5</ele>
        <time>2019-08-30T08:35:06Z</time>
      </trkpt>
      <trkpt lat="45.86495" lon="4.79041">
        <ele>450.8</ele>
        <time>2019-08-30T08:35:09Z</time>
      </trkpt>
      <trkpt lat="45.86504" lon="4.79055">
        <ele>450.2</ele>
        <time>2019-08-30T08:35:11Z</time>
      </trkpt>
      <trkpt lat="45.86515" lon="4.7907">
        <ele>449.4</ele>
        <time>2019-08-30T08:35:13Z</time>
      </trkpt>
      <trkpt lat="45.86532" lon="4.79094">
        <ele>448.4</ele>
        <time>2019-08-30T08:35:16Z</time>
      </trkpt>
      <trkpt lat="45.86538" lon="4.79103">
        <ele>448</ele>
        <time>2019-08-30T08:35:17Z</time>
      </trkpt>
      <trkpt lat="45.8655" lon="4.79122">
        <ele>446.7</ele>
        <time>2019-08-30T08:35:19Z</time>
      </trkpt>
      <trkpt lat="45.86561" lon="4.79143">
        <ele>444.9</ele>
        <time>2019-08-30T08:35:21Z</time>
      </trkpt>
      <trkpt lat="45.86567" lon="4.79154">
        <ele>444</ele>
        <time>2019-08-30T08:35:22Z</time>
      </trkpt>
      <trkpt lat="45.86572" lon="4.79166">
        <ele>443.3</ele>
        <time>2019-08-30T08:35:23Z</time>
      </trkpt>
      <trkpt lat="45.86583" lon="4.7919">
        <ele>442.3</ele>
        <time>2019-08-30T08:35:25Z</time>
      </trkpt>
      <trkpt lat="45.86593" lon="4.79214">
        <ele>441.9</ele>
        <time>2019-08-30T08:35:27Z</time>
      </trkpt>
      <trkpt lat="45.86603" lon="4.79238">
        <ele>441.9</ele>
        <time>2019-08-30T08:35:29Z</time>
      </trkpt>
      <trkpt lat="45.86608" lon="4.7925">
        <ele>441.7</ele>
        <time>2019-08-30T08:35:30Z</time>
      </trkpt>
      <trkpt lat="45.86614" lon="4.79262">
        <ele>441.2</ele>
        <time>2019-08-30T08:35:31Z</time>
      </trkpt>
      <trkpt lat="45.86624" lon="4.79286">
        <ele>440</ele>
        <time>2019-08-30T08:35:33Z</time>
      </trkpt>
      <trkpt lat="45.86634" lon="4.7931">
        <ele>439.2</ele>
        <time>2019-08-30T08:35:35Z</time>
      </trkpt>
      <trkpt lat="45.86643" lon="4.79333">
        <ele>438.9</ele>
        <time>2019-08-30T08:35:37Z</time>
      </trkpt>
      <trkpt lat="45.86647" lon="4.79343">
        <ele>438.9</ele>
        <time>2019-08-30T08:35:38Z</time>
      </trkpt>
      <trkpt lat="45.8665" lon="4.79353">
        <ele>438.9</ele>
        <time>2019-08-30T08:35:39Z</time>
      </trkpt>
      <trkpt lat="45.86654" lon="4.79373">
        <ele>439.3</ele>
        <time>2019-08-30T08:35:41Z</time>
      </trkpt>
      <trkpt lat="45.86655" lon="4.79383">
        <ele>440.3</ele>
        <time>2019-08-30T08:35:42Z</time>
      </trkpt>
      <trkpt lat="45.86656" lon="4.79402">
        <ele>442</ele>
        <time>2019-08-30T08:35:44Z</time>
      </trkpt>
      <trkpt lat="45.86656" lon="4.79415">
        <ele>442.9</ele>
        <time>2019-08-30T08:35:46Z</time>
      </trkpt>
      <trkpt lat="45.86655" lon="4.79425">
        <ele>443.5</ele>
        <time>2019-08-30T08:35:48Z</time>
      </trkpt>
      <trkpt lat="45.86656" lon="4.79439">
        <ele>444.4</ele>
        <time>2019-08-30T08:35:51Z</time>
      </trkpt>
      <trkpt lat="45.86655" lon="4.79463">
        <ele>445.7</ele>
        <time>2019-08-30T08:35:57Z</time>
      </trkpt>
      <trkpt lat="45.86654" lon="4.79485">
        <ele>446.8</ele>
        <time>2019-08-30T08:36:03Z</time>
      </trkpt>
      <trkpt lat="45.86654" lon="4.79495">
        <ele>447.3</ele>
        <time>2019-08-30T08:36:06Z</time>
      </trkpt>
      <trkpt lat="45.86654" lon="4.79505">
        <ele>447.7</ele>
        <time>2019-08-30T08:36:09Z</time>
      </trkpt>
      <trkpt lat="45.86653" lon="4.79515">
        <ele>448</ele>
        <time>2019-08-30T08:36:12Z</time>
      </trkpt>
      <trkpt lat="45.86652" lon="4.79519">
        <ele>448.2</ele>
        <time>2019-08-30T08:36:13Z</time>
      </trkpt>
      <trkpt lat="45.86651" lon="4.79522">
        <ele>448.3</ele>
        <time>2019-08-30T08:36:14Z</time>
      </trkpt>
      <trkpt lat="45.86651" lon="4.79528">
        <ele>448.5</ele>
        <time>2019-08-30T08:36:16Z</time>
      </trkpt>
      <trkpt lat="45.8665" lon="4.79543">
        <ele>449</ele>
        <time>2019-08-30T08:36:21Z</time>
      </trkpt>
      <trkpt lat="45.86649" lon="4.79552">
        <ele>449.3</ele>
        <time>2019-08-30T08:36:24Z</time>
      </trkpt>
      <trkpt lat="45.86649" lon="4.79561">
        <ele>449.5</ele>
        <time>2019-08-30T08:36:27Z</time>
      </trkpt>
      <trkpt lat="45.86649" lon="4.79568">
        <ele>449.8</ele>
        <time>2019-08-30T08:36:29Z</time>
      </trkpt>
      <trkpt lat="45.8665" lon="4.79575">
        <ele>450</ele>
        <time>2019-08-30T08:36:31Z</time>
      </trkpt>
      <trkpt lat="45.86651" lon="4.79583">
        <ele>450.5</ele>
        <time>2019-08-30T08:36:33Z</time>
      </trkpt>
      <trkpt lat="45.86652" lon="4.79591">
        <ele>450.5</ele>
        <time>2019-08-30T08:36:35Z</time>
      </trkpt>
      <trkpt lat="45.86654" lon="4.79602">
        <ele>450.6</ele>
        <time>2019-08-30T08:36:38Z</time>
      </trkpt>
      <trkpt lat="45.86656" lon="4.79609">
        <ele>450.7</ele>
        <time>2019-08-30T08:36:40Z</time>
      </trkpt>
      <trkpt lat="45.86657" lon="4.79612">
        <ele>450.8</ele>
        <time>2019-08-30T08:36:41Z</time>
      </trkpt>
      <trkpt lat="45.86658" lon="4.79619">
        <ele>450.8</ele>
        <time>2019-08-30T08:36:43Z</time>
      </trkpt>
      <trkpt lat="45.8666" lon="4.7964">
        <ele>451</ele>
        <time>2019-08-30T08:36:48Z</time>
      </trkpt>
      <trkpt lat="45.8666" lon="4.79642">
        <ele>451.1</ele>
        <time>2019-08-30T08:36:49Z</time>
      </trkpt>
      <trkpt lat="45.86653" lon="4.79636">
        <ele>451.5</ele>
        <time>2019-08-30T08:37:00Z</time>
      </trkpt>
      <trkpt lat="45.86652" lon="4.79634">
        <ele>451.7</ele>
        <time>2019-08-30T08:37:01Z</time>
      </trkpt>
      <trkpt lat="45.86651" lon="4.79632">
        <ele>451.9</ele>
        <time>2019-08-30T08:37:02Z</time>
      </trkpt>
      <trkpt lat="45.86646" lon="4.79623">
        <ele>452.7</ele>
        <time>2019-08-30T08:37:07Z</time>
      </trkpt>
      <trkpt lat="45.86643" lon="4.79616">
        <ele>453.4</ele>
        <time>2019-08-30T08:37:10Z</time>
      </trkpt>
      <trkpt lat="45.86642" lon="4.79612">
        <ele>453.9</ele>
        <time>2019-08-30T08:37:12Z</time>
      </trkpt>
      <trkpt lat="45.86639" lon="4.79602">
        <ele>455.1</ele>
        <time>2019-08-30T08:37:17Z</time>
      </trkpt>
      <trkpt lat="45.86637" lon="4.79598">
        <ele>455.8</ele>
        <time>2019-08-30T08:37:19Z</time>
      </trkpt>
      <trkpt lat="45.86635" lon="4.79592">
        <ele>456.7</ele>
        <time>2019-08-30T08:37:22Z</time>
      </trkpt>
      <trkpt lat="45.86634" lon="4.79588">
        <ele>457.3</ele>
        <time>2019-08-30T08:37:24Z</time>
      </trkpt>
      <trkpt lat="45.86522" lon="4.79438">
        <ele>472.9</ele>
        <time>2019-08-30T08:39:16Z</time>
      </trkpt>
      <trkpt lat="45.86468" lon="4.79378">
        <ele>477.6</ele>
        <time>2019-08-30T08:39:59Z</time>
      </trkpt>
      <trkpt lat="45.86457" lon="4.79366">
        <ele>479</ele>
        <time>2019-08-30T08:40:06Z</time>
      </trkpt>
      <trkpt lat="45.86451" lon="4.79356">
        <ele>479.7</ele>
        <time>2019-08-30T08:40:11Z</time>
      </trkpt>
      <trkpt lat="45.86441" lon="4.79345">
        <ele>480.9</ele>
        <time>2019-08-30T08:40:18Z</time>
      </trkpt>
      <trkpt lat="45.86401" lon="4.79296">
        <ele>485.2</ele>
        <time>2019-08-30T08:40:49Z</time>
      </trkpt>
      <trkpt lat="45.86397" lon="4.79292">
        <ele>485.6</ele>
        <time>2019-08-30T08:40:52Z</time>
      </trkpt>
      <trkpt lat="45.8639" lon="4.79285">
        <ele>486.2</ele>
        <time>2019-08-30T08:40:57Z</time>
      </trkpt>
      <trkpt lat="45.86387" lon="4.79281">
        <ele>486.6</ele>
        <time>2019-08-30T08:40:59Z</time>
      </trkpt>
      <trkpt lat="45.86377" lon="4.79272">
        <ele>487.7</ele>
        <time>2019-08-30T08:41:05Z</time>
      </trkpt>
      <trkpt lat="45.86374" lon="4.79269">
        <ele>488</ele>
        <time>2019-08-30T08:41:07Z</time>
      </trkpt>
      <trkpt lat="45.86368" lon="4.79264">
        <ele>488.6</ele>
        <time>2019-08-30T08:41:11Z</time>
      </trkpt>
      <trkpt lat="45.86365" lon="4.79262">
        <ele>489</ele>
        <time>2019-08-30T08:41:13Z</time>
      </trkpt>
      <trkpt lat="45.8634" lon="4.79232">
        <ele>492</ele>
        <time>2019-08-30T08:41:32Z</time>
      </trkpt>
      <trkpt lat="45.86334" lon="4.79225">
        <ele>492.5</ele>
        <time>2019-08-30T08:41:37Z</time>
      </trkpt>
      <trkpt lat="45.86333" lon="4.79223">
        <ele>492.7</ele>
        <time>2019-08-30T08:41:38Z</time>
      </trkpt>
      <trkpt lat="45.86328" lon="4.79216">
        <ele>493.2</ele>
        <time>2019-08-30T08:41:42Z</time>
      </trkpt>
      <trkpt lat="45.86325" lon="4.79214">
        <ele>493.4</ele>
        <time>2019-08-30T08:41:44Z</time>
      </trkpt>
      <trkpt lat="45.86322" lon="4.79211">
        <ele>493.6</ele>
        <time>2019-08-30T08:41:46Z</time>
      </trkpt>
      <trkpt lat="45.86319" lon="4.79206">
        <ele>493.8</ele>
        <time>2019-08-30T08:41:49Z</time>
      </trkpt>
      <trkpt lat="45.86316" lon="4.79203">
        <ele>494</ele>
        <time>2019-08-30T08:41:51Z</time>
      </trkpt>
      <trkpt lat="45.86312" lon="4.79197">
        <ele>494.2</ele>
        <time>2019-08-30T08:41:54Z</time>
      </trkpt>
      <trkpt lat="45.86295" lon="4.79179">
        <ele>494.8</ele>
        <time>2019-08-30T08:42:08Z</time>
      </trkpt>
      <trkpt lat="45.86293" lon="4.79178">
        <ele>494.8</ele>
        <time>2019-08-30T08:42:09Z</time>
      </trkpt>
      <trkpt lat="45.86285" lon="4.79172">
        <ele>495.1</ele>
        <time>2019-08-30T08:42:13Z</time>
      </trkpt>
      <trkpt lat="45.86279" lon="4.79166">
        <ele>495.3</ele>
        <time>2019-08-30T08:42:16Z</time>
      </trkpt>
      <trkpt lat="45.86274" lon="4.7916">
        <ele>495.6</ele>
        <time>2019-08-30T08:42:19Z</time>
      </trkpt>
      <trkpt lat="45.86262" lon="4.79141">
        <ele>496.3</ele>
        <time>2019-08-30T08:42:27Z</time>
      </trkpt>
      <trkpt lat="45.86249" lon="4.79121">
        <ele>497</ele>
        <time>2019-08-30T08:42:34Z</time>
      </trkpt>
      <trkpt lat="45.86248" lon="4.79117">
        <ele>497.2</ele>
        <time>2019-08-30T08:42:35Z</time>
      </trkpt>
      <trkpt lat="45.86235" lon="4.79099">
        <ele>498.9</ele>
        <time>2019-08-30T08:42:42Z</time>
      </trkpt>
      <trkpt lat="45.86208" lon="4.79066">
        <ele>503.3</ele>
        <time>2019-08-30T08:43:04Z</time>
      </trkpt>
      <trkpt lat="45.86202" lon="4.79059">
        <ele>504</ele>
        <time>2019-08-30T08:43:09Z</time>
      </trkpt>
      <trkpt lat="45.86198" lon="4.79055">
        <ele>504.5</ele>
        <time>2019-08-30T08:43:12Z</time>
      </trkpt>
      <trkpt lat="45.86197" lon="4.79053">
        <ele>504.7</ele>
        <time>2019-08-30T08:43:13Z</time>
      </trkpt>
      <trkpt lat="45.86187" lon="4.79043">
        <ele>505.3</ele>
        <time>2019-08-30T08:43:20Z</time>
      </trkpt>
      <trkpt lat="45.86178" lon="4.79032">
        <ele>505.8</ele>
        <time>2019-08-30T08:43:26Z</time>
      </trkpt>
      <trkpt lat="45.86176" lon="4.7903">
        <ele>505.9</ele>
        <time>2019-08-30T08:43:27Z</time>
      </trkpt>
      <trkpt lat="45.86167" lon="4.79017">
        <ele>506.3</ele>
        <time>2019-08-30T08:43:33Z</time>
      </trkpt>
      <trkpt lat="45.86165" lon="4.79012">
        <ele>506.4</ele>
        <time>2019-08-30T08:43:35Z</time>
      </trkpt>
      <trkpt lat="45.86155" lon="4.78999">
        <ele>506.7</ele>
        <time>2019-08-30T08:43:40Z</time>
      </trkpt>
      <trkpt lat="45.86141" lon="4.78978">
        <ele>507</ele>
        <time>2019-08-30T08:43:46Z</time>
      </trkpt>
      <trkpt lat="45.86138" lon="4.78972">
        <ele>507</ele>
        <time>2019-08-30T08:43:48Z</time>
      </trkpt>
      <trkpt lat="45.86124" lon="4.78947">
        <ele>507.2</ele>
        <time>2019-08-30T08:43:56Z</time>
      </trkpt>
      <trkpt lat="45.86121" lon="4.78943">
        <ele>507.2</ele>
        <time>2019-08-30T08:43:57Z</time>
      </trkpt>
      <trkpt lat="45.86109" lon="4.78926">
        <ele>507.7</ele>
        <time>2019-08-30T08:44:02Z</time>
      </trkpt>
      <trkpt lat="45.861" lon="4.78917">
        <ele>508</ele>
        <time>2019-08-30T08:44:05Z</time>
      </trkpt>
      <trkpt lat="45.86088" lon="4.78909">
        <ele>508.6</ele>
        <time>2019-08-30T08:44:09Z</time>
      </trkpt>
      <trkpt lat="45.86075" lon="4.78899">
        <ele>509.3</ele>
        <time>2019-08-30T08:44:15Z</time>
      </trkpt>
      <trkpt lat="45.86068" lon="4.78893">
        <ele>509.6</ele>
        <time>2019-08-30T08:44:18Z</time>
      </trkpt>
      <trkpt lat="45.86057" lon="4.78888">
        <ele>510.5</ele>
        <time>2019-08-30T08:44:22Z</time>
      </trkpt>
      <trkpt lat="45.86041" lon="4.7888">
        <ele>511.2</ele>
        <time>2019-08-30T08:44:28Z</time>
      </trkpt>
      <trkpt lat="45.86019" lon="4.78867">
        <ele>512.1</ele>
        <time>2019-08-30T08:44:36Z</time>
      </trkpt>
      <trkpt lat="45.85999" lon="4.78856">
        <ele>513</ele>
        <time>2019-08-30T08:44:43Z</time>
      </trkpt>
      <trkpt lat="45.85984" lon="4.78848">
        <ele>514</ele>
        <time>2019-08-30T08:44:50Z</time>
      </trkpt>
      <trkpt lat="45.85963" lon="4.78835">
        <ele>515.4</ele>
        <time>2019-08-30T08:44:59Z</time>
      </trkpt>
      <trkpt lat="45.85946" lon="4.7883">
        <ele>516.7</ele>
        <time>2019-08-30T08:45:06Z</time>
      </trkpt>
      <trkpt lat="45.85932" lon="4.78829">
        <ele>518.2</ele>
        <time>2019-08-30T08:45:13Z</time>
      </trkpt>
      <trkpt lat="45.85931" lon="4.78829">
        <ele>518.4</ele>
        <time>2019-08-30T08:45:14Z</time>
      </trkpt>
      <trkpt lat="45.85925" lon="4.78828">
        <ele>519.2</ele>
        <time>2019-08-30T08:45:18Z</time>
      </trkpt>
      <trkpt lat="45.85898" lon="4.78821">
        <ele>522.4</ele>
        <time>2019-08-30T08:45:43Z</time>
      </trkpt>
      <trkpt lat="45.85893" lon="4.78819">
        <ele>523</ele>
        <time>2019-08-30T08:45:47Z</time>
      </trkpt>
      <trkpt lat="45.85887" lon="4.78819">
        <ele>523.6</ele>
        <time>2019-08-30T08:45:51Z</time>
      </trkpt>
      <trkpt lat="45.85885" lon="4.78819">
        <ele>523.7</ele>
        <time>2019-08-30T08:45:52Z</time>
      </trkpt>
      <trkpt lat="45.8588" lon="4.78819">
        <ele>524.2</ele>
        <time>2019-08-30T08:45:56Z</time>
      </trkpt>
      <trkpt lat="45.85878" lon="4.78819">
        <ele>524.4</ele>
        <time>2019-08-30T08:45:57Z</time>
      </trkpt>
      <trkpt lat="45.85874" lon="4.78817">
        <ele>524.7</ele>
        <time>2019-08-30T08:45:59Z</time>
      </trkpt>
      <trkpt lat="45.85859" lon="4.78818">
        <ele>525.8</ele>
        <time>2019-08-30T08:46:06Z</time>
      </trkpt>
      <trkpt lat="45.85849" lon="4.78822">
        <ele>526.3</ele>
        <time>2019-08-30T08:46:13Z</time>
      </trkpt>
      <trkpt lat="45.85841" lon="4.78825">
        <ele>526.6</ele>
        <time>2019-08-30T08:46:18Z</time>
      </trkpt>
      <trkpt lat="45.85839" lon="4.78822">
        <ele>526.7</ele>
        <time>2019-08-30T08:46:19Z</time>
      </trkpt>
      <trkpt lat="45.85829" lon="4.78808">
        <ele>525.9</ele>
        <time>2019-08-30T08:46:24Z</time>
      </trkpt>
      <trkpt lat="45.85821" lon="4.78807">
        <ele>525.4</ele>
        <time>2019-08-30T08:46:26Z</time>
      </trkpt>
      <trkpt lat="45.85814" lon="4.78812">
        <ele>525.3</ele>
        <time>2019-08-30T08:46:28Z</time>
      </trkpt>
      <trkpt lat="45.85807" lon="4.78821">
        <ele>525.6</ele>
        <time>2019-08-30T08:46:30Z</time>
      </trkpt>
      <trkpt lat="45.85805" lon="4.78827">
        <ele>525.8</ele>
        <time>2019-08-30T08:46:31Z</time>
      </trkpt>
      <trkpt lat="45.85802" lon="4.78834">
        <ele>526</ele>
        <time>2019-08-30T08:46:32Z</time>
      </trkpt>
      <trkpt lat="45.85793" lon="4.78867">
        <ele>527</ele>
        <time>2019-08-30T08:46:36Z</time>
      </trkpt>
      <trkpt lat="45.85791" lon="4.78875">
        <ele>527.1</ele>
        <time>2019-08-30T08:46:37Z</time>
      </trkpt>
      <trkpt lat="45.85789" lon="4.78881">
        <ele>527.2</ele>
        <time>2019-08-30T08:46:38Z</time>
      </trkpt>
      <trkpt lat="45.85787" lon="4.78886">
        <ele>527.3</ele>
        <time>2019-08-30T08:46:39Z</time>
      </trkpt>
      <trkpt lat="45.85785" lon="4.7889">
        <ele>527.4</ele>
        <time>2019-08-30T08:46:40Z</time>
      </trkpt>
      <trkpt lat="45.85783" lon="4.789">
        <ele>527.6</ele>
        <time>2019-08-30T08:46:42Z</time>
      </trkpt>
      <trkpt lat="45.85784" lon="4.78906">
        <ele>527.7</ele>
        <time>2019-08-30T08:46:43Z</time>
      </trkpt>
      <trkpt lat="45.85786" lon="4.78912">
        <ele>527.3</ele>
        <time>2019-08-30T08:46:44Z</time>
      </trkpt>
      <trkpt lat="45.85789" lon="4.78918">
        <ele>527.1</ele>
        <time>2019-08-30T08:46:45Z</time>
      </trkpt>
      <trkpt lat="45.85793" lon="4.78934">
        <ele>526.5</ele>
        <time>2019-08-30T08:46:47Z</time>
      </trkpt>
      <trkpt lat="45.85796" lon="4.78942">
        <ele>526.2</ele>
        <time>2019-08-30T08:46:48Z</time>
      </trkpt>
      <trkpt lat="45.85798" lon="4.7895">
        <ele>525.8</ele>
        <time>2019-08-30T08:46:49Z</time>
      </trkpt>
      <trkpt lat="45.85801" lon="4.7896">
        <ele>525.4</ele>
        <time>2019-08-30T08:46:50Z</time>
      </trkpt>
      <trkpt lat="45.85808" lon="4.78991">
        <ele>524</ele>
        <time>2019-08-30T08:46:53Z</time>
      </trkpt>
      <trkpt lat="45.85817" lon="4.79028">
        <ele>522.7</ele>
        <time>2019-08-30T08:46:56Z</time>
      </trkpt>
      <trkpt lat="45.85825" lon="4.79054">
        <ele>521.5</ele>
        <time>2019-08-30T08:46:58Z</time>
      </trkpt>
      <trkpt lat="45.85829" lon="4.79067">
        <ele>520.7</ele>
        <time>2019-08-30T08:46:59Z</time>
      </trkpt>
      <trkpt lat="45.85843" lon="4.79107">
        <ele>518.3</ele>
        <time>2019-08-30T08:47:02Z</time>
      </trkpt>
      <trkpt lat="45.85851" lon="4.79133">
        <ele>516.5</ele>
        <time>2019-08-30T08:47:04Z</time>
      </trkpt>
      <trkpt lat="45.85855" lon="4.79146">
        <ele>515.5</ele>
        <time>2019-08-30T08:47:05Z</time>
      </trkpt>
      <trkpt lat="45.8586" lon="4.7917">
        <ele>513.5</ele>
        <time>2019-08-30T08:47:07Z</time>
      </trkpt>
      <trkpt lat="45.85862" lon="4.79188">
        <ele>511.7</ele>
        <time>2019-08-30T08:47:09Z</time>
      </trkpt>
      <trkpt lat="45.8586" lon="4.79193">
        <ele>511.5</ele>
        <time>2019-08-30T08:47:11Z</time>
      </trkpt>
      <trkpt lat="45.85856" lon="4.79191">
        <ele>511.3</ele>
        <time>2019-08-30T08:47:13Z</time>
      </trkpt>
      <trkpt lat="45.85852" lon="4.79188">
        <ele>511</ele>
        <time>2019-08-30T08:47:15Z</time>
      </trkpt>
      <trkpt lat="45.85849" lon="4.79186">
        <ele>510.9</ele>
        <time>2019-08-30T08:47:16Z</time>
      </trkpt>
      <trkpt lat="45.85839" lon="4.79179">
        <ele>510.3</ele>
        <time>2019-08-30T08:47:19Z</time>
      </trkpt>
      <trkpt lat="45.85835" lon="4.79176">
        <ele>510.1</ele>
        <time>2019-08-30T08:47:20Z</time>
      </trkpt>
      <trkpt lat="45.85831" lon="4.79174">
        <ele>509.8</ele>
        <time>2019-08-30T08:47:21Z</time>
      </trkpt>
      <trkpt lat="45.85823" lon="4.79169">
        <ele>509.4</ele>
        <time>2019-08-30T08:47:23Z</time>
      </trkpt>
      <trkpt lat="45.85815" lon="4.79164">
        <ele>508.9</ele>
        <time>2019-08-30T08:47:25Z</time>
      </trkpt>
      <trkpt lat="45.8581" lon="4.79162">
        <ele>508.7</ele>
        <time>2019-08-30T08:47:26Z</time>
      </trkpt>
      <trkpt lat="45.85797" lon="4.79155">
        <ele>508.1</ele>
        <time>2019-08-30T08:47:29Z</time>
      </trkpt>
      <trkpt lat="45.85778" lon="4.79145">
        <ele>507.2</ele>
        <time>2019-08-30T08:47:33Z</time>
      </trkpt>
      <trkpt lat="45.85744" lon="4.7913">
        <ele>504.9</ele>
        <time>2019-08-30T08:47:40Z</time>
      </trkpt>
      <trkpt lat="45.85738" lon="4.79128">
        <ele>504.5</ele>
        <time>2019-08-30T08:47:41Z</time>
      </trkpt>
      <trkpt lat="45.85706" lon="4.79117">
        <ele>501.4</ele>
        <time>2019-08-30T08:47:46Z</time>
      </trkpt>
      <trkpt lat="45.85699" lon="4.79113">
        <ele>500.7</ele>
        <time>2019-08-30T08:47:47Z</time>
      </trkpt>
      <trkpt lat="45.85678" lon="4.791">
        <ele>498.6</ele>
        <time>2019-08-30T08:47:50Z</time>
      </trkpt>
      <trkpt lat="45.85672" lon="4.79094">
        <ele>498</ele>
        <time>2019-08-30T08:47:51Z</time>
      </trkpt>
      <trkpt lat="45.85663" lon="4.79085">
        <ele>496.9</ele>
        <time>2019-08-30T08:47:53Z</time>
      </trkpt>
      <trkpt lat="45.85659" lon="4.79082">
        <ele>496.5</ele>
        <time>2019-08-30T08:47:54Z</time>
      </trkpt>
      <trkpt lat="45.85655" lon="4.79078">
        <ele>496.1</ele>
        <time>2019-08-30T08:47:55Z</time>
      </trkpt>
      <trkpt lat="45.85648" lon="4.79072">
        <ele>495.3</ele>
        <time>2019-08-30T08:47:57Z</time>
      </trkpt>
      <trkpt lat="45.85631" lon="4.7906">
        <ele>493.4</ele>
        <time>2019-08-30T08:48:01Z</time>
      </trkpt>
      <trkpt lat="45.85626" lon="4.79058">
        <ele>492.9</ele>
        <time>2019-08-30T08:48:02Z</time>
      </trkpt>
      <trkpt lat="45.85614" lon="4.79055">
        <ele>491.8</ele>
        <time>2019-08-30T08:48:05Z</time>
      </trkpt>
      <trkpt lat="45.8561" lon="4.79055">
        <ele>491.4</ele>
        <time>2019-08-30T08:48:06Z</time>
      </trkpt>
      <trkpt lat="45.85602" lon="4.79053">
        <ele>490.7</ele>
        <time>2019-08-30T08:48:09Z</time>
      </trkpt>
      <trkpt lat="45.856" lon="4.79052">
        <ele>490.5</ele>
        <time>2019-08-30T08:48:10Z</time>
      </trkpt>
      <trkpt lat="45.85591" lon="4.7905">
        <ele>489.7</ele>
        <time>2019-08-30T08:48:14Z</time>
      </trkpt>
      <trkpt lat="45.85588" lon="4.7905">
        <ele>489.5</ele>
        <time>2019-08-30T08:48:15Z</time>
      </trkpt>
      <trkpt lat="45.85582" lon="4.79049">
        <ele>489</ele>
        <time>2019-08-30T08:48:17Z</time>
      </trkpt>
      <trkpt lat="45.85572" lon="4.79049">
        <ele>488.4</ele>
        <time>2019-08-30T08:48:21Z</time>
      </trkpt>
      <trkpt lat="45.85563" lon="4.79046">
        <ele>487.9</ele>
        <time>2019-08-30T08:48:25Z</time>
      </trkpt>
      <trkpt lat="45.8556" lon="4.79045">
        <ele>487.8</ele>
        <time>2019-08-30T08:48:26Z</time>
      </trkpt>
      <trkpt lat="45.85554" lon="4.79042">
        <ele>487.5</ele>
        <time>2019-08-30T08:48:28Z</time>
      </trkpt>
      <trkpt lat="45.8555" lon="4.79038">
        <ele>487.4</ele>
        <time>2019-08-30T08:48:30Z</time>
      </trkpt>
      <trkpt lat="45.85546" lon="4.79035">
        <ele>487.3</ele>
        <time>2019-08-30T08:48:32Z</time>
      </trkpt>
      <trkpt lat="45.85536" lon="4.79031">
        <ele>487.1</ele>
        <time>2019-08-30T08:48:37Z</time>
      </trkpt>
      <trkpt lat="45.85531" lon="4.79028">
        <ele>487</ele>
        <time>2019-08-30T08:48:39Z</time>
      </trkpt>
      <trkpt lat="45.85524" lon="4.79023">
        <ele>486.9</ele>
        <time>2019-08-30T08:48:41Z</time>
      </trkpt>
      <trkpt lat="45.85508" lon="4.79012">
        <ele>486.8</ele>
        <time>2019-08-30T08:48:46Z</time>
      </trkpt>
      <trkpt lat="45.85503" lon="4.79012">
        <ele>486.8</ele>
        <time>2019-08-30T08:48:48Z</time>
      </trkpt>
      <trkpt lat="45.85501" lon="4.79015">
        <ele>486.8</ele>
        <time>2019-08-30T08:48:51Z</time>
      </trkpt>
      <trkpt lat="45.85502" lon="4.79017">
        <ele>486.8</ele>
        <time>2019-08-30T08:48:52Z</time>
      </trkpt>
      <trkpt lat="45.85503" lon="4.79019">
        <ele>486.8</ele>
        <time>2019-08-30T08:48:53Z</time>
      </trkpt>
      <trkpt lat="45.85506" lon="4.79022">
        <ele>486.8</ele>
        <time>2019-08-30T08:48:55Z</time>
      </trkpt>
      <trkpt lat="45.85513" lon="4.79029">
        <ele>485.5</ele>
        <time>2019-08-30T08:48:58Z</time>
      </trkpt>
      <trkpt lat="45.8552" lon="4.79035">
        <ele>484.9</ele>
        <time>2019-08-30T08:49:00Z</time>
      </trkpt>
      <trkpt lat="45.85535" lon="4.79045">
        <ele>483.5</ele>
        <time>2019-08-30T08:49:03Z</time>
      </trkpt>
      <trkpt lat="45.85571" lon="4.79073">
        <ele>480.1</ele>
        <time>2019-08-30T08:49:09Z</time>
      </trkpt>
      <trkpt lat="45.85588" lon="4.79089">
        <ele>478.2</ele>
        <time>2019-08-30T08:49:12Z</time>
      </trkpt>
      <trkpt lat="45.85591" lon="4.79095">
        <ele>477.7</ele>
        <time>2019-08-30T08:49:13Z</time>
      </trkpt>
      <trkpt lat="45.85597" lon="4.79115">
        <ele>476.3</ele>
        <time>2019-08-30T08:49:16Z</time>
      </trkpt>
      <trkpt lat="45.85598" lon="4.79123">
        <ele>475.8</ele>
        <time>2019-08-30T08:49:17Z</time>
      </trkpt>
      <trkpt lat="45.85597" lon="4.79141">
        <ele>474.9</ele>
        <time>2019-08-30T08:49:19Z</time>
      </trkpt>
      <trkpt lat="45.85598" lon="4.79151">
        <ele>474.4</ele>
        <time>2019-08-30T08:49:20Z</time>
      </trkpt>
      <trkpt lat="45.85597" lon="4.79173">
        <ele>473.5</ele>
        <time>2019-08-30T08:49:22Z</time>
      </trkpt>
      <trkpt lat="45.85597" lon="4.79208">
        <ele>472.2</ele>
        <time>2019-08-30T08:49:25Z</time>
      </trkpt>
      <trkpt lat="45.85598" lon="4.79245">
        <ele>471</ele>
        <time>2019-08-30T08:49:28Z</time>
      </trkpt>
      <trkpt lat="45.85603" lon="4.79281">
        <ele>470</ele>
        <time>2019-08-30T08:49:31Z</time>
      </trkpt>
      <trkpt lat="45.85608" lon="4.79304">
        <ele>469.3</ele>
        <time>2019-08-30T08:49:33Z</time>
      </trkpt>
      <trkpt lat="45.85611" lon="4.79315">
        <ele>468.9</ele>
        <time>2019-08-30T08:49:34Z</time>
      </trkpt>
      <trkpt lat="45.8562" lon="4.79349">
        <ele>467.8</ele>
        <time>2019-08-30T08:49:37Z</time>
      </trkpt>
      <trkpt lat="45.85626" lon="4.79373">
        <ele>466.4</ele>
        <time>2019-08-30T08:49:39Z</time>
      </trkpt>
      <trkpt lat="45.85629" lon="4.79385">
        <ele>465.8</ele>
        <time>2019-08-30T08:49:40Z</time>
      </trkpt>
      <trkpt lat="45.85637" lon="4.79421">
        <ele>464.2</ele>
        <time>2019-08-30T08:49:43Z</time>
      </trkpt>
      <trkpt lat="45.85648" lon="4.79456">
        <ele>462.9</ele>
        <time>2019-08-30T08:49:46Z</time>
      </trkpt>
      <trkpt lat="45.85653" lon="4.79467">
        <ele>462.7</ele>
        <time>2019-08-30T08:49:47Z</time>
      </trkpt>
      <trkpt lat="45.85667" lon="4.79485">
        <ele>462.1</ele>
        <time>2019-08-30T08:49:49Z</time>
      </trkpt>
      <trkpt lat="45.85696" lon="4.79503">
        <ele>460.9</ele>
        <time>2019-08-30T08:49:52Z</time>
      </trkpt>
      <trkpt lat="45.85728" lon="4.79503">
        <ele>459.4</ele>
        <time>2019-08-30T08:49:55Z</time>
      </trkpt>
      <trkpt lat="45.85749" lon="4.79503">
        <ele>458.7</ele>
        <time>2019-08-30T08:49:57Z</time>
      </trkpt>
      <trkpt lat="45.85769" lon="4.79511">
        <ele>458.2</ele>
        <time>2019-08-30T08:49:59Z</time>
      </trkpt>
      <trkpt lat="45.85777" lon="4.79519">
        <ele>457.9</ele>
        <time>2019-08-30T08:50:00Z</time>
      </trkpt>
      <trkpt lat="45.85785" lon="4.79529">
        <ele>457.8</ele>
        <time>2019-08-30T08:50:01Z</time>
      </trkpt>
      <trkpt lat="45.85811" lon="4.79552">
        <ele>457.8</ele>
        <time>2019-08-30T08:50:04Z</time>
      </trkpt>
      <trkpt lat="45.85821" lon="4.79556">
        <ele>458.1</ele>
        <time>2019-08-30T08:50:05Z</time>
      </trkpt>
      <trkpt lat="45.85859" lon="4.79571">
        <ele>460</ele>
        <time>2019-08-30T08:50:09Z</time>
      </trkpt>
      <trkpt lat="45.85868" lon="4.79575">
        <ele>460.8</ele>
        <time>2019-08-30T08:50:10Z</time>
      </trkpt>
      <trkpt lat="45.85877" lon="4.79575">
        <ele>461.5</ele>
        <time>2019-08-30T08:50:11Z</time>
      </trkpt>
      <trkpt lat="45.85892" lon="4.79574">
        <ele>462.9</ele>
        <time>2019-08-30T08:50:13Z</time>
      </trkpt>
      <trkpt lat="45.85911" lon="4.79574">
        <ele>463.5</ele>
        <time>2019-08-30T08:50:16Z</time>
      </trkpt>
      <trkpt lat="45.85916" lon="4.79575">
        <ele>463.6</ele>
        <time>2019-08-30T08:50:17Z</time>
      </trkpt>
      <trkpt lat="45.85921" lon="4.79579">
        <ele>463.8</ele>
        <time>2019-08-30T08:50:18Z</time>
      </trkpt>
      <trkpt lat="45.8593" lon="4.79588">
        <ele>462.7</ele>
        <time>2019-08-30T08:50:20Z</time>
      </trkpt>
      <trkpt lat="45.85937" lon="4.796">
        <ele>460.7</ele>
        <time>2019-08-30T08:50:22Z</time>
      </trkpt>
      <trkpt lat="45.85948" lon="4.79622">
        <ele>458.1</ele>
        <time>2019-08-30T08:50:25Z</time>
      </trkpt>
      <trkpt lat="45.85951" lon="4.79629">
        <ele>457.3</ele>
        <time>2019-08-30T08:50:26Z</time>
      </trkpt>
      <trkpt lat="45.85964" lon="4.79672">
        <ele>453.1</ele>
        <time>2019-08-30T08:50:31Z</time>
      </trkpt>
      <trkpt lat="45.85967" lon="4.79689">
        <ele>451.5</ele>
        <time>2019-08-30T08:50:33Z</time>
      </trkpt>
      <trkpt lat="45.85969" lon="4.79715">
        <ele>449.8</ele>
        <time>2019-08-30T08:50:36Z</time>
      </trkpt>
      <trkpt lat="45.8597" lon="4.7974">
        <ele>448.1</ele>
        <time>2019-08-30T08:50:39Z</time>
      </trkpt>
      <trkpt lat="45.85975" lon="4.79769">
        <ele>446.1</ele>
        <time>2019-08-30T08:50:43Z</time>
      </trkpt>
      <trkpt lat="45.85983" lon="4.79792">
        <ele>444.7</ele>
        <time>2019-08-30T08:50:47Z</time>
      </trkpt>
      <trkpt lat="45.85983" lon="4.79795">
        <ele>444.5</ele>
        <time>2019-08-30T08:50:48Z</time>
      </trkpt>
      <trkpt lat="45.85976" lon="4.79794">
        <ele>444.3</ele>
        <time>2019-08-30T08:50:51Z</time>
      </trkpt>
      <trkpt lat="45.85974" lon="4.79791">
        <ele>444.2</ele>
        <time>2019-08-30T08:50:52Z</time>
      </trkpt>
      <trkpt lat="45.85968" lon="4.79782">
        <ele>444</ele>
        <time>2019-08-30T08:50:54Z</time>
      </trkpt>
      <trkpt lat="45.85953" lon="4.79758">
        <ele>442.3</ele>
        <time>2019-08-30T08:50:58Z</time>
      </trkpt>
      <trkpt lat="45.85936" lon="4.79733">
        <ele>440.7</ele>
        <time>2019-08-30T08:51:01Z</time>
      </trkpt>
      <trkpt lat="45.8593" lon="4.79724">
        <ele>440.7</ele>
        <time>2019-08-30T08:51:02Z</time>
      </trkpt>
      <trkpt lat="45.85912" lon="4.79694">
        <ele>439.8</ele>
        <time>2019-08-30T08:51:05Z</time>
      </trkpt>
      <trkpt lat="45.85903" lon="4.79686">
        <ele>439.6</ele>
        <time>2019-08-30T08:51:06Z</time>
      </trkpt>
      <trkpt lat="45.85888" lon="4.79676">
        <ele>438</ele>
        <time>2019-08-30T08:51:08Z</time>
      </trkpt>
      <trkpt lat="45.85884" lon="4.79673">
        <ele>437.6</ele>
        <time>2019-08-30T08:51:09Z</time>
      </trkpt>
      <trkpt lat="45.85882" lon="4.79672">
        <ele>437.6</ele>
        <time>2019-08-30T08:51:10Z</time>
      </trkpt>
      <trkpt lat="45.85879" lon="4.79672">
        <ele>437.7</ele>
        <time>2019-08-30T08:51:12Z</time>
      </trkpt>
      <trkpt lat="45.85882" lon="4.79675">
        <ele>437.7</ele>
        <time>2019-08-30T08:51:17Z</time>
      </trkpt>
      <trkpt lat="45.85883" lon="4.79675">
        <ele>437.8</ele>
        <time>2019-08-30T08:51:18Z</time>
      </trkpt>
      <trkpt lat="45.85886" lon="4.79676">
        <ele>437.8</ele>
        <time>2019-08-30T08:51:19Z</time>
      </trkpt>
      <trkpt lat="45.85899" lon="4.79683">
        <ele>439.1</ele>
        <time>2019-08-30T08:51:23Z</time>
      </trkpt>
      <trkpt lat="45.85905" lon="4.79687">
        <ele>439.7</ele>
        <time>2019-08-30T08:51:25Z</time>
      </trkpt>
      <trkpt lat="45.85915" lon="4.79697">
        <ele>439.8</ele>
        <time>2019-08-30T08:51:29Z</time>
      </trkpt>
      <trkpt lat="45.85917" lon="4.797">
        <ele>439.8</ele>
        <time>2019-08-30T08:51:30Z</time>
      </trkpt>
      <trkpt lat="45.85923" lon="4.79709">
        <ele>440.7</ele>
        <time>2019-08-30T08:51:33Z</time>
      </trkpt>
      <trkpt lat="45.85931" lon="4.79724">
        <ele>440.7</ele>
        <time>2019-08-30T08:51:38Z</time>
      </trkpt>
      <trkpt lat="45.85932" lon="4.79727">
        <ele>440.7</ele>
        <time>2019-08-30T08:51:40Z</time>
      </trkpt>
      <trkpt lat="45.85933" lon="4.79734">
        <ele>438.9</ele>
        <time>2019-08-30T08:51:43Z</time>
      </trkpt>
      <trkpt lat="45.85927" lon="4.79742">
        <ele>437.1</ele>
        <time>2019-08-30T08:51:46Z</time>
      </trkpt>
      <trkpt lat="45.85915" lon="4.79744">
        <ele>433.4</ele>
        <time>2019-08-30T08:51:49Z</time>
      </trkpt>
      <trkpt lat="45.85911" lon="4.79747">
        <ele>433.4</ele>
        <time>2019-08-30T08:51:50Z</time>
      </trkpt>
      <trkpt lat="45.85904" lon="4.79757">
        <ele>430</ele>
        <time>2019-08-30T08:51:53Z</time>
      </trkpt>
      <trkpt lat="45.85903" lon="4.79762">
        <ele>429.9</ele>
        <time>2019-08-30T08:51:54Z</time>
      </trkpt>
      <trkpt lat="45.85902" lon="4.79769">
        <ele>429.7</ele>
        <time>2019-08-30T08:51:56Z</time>
      </trkpt>
      <trkpt lat="45.85902" lon="4.79771">
        <ele>429.6</ele>
        <time>2019-08-30T08:51:57Z</time>
      </trkpt>
      <trkpt lat="45.85903" lon="4.79772">
        <ele>429.6</ele>
        <time>2019-08-30T08:51:58Z</time>
      </trkpt>
      <trkpt lat="45.85903" lon="4.79774">
        <ele>429.5</ele>
        <time>2019-08-30T08:51:59Z</time>
      </trkpt>
      <trkpt lat="45.85902" lon="4.79778">
        <ele>429.4</ele>
        <time>2019-08-30T08:52:01Z</time>
      </trkpt>
      <trkpt lat="45.85903" lon="4.79775">
        <ele>429.3</ele>
        <time>2019-08-30T08:52:10Z</time>
      </trkpt>
      <trkpt lat="45.85904" lon="4.79768">
        <ele>429.2</ele>
        <time>2019-08-30T08:52:13Z</time>
      </trkpt>
      <trkpt lat="45.85905" lon="4.79765">
        <ele>429.1</ele>
        <time>2019-08-30T08:52:14Z</time>
      </trkpt>
      <trkpt lat="45.85908" lon="4.79756">
        <ele>430.5</ele>
        <time>2019-08-30T08:52:17Z</time>
      </trkpt>
      <trkpt lat="45.85909" lon="4.79753">
        <ele>430.4</ele>
        <time>2019-08-30T08:52:18Z</time>
      </trkpt>
      <trkpt lat="45.85911" lon="4.79751">
        <ele>430.3</ele>
        <time>2019-08-30T08:52:19Z</time>
      </trkpt>
      <trkpt lat="45.85915" lon="4.79748">
        <ele>430.2</ele>
        <time>2019-08-30T08:52:22Z</time>
      </trkpt>
      <trkpt lat="45.85911" lon="4.79744">
        <ele>430.1</ele>
        <time>2019-08-30T08:52:28Z</time>
      </trkpt>
      <trkpt lat="45.85902" lon="4.79752">
        <ele>429.8</ele>
        <time>2019-08-30T08:52:32Z</time>
      </trkpt>
      <trkpt lat="45.859" lon="4.79756">
        <ele>429.7</ele>
        <time>2019-08-30T08:52:33Z</time>
      </trkpt>
      <trkpt lat="45.85895" lon="4.79764">
        <ele>426.2</ele>
        <time>2019-08-30T08:52:35Z</time>
      </trkpt>
      <trkpt lat="45.85888" lon="4.79769">
        <ele>423.7</ele>
        <time>2019-08-30T08:52:37Z</time>
      </trkpt>
      <trkpt lat="45.85884" lon="4.7977">
        <ele>422.6</ele>
        <time>2019-08-30T08:52:38Z</time>
      </trkpt>
      <trkpt lat="45.8588" lon="4.79771">
        <ele>421.5</ele>
        <time>2019-08-30T08:52:39Z</time>
      </trkpt>
      <trkpt lat="45.85871" lon="4.79772">
        <ele>419.4</ele>
        <time>2019-08-30T08:52:41Z</time>
      </trkpt>
      <trkpt lat="45.85867" lon="4.79771">
        <ele>417.9</ele>
        <time>2019-08-30T08:52:42Z</time>
      </trkpt>
      <trkpt lat="45.85861" lon="4.79769">
        <ele>416.7</ele>
        <time>2019-08-30T08:52:43Z</time>
      </trkpt>
      <trkpt lat="45.85851" lon="4.79768">
        <ele>414.8</ele>
        <time>2019-08-30T08:52:45Z</time>
      </trkpt>
      <trkpt lat="45.85846" lon="4.79767">
        <ele>414.2</ele>
        <time>2019-08-30T08:52:46Z</time>
      </trkpt>
      <trkpt lat="45.85841" lon="4.79767">
        <ele>413.5</ele>
        <time>2019-08-30T08:52:47Z</time>
      </trkpt>
      <trkpt lat="45.85834" lon="4.79767">
        <ele>412.7</ele>
        <time>2019-08-30T08:52:49Z</time>
      </trkpt>
      <trkpt lat="45.8583" lon="4.79767">
        <ele>412.4</ele>
        <time>2019-08-30T08:52:51Z</time>
      </trkpt>
      <trkpt lat="45.85824" lon="4.79768">
        <ele>411.9</ele>
        <time>2019-08-30T08:53:01Z</time>
      </trkpt>
      <trkpt lat="45.85822" lon="4.79769">
        <ele>411.8</ele>
        <time>2019-08-30T08:53:02Z</time>
      </trkpt>
      <trkpt lat="45.85815" lon="4.79782">
        <ele>410.7</ele>
        <time>2019-08-30T08:53:06Z</time>
      </trkpt>
      <trkpt lat="45.85808" lon="4.79793">
        <ele>409.3</ele>
        <time>2019-08-30T08:53:08Z</time>
      </trkpt>
      <trkpt lat="45.85804" lon="4.79798">
        <ele>408.3</ele>
        <time>2019-08-30T08:53:09Z</time>
      </trkpt>
      <trkpt lat="45.85799" lon="4.79801">
        <ele>407.5</ele>
        <time>2019-08-30T08:53:10Z</time>
      </trkpt>
      <trkpt lat="45.85794" lon="4.79802">
        <ele>406.5</ele>
        <time>2019-08-30T08:53:11Z</time>
      </trkpt>
      <trkpt lat="45.85788" lon="4.79802">
        <ele>405.4</ele>
        <time>2019-08-30T08:53:12Z</time>
      </trkpt>
      <trkpt lat="45.85782" lon="4.79803">
        <ele>404.4</ele>
        <time>2019-08-30T08:53:13Z</time>
      </trkpt>
      <trkpt lat="45.85777" lon="4.79803">
        <ele>403.1</ele>
        <time>2019-08-30T08:53:14Z</time>
      </trkpt>
      <trkpt lat="45.85767" lon="4.79803">
        <ele>400.3</ele>
        <time>2019-08-30T08:53:16Z</time>
      </trkpt>
      <trkpt lat="45.85761" lon="4.79803">
        <ele>398.7</ele>
        <time>2019-08-30T08:53:17Z</time>
      </trkpt>
      <trkpt lat="45.85757" lon="4.79804">
        <ele>397.1</ele>
        <time>2019-08-30T08:53:18Z</time>
      </trkpt>
      <trkpt lat="45.85751" lon="4.79806">
        <ele>395.4</ele>
        <time>2019-08-30T08:53:19Z</time>
      </trkpt>
      <trkpt lat="45.85741" lon="4.7981">
        <ele>391.8</ele>
        <time>2019-08-30T08:53:21Z</time>
      </trkpt>
      <trkpt lat="45.85731" lon="4.79814">
        <ele>388.4</ele>
        <time>2019-08-30T08:53:23Z</time>
      </trkpt>
      <trkpt lat="45.85726" lon="4.79817">
        <ele>386.9</ele>
        <time>2019-08-30T08:53:24Z</time>
      </trkpt>
      <trkpt lat="45.85711" lon="4.79824">
        <ele>383</ele>
        <time>2019-08-30T08:53:27Z</time>
      </trkpt>
      <trkpt lat="45.85702" lon="4.79829">
        <ele>381.4</ele>
        <time>2019-08-30T08:53:29Z</time>
      </trkpt>
      <trkpt lat="45.85688" lon="4.79842">
        <ele>378.7</ele>
        <time>2019-08-30T08:53:33Z</time>
      </trkpt>
      <trkpt lat="45.85684" lon="4.79845">
        <ele>378</ele>
        <time>2019-08-30T08:53:34Z</time>
      </trkpt>
      <trkpt lat="45.8567" lon="4.79857">
        <ele>375.4</ele>
        <time>2019-08-30T08:53:37Z</time>
      </trkpt>
      <trkpt lat="45.85665" lon="4.7986">
        <ele>374.5</ele>
        <time>2019-08-30T08:53:38Z</time>
      </trkpt>
      <trkpt lat="45.85655" lon="4.79867">
        <ele>372.4</ele>
        <time>2019-08-30T08:53:40Z</time>
      </trkpt>
      <trkpt lat="45.85639" lon="4.79877">
        <ele>370.3</ele>
        <time>2019-08-30T08:53:43Z</time>
      </trkpt>
      <trkpt lat="45.8563" lon="4.79884">
        <ele>368.9</ele>
        <time>2019-08-30T08:53:45Z</time>
      </trkpt>
      <trkpt lat="45.85626" lon="4.79888">
        <ele>368.3</ele>
        <time>2019-08-30T08:53:46Z</time>
      </trkpt>
      <trkpt lat="45.85615" lon="4.79905">
        <ele>366.4</ele>
        <time>2019-08-30T08:53:49Z</time>
      </trkpt>
      <trkpt lat="45.85604" lon="4.79928">
        <ele>364.3</ele>
        <time>2019-08-30T08:53:52Z</time>
      </trkpt>
      <trkpt lat="45.85596" lon="4.79941">
        <ele>363.2</ele>
        <time>2019-08-30T08:53:54Z</time>
      </trkpt>
      <trkpt lat="45.85592" lon="4.79947">
        <ele>362.7</ele>
        <time>2019-08-30T08:53:55Z</time>
      </trkpt>
      <trkpt lat="45.85583" lon="4.79959">
        <ele>361.6</ele>
        <time>2019-08-30T08:53:57Z</time>
      </trkpt>
      <trkpt lat="45.85572" lon="4.79969">
        <ele>360.1</ele>
        <time>2019-08-30T08:53:59Z</time>
      </trkpt>
      <trkpt lat="45.85567" lon="4.79973">
        <ele>359.5</ele>
        <time>2019-08-30T08:54:01Z</time>
      </trkpt>
      <trkpt lat="45.8556" lon="4.79972">
        <ele>359.1</ele>
        <time>2019-08-30T08:54:25Z</time>
      </trkpt>
      <trkpt lat="45.85555" lon="4.79974">
        <ele>358.8</ele>
        <time>2019-08-30T08:54:28Z</time>
      </trkpt>
      <trkpt lat="45.85552" lon="4.79976">
        <ele>358.8</ele>
        <time>2019-08-30T08:54:30Z</time>
      </trkpt>
      <trkpt lat="45.85544" lon="4.79978">
        <ele>359</ele>
        <time>2019-08-30T08:54:33Z</time>
      </trkpt>
      <trkpt lat="45.85541" lon="4.79978">
        <ele>359.1</ele>
        <time>2019-08-30T08:54:34Z</time>
      </trkpt>
      <trkpt lat="45.85534" lon="4.79979">
        <ele>359.2</ele>
        <time>2019-08-30T08:54:36Z</time>
      </trkpt>
      <trkpt lat="45.85527" lon="4.79979">
        <ele>359.5</ele>
        <time>2019-08-30T08:54:38Z</time>
      </trkpt>
      <trkpt lat="45.85523" lon="4.79978">
        <ele>359.7</ele>
        <time>2019-08-30T08:54:39Z</time>
      </trkpt>
      <trkpt lat="45.85519" lon="4.79977">
        <ele>360</ele>
        <time>2019-08-30T08:54:40Z</time>
      </trkpt>
      <trkpt lat="45.85505" lon="4.79975">
        <ele>360.6</ele>
        <time>2019-08-30T08:54:43Z</time>
      </trkpt>
      <trkpt lat="45.85497" lon="4.79974">
        <ele>360.8</ele>
        <time>2019-08-30T08:54:45Z</time>
      </trkpt>
      <trkpt lat="45.85488" lon="4.79975">
        <ele>361</ele>
        <time>2019-08-30T08:54:48Z</time>
      </trkpt>
      <trkpt lat="45.85477" lon="4.79977">
        <ele>361.3</ele>
        <time>2019-08-30T08:54:51Z</time>
      </trkpt>
      <trkpt lat="45.8547" lon="4.7998">
        <ele>361.4</ele>
        <time>2019-08-30T08:54:53Z</time>
      </trkpt>
      <trkpt lat="45.85458" lon="4.79984">
        <ele>361.6</ele>
        <time>2019-08-30T08:54:56Z</time>
      </trkpt>
      <trkpt lat="45.85451" lon="4.79986">
        <ele>361.7</ele>
        <time>2019-08-30T08:54:58Z</time>
      </trkpt>
      <trkpt lat="45.85447" lon="4.79987">
        <ele>361.9</ele>
        <time>2019-08-30T08:54:59Z</time>
      </trkpt>
      <trkpt lat="45.85444" lon="4.79988">
        <ele>362.1</ele>
        <time>2019-08-30T08:55:00Z</time>
      </trkpt>
      <trkpt lat="45.85437" lon="4.79988">
        <ele>362.4</ele>
        <time>2019-08-30T08:55:02Z</time>
      </trkpt>
      <trkpt lat="45.85431" lon="4.79987">
        <ele>362.7</ele>
        <time>2019-08-30T08:55:04Z</time>
      </trkpt>
      <trkpt lat="45.85428" lon="4.79986">
        <ele>362.9</ele>
        <time>2019-08-30T08:55:05Z</time>
      </trkpt>
      <trkpt lat="45.85424" lon="4.79985">
        <ele>363.1</ele>
        <time>2019-08-30T08:55:06Z</time>
      </trkpt>
      <trkpt lat="45.85419" lon="4.79982">
        <ele>363.5</ele>
        <time>2019-08-30T08:55:08Z</time>
      </trkpt>
      <trkpt lat="45.85412" lon="4.79976">
        <ele>364.2</ele>
        <time>2019-08-30T08:55:11Z</time>
      </trkpt>
      <trkpt lat="45.85405" lon="4.79967">
        <ele>365.4</ele>
        <time>2019-08-30T08:55:15Z</time>
      </trkpt>
      <trkpt lat="45.85402" lon="4.79961">
        <ele>366</ele>
        <time>2019-08-30T08:55:17Z</time>
      </trkpt>
      <trkpt lat="45.85395" lon="4.79943">
        <ele>368.1</ele>
        <time>2019-08-30T08:55:24Z</time>
      </trkpt>
      <trkpt lat="45.85389" lon="4.79919">
        <ele>370.6</ele>
        <time>2019-08-30T08:55:32Z</time>
      </trkpt>
      <trkpt lat="45.85386" lon="4.79904">
        <ele>371.3</ele>
        <time>2019-08-30T08:55:37Z</time>
      </trkpt>
      <trkpt lat="45.85383" lon="4.79894">
        <ele>371.7</ele>
        <time>2019-08-30T08:55:41Z</time>
      </trkpt>
      <trkpt lat="45.85383" lon="4.79891">
        <ele>371.9</ele>
        <time>2019-08-30T08:55:42Z</time>
      </trkpt>
      <trkpt lat="45.8538" lon="4.7988">
        <ele>372.3</ele>
        <time>2019-08-30T08:55:46Z</time>
      </trkpt>
      <trkpt lat="45.85377" lon="4.79871">
        <ele>372.7</ele>
        <time>2019-08-30T08:55:51Z</time>
      </trkpt>
      <trkpt lat="45.85377" lon="4.79868">
        <ele>372.8</ele>
        <time>2019-08-30T08:55:53Z</time>
      </trkpt>
      <trkpt lat="45.85373" lon="4.79863">
        <ele>373.1</ele>
        <time>2019-08-30T08:55:58Z</time>
      </trkpt>
      <trkpt lat="45.85372" lon="4.79864">
        <ele>373.2</ele>
        <time>2019-08-30T08:55:59Z</time>
      </trkpt>
      <trkpt lat="45.85373" lon="4.79872">
        <ele>373.5</ele>
        <time>2019-08-30T08:56:02Z</time>
      </trkpt>
      <trkpt lat="45.85379" lon="4.79891">
        <ele>374.5</ele>
        <time>2019-08-30T08:56:06Z</time>
      </trkpt>
      <trkpt lat="45.8538" lon="4.79896">
        <ele>374.7</ele>
        <time>2019-08-30T08:56:07Z</time>
      </trkpt>
      <trkpt lat="45.85383" lon="4.79906">
        <ele>375.3</ele>
        <time>2019-08-30T08:56:11Z</time>
      </trkpt>
      <trkpt lat="45.85385" lon="4.79903">
        <ele>375.5</ele>
        <time>2019-08-30T08:56:13Z</time>
      </trkpt>
      <trkpt lat="45.85385" lon="4.79901">
        <ele>375.6</ele>
        <time>2019-08-30T08:56:14Z</time>
      </trkpt>
      <trkpt lat="45.85384" lon="4.79898">
        <ele>375.7</ele>
        <time>2019-08-30T08:56:16Z</time>
      </trkpt>
      <trkpt lat="45.85382" lon="4.79898">
        <ele>375.9</ele>
        <time>2019-08-30T08:56:26Z</time>
      </trkpt>
      <trkpt lat="45.85383" lon="4.79901">
        <ele>376</ele>
        <time>2019-08-30T08:56:27Z</time>
      </trkpt>
      <trkpt lat="45.85391" lon="4.79902">
        <ele>376.5</ele>
        <time>2019-08-30T08:56:30Z</time>
      </trkpt>
      <trkpt lat="45.85396" lon="4.79904">
        <ele>376.8</ele>
        <time>2019-08-30T08:56:33Z</time>
      </trkpt>
      <trkpt lat="45.85411" lon="4.7987">
        <ele>378.4</ele>
        <time>2019-08-30T08:57:59Z</time>
      </trkpt>
      <trkpt lat="45.85408" lon="4.79878">
        <ele>378.7</ele>
        <time>2019-08-30T08:58:02Z</time>
      </trkpt>
      <trkpt lat="45.85403" lon="4.79892">
        <ele>379.4</ele>
        <time>2019-08-30T08:58:08Z</time>
      </trkpt>
      <trkpt lat="45.85401" lon="4.79894">
        <ele>379.5</ele>
        <time>2019-08-30T08:58:10Z</time>
      </trkpt>
      <trkpt lat="45.8539" lon="4.79903">
        <ele>380.4</ele>
        <time>2019-08-30T08:58:29Z</time>
      </trkpt>
      <trkpt lat="45.8538" lon="4.79895">
        <ele>381.1</ele>
        <time>2019-08-30T08:58:33Z</time>
      </trkpt>
      <trkpt lat="45.85377" lon="4.79874">
        <ele>382</ele>
        <time>2019-08-30T08:58:39Z</time>
      </trkpt>
      <trkpt lat="45.85376" lon="4.79871">
        <ele>382.1</ele>
        <time>2019-08-30T08:58:40Z</time>
      </trkpt>
      <trkpt lat="45.85371" lon="4.7985">
        <ele>383.2</ele>
        <time>2019-08-30T08:58:47Z</time>
      </trkpt>
      <trkpt lat="45.8537" lon="4.79841">
        <ele>383.7</ele>
        <time>2019-08-30T08:58:50Z</time>
      </trkpt>
      <trkpt lat="45.85363" lon="4.79817">
        <ele>385.1</ele>
        <time>2019-08-30T08:58:58Z</time>
      </trkpt>
      <trkpt lat="45.85352" lon="4.79791">
        <ele>386.6</ele>
        <time>2019-08-30T08:59:08Z</time>
      </trkpt>
      <trkpt lat="45.85346" lon="4.79775">
        <ele>387.4</ele>
        <time>2019-08-30T08:59:15Z</time>
      </trkpt>
      <trkpt lat="45.85337" lon="4.79754">
        <ele>390.3</ele>
        <time>2019-08-30T08:59:25Z</time>
      </trkpt>
      <trkpt lat="45.85335" lon="4.7975">
        <ele>390.7</ele>
        <time>2019-08-30T08:59:27Z</time>
      </trkpt>
      <trkpt lat="45.85329" lon="4.79735">
        <ele>392.6</ele>
        <time>2019-08-30T08:59:34Z</time>
      </trkpt>
      <trkpt lat="45.85326" lon="4.79726">
        <ele>393.6</ele>
        <time>2019-08-30T08:59:38Z</time>
      </trkpt>
      <trkpt lat="45.85323" lon="4.79718">
        <ele>394.6</ele>
        <time>2019-08-30T08:59:42Z</time>
      </trkpt>
      <trkpt lat="45.85322" lon="4.79714">
        <ele>395.2</ele>
        <time>2019-08-30T08:59:44Z</time>
      </trkpt>
      <trkpt lat="45.85318" lon="4.79704">
        <ele>396.4</ele>
        <time>2019-08-30T08:59:48Z</time>
      </trkpt>
      <trkpt lat="45.85317" lon="4.79699">
        <ele>397</ele>
        <time>2019-08-30T08:59:50Z</time>
      </trkpt>
      <trkpt lat="45.85307" lon="4.79675">
        <ele>399.9</ele>
        <time>2019-08-30T09:00:00Z</time>
      </trkpt>
      <trkpt lat="45.85305" lon="4.7967">
        <ele>400.3</ele>
        <time>2019-08-30T09:00:02Z</time>
      </trkpt>
      <trkpt lat="45.85303" lon="4.79666">
        <ele>400.8</ele>
        <time>2019-08-30T09:00:04Z</time>
      </trkpt>
      <trkpt lat="45.85302" lon="4.79661">
        <ele>401.2</ele>
        <time>2019-08-30T09:00:06Z</time>
      </trkpt>
      <trkpt lat="45.853" lon="4.79655">
        <ele>401.8</ele>
        <time>2019-08-30T09:00:09Z</time>
      </trkpt>
      <trkpt lat="45.85288" lon="4.79639">
        <ele>403</ele>
        <time>2019-08-30T09:00:18Z</time>
      </trkpt>
      <trkpt lat="45.85272" lon="4.7963">
        <ele>402.1</ele>
        <time>2019-08-30T09:00:24Z</time>
      </trkpt>
      <trkpt lat="45.85247" lon="4.79615">
        <ele>400.2</ele>
        <time>2019-08-30T09:00:32Z</time>
      </trkpt>
      <trkpt lat="45.85245" lon="4.79611">
        <ele>400.1</ele>
        <time>2019-08-30T09:00:33Z</time>
      </trkpt>
      <trkpt lat="45.85248" lon="4.79605">
        <ele>400</ele>
        <time>2019-08-30T09:00:35Z</time>
      </trkpt>
      <trkpt lat="45.85254" lon="4.79603">
        <ele>402.4</ele>
        <time>2019-08-30T09:00:38Z</time>
      </trkpt>
      <trkpt lat="45.85256" lon="4.79604">
        <ele>402.7</ele>
        <time>2019-08-30T09:00:39Z</time>
      </trkpt>
      <trkpt lat="45.85261" lon="4.79607">
        <ele>403.7</ele>
        <time>2019-08-30T09:00:41Z</time>
      </trkpt>
      <trkpt lat="45.85267" lon="4.79611">
        <ele>404.1</ele>
        <time>2019-08-30T09:00:44Z</time>
      </trkpt>
      <trkpt lat="45.85272" lon="4.79613">
        <ele>404.4</ele>
        <time>2019-08-30T09:00:46Z</time>
      </trkpt>
      <trkpt lat="45.85282" lon="4.7962">
        <ele>405.1</ele>
        <time>2019-08-30T09:00:51Z</time>
      </trkpt>
      <trkpt lat="45.85286" lon="4.79625">
        <ele>405.4</ele>
        <time>2019-08-30T09:00:54Z</time>
      </trkpt>
      <trkpt lat="45.8529" lon="4.79624">
        <ele>405.6</ele>
        <time>2019-08-30T09:00:56Z</time>
      </trkpt>
      <trkpt lat="45.85287" lon="4.79618">
        <ele>405.9</ele>
        <time>2019-08-30T09:00:59Z</time>
      </trkpt>
      <trkpt lat="45.85273" lon="4.79613">
        <ele>404.7</ele>
        <time>2019-08-30T09:01:03Z</time>
      </trkpt>
      <trkpt lat="45.85263" lon="4.79608">
        <ele>403.8</ele>
        <time>2019-08-30T09:01:07Z</time>
      </trkpt>
      <trkpt lat="45.85265" lon="4.79596">
        <ele>405.9</ele>
        <time>2019-08-30T09:01:10Z</time>
      </trkpt>
      <trkpt lat="45.85267" lon="4.79591">
        <ele>407.1</ele>
        <time>2019-08-30T09:01:13Z</time>
      </trkpt>
      <trkpt lat="45.8527" lon="4.79585">
        <ele>408.2</ele>
        <time>2019-08-30T09:01:16Z</time>
      </trkpt>
      <trkpt lat="45.85272" lon="4.79579">
        <ele>409.2</ele>
        <time>2019-08-30T09:01:19Z</time>
      </trkpt>
      <trkpt lat="45.85276" lon="4.7957">
        <ele>410.3</ele>
        <time>2019-08-30T09:01:23Z</time>
      </trkpt>
      <trkpt lat="45.85281" lon="4.79558">
        <ele>411.9</ele>
        <time>2019-08-30T09:01:30Z</time>
      </trkpt>
      <trkpt lat="45.85287" lon="4.79546">
        <ele>414</ele>
        <time>2019-08-30T09:01:37Z</time>
      </trkpt>
      <trkpt lat="45.85288" lon="4.79542">
        <ele>414.7</ele>
        <time>2019-08-30T09:01:39Z</time>
      </trkpt>
      <trkpt lat="45.85291" lon="4.79537">
        <ele>415.7</ele>
        <time>2019-08-30T09:01:42Z</time>
      </trkpt>
      <trkpt lat="45.85295" lon="4.7953">
        <ele>417.1</ele>
        <time>2019-08-30T09:01:47Z</time>
      </trkpt>
      <trkpt lat="45.85296" lon="4.79526">
        <ele>417.6</ele>
        <time>2019-08-30T09:01:49Z</time>
      </trkpt>
      <trkpt lat="45.853" lon="4.79521">
        <ele>418.6</ele>
        <time>2019-08-30T09:01:54Z</time>
      </trkpt>
      <trkpt lat="45.85304" lon="4.79519">
        <ele>419.6</ele>
        <time>2019-08-30T09:01:58Z</time>
      </trkpt>
      <trkpt lat="45.85307" lon="4.79519">
        <ele>420.1</ele>
        <time>2019-08-30T09:02:00Z</time>
      </trkpt>
      <trkpt lat="45.85311" lon="4.7952">
        <ele>420.9</ele>
        <time>2019-08-30T09:02:03Z</time>
      </trkpt>
      <trkpt lat="45.85313" lon="4.79521">
        <ele>421.3</ele>
        <time>2019-08-30T09:02:05Z</time>
      </trkpt>
      <trkpt lat="45.85371" lon="4.79422">
        <ele>444.4</ele>
        <time>2019-08-30T09:08:24Z</time>
      </trkpt>
      <trkpt lat="45.85372" lon="4.7942">
        <ele>444.6</ele>
        <time>2019-08-30T09:08:25Z</time>
      </trkpt>
      <trkpt lat="45.85373" lon="4.79415">
        <ele>445</ele>
        <time>2019-08-30T09:08:28Z</time>
      </trkpt>
      <trkpt lat="45.85374" lon="4.79409">
        <ele>445.6</ele>
        <time>2019-08-30T09:08:31Z</time>
      </trkpt>
      <trkpt lat="45.85375" lon="4.79407">
        <ele>445.7</ele>
        <time>2019-08-30T09:08:32Z</time>
      </trkpt>
      <trkpt lat="45.85378" lon="4.79397">
        <ele>446.6</ele>
        <time>2019-08-30T09:08:37Z</time>
      </trkpt>
      <trkpt lat="45.8538" lon="4.7939">
        <ele>447.2</ele>
        <time>2019-08-30T09:08:40Z</time>
      </trkpt>
      <trkpt lat="45.8538" lon="4.79386">
        <ele>447.5</ele>
        <time>2019-08-30T09:08:41Z</time>
      </trkpt>
      <trkpt lat="45.85381" lon="4.79376">
        <ele>448.1</ele>
        <time>2019-08-30T09:08:45Z</time>
      </trkpt>
      <trkpt lat="45.85381" lon="4.79375">
        <ele>448.2</ele>
        <time>2019-08-30T09:08:46Z</time>
      </trkpt>
      <trkpt lat="45.85378" lon="4.79372">
        <ele>448.6</ele>
        <time>2019-08-30T09:08:48Z</time>
      </trkpt>
      <trkpt lat="45.8536" lon="4.79361">
        <ele>447.5</ele>
        <time>2019-08-30T09:08:55Z</time>
      </trkpt>
      <trkpt lat="45.85356" lon="4.79358">
        <ele>447.3</ele>
        <time>2019-08-30T09:08:57Z</time>
      </trkpt>
      <trkpt lat="45.85347" lon="4.79352">
        <ele>446.7</ele>
        <time>2019-08-30T09:09:01Z</time>
      </trkpt>
      <trkpt lat="45.85343" lon="4.79349">
        <ele>446.5</ele>
        <time>2019-08-30T09:09:03Z</time>
      </trkpt>
      <trkpt lat="45.85332" lon="4.79344">
        <ele>446</ele>
        <time>2019-08-30T09:09:07Z</time>
      </trkpt>
      <trkpt lat="45.85321" lon="4.79337">
        <ele>445.7</ele>
        <time>2019-08-30T09:09:14Z</time>
      </trkpt>
      <trkpt lat="45.85312" lon="4.79334">
        <ele>445.6</ele>
        <time>2019-08-30T09:09:21Z</time>
      </trkpt>
      <trkpt lat="45.85165" lon="4.79271">
        <ele>457.6</ele>
        <time>2019-08-30T09:12:02Z</time>
      </trkpt>
      <trkpt lat="45.8515" lon="4.79275">
        <ele>459.3</ele>
        <time>2019-08-30T09:12:07Z</time>
      </trkpt>
      <trkpt lat="45.85146" lon="4.79275">
        <ele>459.7</ele>
        <time>2019-08-30T09:12:08Z</time>
      </trkpt>
      <trkpt lat="45.85124" lon="4.79271">
        <ele>461.2</ele>
        <time>2019-08-30T09:12:13Z</time>
      </trkpt>
      <trkpt lat="45.85097" lon="4.79268">
        <ele>462.7</ele>
        <time>2019-08-30T09:12:19Z</time>
      </trkpt>
      <trkpt lat="45.85082" lon="4.7927">
        <ele>463.2</ele>
        <time>2019-08-30T09:12:22Z</time>
      </trkpt>
      <trkpt lat="45.85074" lon="4.79265">
        <ele>463.5</ele>
        <time>2019-08-30T09:12:24Z</time>
      </trkpt>
      <trkpt lat="45.85068" lon="4.79257">
        <ele>463.6</ele>
        <time>2019-08-30T09:12:26Z</time>
      </trkpt>
      <trkpt lat="45.85065" lon="4.79254">
        <ele>463.6</ele>
        <time>2019-08-30T09:12:27Z</time>
      </trkpt>
      <trkpt lat="45.85061" lon="4.79253">
        <ele>463.7</ele>
        <time>2019-08-30T09:12:28Z</time>
      </trkpt>
      <trkpt lat="45.85047" lon="4.79253">
        <ele>463.9</ele>
        <time>2019-08-30T09:12:32Z</time>
      </trkpt>
      <trkpt lat="45.85039" lon="4.79252">
        <ele>464</ele>
        <time>2019-08-30T09:12:34Z</time>
      </trkpt>
      <trkpt lat="45.85034" lon="4.7925">
        <ele>464</ele>
        <time>2019-08-30T09:12:35Z</time>
      </trkpt>
      <trkpt lat="45.85019" lon="4.79246">
        <ele>464.2</ele>
        <time>2019-08-30T09:12:38Z</time>
      </trkpt>
      <trkpt lat="45.85008" lon="4.79244">
        <ele>464.2</ele>
        <time>2019-08-30T09:12:40Z</time>
      </trkpt>
      <trkpt lat="45.8499" lon="4.7924">
        <ele>464</ele>
        <time>2019-08-30T09:12:43Z</time>
      </trkpt>
      <trkpt lat="45.84965" lon="4.79234">
        <ele>463.4</ele>
        <time>2019-08-30T09:12:47Z</time>
      </trkpt>
      <trkpt lat="45.84958" lon="4.79234">
        <ele>463.2</ele>
        <time>2019-08-30T09:12:48Z</time>
      </trkpt>
      <trkpt lat="45.84953" lon="4.79235">
        <ele>463</ele>
        <time>2019-08-30T09:12:49Z</time>
      </trkpt>
      <trkpt lat="45.84947" lon="4.79247">
        <ele>462.7</ele>
        <time>2019-08-30T09:12:52Z</time>
      </trkpt>
      <trkpt lat="45.84953" lon="4.79258">
        <ele>462.4</ele>
        <time>2019-08-30T09:12:54Z</time>
      </trkpt>
      <trkpt lat="45.84959" lon="4.79271">
        <ele>462</ele>
        <time>2019-08-30T09:12:56Z</time>
      </trkpt>
      <trkpt lat="45.84969" lon="4.79291">
        <ele>461</ele>
        <time>2019-08-30T09:13:00Z</time>
      </trkpt>
      <trkpt lat="45.84966" lon="4.79297">
        <ele>460.5</ele>
        <time>2019-08-30T09:13:03Z</time>
      </trkpt>
      <trkpt lat="45.84962" lon="4.79296">
        <ele>460.2</ele>
        <time>2019-08-30T09:13:05Z</time>
      </trkpt>
      <trkpt lat="45.84952" lon="4.79294">
        <ele>459.6</ele>
        <time>2019-08-30T09:13:08Z</time>
      </trkpt>
      <trkpt lat="45.84941" lon="4.79289">
        <ele>458.7</ele>
        <time>2019-08-30T09:13:11Z</time>
      </trkpt>
      <trkpt lat="45.84935" lon="4.79285">
        <ele>458.1</ele>
        <time>2019-08-30T09:13:12Z</time>
      </trkpt>
      <trkpt lat="45.84929" lon="4.79282">
        <ele>457.7</ele>
        <time>2019-08-30T09:13:13Z</time>
      </trkpt>
      <trkpt lat="45.84924" lon="4.79278">
        <ele>457.3</ele>
        <time>2019-08-30T09:13:14Z</time>
      </trkpt>
      <trkpt lat="45.84918" lon="4.79272">
        <ele>457</ele>
        <time>2019-08-30T09:13:15Z</time>
      </trkpt>
      <trkpt lat="45.84912" lon="4.79265">
        <ele>456.5</ele>
        <time>2019-08-30T09:13:16Z</time>
      </trkpt>
      <trkpt lat="45.84907" lon="4.79257">
        <ele>456.1</ele>
        <time>2019-08-30T09:13:17Z</time>
      </trkpt>
      <trkpt lat="45.84902" lon="4.7925">
        <ele>455.7</ele>
        <time>2019-08-30T09:13:18Z</time>
      </trkpt>
      <trkpt lat="45.84895" lon="4.79234">
        <ele>455</ele>
        <time>2019-08-30T09:13:20Z</time>
      </trkpt>
      <trkpt lat="45.84892" lon="4.79227">
        <ele>454.7</ele>
        <time>2019-08-30T09:13:21Z</time>
      </trkpt>
      <trkpt lat="45.8489" lon="4.79219">
        <ele>454.4</ele>
        <time>2019-08-30T09:13:22Z</time>
      </trkpt>
      <trkpt lat="45.84889" lon="4.79203">
        <ele>453.9</ele>
        <time>2019-08-30T09:13:24Z</time>
      </trkpt>
      <trkpt lat="45.84888" lon="4.79186">
        <ele>453.5</ele>
        <time>2019-08-30T09:13:26Z</time>
      </trkpt>
      <trkpt lat="45.84887" lon="4.79169">
        <ele>453.3</ele>
        <time>2019-08-30T09:13:28Z</time>
      </trkpt>
      <trkpt lat="45.84886" lon="4.79161">
        <ele>453.2</ele>
        <time>2019-08-30T09:13:29Z</time>
      </trkpt>
      <trkpt lat="45.84886" lon="4.79152">
        <ele>453.2</ele>
        <time>2019-08-30T09:13:30Z</time>
      </trkpt>
      <trkpt lat="45.84884" lon="4.79144">
        <ele>453.2</ele>
        <time>2019-08-30T09:13:31Z</time>
      </trkpt>
      <trkpt lat="45.84884" lon="4.79136">
        <ele>453.3</ele>
        <time>2019-08-30T09:13:32Z</time>
      </trkpt>
      <trkpt lat="45.84884" lon="4.7913">
        <ele>453.3</ele>
        <time>2019-08-30T09:13:33Z</time>
      </trkpt>
      <trkpt lat="45.84883" lon="4.79125">
        <ele>453.3</ele>
        <time>2019-08-30T09:13:34Z</time>
      </trkpt>
      <trkpt lat="45.84883" lon="4.79121">
        <ele>453.3</ele>
        <time>2019-08-30T09:13:35Z</time>
      </trkpt>
      <trkpt lat="45.84883" lon="4.79113">
        <ele>453.3</ele>
        <time>2019-08-30T09:13:37Z</time>
      </trkpt>
      <trkpt lat="45.84882" lon="4.79101">
        <ele>454.4</ele>
        <time>2019-08-30T09:13:40Z</time>
      </trkpt>
      <trkpt lat="45.84881" lon="4.79097">
        <ele>454.7</ele>
        <time>2019-08-30T09:13:41Z</time>
      </trkpt>
      <trkpt lat="45.8488" lon="4.79092">
        <ele>455</ele>
        <time>2019-08-30T09:13:42Z</time>
      </trkpt>
      <trkpt lat="45.84878" lon="4.79084">
        <ele>455.5</ele>
        <time>2019-08-30T09:13:44Z</time>
      </trkpt>
      <trkpt lat="45.84875" lon="4.79073">
        <ele>456</ele>
        <time>2019-08-30T09:13:47Z</time>
      </trkpt>
      <trkpt lat="45.84873" lon="4.7907">
        <ele>456.2</ele>
        <time>2019-08-30T09:13:48Z</time>
      </trkpt>
      <trkpt lat="45.84871" lon="4.79067">
        <ele>456.4</ele>
        <time>2019-08-30T09:13:49Z</time>
      </trkpt>
      <trkpt lat="45.84867" lon="4.79061">
        <ele>456.7</ele>
        <time>2019-08-30T09:13:51Z</time>
      </trkpt>
      <trkpt lat="45.84859" lon="4.79054">
        <ele>457.4</ele>
        <time>2019-08-30T09:13:55Z</time>
      </trkpt>
      <trkpt lat="45.84857" lon="4.79053">
        <ele>457.6</ele>
        <time>2019-08-30T09:13:56Z</time>
      </trkpt>
      <trkpt lat="45.84853" lon="4.79049">
        <ele>458.3</ele>
        <time>2019-08-30T09:14:00Z</time>
      </trkpt>
      <trkpt lat="45.8485" lon="4.79044">
        <ele>458.9</ele>
        <time>2019-08-30T09:14:08Z</time>
      </trkpt>
      <trkpt lat="45.84849" lon="4.79039">
        <ele>459.3</ele>
        <time>2019-08-30T09:14:10Z</time>
      </trkpt>
      <trkpt lat="45.84846" lon="4.7903">
        <ele>460.1</ele>
        <time>2019-08-30T09:14:13Z</time>
      </trkpt>
      <trkpt lat="45.84843" lon="4.79025">
        <ele>460.8</ele>
        <time>2019-08-30T09:14:15Z</time>
      </trkpt>
      <trkpt lat="45.84841" lon="4.79022">
        <ele>461.1</ele>
        <time>2019-08-30T09:14:16Z</time>
      </trkpt>
      <trkpt lat="45.84826" lon="4.79">
        <ele>463.5</ele>
        <time>2019-08-30T09:14:23Z</time>
      </trkpt>
      <trkpt lat="45.84824" lon="4.78996">
        <ele>463.9</ele>
        <time>2019-08-30T09:14:24Z</time>
      </trkpt>
      <trkpt lat="45.84812" lon="4.7898">
        <ele>465.7</ele>
        <time>2019-08-30T09:14:29Z</time>
      </trkpt>
      <trkpt lat="45.84801" lon="4.78965">
        <ele>467.7</ele>
        <time>2019-08-30T09:14:35Z</time>
      </trkpt>
      <trkpt lat="45.84788" lon="4.7895">
        <ele>469.9</ele>
        <time>2019-08-30T09:14:42Z</time>
      </trkpt>
      <trkpt lat="45.84786" lon="4.78948">
        <ele>470.1</ele>
        <time>2019-08-30T09:14:43Z</time>
      </trkpt>
      <trkpt lat="45.84775" lon="4.78933">
        <ele>472.1</ele>
        <time>2019-08-30T09:14:50Z</time>
      </trkpt>
      <trkpt lat="45.84767" lon="4.78923">
        <ele>473.2</ele>
        <time>2019-08-30T09:14:55Z</time>
      </trkpt>
      <trkpt lat="45.84762" lon="4.78915">
        <ele>474.5</ele>
        <time>2019-08-30T09:14:59Z</time>
      </trkpt>
      <trkpt lat="45.84758" lon="4.78911">
        <ele>474.7</ele>
        <time>2019-08-30T09:15:01Z</time>
      </trkpt>
      <trkpt lat="45.84749" lon="4.78902">
        <ele>475.3</ele>
        <time>2019-08-30T09:15:07Z</time>
      </trkpt>
      <trkpt lat="45.84738" lon="4.78894">
        <ele>475.7</ele>
        <time>2019-08-30T09:15:14Z</time>
      </trkpt>
      <trkpt lat="45.84726" lon="4.78885">
        <ele>475.7</ele>
        <time>2019-08-30T09:15:20Z</time>
      </trkpt>
      <trkpt lat="45.8471" lon="4.78876">
        <ele>475.7</ele>
        <time>2019-08-30T09:15:29Z</time>
      </trkpt>
      <trkpt lat="45.84702" lon="4.78874">
        <ele>476.2</ele>
        <time>2019-08-30T09:15:33Z</time>
      </trkpt>
      <trkpt lat="45.84697" lon="4.78871">
        <ele>476.7</ele>
        <time>2019-08-30T09:15:36Z</time>
      </trkpt>
      <trkpt lat="45.84685" lon="4.78867">
        <ele>477.9</ele>
        <time>2019-08-30T09:15:43Z</time>
      </trkpt>
      <trkpt lat="45.84676" lon="4.78859">
        <ele>478.6</ele>
        <time>2019-08-30T09:15:49Z</time>
      </trkpt>
      <trkpt lat="45.84675" lon="4.78858">
        <ele>478.7</ele>
        <time>2019-08-30T09:15:50Z</time>
      </trkpt>
      <trkpt lat="45.84672" lon="4.78854">
        <ele>478.8</ele>
        <time>2019-08-30T09:15:53Z</time>
      </trkpt>
      <trkpt lat="45.84668" lon="4.78848">
        <ele>479.2</ele>
        <time>2019-08-30T09:15:57Z</time>
      </trkpt>
      <trkpt lat="45.84666" lon="4.78845">
        <ele>479.4</ele>
        <time>2019-08-30T09:16:00Z</time>
      </trkpt>
      <trkpt lat="45.84661" lon="4.78838">
        <ele>479.9</ele>
        <time>2019-08-30T09:16:04Z</time>
      </trkpt>
      <trkpt lat="45.8466" lon="4.78837">
        <ele>480</ele>
        <time>2019-08-30T09:16:05Z</time>
      </trkpt>
      <trkpt lat="45.84658" lon="4.78834">
        <ele>480.4</ele>
        <time>2019-08-30T09:16:07Z</time>
      </trkpt>
      <trkpt lat="45.84654" lon="4.78828">
        <ele>481</ele>
        <time>2019-08-30T09:16:11Z</time>
      </trkpt>
      <trkpt lat="45.8465" lon="4.78824">
        <ele>481.6</ele>
        <time>2019-08-30T09:16:14Z</time>
      </trkpt>
      <trkpt lat="45.84646" lon="4.78819">
        <ele>482.2</ele>
        <time>2019-08-30T09:16:18Z</time>
      </trkpt>
      <trkpt lat="45.84644" lon="4.78816">
        <ele>482.5</ele>
        <time>2019-08-30T09:16:20Z</time>
      </trkpt>
      <trkpt lat="45.8464" lon="4.78807">
        <ele>483.8</ele>
        <time>2019-08-30T09:16:26Z</time>
      </trkpt>
      <trkpt lat="45.84638" lon="4.78804">
        <ele>484.1</ele>
        <time>2019-08-30T09:16:28Z</time>
      </trkpt>
      <trkpt lat="45.8453" lon="4.78628">
        <ele>508</ele>
        <time>2019-08-30T09:18:36Z</time>
      </trkpt>
      <trkpt lat="45.84529" lon="4.78626">
        <ele>508.2</ele>
        <time>2019-08-30T09:18:37Z</time>
      </trkpt>
      <trkpt lat="45.84523" lon="4.78616">
        <ele>509.1</ele>
        <time>2019-08-30T09:18:43Z</time>
      </trkpt>
      <trkpt lat="45.84516" lon="4.78606">
        <ele>510.3</ele>
        <time>2019-08-30T09:18:50Z</time>
      </trkpt>
      <trkpt lat="45.84514" lon="4.78603">
        <ele>510.7</ele>
        <time>2019-08-30T09:18:52Z</time>
      </trkpt>
      <trkpt lat="45.84493" lon="4.7857">
        <ele>515.2</ele>
        <time>2019-08-30T09:19:15Z</time>
      </trkpt>
      <trkpt lat="45.84484" lon="4.78558">
        <ele>516.9</ele>
        <time>2019-08-30T09:19:22Z</time>
      </trkpt>
      <trkpt lat="45.84479" lon="4.7855">
        <ele>518.1</ele>
        <time>2019-08-30T09:19:26Z</time>
      </trkpt>
      <trkpt lat="45.84475" lon="4.78544">
        <ele>518.9</ele>
        <time>2019-08-30T09:19:29Z</time>
      </trkpt>
      <trkpt lat="45.84472" lon="4.78538">
        <ele>519.7</ele>
        <time>2019-08-30T09:19:32Z</time>
      </trkpt>
      <trkpt lat="45.84467" lon="4.78529">
        <ele>521.3</ele>
        <time>2019-08-30T09:19:38Z</time>
      </trkpt>
      <trkpt lat="45.84466" lon="4.78527">
        <ele>521.7</ele>
        <time>2019-08-30T09:19:39Z</time>
      </trkpt>
      <trkpt lat="45.84461" lon="4.7852">
        <ele>522.8</ele>
        <time>2019-08-30T09:19:43Z</time>
      </trkpt>
      <trkpt lat="45.84458" lon="4.78515">
        <ele>523.5</ele>
        <time>2019-08-30T09:19:46Z</time>
      </trkpt>
      <trkpt lat="45.84453" lon="4.78506">
        <ele>524.8</ele>
        <time>2019-08-30T09:19:51Z</time>
      </trkpt>
      <trkpt lat="45.8445" lon="4.785">
        <ele>525.5</ele>
        <time>2019-08-30T09:19:54Z</time>
      </trkpt>
      <trkpt lat="45.84446" lon="4.78492">
        <ele>526.5</ele>
        <time>2019-08-30T09:19:58Z</time>
      </trkpt>
      <trkpt lat="45.84442" lon="4.78485">
        <ele>527.6</ele>
        <time>2019-08-30T09:20:02Z</time>
      </trkpt>
      <trkpt lat="45.84435" lon="4.78477">
        <ele>529</ele>
        <time>2019-08-30T09:20:09Z</time>
      </trkpt>
      <trkpt lat="45.84434" lon="4.78476">
        <ele>529.3</ele>
        <time>2019-08-30T09:20:10Z</time>
      </trkpt>
      <trkpt lat="45.84429" lon="4.78471">
        <ele>530.1</ele>
        <time>2019-08-30T09:20:14Z</time>
      </trkpt>
      <trkpt lat="45.84425" lon="4.78466">
        <ele>530.9</ele>
        <time>2019-08-30T09:20:17Z</time>
      </trkpt>
      <trkpt lat="45.84422" lon="4.78464">
        <ele>531.3</ele>
        <time>2019-08-30T09:20:19Z</time>
      </trkpt>
      <trkpt lat="45.84416" lon="4.78459">
        <ele>532.2</ele>
        <time>2019-08-30T09:20:24Z</time>
      </trkpt>
      <trkpt lat="45.8441" lon="4.78452">
        <ele>533.3</ele>
        <time>2019-08-30T09:20:29Z</time>
      </trkpt>
      <trkpt lat="45.84407" lon="4.78449">
        <ele>533.8</ele>
        <time>2019-08-30T09:20:31Z</time>
      </trkpt>
      <trkpt lat="45.84398" lon="4.7844">
        <ele>535.3</ele>
        <time>2019-08-30T09:20:39Z</time>
      </trkpt>
      <trkpt lat="45.84393" lon="4.78436">
        <ele>536.1</ele>
        <time>2019-08-30T09:20:42Z</time>
      </trkpt>
      <trkpt lat="45.84388" lon="4.78429">
        <ele>537.3</ele>
        <time>2019-08-30T09:20:46Z</time>
      </trkpt>
      <trkpt lat="45.84378" lon="4.78422">
        <ele>538.9</ele>
        <time>2019-08-30T09:20:53Z</time>
      </trkpt>
      <trkpt lat="45.84377" lon="4.78421">
        <ele>539.2</ele>
        <time>2019-08-30T09:20:54Z</time>
      </trkpt>
      <trkpt lat="45.84372" lon="4.78415">
        <ele>540.4</ele>
        <time>2019-08-30T09:20:59Z</time>
      </trkpt>
      <trkpt lat="45.84368" lon="4.78412">
        <ele>541.1</ele>
        <time>2019-08-30T09:21:02Z</time>
      </trkpt>
      <trkpt lat="45.84361" lon="4.78405">
        <ele>542.4</ele>
        <time>2019-08-30T09:21:06Z</time>
      </trkpt>
      <trkpt lat="45.84361" lon="4.784">
        <ele>542.8</ele>
        <time>2019-08-30T09:21:08Z</time>
      </trkpt>
      <trkpt lat="45.84363" lon="4.78395">
        <ele>543.3</ele>
        <time>2019-08-30T09:21:11Z</time>
      </trkpt>
      <trkpt lat="45.84379" lon="4.78352">
        <ele>551.6</ele>
        <time>2019-08-30T09:22:52Z</time>
      </trkpt>
      <trkpt lat="45.84378" lon="4.78351">
        <ele>551.7</ele>
        <time>2019-08-30T09:22:53Z</time>
      </trkpt>
      <trkpt lat="45.84371" lon="4.78345">
        <ele>552</ele>
        <time>2019-08-30T09:22:57Z</time>
      </trkpt>
      <trkpt lat="45.84368" lon="4.78342">
        <ele>552.1</ele>
        <time>2019-08-30T09:22:59Z</time>
      </trkpt>
      <trkpt lat="45.84366" lon="4.78341">
        <ele>552.2</ele>
        <time>2019-08-30T09:23:00Z</time>
      </trkpt>
      <trkpt lat="45.84365" lon="4.7834">
        <ele>552.2</ele>
        <time>2019-08-30T09:23:01Z</time>
      </trkpt>
      <trkpt lat="45.84362" lon="4.78338">
        <ele>552.3</ele>
        <time>2019-08-30T09:23:03Z</time>
      </trkpt>
      <trkpt lat="45.84357" lon="4.78335">
        <ele>552.5</ele>
        <time>2019-08-30T09:23:06Z</time>
      </trkpt>
      <trkpt lat="45.84351" lon="4.78333">
        <ele>552.7</ele>
        <time>2019-08-30T09:23:09Z</time>
      </trkpt>
      <trkpt lat="45.84334" lon="4.7833">
        <ele>550.4</ele>
        <time>2019-08-30T09:23:18Z</time>
      </trkpt>
      <trkpt lat="45.84324" lon="4.78328">
        <ele>548.7</ele>
        <time>2019-08-30T09:23:23Z</time>
      </trkpt>
      <trkpt lat="45.84315" lon="4.78328">
        <ele>548.2</ele>
        <time>2019-08-30T09:23:27Z</time>
      </trkpt>
      <trkpt lat="45.84296" lon="4.78327">
        <ele>548.3</ele>
        <time>2019-08-30T09:23:36Z</time>
      </trkpt>
      <trkpt lat="45.84294" lon="4.78328">
        <ele>548.3</ele>
        <time>2019-08-30T09:23:37Z</time>
      </trkpt>
      <trkpt lat="45.84285" lon="4.78329">
        <ele>548.6</ele>
        <time>2019-08-30T09:23:41Z</time>
      </trkpt>
      <trkpt lat="45.84281" lon="4.7833">
        <ele>548.6</ele>
        <time>2019-08-30T09:23:43Z</time>
      </trkpt>
      <trkpt lat="45.84279" lon="4.78331">
        <ele>548.6</ele>
        <time>2019-08-30T09:23:44Z</time>
      </trkpt>
      <trkpt lat="45.84271" lon="4.78337">
        <ele>548.7</ele>
        <time>2019-08-30T09:23:48Z</time>
      </trkpt>
      <trkpt lat="45.84268" lon="4.78341">
        <ele>548.7</ele>
        <time>2019-08-30T09:23:50Z</time>
      </trkpt>
      <trkpt lat="45.84267" lon="4.78343">
        <ele>548.7</ele>
        <time>2019-08-30T09:23:51Z</time>
      </trkpt>
      <trkpt lat="45.84259" lon="4.78347">
        <ele>548.8</ele>
        <time>2019-08-30T09:23:56Z</time>
      </trkpt>
      <trkpt lat="45.84257" lon="4.78345">
        <ele>548.8</ele>
        <time>2019-08-30T09:23:58Z</time>
      </trkpt>
      <trkpt lat="45.84254" lon="4.78343">
        <ele>548.9</ele>
        <time>2019-08-30T09:24:00Z</time>
      </trkpt>
      <trkpt lat="45.84252" lon="4.7834">
        <ele>549</ele>
        <time>2019-08-30T09:24:02Z</time>
      </trkpt>
      <trkpt lat="45.84244" lon="4.78333">
        <ele>549.2</ele>
        <time>2019-08-30T09:24:08Z</time>
      </trkpt>
      <trkpt lat="45.84243" lon="4.78332">
        <ele>549.2</ele>
        <time>2019-08-30T09:24:09Z</time>
      </trkpt>
      <trkpt lat="45.84235" lon="4.78322">
        <ele>549.5</ele>
        <time>2019-08-30T09:24:16Z</time>
      </trkpt>
      <trkpt lat="45.84231" lon="4.78306">
        <ele>550</ele>
        <time>2019-08-30T09:24:24Z</time>
      </trkpt>
      <trkpt lat="45.84227" lon="4.7829">
        <ele>550.8</ele>
        <time>2019-08-30T09:24:29Z</time>
      </trkpt>
      <trkpt lat="45.84225" lon="4.78283">
        <ele>551.3</ele>
        <time>2019-08-30T09:24:32Z</time>
      </trkpt>
      <trkpt lat="45.84222" lon="4.78277">
        <ele>551.7</ele>
        <time>2019-08-30T09:24:35Z</time>
      </trkpt>
      <trkpt lat="45.84221" lon="4.78276">
        <ele>551.9</ele>
        <time>2019-08-30T09:24:36Z</time>
      </trkpt>
      <trkpt lat="45.84219" lon="4.78276">
        <ele>552.1</ele>
        <time>2019-08-30T09:24:38Z</time>
      </trkpt>
      <trkpt lat="45.84216" lon="4.78277">
        <ele>552.5</ele>
        <time>2019-08-30T09:24:41Z</time>
      </trkpt>
      <trkpt lat="45.84214" lon="4.7828">
        <ele>552.8</ele>
        <time>2019-08-30T09:24:43Z</time>
      </trkpt>
      <trkpt lat="45.84208" lon="4.78293">
        <ele>553.1</ele>
        <time>2019-08-30T09:24:49Z</time>
      </trkpt>
      <trkpt lat="45.84205" lon="4.78308">
        <ele>553.3</ele>
        <time>2019-08-30T09:24:54Z</time>
      </trkpt>
      <trkpt lat="45.84204" lon="4.78311">
        <ele>553.4</ele>
        <time>2019-08-30T09:24:55Z</time>
      </trkpt>
      <trkpt lat="45.84205" lon="4.78336">
        <ele>553.6</ele>
        <time>2019-08-30T09:25:02Z</time>
      </trkpt>
      <trkpt lat="45.84211" lon="4.78367">
        <ele>553.9</ele>
        <time>2019-08-30T09:25:11Z</time>
      </trkpt>
      <trkpt lat="45.8422" lon="4.78395">
        <ele>554.4</ele>
        <time>2019-08-30T09:25:19Z</time>
      </trkpt>
      <trkpt lat="45.8423" lon="4.78427">
        <ele>555.2</ele>
        <time>2019-08-30T09:25:28Z</time>
      </trkpt>
      <trkpt lat="45.84233" lon="4.78441">
        <ele>555.5</ele>
        <time>2019-08-30T09:25:32Z</time>
      </trkpt>
      <trkpt lat="45.84236" lon="4.78451">
        <ele>555.9</ele>
        <time>2019-08-30T09:25:35Z</time>
      </trkpt>
      <trkpt lat="45.8424" lon="4.78462">
        <ele>556.2</ele>
        <time>2019-08-30T09:25:38Z</time>
      </trkpt>
      <trkpt lat="45.84243" lon="4.78479">
        <ele>556.7</ele>
        <time>2019-08-30T09:25:42Z</time>
      </trkpt>
      <trkpt lat="45.84244" lon="4.78487">
        <ele>557</ele>
        <time>2019-08-30T09:25:44Z</time>
      </trkpt>
      <trkpt lat="45.84245" lon="4.78506">
        <ele>557.6</ele>
        <time>2019-08-30T09:25:49Z</time>
      </trkpt>
      <trkpt lat="45.84244" lon="4.78511">
        <ele>557.8</ele>
        <time>2019-08-30T09:25:50Z</time>
      </trkpt>
      <trkpt lat="45.84242" lon="4.78522">
        <ele>558.3</ele>
        <time>2019-08-30T09:25:53Z</time>
      </trkpt>
      <trkpt lat="45.84239" lon="4.78538">
        <ele>558.9</ele>
        <time>2019-08-30T09:25:57Z</time>
      </trkpt>
      <trkpt lat="45.84238" lon="4.78542">
        <ele>559</ele>
        <time>2019-08-30T09:25:58Z</time>
      </trkpt>
      <trkpt lat="45.84235" lon="4.78561">
        <ele>559.5</ele>
        <time>2019-08-30T09:26:03Z</time>
      </trkpt>
      <trkpt lat="45.84234" lon="4.78566">
        <ele>559.6</ele>
        <time>2019-08-30T09:26:04Z</time>
      </trkpt>
      <trkpt lat="45.84233" lon="4.78589">
        <ele>559.9</ele>
        <time>2019-08-30T09:26:09Z</time>
      </trkpt>
      <trkpt lat="45.84233" lon="4.78599">
        <ele>560</ele>
        <time>2019-08-30T09:26:11Z</time>
      </trkpt>
      <trkpt lat="45.8423" lon="4.78629">
        <ele>560.6</ele>
        <time>2019-08-30T09:26:17Z</time>
      </trkpt>
      <trkpt lat="45.84225" lon="4.78662">
        <ele>560.7</ele>
        <time>2019-08-30T09:26:23Z</time>
      </trkpt>
      <trkpt lat="45.84218" lon="4.78703">
        <ele>561</ele>
        <time>2019-08-30T09:26:30Z</time>
      </trkpt>
      <trkpt lat="45.84212" lon="4.78733">
        <ele>561.6</ele>
        <time>2019-08-30T09:26:35Z</time>
      </trkpt>
      <trkpt lat="45.84211" lon="4.78739">
        <ele>561.7</ele>
        <time>2019-08-30T09:26:36Z</time>
      </trkpt>
      <trkpt lat="45.84206" lon="4.78787">
        <ele>560.5</ele>
        <time>2019-08-30T09:26:44Z</time>
      </trkpt>
      <trkpt lat="45.84204" lon="4.78833">
        <ele>559.7</ele>
        <time>2019-08-30T09:26:52Z</time>
      </trkpt>
      <trkpt lat="45.84208" lon="4.78873">
        <ele>558.5</ele>
        <time>2019-08-30T09:26:59Z</time>
      </trkpt>
      <trkpt lat="45.8421" lon="4.78901">
        <ele>557.9</ele>
        <time>2019-08-30T09:27:03Z</time>
      </trkpt>
      <trkpt lat="45.8421" lon="4.78908">
        <ele>557.7</ele>
        <time>2019-08-30T09:27:04Z</time>
      </trkpt>
      <trkpt lat="45.84208" lon="4.78916">
        <ele>557.5</ele>
        <time>2019-08-30T09:27:05Z</time>
      </trkpt>
      <trkpt lat="45.84199" lon="4.78936">
        <ele>557.3</ele>
        <time>2019-08-30T09:27:08Z</time>
      </trkpt>
      <trkpt lat="45.84195" lon="4.78941">
        <ele>557.4</ele>
        <time>2019-08-30T09:27:09Z</time>
      </trkpt>
      <trkpt lat="45.84193" lon="4.78946">
        <ele>557.5</ele>
        <time>2019-08-30T09:27:10Z</time>
      </trkpt>
      <trkpt lat="45.8419" lon="4.78954">
        <ele>556.5</ele>
        <time>2019-08-30T09:27:12Z</time>
      </trkpt>
      <trkpt lat="45.84189" lon="4.78959">
        <ele>556.1</ele>
        <time>2019-08-30T09:27:13Z</time>
      </trkpt>
      <trkpt lat="45.84183" lon="4.78978">
        <ele>554.3</ele>
        <time>2019-08-30T09:27:16Z</time>
      </trkpt>
      <trkpt lat="45.8418" lon="4.78993">
        <ele>553</ele>
        <time>2019-08-30T09:27:18Z</time>
      </trkpt>
      <trkpt lat="45.84178" lon="4.79009">
        <ele>551.4</ele>
        <time>2019-08-30T09:27:20Z</time>
      </trkpt>
      <trkpt lat="45.84178" lon="4.79018">
        <ele>550.6</ele>
        <time>2019-08-30T09:27:21Z</time>
      </trkpt>
      <trkpt lat="45.84174" lon="4.79045">
        <ele>547.9</ele>
        <time>2019-08-30T09:27:24Z</time>
      </trkpt>
      <trkpt lat="45.84172" lon="4.79063">
        <ele>546</ele>
        <time>2019-08-30T09:27:26Z</time>
      </trkpt>
      <trkpt lat="45.8417" lon="4.79083">
        <ele>543.9</ele>
        <time>2019-08-30T09:27:28Z</time>
      </trkpt>
      <trkpt lat="45.84167" lon="4.79103">
        <ele>541.8</ele>
        <time>2019-08-30T09:27:30Z</time>
      </trkpt>
      <trkpt lat="45.84166" lon="4.79111">
        <ele>540.9</ele>
        <time>2019-08-30T09:27:31Z</time>
      </trkpt>
      <trkpt lat="45.84165" lon="4.79118">
        <ele>540.1</ele>
        <time>2019-08-30T09:27:32Z</time>
      </trkpt>
      <trkpt lat="45.84162" lon="4.79128">
        <ele>539</ele>
        <time>2019-08-30T09:27:34Z</time>
      </trkpt>
      <trkpt lat="45.8416" lon="4.79132">
        <ele>538.5</ele>
        <time>2019-08-30T09:27:35Z</time>
      </trkpt>
      <trkpt lat="45.84157" lon="4.79134">
        <ele>538</ele>
        <time>2019-08-30T09:27:36Z</time>
      </trkpt>
      <trkpt lat="45.84152" lon="4.79133">
        <ele>537.4</ele>
        <time>2019-08-30T09:27:38Z</time>
      </trkpt>
      <trkpt lat="45.84144" lon="4.79123">
        <ele>538.7</ele>
        <time>2019-08-30T09:27:42Z</time>
      </trkpt>
      <trkpt lat="45.8414" lon="4.79116">
        <ele>539.2</ele>
        <time>2019-08-30T09:27:44Z</time>
      </trkpt>
      <trkpt lat="45.84114" lon="4.79082">
        <ele>542.6</ele>
        <time>2019-08-30T09:27:54Z</time>
      </trkpt>
      <trkpt lat="45.84104" lon="4.79068">
        <ele>544</ele>
        <time>2019-08-30T09:27:58Z</time>
      </trkpt>
      <trkpt lat="45.84094" lon="4.79056">
        <ele>545.3</ele>
        <time>2019-08-30T09:28:02Z</time>
      </trkpt>
      <trkpt lat="45.84076" lon="4.79035">
        <ele>546.1</ele>
        <time>2019-08-30T09:28:09Z</time>
      </trkpt>
      <trkpt lat="45.8407" lon="4.7903">
        <ele>546.2</ele>
        <time>2019-08-30T09:28:11Z</time>
      </trkpt>
      <trkpt lat="45.84052" lon="4.79022">
        <ele>546.6</ele>
        <time>2019-08-30T09:28:17Z</time>
      </trkpt>
      <trkpt lat="45.84041" lon="4.79018">
        <ele>547</ele>
        <time>2019-08-30T09:28:21Z</time>
      </trkpt>
      <trkpt lat="45.84027" lon="4.7901">
        <ele>547.6</ele>
        <time>2019-08-30T09:28:26Z</time>
      </trkpt>
      <trkpt lat="45.84024" lon="4.79004">
        <ele>547.9</ele>
        <time>2019-08-30T09:28:28Z</time>
      </trkpt>
      <trkpt lat="45.84021" lon="4.78994">
        <ele>548.5</ele>
        <time>2019-08-30T09:28:31Z</time>
      </trkpt>
      <trkpt lat="45.84021" lon="4.78984">
        <ele>549.2</ele>
        <time>2019-08-30T09:28:34Z</time>
      </trkpt>
      <trkpt lat="45.84022" lon="4.78974">
        <ele>550</ele>
        <time>2019-08-30T09:28:37Z</time>
      </trkpt>
      <trkpt lat="45.84022" lon="4.78965">
        <ele>550.5</ele>
        <time>2019-08-30T09:28:40Z</time>
      </trkpt>
      <trkpt lat="45.84019" lon="4.7896">
        <ele>550.9</ele>
        <time>2019-08-30T09:28:42Z</time>
      </trkpt>
      <trkpt lat="45.84018" lon="4.78958">
        <ele>551.1</ele>
        <time>2019-08-30T09:28:43Z</time>
      </trkpt>
      <trkpt lat="45.84012" lon="4.78949">
        <ele>551.9</ele>
        <time>2019-08-30T09:28:47Z</time>
      </trkpt>
      <trkpt lat="45.84009" lon="4.78944">
        <ele>552.3</ele>
        <time>2019-08-30T09:28:49Z</time>
      </trkpt>
      <trkpt lat="45.84002" lon="4.78937">
        <ele>553.1</ele>
        <time>2019-08-30T09:28:53Z</time>
      </trkpt>
      <trkpt lat="45.83997" lon="4.78932">
        <ele>553.7</ele>
        <time>2019-08-30T09:28:56Z</time>
      </trkpt>
      <trkpt lat="45.83993" lon="4.78929">
        <ele>554</ele>
        <time>2019-08-30T09:28:58Z</time>
      </trkpt>
      <trkpt lat="45.83983" lon="4.7892">
        <ele>554.8</ele>
        <time>2019-08-30T09:29:04Z</time>
      </trkpt>
      <trkpt lat="45.83979" lon="4.78916">
        <ele>555.1</ele>
        <time>2019-08-30T09:29:06Z</time>
      </trkpt>
      <trkpt lat="45.83968" lon="4.78907">
        <ele>556.2</ele>
        <time>2019-08-30T09:29:12Z</time>
      </trkpt>
      <trkpt lat="45.83955" lon="4.78894">
        <ele>557.3</ele>
        <time>2019-08-30T09:29:19Z</time>
      </trkpt>
      <trkpt lat="45.83943" lon="4.78884">
        <ele>558.5</ele>
        <time>2019-08-30T09:29:25Z</time>
      </trkpt>
      <trkpt lat="45.83939" lon="4.78881">
        <ele>558.9</ele>
        <time>2019-08-30T09:29:27Z</time>
      </trkpt>
      <trkpt lat="45.83928" lon="4.78871">
        <ele>560.1</ele>
        <time>2019-08-30T09:29:32Z</time>
      </trkpt>
      <trkpt lat="45.83922" lon="4.78866">
        <ele>560.9</ele>
        <time>2019-08-30T09:29:35Z</time>
      </trkpt>
      <trkpt lat="45.83911" lon="4.78856">
        <ele>562.1</ele>
        <time>2019-08-30T09:29:40Z</time>
      </trkpt>
      <trkpt lat="45.83904" lon="4.7885">
        <ele>562.9</ele>
        <time>2019-08-30T09:29:43Z</time>
      </trkpt>
      <trkpt lat="45.83899" lon="4.78846">
        <ele>563.4</ele>
        <time>2019-08-30T09:29:45Z</time>
      </trkpt>
      <trkpt lat="45.83887" lon="4.78835">
        <ele>564.7</ele>
        <time>2019-08-30T09:29:51Z</time>
      </trkpt>
      <trkpt lat="45.83878" lon="4.78827">
        <ele>565.3</ele>
        <time>2019-08-30T09:29:55Z</time>
      </trkpt>
      <trkpt lat="45.83872" lon="4.78822">
        <ele>565.8</ele>
        <time>2019-08-30T09:29:58Z</time>
      </trkpt>
      <trkpt lat="45.83869" lon="4.78818">
        <ele>566.3</ele>
        <time>2019-08-30T09:30:00Z</time>
      </trkpt>
      <trkpt lat="45.83857" lon="4.78808">
        <ele>567.4</ele>
        <time>2019-08-30T09:30:05Z</time>
      </trkpt>
      <trkpt lat="45.83851" lon="4.78803">
        <ele>568</ele>
        <time>2019-08-30T09:30:08Z</time>
      </trkpt>
      <trkpt lat="45.83847" lon="4.78799">
        <ele>568.4</ele>
        <time>2019-08-30T09:30:10Z</time>
      </trkpt>
      <trkpt lat="45.83833" lon="4.78786">
        <ele>570.7</ele>
        <time>2019-08-30T09:30:17Z</time>
      </trkpt>
      <trkpt lat="45.83821" lon="4.78776">
        <ele>572.2</ele>
        <time>2019-08-30T09:30:23Z</time>
      </trkpt>
      <trkpt lat="45.83809" lon="4.78763">
        <ele>573.1</ele>
        <time>2019-08-30T09:30:29Z</time>
      </trkpt>
      <trkpt lat="45.83802" lon="4.78758">
        <ele>573.4</ele>
        <time>2019-08-30T09:30:32Z</time>
      </trkpt>
      <trkpt lat="45.838" lon="4.78757">
        <ele>573.5</ele>
        <time>2019-08-30T09:30:33Z</time>
      </trkpt>
      <trkpt lat="45.83786" lon="4.78746">
        <ele>573.8</ele>
        <time>2019-08-30T09:30:39Z</time>
      </trkpt>
      <trkpt lat="45.8377" lon="4.78739">
        <ele>573.7</ele>
        <time>2019-08-30T09:30:46Z</time>
      </trkpt>
      <trkpt lat="45.83768" lon="4.78738">
        <ele>573.7</ele>
        <time>2019-08-30T09:30:47Z</time>
      </trkpt>
      <trkpt lat="45.83756" lon="4.78733">
        <ele>573.8</ele>
        <time>2019-08-30T09:30:52Z</time>
      </trkpt>
      <trkpt lat="45.83754" lon="4.78731">
        <ele>573.8</ele>
        <time>2019-08-30T09:30:53Z</time>
      </trkpt>
      <trkpt lat="45.83749" lon="4.7872">
        <ele>574</ele>
        <time>2019-08-30T09:30:57Z</time>
      </trkpt>
      <trkpt lat="45.83748" lon="4.78716">
        <ele>574</ele>
        <time>2019-08-30T09:30:58Z</time>
      </trkpt>
      <trkpt lat="45.83747" lon="4.7871">
        <ele>574.2</ele>
        <time>2019-08-30T09:31:00Z</time>
      </trkpt>
      <trkpt lat="45.83745" lon="4.78702">
        <ele>574.3</ele>
        <time>2019-08-30T09:31:03Z</time>
      </trkpt>
      <trkpt lat="45.83744" lon="4.78695">
        <ele>574.5</ele>
        <time>2019-08-30T09:31:05Z</time>
      </trkpt>
      <trkpt lat="45.83735" lon="4.78681">
        <ele>574.1</ele>
        <time>2019-08-30T09:31:11Z</time>
      </trkpt>
      <trkpt lat="45.83733" lon="4.78679">
        <ele>574.1</ele>
        <time>2019-08-30T09:31:12Z</time>
      </trkpt>
      <trkpt lat="45.83717" lon="4.78677">
        <ele>573.8</ele>
        <time>2019-08-30T09:31:18Z</time>
      </trkpt>
      <trkpt lat="45.837" lon="4.78687">
        <ele>573.4</ele>
        <time>2019-08-30T09:31:25Z</time>
      </trkpt>
      <trkpt lat="45.83677" lon="4.78692">
        <ele>572.9</ele>
        <time>2019-08-30T09:31:31Z</time>
      </trkpt>
      <trkpt lat="45.83654" lon="4.78695">
        <ele>572.6</ele>
        <time>2019-08-30T09:31:37Z</time>
      </trkpt>
      <trkpt lat="45.83633" lon="4.78691">
        <ele>572.6</ele>
        <time>2019-08-30T09:31:43Z</time>
      </trkpt>
      <trkpt lat="45.83625" lon="4.78678">
        <ele>572.5</ele>
        <time>2019-08-30T09:31:48Z</time>
      </trkpt>
      <trkpt lat="45.83623" lon="4.78675">
        <ele>572.5</ele>
        <time>2019-08-30T09:31:50Z</time>
      </trkpt>
      <trkpt lat="45.83619" lon="4.78674">
        <ele>571.9</ele>
        <time>2019-08-30T09:31:53Z</time>
      </trkpt>
      <trkpt lat="45.83615" lon="4.78673">
        <ele>571.4</ele>
        <time>2019-08-30T09:31:57Z</time>
      </trkpt>
      <trkpt lat="45.83613" lon="4.78672">
        <ele>571.1</ele>
        <time>2019-08-30T09:31:58Z</time>
      </trkpt>
      <trkpt lat="45.83604" lon="4.78674">
        <ele>570.2</ele>
        <time>2019-08-30T09:32:01Z</time>
      </trkpt>
      <trkpt lat="45.836" lon="4.78676">
        <ele>569.8</ele>
        <time>2019-08-30T09:32:02Z</time>
      </trkpt>
      <trkpt lat="45.83596" lon="4.78677">
        <ele>569.4</ele>
        <time>2019-08-30T09:32:03Z</time>
      </trkpt>
      <trkpt lat="45.83576" lon="4.78683">
        <ele>567</ele>
        <time>2019-08-30T09:32:07Z</time>
      </trkpt>
      <trkpt lat="45.83542" lon="4.78702">
        <ele>563.7</ele>
        <time>2019-08-30T09:32:13Z</time>
      </trkpt>
      <trkpt lat="45.83523" lon="4.78709">
        <ele>562.1</ele>
        <time>2019-08-30T09:32:16Z</time>
      </trkpt>
      <trkpt lat="45.83515" lon="4.78713">
        <ele>561.2</ele>
        <time>2019-08-30T09:32:19Z</time>
      </trkpt>
      <trkpt lat="45.83515" lon="4.78714">
        <ele>561.1</ele>
        <time>2019-08-30T09:32:20Z</time>
      </trkpt>
      <trkpt lat="45.83515" lon="4.78715">
        <ele>561.1</ele>
        <time>2019-08-30T09:32:21Z</time>
      </trkpt>
      <trkpt lat="45.83515" lon="4.78716">
        <ele>561</ele>
        <time>2019-08-30T09:32:22Z</time>
      </trkpt>
      <trkpt lat="45.83516" lon="4.78721">
        <ele>560.7</ele>
        <time>2019-08-30T09:32:49Z</time>
      </trkpt>
      <trkpt lat="45.83514" lon="4.78727">
        <ele>560.2</ele>
        <time>2019-08-30T09:32:51Z</time>
      </trkpt>
      <trkpt lat="45.83514" lon="4.78731">
        <ele>560</ele>
        <time>2019-08-30T09:32:52Z</time>
      </trkpt>
      <trkpt lat="45.83513" lon="4.78753">
        <ele>558.9</ele>
        <time>2019-08-30T09:32:56Z</time>
      </trkpt>
      <trkpt lat="45.83513" lon="4.78768">
        <ele>558.1</ele>
        <time>2019-08-30T09:32:59Z</time>
      </trkpt>
      <trkpt lat="45.83514" lon="4.78776">
        <ele>557.5</ele>
        <time>2019-08-30T09:33:01Z</time>
      </trkpt>
      <trkpt lat="45.83513" lon="4.78796">
        <ele>555.7</ele>
        <time>2019-08-30T09:33:06Z</time>
      </trkpt>
      <trkpt lat="45.83513" lon="4.78803">
        <ele>555</ele>
        <time>2019-08-30T09:33:08Z</time>
      </trkpt>
      <trkpt lat="45.83514" lon="4.78818">
        <ele>553.5</ele>
        <time>2019-08-30T09:33:12Z</time>
      </trkpt>
      <trkpt lat="45.83513" lon="4.78823">
        <ele>553</ele>
        <time>2019-08-30T09:33:13Z</time>
      </trkpt>
      <trkpt lat="45.83513" lon="4.7884">
        <ele>549.8</ele>
        <time>2019-08-30T09:33:16Z</time>
      </trkpt>
      <trkpt lat="45.83513" lon="4.78847">
        <ele>548.9</ele>
        <time>2019-08-30T09:33:17Z</time>
      </trkpt>
      <trkpt lat="45.83512" lon="4.78867">
        <ele>546.1</ele>
        <time>2019-08-30T09:33:20Z</time>
      </trkpt>
      <trkpt lat="45.83508" lon="4.78882">
        <ele>543.8</ele>
        <time>2019-08-30T09:33:23Z</time>
      </trkpt>
      <trkpt lat="45.83506" lon="4.78887">
        <ele>543</ele>
        <time>2019-08-30T09:33:24Z</time>
      </trkpt>
      <trkpt lat="45.83506" lon="4.78892">
        <ele>542.2</ele>
        <time>2019-08-30T09:33:25Z</time>
      </trkpt>
      <trkpt lat="45.83507" lon="4.78902">
        <ele>540.9</ele>
        <time>2019-08-30T09:33:27Z</time>
      </trkpt>
      <trkpt lat="45.83507" lon="4.78907">
        <ele>540.4</ele>
        <time>2019-08-30T09:33:28Z</time>
      </trkpt>
      <trkpt lat="45.83507" lon="4.78911">
        <ele>539.8</ele>
        <time>2019-08-30T09:33:29Z</time>
      </trkpt>
      <trkpt lat="45.83505" lon="4.78914">
        <ele>539.3</ele>
        <time>2019-08-30T09:33:30Z</time>
      </trkpt>
      <trkpt lat="45.83503" lon="4.78921">
        <ele>538.1</ele>
        <time>2019-08-30T09:33:32Z</time>
      </trkpt>
      <trkpt lat="45.83504" lon="4.78924">
        <ele>537.5</ele>
        <time>2019-08-30T09:33:33Z</time>
      </trkpt>
      <trkpt lat="45.83506" lon="4.78933">
        <ele>536.3</ele>
        <time>2019-08-30T09:33:35Z</time>
      </trkpt>
      <trkpt lat="45.83509" lon="4.78942">
        <ele>534.7</ele>
        <time>2019-08-30T09:33:37Z</time>
      </trkpt>
      <trkpt lat="45.8351" lon="4.78945">
        <ele>534.1</ele>
        <time>2019-08-30T09:33:38Z</time>
      </trkpt>
      <trkpt lat="45.83511" lon="4.78948">
        <ele>533.7</ele>
        <time>2019-08-30T09:33:39Z</time>
      </trkpt>
      <trkpt lat="45.83513" lon="4.78957">
        <ele>532.5</ele>
        <time>2019-08-30T09:33:42Z</time>
      </trkpt>
      <trkpt lat="45.83515" lon="4.78962">
        <ele>531.9</ele>
        <time>2019-08-30T09:33:44Z</time>
      </trkpt>
      <trkpt lat="45.83519" lon="4.78964">
        <ele>531.2</ele>
        <time>2019-08-30T09:33:46Z</time>
      </trkpt>
      <trkpt lat="45.8352" lon="4.78964">
        <ele>531</ele>
        <time>2019-08-30T09:33:47Z</time>
      </trkpt>
      <trkpt lat="45.83522" lon="4.78964">
        <ele>530.7</ele>
        <time>2019-08-30T09:33:48Z</time>
      </trkpt>
      <trkpt lat="45.83524" lon="4.78963">
        <ele>530.5</ele>
        <time>2019-08-30T09:33:49Z</time>
      </trkpt>
      <trkpt lat="45.83526" lon="4.78963">
        <ele>530.3</ele>
        <time>2019-08-30T09:33:50Z</time>
      </trkpt>
      <trkpt lat="45.83529" lon="4.7896">
        <ele>531.5</ele>
        <time>2019-08-30T09:33:52Z</time>
      </trkpt>
      <trkpt lat="45.83533" lon="4.78957">
        <ele>532.2</ele>
        <time>2019-08-30T09:33:54Z</time>
      </trkpt>
      <trkpt lat="45.83535" lon="4.78955">
        <ele>532.8</ele>
        <time>2019-08-30T09:33:56Z</time>
      </trkpt>
      <trkpt lat="45.83553" lon="4.7893">
        <ele>537.6</ele>
        <time>2019-08-30T09:39:18Z</time>
      </trkpt>
      <trkpt lat="45.83555" lon="4.78928">
        <ele>538.2</ele>
        <time>2019-08-30T09:39:21Z</time>
      </trkpt>
      <trkpt lat="45.83562" lon="4.7892">
        <ele>539.9</ele>
        <time>2019-08-30T09:39:27Z</time>
      </trkpt>
      <trkpt lat="45.83564" lon="4.78918">
        <ele>540.5</ele>
        <time>2019-08-30T09:39:29Z</time>
      </trkpt>
      <trkpt lat="45.83566" lon="4.78916">
        <ele>541</ele>
        <time>2019-08-30T09:39:31Z</time>
      </trkpt>
      <trkpt lat="45.83617" lon="4.78869">
        <ele>549.6</ele>
        <time>2019-08-30T09:40:20Z</time>
      </trkpt>
      <trkpt lat="45.8362" lon="4.78869">
        <ele>549.8</ele>
        <time>2019-08-30T09:40:22Z</time>
      </trkpt>
      <trkpt lat="45.83628" lon="4.78868">
        <ele>550.2</ele>
        <time>2019-08-30T09:40:27Z</time>
      </trkpt>
      <trkpt lat="45.83632" lon="4.78867">
        <ele>550.5</ele>
        <time>2019-08-30T09:40:30Z</time>
      </trkpt>
      <trkpt lat="45.83639" lon="4.78866">
        <ele>550.9</ele>
        <time>2019-08-30T09:40:34Z</time>
      </trkpt>
      <trkpt lat="45.83647" lon="4.78861">
        <ele>551.6</ele>
        <time>2019-08-30T09:40:40Z</time>
      </trkpt>
      <trkpt lat="45.83662" lon="4.78856">
        <ele>552.9</ele>
        <time>2019-08-30T09:40:48Z</time>
      </trkpt>
      <trkpt lat="45.8367" lon="4.78852">
        <ele>552.9</ele>
        <time>2019-08-30T09:40:52Z</time>
      </trkpt>
      <trkpt lat="45.83674" lon="4.78849">
        <ele>552.5</ele>
        <time>2019-08-30T09:40:55Z</time>
      </trkpt>
      <trkpt lat="45.83672" lon="4.78851">
        <ele>552.3</ele>
        <time>2019-08-30T09:41:08Z</time>
      </trkpt>
      <trkpt lat="45.83673" lon="4.78855">
        <ele>552.1</ele>
        <time>2019-08-30T09:41:10Z</time>
      </trkpt>
      <trkpt lat="45.8368" lon="4.78856">
        <ele>551.3</ele>
        <time>2019-08-30T09:41:14Z</time>
      </trkpt>
      <trkpt lat="45.83686" lon="4.78874">
        <ele>549.1</ele>
        <time>2019-08-30T09:41:18Z</time>
      </trkpt>
      <trkpt lat="45.83688" lon="4.78891">
        <ele>547.4</ele>
        <time>2019-08-30T09:41:21Z</time>
      </trkpt>
      <trkpt lat="45.83689" lon="4.78902">
        <ele>546.3</ele>
        <time>2019-08-30T09:41:23Z</time>
      </trkpt>
      <trkpt lat="45.83691" lon="4.78908">
        <ele>545.8</ele>
        <time>2019-08-30T09:41:24Z</time>
      </trkpt>
      <trkpt lat="45.83693" lon="4.78914">
        <ele>545.3</ele>
        <time>2019-08-30T09:41:25Z</time>
      </trkpt>
      <trkpt lat="45.83699" lon="4.78925">
        <ele>544</ele>
        <time>2019-08-30T09:41:27Z</time>
      </trkpt>
      <trkpt lat="45.83703" lon="4.78929">
        <ele>543.3</ele>
        <time>2019-08-30T09:41:28Z</time>
      </trkpt>
      <trkpt lat="45.83706" lon="4.78931">
        <ele>542.7</ele>
        <time>2019-08-30T09:41:29Z</time>
      </trkpt>
      <trkpt lat="45.83708" lon="4.78934">
        <ele>542.2</ele>
        <time>2019-08-30T09:41:31Z</time>
      </trkpt>
      <trkpt lat="45.83709" lon="4.78936">
        <ele>542</ele>
        <time>2019-08-30T09:41:32Z</time>
      </trkpt>
      <trkpt lat="45.83709" lon="4.78941">
        <ele>541.3</ele>
        <time>2019-08-30T09:41:34Z</time>
      </trkpt>
      <trkpt lat="45.8371" lon="4.78943">
        <ele>541</ele>
        <time>2019-08-30T09:41:35Z</time>
      </trkpt>
      <trkpt lat="45.8371" lon="4.78948">
        <ele>540.3</ele>
        <time>2019-08-30T09:41:36Z</time>
      </trkpt>
      <trkpt lat="45.83709" lon="4.78959">
        <ele>538.7</ele>
        <time>2019-08-30T09:41:38Z</time>
      </trkpt>
      <trkpt lat="45.83708" lon="4.78969">
        <ele>537.1</ele>
        <time>2019-08-30T09:41:40Z</time>
      </trkpt>
      <trkpt lat="45.83707" lon="4.78975">
        <ele>536.1</ele>
        <time>2019-08-30T09:41:41Z</time>
      </trkpt>
      <trkpt lat="45.83706" lon="4.78989">
        <ele>534.2</ele>
        <time>2019-08-30T09:41:43Z</time>
      </trkpt>
      <trkpt lat="45.83703" lon="4.79004">
        <ele>532.2</ele>
        <time>2019-08-30T09:41:45Z</time>
      </trkpt>
      <trkpt lat="45.83702" lon="4.79013">
        <ele>530.9</ele>
        <time>2019-08-30T09:41:46Z</time>
      </trkpt>
      <trkpt lat="45.83701" lon="4.79022">
        <ele>529.7</ele>
        <time>2019-08-30T09:41:47Z</time>
      </trkpt>
      <trkpt lat="45.837" lon="4.7904">
        <ele>527.6</ele>
        <time>2019-08-30T09:41:49Z</time>
      </trkpt>
      <trkpt lat="45.83699" lon="4.79057">
        <ele>526.1</ele>
        <time>2019-08-30T09:41:51Z</time>
      </trkpt>
      <trkpt lat="45.83698" lon="4.79071">
        <ele>524.7</ele>
        <time>2019-08-30T09:41:53Z</time>
      </trkpt>
      <trkpt lat="45.83696" lon="4.79083">
        <ele>522.3</ele>
        <time>2019-08-30T09:41:55Z</time>
      </trkpt>
      <trkpt lat="45.83691" lon="4.7909">
        <ele>522</ele>
        <time>2019-08-30T09:41:57Z</time>
      </trkpt>
      <trkpt lat="45.83688" lon="4.7909">
        <ele>521.8</ele>
        <time>2019-08-30T09:41:58Z</time>
      </trkpt>
      <trkpt lat="45.83684" lon="4.79089">
        <ele>521.6</ele>
        <time>2019-08-30T09:41:59Z</time>
      </trkpt>
      <trkpt lat="45.83676" lon="4.79086">
        <ele>521.2</ele>
        <time>2019-08-30T09:42:01Z</time>
      </trkpt>
      <trkpt lat="45.83672" lon="4.79086">
        <ele>521</ele>
        <time>2019-08-30T09:42:02Z</time>
      </trkpt>
      <trkpt lat="45.83667" lon="4.79087">
        <ele>520.8</ele>
        <time>2019-08-30T09:42:03Z</time>
      </trkpt>
      <trkpt lat="45.83657" lon="4.79089">
        <ele>520.4</ele>
        <time>2019-08-30T09:42:05Z</time>
      </trkpt>
      <trkpt lat="45.83652" lon="4.79091">
        <ele>520.2</ele>
        <time>2019-08-30T09:42:06Z</time>
      </trkpt>
      <trkpt lat="45.83647" lon="4.79094">
        <ele>520</ele>
        <time>2019-08-30T09:42:07Z</time>
      </trkpt>
      <trkpt lat="45.83637" lon="4.791">
        <ele>519.5</ele>
        <time>2019-08-30T09:42:09Z</time>
      </trkpt>
      <trkpt lat="45.83626" lon="4.79107">
        <ele>519</ele>
        <time>2019-08-30T09:42:11Z</time>
      </trkpt>
      <trkpt lat="45.83614" lon="4.79111">
        <ele>518.4</ele>
        <time>2019-08-30T09:42:13Z</time>
      </trkpt>
      <trkpt lat="45.83607" lon="4.79111">
        <ele>518.1</ele>
        <time>2019-08-30T09:42:14Z</time>
      </trkpt>
      <trkpt lat="45.83587" lon="4.79107">
        <ele>517.4</ele>
        <time>2019-08-30T09:42:17Z</time>
      </trkpt>
      <trkpt lat="45.83573" lon="4.79107">
        <ele>517</ele>
        <time>2019-08-30T09:42:19Z</time>
      </trkpt>
      <trkpt lat="45.83567" lon="4.79109">
        <ele>516.9</ele>
        <time>2019-08-30T09:42:20Z</time>
      </trkpt>
      <trkpt lat="45.8356" lon="4.79113">
        <ele>516.7</ele>
        <time>2019-08-30T09:42:21Z</time>
      </trkpt>
      <trkpt lat="45.83548" lon="4.79119">
        <ele>516.3</ele>
        <time>2019-08-30T09:42:23Z</time>
      </trkpt>
      <trkpt lat="45.83529" lon="4.79122">
        <ele>515.9</ele>
        <time>2019-08-30T09:42:26Z</time>
      </trkpt>
      <trkpt lat="45.83523" lon="4.79122">
        <ele>515.7</ele>
        <time>2019-08-30T09:42:27Z</time>
      </trkpt>
      <trkpt lat="45.83501" lon="4.79125">
        <ele>514.4</ele>
        <time>2019-08-30T09:42:31Z</time>
      </trkpt>
      <trkpt lat="45.83495" lon="4.79125">
        <ele>514</ele>
        <time>2019-08-30T09:42:32Z</time>
      </trkpt>
      <trkpt lat="45.8347" lon="4.79131">
        <ele>512.2</ele>
        <time>2019-08-30T09:42:36Z</time>
      </trkpt>
      <trkpt lat="45.8345" lon="4.79137">
        <ele>511.1</ele>
        <time>2019-08-30T09:42:39Z</time>
      </trkpt>
      <trkpt lat="45.8343" lon="4.79146">
        <ele>509.8</ele>
        <time>2019-08-30T09:42:42Z</time>
      </trkpt>
      <trkpt lat="45.83409" lon="4.79155">
        <ele>508.1</ele>
        <time>2019-08-30T09:42:45Z</time>
      </trkpt>
      <trkpt lat="45.83401" lon="4.79158">
        <ele>507.5</ele>
        <time>2019-08-30T09:42:46Z</time>
      </trkpt>
      <trkpt lat="45.83379" lon="4.7917">
        <ele>505.2</ele>
        <time>2019-08-30T09:42:49Z</time>
      </trkpt>
      <trkpt lat="45.83371" lon="4.79176">
        <ele>504.3</ele>
        <time>2019-08-30T09:42:50Z</time>
      </trkpt>
      <trkpt lat="45.83363" lon="4.79181">
        <ele>503.3</ele>
        <time>2019-08-30T09:42:51Z</time>
      </trkpt>
      <trkpt lat="45.83348" lon="4.79195">
        <ele>501.4</ele>
        <time>2019-08-30T09:42:53Z</time>
      </trkpt>
      <trkpt lat="45.83337" lon="4.79216">
        <ele>500.4</ele>
        <time>2019-08-30T09:42:55Z</time>
      </trkpt>
      <trkpt lat="45.83323" lon="4.79231">
        <ele>499.4</ele>
        <time>2019-08-30T09:42:57Z</time>
      </trkpt>
      <trkpt lat="45.83315" lon="4.79238">
        <ele>498.7</ele>
        <time>2019-08-30T09:42:58Z</time>
      </trkpt>
      <trkpt lat="45.83306" lon="4.7924">
        <ele>497.9</ele>
        <time>2019-08-30T09:42:59Z</time>
      </trkpt>
      <trkpt lat="45.83287" lon="4.79243">
        <ele>496.3</ele>
        <time>2019-08-30T09:43:01Z</time>
      </trkpt>
      <trkpt lat="45.83279" lon="4.79244">
        <ele>495.5</ele>
        <time>2019-08-30T09:43:02Z</time>
      </trkpt>
      <trkpt lat="45.83254" lon="4.79249">
        <ele>493.1</ele>
        <time>2019-08-30T09:43:05Z</time>
      </trkpt>
      <trkpt lat="45.83246" lon="4.7925">
        <ele>492.3</ele>
        <time>2019-08-30T09:43:06Z</time>
      </trkpt>
      <trkpt lat="45.83239" lon="4.79253">
        <ele>491.5</ele>
        <time>2019-08-30T09:43:07Z</time>
      </trkpt>
      <trkpt lat="45.83218" lon="4.79268">
        <ele>489.3</ele>
        <time>2019-08-30T09:43:10Z</time>
      </trkpt>
      <trkpt lat="45.83211" lon="4.79273">
        <ele>488.5</ele>
        <time>2019-08-30T09:43:11Z</time>
      </trkpt>
      <trkpt lat="45.83185" lon="4.79285">
        <ele>485.3</ele>
        <time>2019-08-30T09:43:14Z</time>
      </trkpt>
      <trkpt lat="45.8317" lon="4.79288">
        <ele>484.1</ele>
        <time>2019-08-30T09:43:16Z</time>
      </trkpt>
      <trkpt lat="45.83165" lon="4.79289">
        <ele>483.8</ele>
        <time>2019-08-30T09:43:17Z</time>
      </trkpt>
      <trkpt lat="45.83161" lon="4.79289">
        <ele>483.6</ele>
        <time>2019-08-30T09:43:18Z</time>
      </trkpt>
      <trkpt lat="45.83159" lon="4.79291">
        <ele>483.5</ele>
        <time>2019-08-30T09:43:19Z</time>
      </trkpt>
      <trkpt lat="45.83158" lon="4.79296">
        <ele>483.3</ele>
        <time>2019-08-30T09:43:20Z</time>
      </trkpt>
      <trkpt lat="45.83159" lon="4.79298">
        <ele>483.2</ele>
        <time>2019-08-30T09:43:21Z</time>
      </trkpt>
      <trkpt lat="45.83165" lon="4.79299">
        <ele>483.4</ele>
        <time>2019-08-30T09:43:23Z</time>
      </trkpt>
      <trkpt lat="45.83169" lon="4.79299">
        <ele>483.5</ele>
        <time>2019-08-30T09:43:24Z</time>
      </trkpt>
      <trkpt lat="45.83189" lon="4.79305">
        <ele>483.8</ele>
        <time>2019-08-30T09:43:29Z</time>
      </trkpt>
      <trkpt lat="45.83201" lon="4.79309">
        <ele>484.1</ele>
        <time>2019-08-30T09:43:32Z</time>
      </trkpt>
      <trkpt lat="45.83232" lon="4.79318">
        <ele>484.6</ele>
        <time>2019-08-30T09:43:39Z</time>
      </trkpt>
      <trkpt lat="45.83237" lon="4.79319">
        <ele>484.7</ele>
        <time>2019-08-30T09:43:40Z</time>
      </trkpt>
      <trkpt lat="45.83257" lon="4.79332">
        <ele>483.7</ele>
        <time>2019-08-30T09:43:46Z</time>
      </trkpt>
      <trkpt lat="45.8326" lon="4.79337">
        <ele>483.2</ele>
        <time>2019-08-30T09:43:47Z</time>
      </trkpt>
      <trkpt lat="45.8327" lon="4.79351">
        <ele>482.3</ele>
        <time>2019-08-30T09:43:51Z</time>
      </trkpt>
      <trkpt lat="45.83283" lon="4.79365">
        <ele>481.2</ele>
        <time>2019-08-30T09:43:56Z</time>
      </trkpt>
      <trkpt lat="45.83291" lon="4.79388">
        <ele>479.1</ele>
        <time>2019-08-30T09:44:01Z</time>
      </trkpt>
      <trkpt lat="45.83305" lon="4.79398">
        <ele>478.4</ele>
        <time>2019-08-30T09:44:05Z</time>
      </trkpt>
      <trkpt lat="45.83309" lon="4.794">
        <ele>478.3</ele>
        <time>2019-08-30T09:44:06Z</time>
      </trkpt>
      <trkpt lat="45.83332" lon="4.79412">
        <ele>478</ele>
        <time>2019-08-30T09:44:12Z</time>
      </trkpt>
      <trkpt lat="45.83348" lon="4.79427">
        <ele>477.4</ele>
        <time>2019-08-30T09:44:15Z</time>
      </trkpt>
      <trkpt lat="45.83353" lon="4.79434">
        <ele>477.1</ele>
        <time>2019-08-30T09:44:16Z</time>
      </trkpt>
      <trkpt lat="45.83359" lon="4.79441">
        <ele>476.5</ele>
        <time>2019-08-30T09:44:17Z</time>
      </trkpt>
      <trkpt lat="45.83367" lon="4.79456">
        <ele>475.4</ele>
        <time>2019-08-30T09:44:19Z</time>
      </trkpt>
      <trkpt lat="45.83368" lon="4.79463">
        <ele>474.9</ele>
        <time>2019-08-30T09:44:20Z</time>
      </trkpt>
      <trkpt lat="45.83367" lon="4.79488">
        <ele>473.4</ele>
        <time>2019-08-30T09:44:23Z</time>
      </trkpt>
      <trkpt lat="45.83374" lon="4.79506">
        <ele>472.7</ele>
        <time>2019-08-30T09:44:26Z</time>
      </trkpt>
      <trkpt lat="45.83378" lon="4.79511">
        <ele>472.4</ele>
        <time>2019-08-30T09:44:27Z</time>
      </trkpt>
      <trkpt lat="45.83384" lon="4.7952">
        <ele>471.8</ele>
        <time>2019-08-30T09:44:29Z</time>
      </trkpt>
      <trkpt lat="45.83385" lon="4.79524">
        <ele>471.6</ele>
        <time>2019-08-30T09:44:30Z</time>
      </trkpt>
      <trkpt lat="45.83384" lon="4.79527">
        <ele>471.4</ele>
        <time>2019-08-30T09:44:31Z</time>
      </trkpt>
      <trkpt lat="45.8338" lon="4.79529">
        <ele>471.1</ele>
        <time>2019-08-30T09:44:32Z</time>
      </trkpt>
      <trkpt lat="45.83373" lon="4.79529">
        <ele>471</ele>
        <time>2019-08-30T09:44:34Z</time>
      </trkpt>
      <trkpt lat="45.83369" lon="4.79527">
        <ele>471</ele>
        <time>2019-08-30T09:44:35Z</time>
      </trkpt>
      <trkpt lat="45.83362" lon="4.79525">
        <ele>470.9</ele>
        <time>2019-08-30T09:44:37Z</time>
      </trkpt>
      <trkpt lat="45.83349" lon="4.79518">
        <ele>470.7</ele>
        <time>2019-08-30T09:44:40Z</time>
      </trkpt>
      <trkpt lat="45.83338" lon="4.79513">
        <ele>470.6</ele>
        <time>2019-08-30T09:44:42Z</time>
      </trkpt>
      <trkpt lat="45.8332" lon="4.79509">
        <ele>470.3</ele>
        <time>2019-08-30T09:44:45Z</time>
      </trkpt>
      <trkpt lat="45.83302" lon="4.79507">
        <ele>470</ele>
        <time>2019-08-30T09:44:48Z</time>
      </trkpt>
      <trkpt lat="45.83296" lon="4.79505">
        <ele>469.9</ele>
        <time>2019-08-30T09:44:49Z</time>
      </trkpt>
      <trkpt lat="45.8329" lon="4.79502">
        <ele>469.7</ele>
        <time>2019-08-30T09:44:50Z</time>
      </trkpt>
      <trkpt lat="45.83283" lon="4.79499">
        <ele>469.6</ele>
        <time>2019-08-30T09:44:51Z</time>
      </trkpt>
      <trkpt lat="45.83258" lon="4.79487">
        <ele>468.8</ele>
        <time>2019-08-30T09:44:55Z</time>
      </trkpt>
      <trkpt lat="45.83251" lon="4.79485">
        <ele>468.6</ele>
        <time>2019-08-30T09:44:56Z</time>
      </trkpt>
      <trkpt lat="45.83245" lon="4.79484">
        <ele>468.4</ele>
        <time>2019-08-30T09:44:57Z</time>
      </trkpt>
      <trkpt lat="45.83226" lon="4.79476">
        <ele>468.3</ele>
        <time>2019-08-30T09:45:00Z</time>
      </trkpt>
      <trkpt lat="45.8322" lon="4.79474">
        <ele>468.4</ele>
        <time>2019-08-30T09:45:01Z</time>
      </trkpt>
      <trkpt lat="45.83197" lon="4.79466">
        <ele>468.6</ele>
        <time>2019-08-30T09:45:05Z</time>
      </trkpt>
      <trkpt lat="45.83193" lon="4.79463">
        <ele>468.6</ele>
        <time>2019-08-30T09:45:06Z</time>
      </trkpt>
      <trkpt lat="45.83191" lon="4.7946">
        <ele>468.5</ele>
        <time>2019-08-30T09:45:07Z</time>
      </trkpt>
      <trkpt lat="45.83189" lon="4.79458">
        <ele>468.4</ele>
        <time>2019-08-30T09:45:08Z</time>
      </trkpt>
      <trkpt lat="45.8318" lon="4.79455">
        <ele>468.3</ele>
        <time>2019-08-30T09:45:12Z</time>
      </trkpt>
      <trkpt lat="45.83177" lon="4.79452">
        <ele>468.2</ele>
        <time>2019-08-30T09:45:13Z</time>
      </trkpt>
      <trkpt lat="45.83168" lon="4.79448">
        <ele>467.6</ele>
        <time>2019-08-30T09:45:15Z</time>
      </trkpt>
      <trkpt lat="45.83163" lon="4.79447">
        <ele>467.3</ele>
        <time>2019-08-30T09:45:16Z</time>
      </trkpt>
      <trkpt lat="45.8314" lon="4.79443">
        <ele>466.2</ele>
        <time>2019-08-30T09:45:20Z</time>
      </trkpt>
      <trkpt lat="45.83131" lon="4.79443">
        <ele>465.7</ele>
        <time>2019-08-30T09:45:22Z</time>
      </trkpt>
      <trkpt lat="45.83125" lon="4.79458">
        <ele>464.4</ele>
        <time>2019-08-30T09:45:24Z</time>
      </trkpt>
      <trkpt lat="45.83109" lon="4.7949">
        <ele>460.7</ele>
        <time>2019-08-30T09:45:28Z</time>
      </trkpt>
      <trkpt lat="45.83081" lon="4.79502">
        <ele>458</ele>
        <time>2019-08-30T09:45:32Z</time>
      </trkpt>
      <trkpt lat="45.83063" lon="4.79503">
        <ele>456</ele>
        <time>2019-08-30T09:45:34Z</time>
      </trkpt>
      <trkpt lat="45.83026" lon="4.79508">
        <ele>452.9</ele>
        <time>2019-08-30T09:45:38Z</time>
      </trkpt>
      <trkpt lat="45.83007" lon="4.79514">
        <ele>451.3</ele>
        <time>2019-08-30T09:45:40Z</time>
      </trkpt>
      <trkpt lat="45.82986" lon="4.79522">
        <ele>449.7</ele>
        <time>2019-08-30T09:45:42Z</time>
      </trkpt>
      <trkpt lat="45.82975" lon="4.79526">
        <ele>448.8</ele>
        <time>2019-08-30T09:45:43Z</time>
      </trkpt>
      <trkpt lat="45.82964" lon="4.7953">
        <ele>447.8</ele>
        <time>2019-08-30T09:45:44Z</time>
      </trkpt>
      <trkpt lat="45.82952" lon="4.79536">
        <ele>447</ele>
        <time>2019-08-30T09:45:45Z</time>
      </trkpt>
      <trkpt lat="45.82941" lon="4.79541">
        <ele>446.3</ele>
        <time>2019-08-30T09:45:46Z</time>
      </trkpt>
      <trkpt lat="45.82929" lon="4.79547">
        <ele>445.6</ele>
        <time>2019-08-30T09:45:47Z</time>
      </trkpt>
      <trkpt lat="45.82918" lon="4.79553">
        <ele>444.7</ele>
        <time>2019-08-30T09:45:48Z</time>
      </trkpt>
      <trkpt lat="45.82906" lon="4.79559">
        <ele>443.9</ele>
        <time>2019-08-30T09:45:49Z</time>
      </trkpt>
      <trkpt lat="45.82894" lon="4.79565">
        <ele>442.9</ele>
        <time>2019-08-30T09:45:50Z</time>
      </trkpt>
      <trkpt lat="45.82871" lon="4.7958">
        <ele>441.1</ele>
        <time>2019-08-30T09:45:52Z</time>
      </trkpt>
      <trkpt lat="45.82859" lon="4.79587">
        <ele>440.1</ele>
        <time>2019-08-30T09:45:53Z</time>
      </trkpt>
      <trkpt lat="45.82846" lon="4.79594">
        <ele>439.7</ele>
        <time>2019-08-30T09:45:54Z</time>
      </trkpt>
      <trkpt lat="45.82834" lon="4.79601">
        <ele>439.2</ele>
        <time>2019-08-30T09:45:55Z</time>
      </trkpt>
      <trkpt lat="45.82821" lon="4.79608">
        <ele>438.7</ele>
        <time>2019-08-30T09:45:56Z</time>
      </trkpt>
      <trkpt lat="45.82808" lon="4.79613">
        <ele>438.1</ele>
        <time>2019-08-30T09:45:57Z</time>
      </trkpt>
      <trkpt lat="45.82794" lon="4.79618">
        <ele>437.4</ele>
        <time>2019-08-30T09:45:58Z</time>
      </trkpt>
      <trkpt lat="45.82781" lon="4.79622">
        <ele>436.6</ele>
        <time>2019-08-30T09:45:59Z</time>
      </trkpt>
      <trkpt lat="45.82767" lon="4.79627">
        <ele>436</ele>
        <time>2019-08-30T09:46:00Z</time>
      </trkpt>
      <trkpt lat="45.82754" lon="4.79634">
        <ele>434.6</ele>
        <time>2019-08-30T09:46:01Z</time>
      </trkpt>
      <trkpt lat="45.82742" lon="4.79641">
        <ele>432.4</ele>
        <time>2019-08-30T09:46:02Z</time>
      </trkpt>
      <trkpt lat="45.8273" lon="4.79647">
        <ele>430.6</ele>
        <time>2019-08-30T09:46:03Z</time>
      </trkpt>
      <trkpt lat="45.82719" lon="4.79653">
        <ele>428.7</ele>
        <time>2019-08-30T09:46:04Z</time>
      </trkpt>
      <trkpt lat="45.82707" lon="4.79658">
        <ele>427.2</ele>
        <time>2019-08-30T09:46:05Z</time>
      </trkpt>
      <trkpt lat="45.82694" lon="4.79664">
        <ele>425.5</ele>
        <time>2019-08-30T09:46:06Z</time>
      </trkpt>
      <trkpt lat="45.82681" lon="4.79669">
        <ele>423.9</ele>
        <time>2019-08-30T09:46:07Z</time>
      </trkpt>
      <trkpt lat="45.8267" lon="4.79674">
        <ele>422.2</ele>
        <time>2019-08-30T09:46:08Z</time>
      </trkpt>
      <trkpt lat="45.82659" lon="4.79679">
        <ele>420.3</ele>
        <time>2019-08-30T09:46:09Z</time>
      </trkpt>
      <trkpt lat="45.8265" lon="4.79685">
        <ele>418.9</ele>
        <time>2019-08-30T09:46:10Z</time>
      </trkpt>
      <trkpt lat="45.82642" lon="4.7969">
        <ele>417.7</ele>
        <time>2019-08-30T09:46:11Z</time>
      </trkpt>
      <trkpt lat="45.82636" lon="4.79694">
        <ele>416.8</ele>
        <time>2019-08-30T09:46:12Z</time>
      </trkpt>
      <trkpt lat="45.82633" lon="4.79698">
        <ele>416.2</ele>
        <time>2019-08-30T09:46:13Z</time>
      </trkpt>
      <trkpt lat="45.82631" lon="4.79704">
        <ele>415.2</ele>
        <time>2019-08-30T09:46:14Z</time>
      </trkpt>
      <trkpt lat="45.82628" lon="4.79709">
        <ele>414.5</ele>
        <time>2019-08-30T09:46:16Z</time>
      </trkpt>
      <trkpt lat="45.82628" lon="4.79715">
        <ele>413.9</ele>
        <time>2019-08-30T09:46:21Z</time>
      </trkpt>
      <trkpt lat="45.82626" lon="4.79718">
        <ele>413.5</ele>
        <time>2019-08-30T09:46:23Z</time>
      </trkpt>
      <trkpt lat="45.82625" lon="4.79721">
        <ele>413.4</ele>
        <time>2019-08-30T09:46:24Z</time>
      </trkpt>
      <trkpt lat="45.82623" lon="4.79726">
        <ele>413.1</ele>
        <time>2019-08-30T09:46:26Z</time>
      </trkpt>
      <trkpt lat="45.82622" lon="4.79734">
        <ele>412.9</ele>
        <time>2019-08-30T09:46:28Z</time>
      </trkpt>
      <trkpt lat="45.82621" lon="4.79739">
        <ele>412.7</ele>
        <time>2019-08-30T09:46:29Z</time>
      </trkpt>
      <trkpt lat="45.8262" lon="4.79744">
        <ele>412.7</ele>
        <time>2019-08-30T09:46:30Z</time>
      </trkpt>
      <trkpt lat="45.82618" lon="4.79757">
        <ele>412.5</ele>
        <time>2019-08-30T09:46:33Z</time>
      </trkpt>
      <trkpt lat="45.82618" lon="4.79773">
        <ele>412.2</ele>
        <time>2019-08-30T09:46:37Z</time>
      </trkpt>
      <trkpt lat="45.82615" lon="4.79789">
        <ele>411.9</ele>
        <time>2019-08-30T09:46:41Z</time>
      </trkpt>
      <trkpt lat="45.82614" lon="4.79801">
        <ele>411.8</ele>
        <time>2019-08-30T09:46:44Z</time>
      </trkpt>
      <trkpt lat="45.82613" lon="4.79806">
        <ele>411.8</ele>
        <time>2019-08-30T09:46:45Z</time>
      </trkpt>
      <trkpt lat="45.82608" lon="4.79834">
        <ele>411.7</ele>
        <time>2019-08-30T09:46:50Z</time>
      </trkpt>
      <trkpt lat="45.82602" lon="4.79861">
        <ele>411.6</ele>
        <time>2019-08-30T09:46:54Z</time>
      </trkpt>
      <trkpt lat="45.82599" lon="4.79874">
        <ele>411.5</ele>
        <time>2019-08-30T09:46:56Z</time>
      </trkpt>
      <trkpt lat="45.82593" lon="4.79899">
        <ele>411.4</ele>
        <time>2019-08-30T09:47:00Z</time>
      </trkpt>
      <trkpt lat="45.8259" lon="4.79921">
        <ele>411.1</ele>
        <time>2019-08-30T09:47:03Z</time>
      </trkpt>
      <trkpt lat="45.82584" lon="4.79961">
        <ele>410.6</ele>
        <time>2019-08-30T09:47:09Z</time>
      </trkpt>
      <trkpt lat="45.82581" lon="4.79967">
        <ele>410.6</ele>
        <time>2019-08-30T09:47:10Z</time>
      </trkpt>
      <trkpt lat="45.82573" lon="4.79986">
        <ele>410.6</ele>
        <time>2019-08-30T09:47:13Z</time>
      </trkpt>
      <trkpt lat="45.82569" lon="4.8">
        <ele>410.6</ele>
        <time>2019-08-30T09:47:15Z</time>
      </trkpt>
      <trkpt lat="45.82566" lon="4.80028">
        <ele>410.7</ele>
        <time>2019-08-30T09:47:19Z</time>
      </trkpt>
      <trkpt lat="45.82565" lon="4.80034">
        <ele>410.7</ele>
        <time>2019-08-30T09:47:20Z</time>
      </trkpt>
      <trkpt lat="45.82558" lon="4.80064">
        <ele>410.7</ele>
        <time>2019-08-30T09:47:25Z</time>
      </trkpt>
      <trkpt lat="45.82556" lon="4.80069">
        <ele>410.7</ele>
        <time>2019-08-30T09:47:26Z</time>
      </trkpt>
      <trkpt lat="45.82553" lon="4.80074">
        <ele>410.6</ele>
        <time>2019-08-30T09:47:27Z</time>
      </trkpt>
      <trkpt lat="45.82542" lon="4.8009">
        <ele>410.3</ele>
        <time>2019-08-30T09:47:30Z</time>
      </trkpt>
      <trkpt lat="45.82537" lon="4.80097">
        <ele>410</ele>
        <time>2019-08-30T09:47:31Z</time>
      </trkpt>
      <trkpt lat="45.82532" lon="4.80104">
        <ele>409.9</ele>
        <time>2019-08-30T09:47:32Z</time>
      </trkpt>
      <trkpt lat="45.82505" lon="4.8014">
        <ele>408.8</ele>
        <time>2019-08-30T09:47:37Z</time>
      </trkpt>
      <trkpt lat="45.82488" lon="4.80163">
        <ele>408</ele>
        <time>2019-08-30T09:47:40Z</time>
      </trkpt>
      <trkpt lat="45.82469" lon="4.80186">
        <ele>407.1</ele>
        <time>2019-08-30T09:47:43Z</time>
      </trkpt>
      <trkpt lat="45.82456" lon="4.80202">
        <ele>407</ele>
        <time>2019-08-30T09:47:45Z</time>
      </trkpt>
      <trkpt lat="45.82452" lon="4.80211">
        <ele>407</ele>
        <time>2019-08-30T09:47:46Z</time>
      </trkpt>
      <trkpt lat="45.82447" lon="4.8023">
        <ele>407.1</ele>
        <time>2019-08-30T09:47:48Z</time>
      </trkpt>
      <trkpt lat="45.82444" lon="4.80243">
        <ele>407.2</ele>
        <time>2019-08-30T09:47:50Z</time>
      </trkpt>
      <trkpt lat="45.82443" lon="4.80247">
        <ele>407.3</ele>
        <time>2019-08-30T09:47:51Z</time>
      </trkpt>
      <trkpt lat="45.8244" lon="4.80256">
        <ele>407.5</ele>
        <time>2019-08-30T09:47:55Z</time>
      </trkpt>
      <trkpt lat="45.82436" lon="4.80268">
        <ele>407.9</ele>
        <time>2019-08-30T09:48:01Z</time>
      </trkpt>
      <trkpt lat="45.82434" lon="4.80278">
        <ele>408.4</ele>
        <time>2019-08-30T09:48:06Z</time>
      </trkpt>
      <trkpt lat="45.82433" lon="4.80282">
        <ele>408.5</ele>
        <time>2019-08-30T09:48:08Z</time>
      </trkpt>
      <trkpt lat="45.82431" lon="4.80291">
        <ele>409</ele>
        <time>2019-08-30T09:48:12Z</time>
      </trkpt>
      <trkpt lat="45.82428" lon="4.80299">
        <ele>409.4</ele>
        <time>2019-08-30T09:48:16Z</time>
      </trkpt>
      <trkpt lat="45.82427" lon="4.803">
        <ele>409.5</ele>
        <time>2019-08-30T09:48:17Z</time>
      </trkpt>
      <trkpt lat="45.82425" lon="4.80306">
        <ele>409.9</ele>
        <time>2019-08-30T09:48:20Z</time>
      </trkpt>
      <trkpt lat="45.82424" lon="4.80311">
        <ele>410.2</ele>
        <time>2019-08-30T09:48:23Z</time>
      </trkpt>
      <trkpt lat="45.82423" lon="4.80313">
        <ele>410.3</ele>
        <time>2019-08-30T09:48:24Z</time>
      </trkpt>
      <trkpt lat="45.82422" lon="4.80317">
        <ele>410.6</ele>
        <time>2019-08-30T09:48:26Z</time>
      </trkpt>
      <trkpt lat="45.8242" lon="4.80322">
        <ele>410.9</ele>
        <time>2019-08-30T09:48:29Z</time>
      </trkpt>
      <trkpt lat="45.82419" lon="4.80327">
        <ele>411.2</ele>
        <time>2019-08-30T09:48:31Z</time>
      </trkpt>
      <trkpt lat="45.82418" lon="4.80331">
        <ele>411.5</ele>
        <time>2019-08-30T09:48:33Z</time>
      </trkpt>
      <trkpt lat="45.82416" lon="4.80339">
        <ele>412.1</ele>
        <time>2019-08-30T09:48:37Z</time>
      </trkpt>
      <trkpt lat="45.82414" lon="4.80343">
        <ele>412.3</ele>
        <time>2019-08-30T09:48:39Z</time>
      </trkpt>
      <trkpt lat="45.82413" lon="4.80347">
        <ele>412.7</ele>
        <time>2019-08-30T09:48:41Z</time>
      </trkpt>
      <trkpt lat="45.82411" lon="4.80359">
        <ele>413.6</ele>
        <time>2019-08-30T09:48:46Z</time>
      </trkpt>
      <trkpt lat="45.82409" lon="4.8037">
        <ele>414.6</ele>
        <time>2019-08-30T09:48:51Z</time>
      </trkpt>
      <trkpt lat="45.82408" lon="4.80374">
        <ele>415.1</ele>
        <time>2019-08-30T09:48:53Z</time>
      </trkpt>
      <trkpt lat="45.82407" lon="4.80385">
        <ele>416.3</ele>
        <time>2019-08-30T09:48:58Z</time>
      </trkpt>
      <trkpt lat="45.82406" lon="4.80389">
        <ele>416.2</ele>
        <time>2019-08-30T09:49:00Z</time>
      </trkpt>
      <trkpt lat="45.82403" lon="4.80396">
        <ele>416.1</ele>
        <time>2019-08-30T09:49:03Z</time>
      </trkpt>
      <trkpt lat="45.824" lon="4.80406">
        <ele>416</ele>
        <time>2019-08-30T09:49:06Z</time>
      </trkpt>
      <trkpt lat="45.82396" lon="4.80419">
        <ele>416</ele>
        <time>2019-08-30T09:49:09Z</time>
      </trkpt>
      <trkpt lat="45.82394" lon="4.8043">
        <ele>416.1</ele>
        <time>2019-08-30T09:49:11Z</time>
      </trkpt>
      <trkpt lat="45.8239" lon="4.80454">
        <ele>415.1</ele>
        <time>2019-08-30T09:49:16Z</time>
      </trkpt>
      <trkpt lat="45.82383" lon="4.80484">
        <ele>412.4</ele>
        <time>2019-08-30T09:49:22Z</time>
      </trkpt>
      <trkpt lat="45.82378" lon="4.80503">
        <ele>410.4</ele>
        <time>2019-08-30T09:49:26Z</time>
      </trkpt>
      <trkpt lat="45.82375" lon="4.80522">
        <ele>408.2</ele>
        <time>2019-08-30T09:49:29Z</time>
      </trkpt>
      <trkpt lat="45.8237" lon="4.80539">
        <ele>405.8</ele>
        <time>2019-08-30T09:49:32Z</time>
      </trkpt>
      <trkpt lat="45.82368" lon="4.8055">
        <ele>404.5</ele>
        <time>2019-08-30T09:49:34Z</time>
      </trkpt>
      <trkpt lat="45.82366" lon="4.80555">
        <ele>403.8</ele>
        <time>2019-08-30T09:49:35Z</time>
      </trkpt>
      <trkpt lat="45.82363" lon="4.80566">
        <ele>402.5</ele>
        <time>2019-08-30T09:49:37Z</time>
      </trkpt>
      <trkpt lat="45.82361" lon="4.80582">
        <ele>400.8</ele>
        <time>2019-08-30T09:49:40Z</time>
      </trkpt>
      <trkpt lat="45.82361" lon="4.80586">
        <ele>400.2</ele>
        <time>2019-08-30T09:49:41Z</time>
      </trkpt>
      <trkpt lat="45.82361" lon="4.80591">
        <ele>399.6</ele>
        <time>2019-08-30T09:49:42Z</time>
      </trkpt>
      <trkpt lat="45.82361" lon="4.80604">
        <ele>398</ele>
        <time>2019-08-30T09:49:45Z</time>
      </trkpt>
      <trkpt lat="45.82359" lon="4.80613">
        <ele>396.8</ele>
        <time>2019-08-30T09:49:47Z</time>
      </trkpt>
      <trkpt lat="45.82358" lon="4.80624">
        <ele>395.8</ele>
        <time>2019-08-30T09:49:49Z</time>
      </trkpt>
      <trkpt lat="45.82357" lon="4.80633">
        <ele>394.8</ele>
        <time>2019-08-30T09:49:51Z</time>
      </trkpt>
      <trkpt lat="45.82356" lon="4.80641">
        <ele>393.9</ele>
        <time>2019-08-30T09:49:53Z</time>
      </trkpt>
      <trkpt lat="45.82354" lon="4.8065">
        <ele>392.7</ele>
        <time>2019-08-30T09:49:55Z</time>
      </trkpt>
      <trkpt lat="45.82352" lon="4.80658">
        <ele>391.6</ele>
        <time>2019-08-30T09:49:57Z</time>
      </trkpt>
      <trkpt lat="45.8235" lon="4.80665">
        <ele>390.6</ele>
        <time>2019-08-30T09:49:59Z</time>
      </trkpt>
      <trkpt lat="45.8235" lon="4.80669">
        <ele>390.1</ele>
        <time>2019-08-30T09:50:01Z</time>
      </trkpt>
      <trkpt lat="45.82352" lon="4.80674">
        <ele>390.2</ele>
        <time>2019-08-30T09:50:03Z</time>
      </trkpt>
      <trkpt lat="45.82357" lon="4.8068">
        <ele>390.5</ele>
        <time>2019-08-30T09:50:05Z</time>
      </trkpt>
      <trkpt lat="45.82362" lon="4.80687">
        <ele>390.8</ele>
        <time>2019-08-30T09:50:07Z</time>
      </trkpt>
      <trkpt lat="45.82368" lon="4.80695">
        <ele>391.2</ele>
        <time>2019-08-30T09:50:10Z</time>
      </trkpt>
      <trkpt lat="45.82371" lon="4.80695">
        <ele>391.4</ele>
        <time>2019-08-30T09:50:12Z</time>
      </trkpt>
      <trkpt lat="45.82374" lon="4.80695">
        <ele>391.5</ele>
        <time>2019-08-30T09:50:14Z</time>
      </trkpt>
      <trkpt lat="45.82375" lon="4.80693">
        <ele>391.5</ele>
        <time>2019-08-30T09:50:15Z</time>
      </trkpt>
      <trkpt lat="45.82379" lon="4.8069">
        <ele>391.7</ele>
        <time>2019-08-30T09:50:18Z</time>
      </trkpt>
      <trkpt lat="45.82386" lon="4.80682">
        <ele>394.9</ele>
        <time>2019-08-30T09:50:25Z</time>
      </trkpt>
      <trkpt lat="45.82428" lon="4.80645">
        <ele>401.4</ele>
        <time>2019-08-30T09:51:15Z</time>
      </trkpt>
      <trkpt lat="45.82427" lon="4.80647">
        <ele>401.7</ele>
        <time>2019-08-30T09:51:16Z</time>
      </trkpt>
      <trkpt lat="45.82426" lon="4.80651">
        <ele>402.2</ele>
        <time>2019-08-30T09:51:18Z</time>
      </trkpt>
      <trkpt lat="45.82426" lon="4.80657">
        <ele>402.8</ele>
        <time>2019-08-30T09:51:21Z</time>
      </trkpt>
      <trkpt lat="45.82428" lon="4.80662">
        <ele>403.5</ele>
        <time>2019-08-30T09:51:24Z</time>
      </trkpt>
      <trkpt lat="45.82513" lon="4.80652">
        <ele>415.6</ele>
        <time>2019-08-30T09:52:50Z</time>
      </trkpt>
      <trkpt lat="45.82515" lon="4.80651">
        <ele>415.8</ele>
        <time>2019-08-30T09:52:52Z</time>
      </trkpt>
      <trkpt lat="45.82522" lon="4.80648">
        <ele>416.6</ele>
        <time>2019-08-30T09:52:58Z</time>
      </trkpt>
      <trkpt lat="45.82525" lon="4.80647">
        <ele>416.9</ele>
        <time>2019-08-30T09:53:01Z</time>
      </trkpt>
      <trkpt lat="45.82529" lon="4.80644">
        <ele>417.5</ele>
        <time>2019-08-30T09:53:05Z</time>
      </trkpt>
      <trkpt lat="45.82534" lon="4.8064">
        <ele>418.2</ele>
        <time>2019-08-30T09:53:09Z</time>
      </trkpt>
      <trkpt lat="45.82538" lon="4.8064">
        <ele>418.8</ele>
        <time>2019-08-30T09:53:13Z</time>
      </trkpt>
      <trkpt lat="45.8254" lon="4.80639">
        <ele>419</ele>
        <time>2019-08-30T09:53:15Z</time>
      </trkpt>
      <trkpt lat="45.82542" lon="4.80639">
        <ele>419.2</ele>
        <time>2019-08-30T09:53:16Z</time>
      </trkpt>
      <trkpt lat="45.82548" lon="4.80635">
        <ele>420.1</ele>
        <time>2019-08-30T09:53:22Z</time>
      </trkpt>
      <trkpt lat="45.82549" lon="4.80635">
        <ele>420.3</ele>
        <time>2019-08-30T09:53:23Z</time>
      </trkpt>
      <trkpt lat="45.82551" lon="4.80634">
        <ele>420.6</ele>
        <time>2019-08-30T09:53:25Z</time>
      </trkpt>
      <trkpt lat="45.82555" lon="4.80631">
        <ele>421.2</ele>
        <time>2019-08-30T09:53:29Z</time>
      </trkpt>
      <trkpt lat="45.82556" lon="4.80631">
        <ele>421.3</ele>
        <time>2019-08-30T09:53:30Z</time>
      </trkpt>
      <trkpt lat="45.82563" lon="4.80625">
        <ele>422.2</ele>
        <time>2019-08-30T09:53:38Z</time>
      </trkpt>
      <trkpt lat="45.82564" lon="4.80624">
        <ele>422.3</ele>
        <time>2019-08-30T09:53:39Z</time>
      </trkpt>
      <trkpt lat="45.82569" lon="4.80618">
        <ele>422.9</ele>
        <time>2019-08-30T09:53:46Z</time>
      </trkpt>
      <trkpt lat="45.82579" lon="4.80612">
        <ele>424</ele>
        <time>2019-08-30T09:54:02Z</time>
      </trkpt>
      <trkpt lat="45.82586" lon="4.80607">
        <ele>424.7</ele>
        <time>2019-08-30T09:54:06Z</time>
      </trkpt>
      <trkpt lat="45.82587" lon="4.80606">
        <ele>424.9</ele>
        <time>2019-08-30T09:54:07Z</time>
      </trkpt>
      <trkpt lat="45.82593" lon="4.80602">
        <ele>425.7</ele>
        <time>2019-08-30T09:54:11Z</time>
      </trkpt>
      <trkpt lat="45.82597" lon="4.80598">
        <ele>426.3</ele>
        <time>2019-08-30T09:54:14Z</time>
      </trkpt>
      <trkpt lat="45.82609" lon="4.80591">
        <ele>428.3</ele>
        <time>2019-08-30T09:54:22Z</time>
      </trkpt>
      <trkpt lat="45.8261" lon="4.80589">
        <ele>428.6</ele>
        <time>2019-08-30T09:54:23Z</time>
      </trkpt>
      <trkpt lat="45.82617" lon="4.80586">
        <ele>429.8</ele>
        <time>2019-08-30T09:54:28Z</time>
      </trkpt>
      <trkpt lat="45.82618" lon="4.80585">
        <ele>430</ele>
        <time>2019-08-30T09:54:29Z</time>
      </trkpt>
      <trkpt lat="45.82623" lon="4.80583">
        <ele>431</ele>
        <time>2019-08-30T09:54:33Z</time>
      </trkpt>
      <trkpt lat="45.82629" lon="4.80581">
        <ele>431.8</ele>
        <time>2019-08-30T09:54:37Z</time>
      </trkpt>
      <trkpt lat="45.82641" lon="4.80576">
        <ele>433.4</ele>
        <time>2019-08-30T09:54:46Z</time>
      </trkpt>
      <trkpt lat="45.82715" lon="4.80532">
        <ele>445.4</ele>
        <time>2019-08-30T09:56:20Z</time>
      </trkpt>
      <trkpt lat="45.8272" lon="4.80529">
        <ele>446.1</ele>
        <time>2019-08-30T09:56:24Z</time>
      </trkpt>
      <trkpt lat="45.82722" lon="4.80529">
        <ele>446.3</ele>
        <time>2019-08-30T09:56:26Z</time>
      </trkpt>
      <trkpt lat="45.82727" lon="4.80526">
        <ele>447</ele>
        <time>2019-08-30T09:56:31Z</time>
      </trkpt>
      <trkpt lat="45.82729" lon="4.80525">
        <ele>447.3</ele>
        <time>2019-08-30T09:56:33Z</time>
      </trkpt>
      <trkpt lat="45.82734" lon="4.80521">
        <ele>448</ele>
        <time>2019-08-30T09:56:38Z</time>
      </trkpt>
      <trkpt lat="45.82737" lon="4.80521">
        <ele>448.4</ele>
        <time>2019-08-30T09:56:40Z</time>
      </trkpt>
      <trkpt lat="45.82738" lon="4.80521">
        <ele>448.5</ele>
        <time>2019-08-30T09:56:41Z</time>
      </trkpt>
      <trkpt lat="45.82747" lon="4.80519">
        <ele>449.6</ele>
        <time>2019-08-30T09:56:48Z</time>
      </trkpt>
      <trkpt lat="45.82749" lon="4.80518">
        <ele>449.8</ele>
        <time>2019-08-30T09:56:50Z</time>
      </trkpt>
      <trkpt lat="45.82752" lon="4.80517">
        <ele>450.2</ele>
        <time>2019-08-30T09:56:53Z</time>
      </trkpt>
      <trkpt lat="45.82756" lon="4.80515">
        <ele>450.7</ele>
        <time>2019-08-30T09:56:57Z</time>
      </trkpt>
      <trkpt lat="45.82762" lon="4.80516">
        <ele>451.3</ele>
        <time>2019-08-30T09:57:02Z</time>
      </trkpt>
      <trkpt lat="45.82763" lon="4.80515">
        <ele>451.4</ele>
        <time>2019-08-30T09:57:03Z</time>
      </trkpt>
      <trkpt lat="45.82769" lon="4.80513">
        <ele>452</ele>
        <time>2019-08-30T09:57:08Z</time>
      </trkpt>
      <trkpt lat="45.82774" lon="4.80511">
        <ele>452.6</ele>
        <time>2019-08-30T09:57:13Z</time>
      </trkpt>
      <trkpt lat="45.82777" lon="4.80509">
        <ele>452.9</ele>
        <time>2019-08-30T09:57:15Z</time>
      </trkpt>
      <trkpt lat="45.82781" lon="4.80507">
        <ele>453.2</ele>
        <time>2019-08-30T09:57:18Z</time>
      </trkpt>
      <trkpt lat="45.82787" lon="4.80504">
        <ele>453.8</ele>
        <time>2019-08-30T09:57:23Z</time>
      </trkpt>
      <trkpt lat="45.82792" lon="4.80502">
        <ele>454.3</ele>
        <time>2019-08-30T09:57:27Z</time>
      </trkpt>
      <trkpt lat="45.82796" lon="4.80499">
        <ele>454.8</ele>
        <time>2019-08-30T09:57:31Z</time>
      </trkpt>
      <trkpt lat="45.82807" lon="4.80496">
        <ele>456.1</ele>
        <time>2019-08-30T09:57:40Z</time>
      </trkpt>
      <trkpt lat="45.82807" lon="4.80496">
        <ele>456.3</ele>
        <time>2019-08-30T09:57:41Z</time>
      </trkpt>
      <trkpt lat="45.82812" lon="4.80494">
        <ele>457.2</ele>
        <time>2019-08-30T09:57:46Z</time>
      </trkpt>
      <trkpt lat="45.82824" lon="4.80488">
        <ele>459.2</ele>
        <time>2019-08-30T09:57:57Z</time>
      </trkpt>
      <trkpt lat="45.82833" lon="4.80482">
        <ele>460.5</ele>
        <time>2019-08-30T09:58:04Z</time>
      </trkpt>
      <trkpt lat="45.82844" lon="4.80474">
        <ele>462</ele>
        <time>2019-08-30T09:58:12Z</time>
      </trkpt>
      <trkpt lat="45.82847" lon="4.80473">
        <ele>462.4</ele>
        <time>2019-08-30T09:58:14Z</time>
      </trkpt>
      <trkpt lat="45.82852" lon="4.80471">
        <ele>463.1</ele>
        <time>2019-08-30T09:58:19Z</time>
      </trkpt>
      <trkpt lat="45.82853" lon="4.80469">
        <ele>463.5</ele>
        <time>2019-08-30T09:58:21Z</time>
      </trkpt>
      <trkpt lat="45.82857" lon="4.80465">
        <ele>464.3</ele>
        <time>2019-08-30T09:58:25Z</time>
      </trkpt>
      <trkpt lat="45.82907" lon="4.80373">
        <ele>478.6</ele>
        <time>2019-08-30T10:00:31Z</time>
      </trkpt>
      <trkpt lat="45.8291" lon="4.80372">
        <ele>478.6</ele>
        <time>2019-08-30T10:00:33Z</time>
      </trkpt>
      <trkpt lat="45.82916" lon="4.80369">
        <ele>478.7</ele>
        <time>2019-08-30T10:00:37Z</time>
      </trkpt>
      <trkpt lat="45.82917" lon="4.80367">
        <ele>478.8</ele>
        <time>2019-08-30T10:00:38Z</time>
      </trkpt>
      <trkpt lat="45.82919" lon="4.80363">
        <ele>479.1</ele>
        <time>2019-08-30T10:00:40Z</time>
      </trkpt>
      <trkpt lat="45.82921" lon="4.80359">
        <ele>479.4</ele>
        <time>2019-08-30T10:00:43Z</time>
      </trkpt>
      <trkpt lat="45.82925" lon="4.80354">
        <ele>479.9</ele>
        <time>2019-08-30T10:00:46Z</time>
      </trkpt>
      <trkpt lat="45.8293" lon="4.8035">
        <ele>480.4</ele>
        <time>2019-08-30T10:00:49Z</time>
      </trkpt>
      <trkpt lat="45.82935" lon="4.80345">
        <ele>480.9</ele>
        <time>2019-08-30T10:00:52Z</time>
      </trkpt>
      <trkpt lat="45.82939" lon="4.8034">
        <ele>481.3</ele>
        <time>2019-08-30T10:00:55Z</time>
      </trkpt>
      <trkpt lat="45.82948" lon="4.8033">
        <ele>482.2</ele>
        <time>2019-08-30T10:01:01Z</time>
      </trkpt>
      <trkpt lat="45.82956" lon="4.8032">
        <ele>483</ele>
        <time>2019-08-30T10:01:06Z</time>
      </trkpt>
      <trkpt lat="45.82959" lon="4.80315">
        <ele>483.3</ele>
        <time>2019-08-30T10:01:08Z</time>
      </trkpt>
      <trkpt lat="45.82974" lon="4.80297">
        <ele>484.9</ele>
        <time>2019-08-30T10:01:16Z</time>
      </trkpt>
      <trkpt lat="45.82976" lon="4.80295">
        <ele>485.2</ele>
        <time>2019-08-30T10:01:17Z</time>
      </trkpt>
      <trkpt lat="45.82986" lon="4.8028">
        <ele>486.6</ele>
        <time>2019-08-30T10:01:23Z</time>
      </trkpt>
      <trkpt lat="45.82992" lon="4.80271">
        <ele>487.4</ele>
        <time>2019-08-30T10:01:27Z</time>
      </trkpt>
      <trkpt lat="45.82996" lon="4.80266">
        <ele>487.8</ele>
        <time>2019-08-30T10:01:29Z</time>
      </trkpt>
      <trkpt lat="45.83004" lon="4.80254">
        <ele>488.7</ele>
        <time>2019-08-30T10:01:34Z</time>
      </trkpt>
      <trkpt lat="45.83007" lon="4.8025">
        <ele>489</ele>
        <time>2019-08-30T10:01:36Z</time>
      </trkpt>
      <trkpt lat="45.83011" lon="4.80242">
        <ele>489.5</ele>
        <time>2019-08-30T10:01:39Z</time>
      </trkpt>
      <trkpt lat="45.83018" lon="4.80232">
        <ele>490.3</ele>
        <time>2019-08-30T10:01:44Z</time>
      </trkpt>
      <trkpt lat="45.83026" lon="4.80223">
        <ele>491.1</ele>
        <time>2019-08-30T10:01:49Z</time>
      </trkpt>
      <trkpt lat="45.83029" lon="4.80218">
        <ele>491.5</ele>
        <time>2019-08-30T10:01:51Z</time>
      </trkpt>
      <trkpt lat="45.83044" lon="4.80202">
        <ele>493</ele>
        <time>2019-08-30T10:01:58Z</time>
      </trkpt>
      <trkpt lat="45.83059" lon="4.80188">
        <ele>494.9</ele>
        <time>2019-08-30T10:02:05Z</time>
      </trkpt>
      <trkpt lat="45.83073" lon="4.80178">
        <ele>496.5</ele>
        <time>2019-08-30T10:02:10Z</time>
      </trkpt>
      <trkpt lat="45.83075" lon="4.80176">
        <ele>496.7</ele>
        <time>2019-08-30T10:02:11Z</time>
      </trkpt>
      <trkpt lat="45.83092" lon="4.8016">
        <ele>498.4</ele>
        <time>2019-08-30T10:02:18Z</time>
      </trkpt>
      <trkpt lat="45.831" lon="4.80153">
        <ele>499.1</ele>
        <time>2019-08-30T10:02:22Z</time>
      </trkpt>
      <trkpt lat="45.83104" lon="4.80147">
        <ele>499.5</ele>
        <time>2019-08-30T10:02:25Z</time>
      </trkpt>
      <trkpt lat="45.83114" lon="4.80135">
        <ele>500.7</ele>
        <time>2019-08-30T10:02:32Z</time>
      </trkpt>
      <trkpt lat="45.83125" lon="4.80125">
        <ele>501.8</ele>
        <time>2019-08-30T10:02:38Z</time>
      </trkpt>
      <trkpt lat="45.83136" lon="4.80113">
        <ele>503.1</ele>
        <time>2019-08-30T10:02:45Z</time>
      </trkpt>
      <trkpt lat="45.83148" lon="4.80101">
        <ele>504.4</ele>
        <time>2019-08-30T10:02:53Z</time>
      </trkpt>
      <trkpt lat="45.83161" lon="4.80087">
        <ele>505.4</ele>
        <time>2019-08-30T10:02:59Z</time>
      </trkpt>
      <trkpt lat="45.83177" lon="4.8007">
        <ele>506.9</ele>
        <time>2019-08-30T10:03:06Z</time>
      </trkpt>
      <trkpt lat="45.83183" lon="4.80063">
        <ele>507.4</ele>
        <time>2019-08-30T10:03:09Z</time>
      </trkpt>
      <trkpt lat="45.83191" lon="4.80051">
        <ele>506.8</ele>
        <time>2019-08-30T10:03:12Z</time>
      </trkpt>
      <trkpt lat="45.83204" lon="4.80032">
        <ele>505.4</ele>
        <time>2019-08-30T10:03:18Z</time>
      </trkpt>
      <trkpt lat="45.83207" lon="4.80028">
        <ele>504.8</ele>
        <time>2019-08-30T10:03:19Z</time>
      </trkpt>
      <trkpt lat="45.83221" lon="4.80013">
        <ele>502.5</ele>
        <time>2019-08-30T10:03:24Z</time>
      </trkpt>
      <trkpt lat="45.83235" lon="4.80001">
        <ele>501.1</ele>
        <time>2019-08-30T10:03:28Z</time>
      </trkpt>
      <trkpt lat="45.83242" lon="4.79996">
        <ele>500.6</ele>
        <time>2019-08-30T10:03:30Z</time>
      </trkpt>
      <trkpt lat="45.83248" lon="4.79992">
        <ele>500.2</ele>
        <time>2019-08-30T10:03:32Z</time>
      </trkpt>
      <trkpt lat="45.83257" lon="4.79987">
        <ele>499.6</ele>
        <time>2019-08-30T10:03:36Z</time>
      </trkpt>
      <trkpt lat="45.83268" lon="4.7998">
        <ele>498.9</ele>
        <time>2019-08-30T10:03:41Z</time>
      </trkpt>
      <trkpt lat="45.8327" lon="4.79978">
        <ele>498.7</ele>
        <time>2019-08-30T10:03:42Z</time>
      </trkpt>
      <trkpt lat="45.83283" lon="4.79973">
        <ele>498</ele>
        <time>2019-08-30T10:03:47Z</time>
      </trkpt>
      <trkpt lat="45.83285" lon="4.79973">
        <ele>497.9</ele>
        <time>2019-08-30T10:03:48Z</time>
      </trkpt>
      <trkpt lat="45.83292" lon="4.79978">
        <ele>497.6</ele>
        <time>2019-08-30T10:03:51Z</time>
      </trkpt>
      <trkpt lat="45.83295" lon="4.79979">
        <ele>497.5</ele>
        <time>2019-08-30T10:03:52Z</time>
      </trkpt>
      <trkpt lat="45.83297" lon="4.7998">
        <ele>497.4</ele>
        <time>2019-08-30T10:03:53Z</time>
      </trkpt>
      <trkpt lat="45.83303" lon="4.7998">
        <ele>497.2</ele>
        <time>2019-08-30T10:03:55Z</time>
      </trkpt>
      <trkpt lat="45.83313" lon="4.79976">
        <ele>496.9</ele>
        <time>2019-08-30T10:03:58Z</time>
      </trkpt>
      <trkpt lat="45.8332" lon="4.79974">
        <ele>496.9</ele>
        <time>2019-08-30T10:04:00Z</time>
      </trkpt>
      <trkpt lat="45.83327" lon="4.79972">
        <ele>497</ele>
        <time>2019-08-30T10:04:02Z</time>
      </trkpt>
      <trkpt lat="45.83352" lon="4.79964">
        <ele>497.4</ele>
        <time>2019-08-30T10:04:09Z</time>
      </trkpt>
      <trkpt lat="45.83358" lon="4.79963">
        <ele>497.4</ele>
        <time>2019-08-30T10:04:11Z</time>
      </trkpt>
      <trkpt lat="45.83368" lon="4.79961">
        <ele>497.4</ele>
        <time>2019-08-30T10:04:15Z</time>
      </trkpt>
      <trkpt lat="45.83376" lon="4.79967">
        <ele>499.6</ele>
        <time>2019-08-30T10:04:19Z</time>
      </trkpt>
      <trkpt lat="45.83379" lon="4.79967">
        <ele>499.6</ele>
        <time>2019-08-30T10:04:20Z</time>
      </trkpt>
      <trkpt lat="45.83395" lon="4.79963">
        <ele>499.6</ele>
        <time>2019-08-30T10:04:25Z</time>
      </trkpt>
      <trkpt lat="45.83398" lon="4.79962">
        <ele>499.5</ele>
        <time>2019-08-30T10:04:26Z</time>
      </trkpt>
      <trkpt lat="45.83411" lon="4.79957">
        <ele>499.3</ele>
        <time>2019-08-30T10:04:30Z</time>
      </trkpt>
      <trkpt lat="45.83423" lon="4.79952">
        <ele>499.5</ele>
        <time>2019-08-30T10:04:34Z</time>
      </trkpt>
      <trkpt lat="45.83426" lon="4.7995">
        <ele>499.6</ele>
        <time>2019-08-30T10:04:35Z</time>
      </trkpt>
      <trkpt lat="45.83432" lon="4.79948">
        <ele>499.8</ele>
        <time>2019-08-30T10:04:37Z</time>
      </trkpt>
      <trkpt lat="45.83445" lon="4.79944">
        <ele>500.3</ele>
        <time>2019-08-30T10:04:41Z</time>
      </trkpt>
      <trkpt lat="45.83454" lon="4.79941">
        <ele>500.4</ele>
        <time>2019-08-30T10:04:44Z</time>
      </trkpt>
      <trkpt lat="45.83457" lon="4.7994">
        <ele>500.5</ele>
        <time>2019-08-30T10:04:45Z</time>
      </trkpt>
      <trkpt lat="45.83469" lon="4.79935">
        <ele>500.7</ele>
        <time>2019-08-30T10:04:49Z</time>
      </trkpt>
      <trkpt lat="45.83479" lon="4.79932">
        <ele>500.9</ele>
        <time>2019-08-30T10:04:52Z</time>
      </trkpt>
      <trkpt lat="45.83485" lon="4.7993">
        <ele>501.1</ele>
        <time>2019-08-30T10:04:54Z</time>
      </trkpt>
      <trkpt lat="45.83497" lon="4.79927">
        <ele>501.7</ele>
        <time>2019-08-30T10:04:58Z</time>
      </trkpt>
      <trkpt lat="45.83502" lon="4.79925">
        <ele>502</ele>
        <time>2019-08-30T10:05:00Z</time>
      </trkpt>
      <trkpt lat="45.8351" lon="4.79923">
        <ele>502.5</ele>
        <time>2019-08-30T10:05:03Z</time>
      </trkpt>
      <trkpt lat="45.83522" lon="4.79922">
        <ele>503.1</ele>
        <time>2019-08-30T10:05:08Z</time>
      </trkpt>
      <trkpt lat="45.83525" lon="4.79921">
        <ele>503.2</ele>
        <time>2019-08-30T10:05:09Z</time>
      </trkpt>
      <trkpt lat="45.83533" lon="4.7992">
        <ele>503.5</ele>
        <time>2019-08-30T10:05:12Z</time>
      </trkpt>
      <trkpt lat="45.83547" lon="4.79919">
        <ele>504</ele>
        <time>2019-08-30T10:05:17Z</time>
      </trkpt>
      <trkpt lat="45.83549" lon="4.79918">
        <ele>504.1</ele>
        <time>2019-08-30T10:05:18Z</time>
      </trkpt>
      <trkpt lat="45.83561" lon="4.79916">
        <ele>504.5</ele>
        <time>2019-08-30T10:05:22Z</time>
      </trkpt>
      <trkpt lat="45.83578" lon="4.79915">
        <ele>504.8</ele>
        <time>2019-08-30T10:05:28Z</time>
      </trkpt>
      <trkpt lat="45.8358" lon="4.79914">
        <ele>504.8</ele>
        <time>2019-08-30T10:05:29Z</time>
      </trkpt>
      <trkpt lat="45.83589" lon="4.79914">
        <ele>505</ele>
        <time>2019-08-30T10:05:32Z</time>
      </trkpt>
      <trkpt lat="45.83601" lon="4.79914">
        <ele>505.5</ele>
        <time>2019-08-30T10:05:36Z</time>
      </trkpt>
      <trkpt lat="45.83612" lon="4.79913">
        <ele>506.1</ele>
        <time>2019-08-30T10:05:40Z</time>
      </trkpt>
      <trkpt lat="45.83615" lon="4.79913">
        <ele>506.2</ele>
        <time>2019-08-30T10:05:41Z</time>
      </trkpt>
      <trkpt lat="45.83621" lon="4.79912">
        <ele>506.6</ele>
        <time>2019-08-30T10:05:43Z</time>
      </trkpt>
      <trkpt lat="45.83632" lon="4.79912">
        <ele>507.6</ele>
        <time>2019-08-30T10:05:47Z</time>
      </trkpt>
      <trkpt lat="45.83641" lon="4.79911">
        <ele>508.5</ele>
        <time>2019-08-30T10:05:50Z</time>
      </trkpt>
      <trkpt lat="45.83643" lon="4.79911">
        <ele>508.9</ele>
        <time>2019-08-30T10:05:51Z</time>
      </trkpt>
      <trkpt lat="45.83655" lon="4.79912">
        <ele>510.4</ele>
        <time>2019-08-30T10:05:55Z</time>
      </trkpt>
      <trkpt lat="45.8366" lon="4.79912">
        <ele>511.2</ele>
        <time>2019-08-30T10:05:57Z</time>
      </trkpt>
      <trkpt lat="45.83666" lon="4.79912">
        <ele>511.7</ele>
        <time>2019-08-30T10:05:59Z</time>
      </trkpt>
      <trkpt lat="45.8368" lon="4.79911">
        <ele>512.9</ele>
        <time>2019-08-30T10:06:04Z</time>
      </trkpt>
      <trkpt lat="45.83683" lon="4.79911">
        <ele>513</ele>
        <time>2019-08-30T10:06:05Z</time>
      </trkpt>
      <trkpt lat="45.83691" lon="4.7991">
        <ele>513.3</ele>
        <time>2019-08-30T10:06:08Z</time>
      </trkpt>
      <trkpt lat="45.83699" lon="4.79911">
        <ele>513.5</ele>
        <time>2019-08-30T10:06:11Z</time>
      </trkpt>
      <trkpt lat="45.83705" lon="4.7991">
        <ele>513.5</ele>
        <time>2019-08-30T10:06:13Z</time>
      </trkpt>
      <trkpt lat="45.83728" lon="4.7991">
        <ele>514.1</ele>
        <time>2019-08-30T10:06:21Z</time>
      </trkpt>
      <trkpt lat="45.83747" lon="4.79915">
        <ele>515.4</ele>
        <time>2019-08-30T10:06:28Z</time>
      </trkpt>
      <trkpt lat="45.83749" lon="4.79916">
        <ele>515.8</ele>
        <time>2019-08-30T10:06:29Z</time>
      </trkpt>
      <trkpt lat="45.83752" lon="4.7992">
        <ele>520.7</ele>
        <time>2019-08-30T10:06:31Z</time>
      </trkpt>
      <trkpt lat="45.83756" lon="4.79924">
        <ele>520.3</ele>
        <time>2019-08-30T10:06:33Z</time>
      </trkpt>
      <trkpt lat="45.83756" lon="4.79925">
        <ele>520.2</ele>
        <time>2019-08-30T10:06:34Z</time>
      </trkpt>
      <trkpt lat="45.83755" lon="4.79929">
        <ele>520</ele>
        <time>2019-08-30T10:06:36Z</time>
      </trkpt>
      <trkpt lat="45.83749" lon="4.79933">
        <ele>519.4</ele>
        <time>2019-08-30T10:06:38Z</time>
      </trkpt>
      <trkpt lat="45.83736" lon="4.79943">
        <ele>517.9</ele>
        <time>2019-08-30T10:06:41Z</time>
      </trkpt>
      <trkpt lat="45.8373" lon="4.79946">
        <ele>517.2</ele>
        <time>2019-08-30T10:06:42Z</time>
      </trkpt>
      <trkpt lat="45.83724" lon="4.7995">
        <ele>516.5</ele>
        <time>2019-08-30T10:06:43Z</time>
      </trkpt>
      <trkpt lat="45.8371" lon="4.79958">
        <ele>514.9</ele>
        <time>2019-08-30T10:06:45Z</time>
      </trkpt>
      <trkpt lat="45.83686" lon="4.79971">
        <ele>511.8</ele>
        <time>2019-08-30T10:06:48Z</time>
      </trkpt>
      <trkpt lat="45.83656" lon="4.79993">
        <ele>508</ele>
        <time>2019-08-30T10:06:51Z</time>
      </trkpt>
      <trkpt lat="45.83646" lon="4.8">
        <ele>506.5</ele>
        <time>2019-08-30T10:06:52Z</time>
      </trkpt>
      <trkpt lat="45.83618" lon="4.80021">
        <ele>502.9</ele>
        <time>2019-08-30T10:06:55Z</time>
      </trkpt>
      <trkpt lat="45.8361" lon="4.80028">
        <ele>501.9</ele>
        <time>2019-08-30T10:06:56Z</time>
      </trkpt>
      <trkpt lat="45.83604" lon="4.80036">
        <ele>501.1</ele>
        <time>2019-08-30T10:06:57Z</time>
      </trkpt>
      <trkpt lat="45.83586" lon="4.80061">
        <ele>498.5</ele>
        <time>2019-08-30T10:07:00Z</time>
      </trkpt>
      <trkpt lat="45.83581" lon="4.80068">
        <ele>497.8</ele>
        <time>2019-08-30T10:07:01Z</time>
      </trkpt>
      <trkpt lat="45.83566" lon="4.80086">
        <ele>495.8</ele>
        <time>2019-08-30T10:07:04Z</time>
      </trkpt>
      <trkpt lat="45.83561" lon="4.80092">
        <ele>495.3</ele>
        <time>2019-08-30T10:07:05Z</time>
      </trkpt>
      <trkpt lat="45.83547" lon="4.80116">
        <ele>493.9</ele>
        <time>2019-08-30T10:07:09Z</time>
      </trkpt>
      <trkpt lat="45.83536" lon="4.80136">
        <ele>492.6</ele>
        <time>2019-08-30T10:07:12Z</time>
      </trkpt>
      <trkpt lat="45.83531" lon="4.80142">
        <ele>492.1</ele>
        <time>2019-08-30T10:07:13Z</time>
      </trkpt>
      <trkpt lat="45.83527" lon="4.80149">
        <ele>491.7</ele>
        <time>2019-08-30T10:07:14Z</time>
      </trkpt>
      <trkpt lat="45.83517" lon="4.80162">
        <ele>490.2</ele>
        <time>2019-08-30T10:07:16Z</time>
      </trkpt>
      <trkpt lat="45.83509" lon="4.80177">
        <ele>488.5</ele>
        <time>2019-08-30T10:07:18Z</time>
      </trkpt>
      <trkpt lat="45.83506" lon="4.80184">
        <ele>487.7</ele>
        <time>2019-08-30T10:07:19Z</time>
      </trkpt>
      <trkpt lat="45.83498" lon="4.80208">
        <ele>485.2</ele>
        <time>2019-08-30T10:07:22Z</time>
      </trkpt>
      <trkpt lat="45.83497" lon="4.80216">
        <ele>484.3</ele>
        <time>2019-08-30T10:07:23Z</time>
      </trkpt>
      <trkpt lat="45.83496" lon="4.80224">
        <ele>483.6</ele>
        <time>2019-08-30T10:07:24Z</time>
      </trkpt>
      <trkpt lat="45.83495" lon="4.80241">
        <ele>482.3</ele>
        <time>2019-08-30T10:07:26Z</time>
      </trkpt>
      <trkpt lat="45.83498" lon="4.80269">
        <ele>480.4</ele>
        <time>2019-08-30T10:07:29Z</time>
      </trkpt>
      <trkpt lat="45.83501" lon="4.80277">
        <ele>479.8</ele>
        <time>2019-08-30T10:07:30Z</time>
      </trkpt>
      <trkpt lat="45.83515" lon="4.80302">
        <ele>478.4</ele>
        <time>2019-08-30T10:07:33Z</time>
      </trkpt>
      <trkpt lat="45.83524" lon="4.8032">
        <ele>477.5</ele>
        <time>2019-08-30T10:07:35Z</time>
      </trkpt>
      <trkpt lat="45.83533" lon="4.80337">
        <ele>476.8</ele>
        <time>2019-08-30T10:07:37Z</time>
      </trkpt>
      <trkpt lat="45.83541" lon="4.80355">
        <ele>476</ele>
        <time>2019-08-30T10:07:39Z</time>
      </trkpt>
      <trkpt lat="45.83544" lon="4.80362">
        <ele>475.5</ele>
        <time>2019-08-30T10:07:40Z</time>
      </trkpt>
      <trkpt lat="45.83548" lon="4.80368">
        <ele>475.1</ele>
        <time>2019-08-30T10:07:41Z</time>
      </trkpt>
      <trkpt lat="45.83561" lon="4.80379">
        <ele>473.5</ele>
        <time>2019-08-30T10:07:44Z</time>
      </trkpt>
      <trkpt lat="45.83572" lon="4.80384">
        <ele>472.6</ele>
        <time>2019-08-30T10:07:46Z</time>
      </trkpt>
      <trkpt lat="45.83587" lon="4.8039">
        <ele>471.3</ele>
        <time>2019-08-30T10:07:49Z</time>
      </trkpt>
      <trkpt lat="45.83597" lon="4.80407">
        <ele>469.9</ele>
        <time>2019-08-30T10:07:52Z</time>
      </trkpt>
      <trkpt lat="45.83599" lon="4.80413">
        <ele>469.2</ele>
        <time>2019-08-30T10:07:53Z</time>
      </trkpt>
      <trkpt lat="45.83599" lon="4.80426">
        <ele>465.3</ele>
        <time>2019-08-30T10:07:56Z</time>
      </trkpt>
      <trkpt lat="45.83598" lon="4.80428">
        <ele>465</ele>
        <time>2019-08-30T10:07:57Z</time>
      </trkpt>
      <trkpt lat="45.83594" lon="4.80431">
        <ele>464.3</ele>
        <time>2019-08-30T10:07:59Z</time>
      </trkpt>
      <trkpt lat="45.83588" lon="4.80431">
        <ele>463.6</ele>
        <time>2019-08-30T10:08:01Z</time>
      </trkpt>
      <trkpt lat="45.83577" lon="4.80435">
        <ele>462.5</ele>
        <time>2019-08-30T10:08:04Z</time>
      </trkpt>
      <trkpt lat="45.83569" lon="4.80439">
        <ele>462</ele>
        <time>2019-08-30T10:08:06Z</time>
      </trkpt>
      <trkpt lat="45.83549" lon="4.8045">
        <ele>460.6</ele>
        <time>2019-08-30T10:08:11Z</time>
      </trkpt>
      <trkpt lat="45.83545" lon="4.80452">
        <ele>460.3</ele>
        <time>2019-08-30T10:08:12Z</time>
      </trkpt>
      <trkpt lat="45.8354" lon="4.80454">
        <ele>460</ele>
        <time>2019-08-30T10:08:13Z</time>
      </trkpt>
      <trkpt lat="45.83528" lon="4.80461">
        <ele>458.7</ele>
        <time>2019-08-30T10:08:16Z</time>
      </trkpt>
      <trkpt lat="45.83524" lon="4.80464">
        <ele>458.5</ele>
        <time>2019-08-30T10:08:17Z</time>
      </trkpt>
      <trkpt lat="45.8352" lon="4.80467">
        <ele>458.2</ele>
        <time>2019-08-30T10:08:18Z</time>
      </trkpt>
      <trkpt lat="45.83509" lon="4.80478">
        <ele>457.3</ele>
        <time>2019-08-30T10:08:21Z</time>
      </trkpt>
      <trkpt lat="45.8349" lon="4.80497">
        <ele>455.5</ele>
        <time>2019-08-30T10:08:26Z</time>
      </trkpt>
      <trkpt lat="45.83486" lon="4.80501">
        <ele>455</ele>
        <time>2019-08-30T10:08:27Z</time>
      </trkpt>
      <trkpt lat="45.83476" lon="4.80508">
        <ele>454</ele>
        <time>2019-08-30T10:08:29Z</time>
      </trkpt>
      <trkpt lat="45.83465" lon="4.80512">
        <ele>453</ele>
        <time>2019-08-30T10:08:31Z</time>
      </trkpt>
      <trkpt lat="45.8346" lon="4.80513">
        <ele>452.6</ele>
        <time>2019-08-30T10:08:32Z</time>
      </trkpt>
      <trkpt lat="45.83455" lon="4.80514">
        <ele>452.1</ele>
        <time>2019-08-30T10:08:33Z</time>
      </trkpt>
      <trkpt lat="45.83444" lon="4.80518">
        <ele>450.8</ele>
        <time>2019-08-30T10:08:35Z</time>
      </trkpt>
      <trkpt lat="45.83434" lon="4.80522">
        <ele>449.8</ele>
        <time>2019-08-30T10:08:37Z</time>
      </trkpt>
      <trkpt lat="45.83431" lon="4.80525">
        <ele>449.5</ele>
        <time>2019-08-30T10:08:38Z</time>
      </trkpt>
      <trkpt lat="45.83422" lon="4.80534">
        <ele>448.6</ele>
        <time>2019-08-30T10:08:41Z</time>
      </trkpt>
      <trkpt lat="45.8342" lon="4.80538">
        <ele>448.4</ele>
        <time>2019-08-30T10:08:42Z</time>
      </trkpt>
      <trkpt lat="45.83418" lon="4.80541">
        <ele>448.1</ele>
        <time>2019-08-30T10:08:43Z</time>
      </trkpt>
      <trkpt lat="45.83412" lon="4.80545">
        <ele>447.6</ele>
        <time>2019-08-30T10:08:45Z</time>
      </trkpt>
      <trkpt lat="45.83404" lon="4.80547">
        <ele>446.6</ele>
        <time>2019-08-30T10:08:47Z</time>
      </trkpt>
      <trkpt lat="45.834" lon="4.80548">
        <ele>446</ele>
        <time>2019-08-30T10:08:48Z</time>
      </trkpt>
      <trkpt lat="45.83396" lon="4.80548">
        <ele>445.6</ele>
        <time>2019-08-30T10:08:49Z</time>
      </trkpt>
      <trkpt lat="45.83387" lon="4.80548">
        <ele>444.8</ele>
        <time>2019-08-30T10:08:51Z</time>
      </trkpt>
      <trkpt lat="45.8338" lon="4.80549">
        <ele>443.9</ele>
        <time>2019-08-30T10:08:53Z</time>
      </trkpt>
      <trkpt lat="45.83376" lon="4.8055">
        <ele>443.3</ele>
        <time>2019-08-30T10:08:54Z</time>
      </trkpt>
      <trkpt lat="45.83373" lon="4.80552">
        <ele>442.8</ele>
        <time>2019-08-30T10:08:55Z</time>
      </trkpt>
      <trkpt lat="45.83371" lon="4.80555">
        <ele>442</ele>
        <time>2019-08-30T10:08:56Z</time>
      </trkpt>
      <trkpt lat="45.8337" lon="4.8056">
        <ele>441.7</ele>
        <time>2019-08-30T10:08:57Z</time>
      </trkpt>
      <trkpt lat="45.83369" lon="4.80563">
        <ele>441.6</ele>
        <time>2019-08-30T10:08:58Z</time>
      </trkpt>
      <trkpt lat="45.8337" lon="4.80575">
        <ele>441</ele>
        <time>2019-08-30T10:09:55Z</time>
      </trkpt>
      <trkpt lat="45.83372" lon="4.80581">
        <ele>440.7</ele>
        <time>2019-08-30T10:09:57Z</time>
      </trkpt>
      <trkpt lat="45.83375" lon="4.80588">
        <ele>440.2</ele>
        <time>2019-08-30T10:09:59Z</time>
      </trkpt>
      <trkpt lat="45.83378" lon="4.80601">
        <ele>439.5</ele>
        <time>2019-08-30T10:10:02Z</time>
      </trkpt>
      <trkpt lat="45.83381" lon="4.80613">
        <ele>438.7</ele>
        <time>2019-08-30T10:10:05Z</time>
      </trkpt>
      <trkpt lat="45.83381" lon="4.80629">
        <ele>437.6</ele>
        <time>2019-08-30T10:10:08Z</time>
      </trkpt>
      <trkpt lat="45.83381" lon="4.80635">
        <ele>437.2</ele>
        <time>2019-08-30T10:10:09Z</time>
      </trkpt>
      <trkpt lat="45.83382" lon="4.80647">
        <ele>436.4</ele>
        <time>2019-08-30T10:10:11Z</time>
      </trkpt>
      <trkpt lat="45.83386" lon="4.80667">
        <ele>435</ele>
        <time>2019-08-30T10:10:15Z</time>
      </trkpt>
      <trkpt lat="45.83388" lon="4.80671">
        <ele>434.6</ele>
        <time>2019-08-30T10:10:16Z</time>
      </trkpt>
      <trkpt lat="45.83395" lon="4.80686">
        <ele>433.6</ele>
        <time>2019-08-30T10:10:19Z</time>
      </trkpt>
      <trkpt lat="45.83402" lon="4.80697">
        <ele>432.6</ele>
        <time>2019-08-30T10:10:21Z</time>
      </trkpt>
      <trkpt lat="45.83409" lon="4.80714">
        <ele>431.3</ele>
        <time>2019-08-30T10:10:24Z</time>
      </trkpt>
      <trkpt lat="45.8341" lon="4.80717">
        <ele>431</ele>
        <time>2019-08-30T10:10:25Z</time>
      </trkpt>
      <trkpt lat="45.8341" lon="4.80721">
        <ele>430.4</ele>
        <time>2019-08-30T10:10:27Z</time>
      </trkpt>
      <trkpt lat="45.8341" lon="4.80725">
        <ele>430.2</ele>
        <time>2019-08-30T10:10:30Z</time>
      </trkpt>
      <trkpt lat="45.83408" lon="4.80728">
        <ele>430</ele>
        <time>2019-08-30T10:10:42Z</time>
      </trkpt>
      <trkpt lat="45.83404" lon="4.80732">
        <ele>429.7</ele>
        <time>2019-08-30T10:10:44Z</time>
      </trkpt>
      <trkpt lat="45.83399" lon="4.80737">
        <ele>429.2</ele>
        <time>2019-08-30T10:10:46Z</time>
      </trkpt>
      <trkpt lat="45.83392" lon="4.80745">
        <ele>428.4</ele>
        <time>2019-08-30T10:10:48Z</time>
      </trkpt>
      <trkpt lat="45.83384" lon="4.80753">
        <ele>427.6</ele>
        <time>2019-08-30T10:10:50Z</time>
      </trkpt>
      <trkpt lat="45.83366" lon="4.8077">
        <ele>425.2</ele>
        <time>2019-08-30T10:10:54Z</time>
      </trkpt>
      <trkpt lat="45.83361" lon="4.80775">
        <ele>424.6</ele>
        <time>2019-08-30T10:10:55Z</time>
      </trkpt>
      <trkpt lat="45.83357" lon="4.80781">
        <ele>424</ele>
        <time>2019-08-30T10:10:56Z</time>
      </trkpt>
      <trkpt lat="45.83348" lon="4.8079">
        <ele>422.6</ele>
        <time>2019-08-30T10:10:58Z</time>
      </trkpt>
      <trkpt lat="45.83344" lon="4.80794">
        <ele>422.1</ele>
        <time>2019-08-30T10:10:59Z</time>
      </trkpt>
      <trkpt lat="45.83341" lon="4.80798">
        <ele>421.7</ele>
        <time>2019-08-30T10:11:00Z</time>
      </trkpt>
      <trkpt lat="45.83335" lon="4.80804">
        <ele>420.7</ele>
        <time>2019-08-30T10:11:02Z</time>
      </trkpt>
      <trkpt lat="45.83329" lon="4.8081">
        <ele>419.7</ele>
        <time>2019-08-30T10:11:04Z</time>
      </trkpt>
      <trkpt lat="45.83323" lon="4.80815">
        <ele>418.7</ele>
        <time>2019-08-30T10:11:06Z</time>
      </trkpt>
      <trkpt lat="45.83319" lon="4.80821">
        <ele>417.9</ele>
        <time>2019-08-30T10:11:08Z</time>
      </trkpt>
      <trkpt lat="45.83316" lon="4.80822">
        <ele>417.5</ele>
        <time>2019-08-30T10:11:09Z</time>
      </trkpt>
      <trkpt lat="45.83314" lon="4.80824">
        <ele>417.1</ele>
        <time>2019-08-30T10:11:10Z</time>
      </trkpt>
      <trkpt lat="45.83308" lon="4.80831">
        <ele>416.3</ele>
        <time>2019-08-30T10:11:13Z</time>
      </trkpt>
      <trkpt lat="45.83304" lon="4.80836">
        <ele>415.5</ele>
        <time>2019-08-30T10:11:15Z</time>
      </trkpt>
      <trkpt lat="45.83302" lon="4.80839">
        <ele>415.1</ele>
        <time>2019-08-30T10:11:16Z</time>
      </trkpt>
      <trkpt lat="45.83297" lon="4.80842">
        <ele>414.4</ele>
        <time>2019-08-30T10:11:18Z</time>
      </trkpt>
      <trkpt lat="45.83296" lon="4.80841">
        <ele>414.2</ele>
        <time>2019-08-30T10:11:19Z</time>
      </trkpt>
      <trkpt lat="45.83295" lon="4.8084">
        <ele>413.9</ele>
        <time>2019-08-30T10:11:20Z</time>
      </trkpt>
      <trkpt lat="45.83292" lon="4.80833">
        <ele>413.1</ele>
        <time>2019-08-30T10:11:22Z</time>
      </trkpt>
      <trkpt lat="45.83291" lon="4.80828">
        <ele>412.8</ele>
        <time>2019-08-30T10:11:23Z</time>
      </trkpt>
      <trkpt lat="45.8329" lon="4.80817">
        <ele>412.3</ele>
        <time>2019-08-30T10:11:25Z</time>
      </trkpt>
      <trkpt lat="45.83288" lon="4.80807">
        <ele>411.9</ele>
        <time>2019-08-30T10:11:28Z</time>
      </trkpt>
      <trkpt lat="45.83287" lon="4.80805">
        <ele>411.8</ele>
        <time>2019-08-30T10:11:29Z</time>
      </trkpt>
      <trkpt lat="45.83286" lon="4.80801">
        <ele>411.6</ele>
        <time>2019-08-30T10:11:31Z</time>
      </trkpt>
      <trkpt lat="45.83285" lon="4.80796">
        <ele>411.4</ele>
        <time>2019-08-30T10:11:34Z</time>
      </trkpt>
      <trkpt lat="45.83281" lon="4.8079">
        <ele>411</ele>
        <time>2019-08-30T10:11:38Z</time>
      </trkpt>
      <trkpt lat="45.83281" lon="4.80788">
        <ele>410.9</ele>
        <time>2019-08-30T10:11:39Z</time>
      </trkpt>
      <trkpt lat="45.83278" lon="4.80784">
        <ele>410.6</ele>
        <time>2019-08-30T10:11:42Z</time>
      </trkpt>
      <trkpt lat="45.83274" lon="4.80784">
        <ele>410.2</ele>
        <time>2019-08-30T10:11:48Z</time>
      </trkpt>
      <trkpt lat="45.83273" lon="4.80783">
        <ele>410</ele>
        <time>2019-08-30T10:11:49Z</time>
      </trkpt>
      <trkpt lat="45.83271" lon="4.80781">
        <ele>409.9</ele>
        <time>2019-08-30T10:11:50Z</time>
      </trkpt>
      <trkpt lat="45.8326" lon="4.80776">
        <ele>408.7</ele>
        <time>2019-08-30T10:11:55Z</time>
      </trkpt>
      <trkpt lat="45.83253" lon="4.8078">
        <ele>407.9</ele>
        <time>2019-08-30T10:11:57Z</time>
      </trkpt>
      <trkpt lat="45.83246" lon="4.80787">
        <ele>406.9</ele>
        <time>2019-08-30T10:11:59Z</time>
      </trkpt>
      <trkpt lat="45.83242" lon="4.80791">
        <ele>406.4</ele>
        <time>2019-08-30T10:12:00Z</time>
      </trkpt>
      <trkpt lat="45.83235" lon="4.80801">
        <ele>405.3</ele>
        <time>2019-08-30T10:12:02Z</time>
      </trkpt>
      <trkpt lat="45.83224" lon="4.80816">
        <ele>403.9</ele>
        <time>2019-08-30T10:12:05Z</time>
      </trkpt>
      <trkpt lat="45.83213" lon="4.80823">
        <ele>402.8</ele>
        <time>2019-08-30T10:12:08Z</time>
      </trkpt>
      <trkpt lat="45.8321" lon="4.80827">
        <ele>402.4</ele>
        <time>2019-08-30T10:12:09Z</time>
      </trkpt>
      <trkpt lat="45.83205" lon="4.80834">
        <ele>401.7</ele>
        <time>2019-08-30T10:12:12Z</time>
      </trkpt>
      <trkpt lat="45.83204" lon="4.80836">
        <ele>401.6</ele>
        <time>2019-08-30T10:12:13Z</time>
      </trkpt>
      <trkpt lat="45.83202" lon="4.80843">
        <ele>401.1</ele>
        <time>2019-08-30T10:12:16Z</time>
      </trkpt>
      <trkpt lat="45.83198" lon="4.80853">
        <ele>400.5</ele>
        <time>2019-08-30T10:12:19Z</time>
      </trkpt>
      <trkpt lat="45.83191" lon="4.8086">
        <ele>399.7</ele>
        <time>2019-08-30T10:12:23Z</time>
      </trkpt>
      <trkpt lat="45.83186" lon="4.80867">
        <ele>399.1</ele>
        <time>2019-08-30T10:12:25Z</time>
      </trkpt>
      <trkpt lat="45.83184" lon="4.80872">
        <ele>398.7</ele>
        <time>2019-08-30T10:12:26Z</time>
      </trkpt>
      <trkpt lat="45.83182" lon="4.80878">
        <ele>398.3</ele>
        <time>2019-08-30T10:12:27Z</time>
      </trkpt>
      <trkpt lat="45.83181" lon="4.80891">
        <ele>397.8</ele>
        <time>2019-08-30T10:12:29Z</time>
      </trkpt>
      <trkpt lat="45.8318" lon="4.80905">
        <ele>397.6</ele>
        <time>2019-08-30T10:12:31Z</time>
      </trkpt>
      <trkpt lat="45.83179" lon="4.8092">
        <ele>397.9</ele>
        <time>2019-08-30T10:12:33Z</time>
      </trkpt>
      <trkpt lat="45.83176" lon="4.80929">
        <ele>398.3</ele>
        <time>2019-08-30T10:12:34Z</time>
      </trkpt>
      <trkpt lat="45.83174" lon="4.80938">
        <ele>398.8</ele>
        <time>2019-08-30T10:12:35Z</time>
      </trkpt>
      <trkpt lat="45.83165" lon="4.80953">
        <ele>400.5</ele>
        <time>2019-08-30T10:12:38Z</time>
      </trkpt>
      <trkpt lat="45.83162" lon="4.80957">
        <ele>401.1</ele>
        <time>2019-08-30T10:12:39Z</time>
      </trkpt>
      <trkpt lat="45.8315" lon="4.80974">
        <ele>403.7</ele>
        <time>2019-08-30T10:12:45Z</time>
      </trkpt>
      <trkpt lat="45.83149" lon="4.80976">
        <ele>404</ele>
        <time>2019-08-30T10:12:46Z</time>
      </trkpt>
      <trkpt lat="45.83142" lon="4.80981">
        <ele>404.2</ele>
        <time>2019-08-30T10:12:49Z</time>
      </trkpt>
      <trkpt lat="45.83119" lon="4.80993">
        <ele>403.4</ele>
        <time>2019-08-30T10:13:06Z</time>
      </trkpt>
      <trkpt lat="45.83105" lon="4.81007">
        <ele>403.2</ele>
        <time>2019-08-30T10:13:15Z</time>
      </trkpt>
      <trkpt lat="45.83095" lon="4.81016">
        <ele>402.9</ele>
        <time>2019-08-30T10:13:23Z</time>
      </trkpt>
      <trkpt lat="45.83094" lon="4.81018">
        <ele>402.9</ele>
        <time>2019-08-30T10:13:24Z</time>
      </trkpt>
      <trkpt lat="45.83092" lon="4.81021">
        <ele>402.8</ele>
        <time>2019-08-30T10:13:26Z</time>
      </trkpt>
      <trkpt lat="45.83086" lon="4.8103">
        <ele>402.6</ele>
        <time>2019-08-30T10:13:31Z</time>
      </trkpt>
      <trkpt lat="45.83083" lon="4.81032">
        <ele>402.5</ele>
        <time>2019-08-30T10:13:33Z</time>
      </trkpt>
      <trkpt lat="45.83072" lon="4.81037">
        <ele>402.1</ele>
        <time>2019-08-30T10:13:39Z</time>
      </trkpt>
      <trkpt lat="45.83061" lon="4.81043">
        <ele>401.7</ele>
        <time>2019-08-30T10:13:43Z</time>
      </trkpt>
      <trkpt lat="45.83041" lon="4.81051">
        <ele>401.7</ele>
        <time>2019-08-30T10:13:57Z</time>
      </trkpt>
      <trkpt lat="45.83036" lon="4.81053">
        <ele>401.9</ele>
        <time>2019-08-30T10:14:00Z</time>
      </trkpt>
      <trkpt lat="45.83028" lon="4.81059">
        <ele>402.3</ele>
        <time>2019-08-30T10:14:05Z</time>
      </trkpt>
      <trkpt lat="45.83027" lon="4.81059">
        <ele>402.4</ele>
        <time>2019-08-30T10:14:06Z</time>
      </trkpt>
      <trkpt lat="45.83023" lon="4.81062">
        <ele>402.7</ele>
        <time>2019-08-30T10:14:09Z</time>
      </trkpt>
      <trkpt lat="45.83015" lon="4.81065">
        <ele>403.2</ele>
        <time>2019-08-30T10:14:13Z</time>
      </trkpt>
      <trkpt lat="45.82989" lon="4.81077">
        <ele>405</ele>
        <time>2019-08-30T10:14:31Z</time>
      </trkpt>
      <trkpt lat="45.82984" lon="4.81079">
        <ele>405.3</ele>
        <time>2019-08-30T10:14:35Z</time>
      </trkpt>
      <trkpt lat="45.8296" lon="4.81092">
        <ele>406.7</ele>
        <time>2019-08-30T10:14:53Z</time>
      </trkpt>
      <trkpt lat="45.8295" lon="4.81096">
        <ele>407</ele>
        <time>2019-08-30T10:14:58Z</time>
      </trkpt>
      <trkpt lat="45.82945" lon="4.81097">
        <ele>407.1</ele>
        <time>2019-08-30T10:15:01Z</time>
      </trkpt>
      <trkpt lat="45.82938" lon="4.81099">
        <ele>407.1</ele>
        <time>2019-08-30T10:15:05Z</time>
      </trkpt>
      <trkpt lat="45.82933" lon="4.81099">
        <ele>407</ele>
        <time>2019-08-30T10:15:08Z</time>
      </trkpt>
      <trkpt lat="45.82927" lon="4.81101">
        <ele>406.8</ele>
        <time>2019-08-30T10:15:12Z</time>
      </trkpt>
      <trkpt lat="45.82925" lon="4.81104">
        <ele>406.7</ele>
        <time>2019-08-30T10:15:14Z</time>
      </trkpt>
      <trkpt lat="45.82921" lon="4.81113">
        <ele>402.5</ele>
        <time>2019-08-30T10:15:35Z</time>
      </trkpt>
      <trkpt lat="45.82922" lon="4.81116">
        <ele>401.8</ele>
        <time>2019-08-30T10:15:36Z</time>
      </trkpt>
      <trkpt lat="45.82927" lon="4.81124">
        <ele>399.5</ele>
        <time>2019-08-30T10:15:38Z</time>
      </trkpt>
      <trkpt lat="45.82929" lon="4.81128">
        <ele>398.5</ele>
        <time>2019-08-30T10:15:39Z</time>
      </trkpt>
      <trkpt lat="45.82932" lon="4.81131">
        <ele>397.6</ele>
        <time>2019-08-30T10:15:40Z</time>
      </trkpt>
      <trkpt lat="45.82933" lon="4.81133">
        <ele>396.7</ele>
        <time>2019-08-30T10:15:41Z</time>
      </trkpt>
      <trkpt lat="45.82934" lon="4.81137">
        <ele>395.8</ele>
        <time>2019-08-30T10:15:42Z</time>
      </trkpt>
      <trkpt lat="45.82933" lon="4.8114">
        <ele>395</ele>
        <time>2019-08-30T10:15:43Z</time>
      </trkpt>
      <trkpt lat="45.82933" lon="4.81143">
        <ele>394.1</ele>
        <time>2019-08-30T10:15:44Z</time>
      </trkpt>
      <trkpt lat="45.82933" lon="4.81145">
        <ele>393.7</ele>
        <time>2019-08-30T10:15:45Z</time>
      </trkpt>
      <trkpt lat="45.82934" lon="4.81145">
        <ele>393.2</ele>
        <time>2019-08-30T10:15:49Z</time>
      </trkpt>
      <trkpt lat="45.82936" lon="4.81144">
        <ele>392.5</ele>
        <time>2019-08-30T10:15:50Z</time>
      </trkpt>
      <trkpt lat="45.82939" lon="4.81141">
        <ele>391.6</ele>
        <time>2019-08-30T10:15:51Z</time>
      </trkpt>
      <trkpt lat="45.82943" lon="4.81138">
        <ele>390.5</ele>
        <time>2019-08-30T10:15:52Z</time>
      </trkpt>
      <trkpt lat="45.82947" lon="4.81133">
        <ele>389.3</ele>
        <time>2019-08-30T10:15:53Z</time>
      </trkpt>
      <trkpt lat="45.82951" lon="4.81129">
        <ele>388.3</ele>
        <time>2019-08-30T10:15:54Z</time>
      </trkpt>
      <trkpt lat="45.82955" lon="4.81126">
        <ele>387.4</ele>
        <time>2019-08-30T10:15:55Z</time>
      </trkpt>
      <trkpt lat="45.8296" lon="4.81123">
        <ele>386.5</ele>
        <time>2019-08-30T10:15:56Z</time>
      </trkpt>
      <trkpt lat="45.82965" lon="4.81121">
        <ele>385.8</ele>
        <time>2019-08-30T10:15:57Z</time>
      </trkpt>
      <trkpt lat="45.8297" lon="4.8112">
        <ele>385</ele>
        <time>2019-08-30T10:15:58Z</time>
      </trkpt>
      <trkpt lat="45.82975" lon="4.81119">
        <ele>384.3</ele>
        <time>2019-08-30T10:15:59Z</time>
      </trkpt>
      <trkpt lat="45.8298" lon="4.81118">
        <ele>383.6</ele>
        <time>2019-08-30T10:16:00Z</time>
      </trkpt>
      <trkpt lat="45.82985" lon="4.81118">
        <ele>383</ele>
        <time>2019-08-30T10:16:01Z</time>
      </trkpt>
      <trkpt lat="45.8299" lon="4.81118">
        <ele>382.4</ele>
        <time>2019-08-30T10:16:02Z</time>
      </trkpt>
      <trkpt lat="45.82995" lon="4.81119">
        <ele>381.9</ele>
        <time>2019-08-30T10:16:03Z</time>
      </trkpt>
      <trkpt lat="45.82999" lon="4.81119">
        <ele>381.2</ele>
        <time>2019-08-30T10:16:04Z</time>
      </trkpt>
      <trkpt lat="45.83004" lon="4.81118">
        <ele>380.6</ele>
        <time>2019-08-30T10:16:05Z</time>
      </trkpt>
      <trkpt lat="45.83008" lon="4.81117">
        <ele>380</ele>
        <time>2019-08-30T10:16:06Z</time>
      </trkpt>
      <trkpt lat="45.83011" lon="4.81118">
        <ele>379.6</ele>
        <time>2019-08-30T10:16:07Z</time>
      </trkpt>
      <trkpt lat="45.83015" lon="4.81119">
        <ele>379.2</ele>
        <time>2019-08-30T10:16:08Z</time>
      </trkpt>
      <trkpt lat="45.83018" lon="4.81121">
        <ele>378.7</ele>
        <time>2019-08-30T10:16:09Z</time>
      </trkpt>
      <trkpt lat="45.83022" lon="4.81123">
        <ele>378.4</ele>
        <time>2019-08-30T10:16:10Z</time>
      </trkpt>
      <trkpt lat="45.83025" lon="4.81124">
        <ele>378.1</ele>
        <time>2019-08-30T10:16:11Z</time>
      </trkpt>
      <trkpt lat="45.83029" lon="4.81126">
        <ele>377.7</ele>
        <time>2019-08-30T10:16:12Z</time>
      </trkpt>
      <trkpt lat="45.83033" lon="4.81128">
        <ele>377.3</ele>
        <time>2019-08-30T10:16:13Z</time>
      </trkpt>
      <trkpt lat="45.83037" lon="4.8113">
        <ele>376.6</ele>
        <time>2019-08-30T10:16:14Z</time>
      </trkpt>
      <trkpt lat="45.8304" lon="4.81133">
        <ele>376</ele>
        <time>2019-08-30T10:16:15Z</time>
      </trkpt>
      <trkpt lat="45.83046" lon="4.81138">
        <ele>374.6</ele>
        <time>2019-08-30T10:16:17Z</time>
      </trkpt>
      <trkpt lat="45.83049" lon="4.81141">
        <ele>373.8</ele>
        <time>2019-08-30T10:16:18Z</time>
      </trkpt>
      <trkpt lat="45.83054" lon="4.81146">
        <ele>372.3</ele>
        <time>2019-08-30T10:16:20Z</time>
      </trkpt>
      <trkpt lat="45.83059" lon="4.81151">
        <ele>370.4</ele>
        <time>2019-08-30T10:16:22Z</time>
      </trkpt>
      <trkpt lat="45.83064" lon="4.81154">
        <ele>369</ele>
        <time>2019-08-30T10:16:24Z</time>
      </trkpt>
      <trkpt lat="45.83066" lon="4.81156">
        <ele>368.4</ele>
        <time>2019-08-30T10:16:25Z</time>
      </trkpt>
      <trkpt lat="45.83069" lon="4.81158">
        <ele>367.6</ele>
        <time>2019-08-30T10:16:26Z</time>
      </trkpt>
      <trkpt lat="45.83075" lon="4.81162">
        <ele>365.5</ele>
        <time>2019-08-30T10:16:28Z</time>
      </trkpt>
      <trkpt lat="45.8308" lon="4.81167">
        <ele>363.3</ele>
        <time>2019-08-30T10:16:30Z</time>
      </trkpt>
      <trkpt lat="45.83082" lon="4.8117">
        <ele>362.2</ele>
        <time>2019-08-30T10:16:31Z</time>
      </trkpt>
      <trkpt lat="45.83084" lon="4.81173">
        <ele>361.2</ele>
        <time>2019-08-30T10:16:32Z</time>
      </trkpt>
      <trkpt lat="45.83086" lon="4.8118">
        <ele>359.4</ele>
        <time>2019-08-30T10:16:34Z</time>
      </trkpt>
      <trkpt lat="45.83088" lon="4.81187">
        <ele>357.5</ele>
        <time>2019-08-30T10:16:36Z</time>
      </trkpt>
      <trkpt lat="45.83089" lon="4.81194">
        <ele>355.8</ele>
        <time>2019-08-30T10:16:38Z</time>
      </trkpt>
      <trkpt lat="45.83091" lon="4.81201">
        <ele>354</ele>
        <time>2019-08-30T10:16:40Z</time>
      </trkpt>
      <trkpt lat="45.83091" lon="4.8121">
        <ele>352.3</ele>
        <time>2019-08-30T10:16:42Z</time>
      </trkpt>
      <trkpt lat="45.83092" lon="4.81218">
        <ele>351</ele>
        <time>2019-08-30T10:16:44Z</time>
      </trkpt>
      <trkpt lat="45.83092" lon="4.81221">
        <ele>350.4</ele>
        <time>2019-08-30T10:16:45Z</time>
      </trkpt>
      <trkpt lat="45.83093" lon="4.81224">
        <ele>349.9</ele>
        <time>2019-08-30T10:16:46Z</time>
      </trkpt>
      <trkpt lat="45.83093" lon="4.81231">
        <ele>347.1</ele>
        <time>2019-08-30T10:16:48Z</time>
      </trkpt>
      <trkpt lat="45.83093" lon="4.81239">
        <ele>344.8</ele>
        <time>2019-08-30T10:16:50Z</time>
      </trkpt>
      <trkpt lat="45.83091" lon="4.81244">
        <ele>343.5</ele>
        <time>2019-08-30T10:16:51Z</time>
      </trkpt>
      <trkpt lat="45.8309" lon="4.81248">
        <ele>342.4</ele>
        <time>2019-08-30T10:16:52Z</time>
      </trkpt>
      <trkpt lat="45.83088" lon="4.81256">
        <ele>340.1</ele>
        <time>2019-08-30T10:16:54Z</time>
      </trkpt>
      <trkpt lat="45.83088" lon="4.81262">
        <ele>338.4</ele>
        <time>2019-08-30T10:16:56Z</time>
      </trkpt>
      <trkpt lat="45.83087" lon="4.81272">
        <ele>335.9</ele>
        <time>2019-08-30T10:16:58Z</time>
      </trkpt>
      <trkpt lat="45.83086" lon="4.8128">
        <ele>333.8</ele>
        <time>2019-08-30T10:17:00Z</time>
      </trkpt>
      <trkpt lat="45.83087" lon="4.81284">
        <ele>331.3</ele>
        <time>2019-08-30T10:17:01Z</time>
      </trkpt>
      <trkpt lat="45.83088" lon="4.81289">
        <ele>330.7</ele>
        <time>2019-08-30T10:17:02Z</time>
      </trkpt>
      <trkpt lat="45.83091" lon="4.81297">
        <ele>329.7</ele>
        <time>2019-08-30T10:17:04Z</time>
      </trkpt>
      <trkpt lat="45.83093" lon="4.813">
        <ele>329.2</ele>
        <time>2019-08-30T10:17:05Z</time>
      </trkpt>
      <trkpt lat="45.83096" lon="4.81311">
        <ele>327.8</ele>
        <time>2019-08-30T10:17:07Z</time>
      </trkpt>
      <trkpt lat="45.83097" lon="4.81319">
        <ele>326.7</ele>
        <time>2019-08-30T10:17:09Z</time>
      </trkpt>
      <trkpt lat="45.83097" lon="4.81324">
        <ele>326</ele>
        <time>2019-08-30T10:17:11Z</time>
      </trkpt>
      <trkpt lat="45.83095" lon="4.81329">
        <ele>325.3</ele>
        <time>2019-08-30T10:17:12Z</time>
      </trkpt>
      <trkpt lat="45.83093" lon="4.81333">
        <ele>324.7</ele>
        <time>2019-08-30T10:17:13Z</time>
      </trkpt>
      <trkpt lat="45.83092" lon="4.81336">
        <ele>324.2</ele>
        <time>2019-08-30T10:17:14Z</time>
      </trkpt>
      <trkpt lat="45.83092" lon="4.8134">
        <ele>323.5</ele>
        <time>2019-08-30T10:17:16Z</time>
      </trkpt>
      <trkpt lat="45.83082" lon="4.81363">
        <ele>318.8</ele>
        <time>2019-08-30T10:17:42Z</time>
      </trkpt>
      <trkpt lat="45.83079" lon="4.81368">
        <ele>317.5</ele>
        <time>2019-08-30T10:17:44Z</time>
      </trkpt>
      <trkpt lat="45.83078" lon="4.81372">
        <ele>317</ele>
        <time>2019-08-30T10:17:45Z</time>
      </trkpt>
      <trkpt lat="45.83078" lon="4.81375">
        <ele>316.8</ele>
        <time>2019-08-30T10:17:46Z</time>
      </trkpt>
      <trkpt lat="45.83078" lon="4.81381">
        <ele>316.3</ele>
        <time>2019-08-30T10:17:48Z</time>
      </trkpt>
      <trkpt lat="45.83078" lon="4.81385">
        <ele>316.1</ele>
        <time>2019-08-30T10:17:49Z</time>
      </trkpt>
      <trkpt lat="45.83083" lon="4.81409">
        <ele>313.3</ele>
        <time>2019-08-30T10:17:55Z</time>
      </trkpt>
      <trkpt lat="45.83088" lon="4.81428">
        <ele>310.6</ele>
        <time>2019-08-30T10:17:58Z</time>
      </trkpt>
      <trkpt lat="45.83098" lon="4.81443">
        <ele>307.6</ele>
        <time>2019-08-30T10:18:01Z</time>
      </trkpt>
      <trkpt lat="45.83106" lon="4.81453">
        <ele>305.4</ele>
        <time>2019-08-30T10:18:03Z</time>
      </trkpt>
      <trkpt lat="45.8311" lon="4.81458">
        <ele>304.4</ele>
        <time>2019-08-30T10:18:04Z</time>
      </trkpt>
      <trkpt lat="45.83114" lon="4.81464">
        <ele>303.5</ele>
        <time>2019-08-30T10:18:05Z</time>
      </trkpt>
      <trkpt lat="45.83119" lon="4.81472">
        <ele>302.2</ele>
        <time>2019-08-30T10:18:06Z</time>
      </trkpt>
      <trkpt lat="45.83123" lon="4.81481">
        <ele>301</ele>
        <time>2019-08-30T10:18:07Z</time>
      </trkpt>
      <trkpt lat="45.83131" lon="4.815">
        <ele>298.6</ele>
        <time>2019-08-30T10:18:09Z</time>
      </trkpt>
      <trkpt lat="45.83137" lon="4.8151">
        <ele>296.9</ele>
        <time>2019-08-30T10:18:10Z</time>
      </trkpt>
      <trkpt lat="45.83149" lon="4.81529">
        <ele>293.8</ele>
        <time>2019-08-30T10:18:12Z</time>
      </trkpt>
      <trkpt lat="45.83154" lon="4.81539">
        <ele>292.4</ele>
        <time>2019-08-30T10:18:13Z</time>
      </trkpt>
      <trkpt lat="45.83158" lon="4.81549">
        <ele>291</ele>
        <time>2019-08-30T10:18:14Z</time>
      </trkpt>
      <trkpt lat="45.83167" lon="4.8157">
        <ele>288.1</ele>
        <time>2019-08-30T10:18:16Z</time>
      </trkpt>
      <trkpt lat="45.83174" lon="4.81592">
        <ele>285.4</ele>
        <time>2019-08-30T10:18:18Z</time>
      </trkpt>
      <trkpt lat="45.8318" lon="4.81614">
        <ele>283</ele>
        <time>2019-08-30T10:18:20Z</time>
      </trkpt>
      <trkpt lat="45.83182" lon="4.81623">
        <ele>282</ele>
        <time>2019-08-30T10:18:21Z</time>
      </trkpt>
      <trkpt lat="45.83183" lon="4.81631">
        <ele>281</ele>
        <time>2019-08-30T10:18:22Z</time>
      </trkpt>
      <trkpt lat="45.83183" lon="4.81639">
        <ele>280.1</ele>
        <time>2019-08-30T10:18:23Z</time>
      </trkpt>
      <trkpt lat="45.83184" lon="4.81648">
        <ele>279</ele>
        <time>2019-08-30T10:18:24Z</time>
      </trkpt>
      <trkpt lat="45.83185" lon="4.81657">
        <ele>278.5</ele>
        <time>2019-08-30T10:18:25Z</time>
      </trkpt>
      <trkpt lat="45.83186" lon="4.81668">
        <ele>278</ele>
        <time>2019-08-30T10:18:26Z</time>
      </trkpt>
      <trkpt lat="45.83187" lon="4.81679">
        <ele>277.2</ele>
        <time>2019-08-30T10:18:27Z</time>
      </trkpt>
      <trkpt lat="45.83189" lon="4.81691">
        <ele>276.3</ele>
        <time>2019-08-30T10:18:28Z</time>
      </trkpt>
      <trkpt lat="45.83191" lon="4.81703">
        <ele>275.6</ele>
        <time>2019-08-30T10:18:29Z</time>
      </trkpt>
      <trkpt lat="45.83193" lon="4.81715">
        <ele>274.9</ele>
        <time>2019-08-30T10:18:30Z</time>
      </trkpt>
      <trkpt lat="45.83196" lon="4.81727">
        <ele>274</ele>
        <time>2019-08-30T10:18:31Z</time>
      </trkpt>
      <trkpt lat="45.83199" lon="4.81738">
        <ele>272.9</ele>
        <time>2019-08-30T10:18:32Z</time>
      </trkpt>
      <trkpt lat="45.83202" lon="4.81749">
        <ele>271.9</ele>
        <time>2019-08-30T10:18:33Z</time>
      </trkpt>
      <trkpt lat="45.83205" lon="4.8176">
        <ele>270.9</ele>
        <time>2019-08-30T10:18:34Z</time>
      </trkpt>
      <trkpt lat="45.83208" lon="4.8177">
        <ele>269.9</ele>
        <time>2019-08-30T10:18:35Z</time>
      </trkpt>
      <trkpt lat="45.83211" lon="4.81782">
        <ele>268.8</ele>
        <time>2019-08-30T10:18:36Z</time>
      </trkpt>
      <trkpt lat="45.83214" lon="4.81794">
        <ele>267.7</ele>
        <time>2019-08-30T10:18:37Z</time>
      </trkpt>
      <trkpt lat="45.83218" lon="4.81806">
        <ele>266.6</ele>
        <time>2019-08-30T10:18:38Z</time>
      </trkpt>
      <trkpt lat="45.83222" lon="4.81818">
        <ele>265.6</ele>
        <time>2019-08-30T10:18:39Z</time>
      </trkpt>
      <trkpt lat="45.83231" lon="4.81841">
        <ele>263.7</ele>
        <time>2019-08-30T10:18:41Z</time>
      </trkpt>
      <trkpt lat="45.83236" lon="4.81853">
        <ele>262.8</ele>
        <time>2019-08-30T10:18:42Z</time>
      </trkpt>
      <trkpt lat="45.83241" lon="4.81865">
        <ele>262</ele>
        <time>2019-08-30T10:18:43Z</time>
      </trkpt>
      <trkpt lat="45.83255" lon="4.81888">
        <ele>260.2</ele>
        <time>2019-08-30T10:18:45Z</time>
      </trkpt>
      <trkpt lat="45.83262" lon="4.819">
        <ele>259.3</ele>
        <time>2019-08-30T10:18:46Z</time>
      </trkpt>
      <trkpt lat="45.8327" lon="4.81912">
        <ele>258.3</ele>
        <time>2019-08-30T10:18:47Z</time>
      </trkpt>
      <trkpt lat="45.83277" lon="4.81924">
        <ele>257.3</ele>
        <time>2019-08-30T10:18:48Z</time>
      </trkpt>
      <trkpt lat="45.83284" lon="4.81936">
        <ele>256.2</ele>
        <time>2019-08-30T10:18:49Z</time>
      </trkpt>
      <trkpt lat="45.83291" lon="4.81949">
        <ele>255.1</ele>
        <time>2019-08-30T10:18:50Z</time>
      </trkpt>
      <trkpt lat="45.83298" lon="4.81961">
        <ele>254.1</ele>
        <time>2019-08-30T10:18:51Z</time>
      </trkpt>
      <trkpt lat="45.83305" lon="4.81974">
        <ele>253.3</ele>
        <time>2019-08-30T10:18:52Z</time>
      </trkpt>
      <trkpt lat="45.83312" lon="4.81987">
        <ele>252.5</ele>
        <time>2019-08-30T10:18:53Z</time>
      </trkpt>
      <trkpt lat="45.83319" lon="4.81999">
        <ele>251.5</ele>
        <time>2019-08-30T10:18:54Z</time>
      </trkpt>
      <trkpt lat="45.83326" lon="4.82011">
        <ele>250.2</ele>
        <time>2019-08-30T10:18:55Z</time>
      </trkpt>
      <trkpt lat="45.83334" lon="4.82022">
        <ele>248.9</ele>
        <time>2019-08-30T10:18:56Z</time>
      </trkpt>
      <trkpt lat="45.83351" lon="4.82042">
        <ele>247.1</ele>
        <time>2019-08-30T10:18:58Z</time>
      </trkpt>
      <trkpt lat="45.83371" lon="4.82059">
        <ele>244.5</ele>
        <time>2019-08-30T10:19:00Z</time>
      </trkpt>
      <trkpt lat="45.83381" lon="4.82067">
        <ele>243.3</ele>
        <time>2019-08-30T10:19:01Z</time>
      </trkpt>
      <trkpt lat="45.8339" lon="4.82075">
        <ele>242.4</ele>
        <time>2019-08-30T10:19:02Z</time>
      </trkpt>
      <trkpt lat="45.834" lon="4.82083">
        <ele>241.4</ele>
        <time>2019-08-30T10:19:03Z</time>
      </trkpt>
      <trkpt lat="45.83409" lon="4.8209">
        <ele>240.1</ele>
        <time>2019-08-30T10:19:04Z</time>
      </trkpt>
      <trkpt lat="45.83418" lon="4.82096">
        <ele>238.9</ele>
        <time>2019-08-30T10:19:05Z</time>
      </trkpt>
      <trkpt lat="45.83438" lon="4.82109">
        <ele>236.8</ele>
        <time>2019-08-30T10:19:07Z</time>
      </trkpt>
      <trkpt lat="45.83447" lon="4.82116">
        <ele>235.8</ele>
        <time>2019-08-30T10:19:08Z</time>
      </trkpt>
      <trkpt lat="45.83457" lon="4.82123">
        <ele>234.6</ele>
        <time>2019-08-30T10:19:09Z</time>
      </trkpt>
      <trkpt lat="45.83475" lon="4.8214">
        <ele>232.4</ele>
        <time>2019-08-30T10:19:11Z</time>
      </trkpt>
      <trkpt lat="45.83485" lon="4.82149">
        <ele>231.2</ele>
        <time>2019-08-30T10:19:12Z</time>
      </trkpt>
      <trkpt lat="45.83494" lon="4.82157">
        <ele>229.7</ele>
        <time>2019-08-30T10:19:13Z</time>
      </trkpt>
      <trkpt lat="45.83504" lon="4.82166">
        <ele>228.5</ele>
        <time>2019-08-30T10:19:14Z</time>
      </trkpt>
      <trkpt lat="45.83513" lon="4.82174">
        <ele>227.4</ele>
        <time>2019-08-30T10:19:15Z</time>
      </trkpt>
      <trkpt lat="45.83523" lon="4.82183">
        <ele>226.2</ele>
        <time>2019-08-30T10:19:16Z</time>
      </trkpt>
      <trkpt lat="45.83533" lon="4.82191">
        <ele>225</ele>
        <time>2019-08-30T10:19:17Z</time>
      </trkpt>
      <trkpt lat="45.83543" lon="4.822">
        <ele>224</ele>
        <time>2019-08-30T10:19:18Z</time>
      </trkpt>
      <trkpt lat="45.83552" lon="4.82209">
        <ele>223</ele>
        <time>2019-08-30T10:19:19Z</time>
      </trkpt>
      <trkpt lat="45.83562" lon="4.82217">
        <ele>221.6</ele>
        <time>2019-08-30T10:19:20Z</time>
      </trkpt>
      <trkpt lat="45.8357" lon="4.82225">
        <ele>220.5</ele>
        <time>2019-08-30T10:19:21Z</time>
      </trkpt>
      <trkpt lat="45.83577" lon="4.82232">
        <ele>219.6</ele>
        <time>2019-08-30T10:19:22Z</time>
      </trkpt>
      <trkpt lat="45.83583" lon="4.82237">
        <ele>218.8</ele>
        <time>2019-08-30T10:19:23Z</time>
      </trkpt>
      <trkpt lat="45.83588" lon="4.82242">
        <ele>218.1</ele>
        <time>2019-08-30T10:19:24Z</time>
      </trkpt>
      <trkpt lat="45.83596" lon="4.82249">
        <ele>217.1</ele>
        <time>2019-08-30T10:19:26Z</time>
      </trkpt>
      <trkpt lat="45.83603" lon="4.82256">
        <ele>216.4</ele>
        <time>2019-08-30T10:19:28Z</time>
      </trkpt>
      <trkpt lat="45.83606" lon="4.82261">
        <ele>216.1</ele>
        <time>2019-08-30T10:19:29Z</time>
      </trkpt>
      <trkpt lat="45.83606" lon="4.82266">
        <ele>215.8</ele>
        <time>2019-08-30T10:19:30Z</time>
      </trkpt>
      <trkpt lat="45.83602" lon="4.8228">
        <ele>214</ele>
        <time>2019-08-30T10:19:33Z</time>
      </trkpt>
      <trkpt lat="45.836" lon="4.82303">
        <ele>213.2</ele>
        <time>2019-08-30T10:19:39Z</time>
      </trkpt>
      <trkpt lat="45.83603" lon="4.82331">
        <ele>214.1</ele>
        <time>2019-08-30T10:19:47Z</time>
      </trkpt>
      <trkpt lat="45.83605" lon="4.82357">
        <ele>215.9</ele>
        <time>2019-08-30T10:19:54Z</time>
      </trkpt>
      <trkpt lat="45.83605" lon="4.82374">
        <ele>217.1</ele>
        <time>2019-08-30T10:19:59Z</time>
      </trkpt>
      <trkpt lat="45.83603" lon="4.82383">
        <ele>217.8</ele>
        <time>2019-08-30T10:20:02Z</time>
      </trkpt>
      <trkpt lat="45.83602" lon="4.82386">
        <ele>218</ele>
        <time>2019-08-30T10:20:03Z</time>
      </trkpt>
      <trkpt lat="45.83598" lon="4.824">
        <ele>219</ele>
        <time>2019-08-30T10:20:08Z</time>
      </trkpt>
      <trkpt lat="45.83597" lon="4.82403">
        <ele>219.3</ele>
        <time>2019-08-30T10:20:09Z</time>
      </trkpt>
      <trkpt lat="45.83591" lon="4.82416">
        <ele>220.3</ele>
        <time>2019-08-30T10:20:14Z</time>
      </trkpt>
      <trkpt lat="45.83585" lon="4.82426">
        <ele>221.1</ele>
        <time>2019-08-30T10:20:18Z</time>
      </trkpt>
      <trkpt lat="45.83578" lon="4.82438">
        <ele>222.1</ele>
        <time>2019-08-30T10:20:23Z</time>
      </trkpt>
      <trkpt lat="45.83574" lon="4.82447">
        <ele>222.7</ele>
        <time>2019-08-30T10:20:26Z</time>
      </trkpt>
      <trkpt lat="45.83571" lon="4.82454">
        <ele>223.2</ele>
        <time>2019-08-30T10:20:29Z</time>
      </trkpt>
      <trkpt lat="45.83566" lon="4.82466">
        <ele>224.1</ele>
        <time>2019-08-30T10:20:34Z</time>
      </trkpt>
      <trkpt lat="45.83565" lon="4.82468">
        <ele>224.3</ele>
        <time>2019-08-30T10:20:35Z</time>
      </trkpt>
      <trkpt lat="45.83561" lon="4.82482">
        <ele>225.2</ele>
        <time>2019-08-30T10:20:39Z</time>
      </trkpt>
      <trkpt lat="45.83558" lon="4.82491">
        <ele>225.8</ele>
        <time>2019-08-30T10:20:42Z</time>
      </trkpt>
      <trkpt lat="45.83557" lon="4.82493">
        <ele>226</ele>
        <time>2019-08-30T10:20:43Z</time>
      </trkpt>
      <trkpt lat="45.83554" lon="4.82506">
        <ele>226.8</ele>
        <time>2019-08-30T10:20:47Z</time>
      </trkpt>
      <trkpt lat="45.8355" lon="4.82517">
        <ele>227.6</ele>
        <time>2019-08-30T10:20:51Z</time>
      </trkpt>
      <trkpt lat="45.83549" lon="4.8252">
        <ele>227.8</ele>
        <time>2019-08-30T10:20:52Z</time>
      </trkpt>
      <trkpt lat="45.83547" lon="4.82528">
        <ele>228.2</ele>
        <time>2019-08-30T10:20:55Z</time>
      </trkpt>
      <trkpt lat="45.83545" lon="4.82537">
        <ele>228.6</ele>
        <time>2019-08-30T10:20:59Z</time>
      </trkpt>
      <trkpt lat="45.83545" lon="4.8254">
        <ele>228.8</ele>
        <time>2019-08-30T10:21:00Z</time>
      </trkpt>
      <trkpt lat="45.83543" lon="4.82547">
        <ele>229.1</ele>
        <time>2019-08-30T10:21:03Z</time>
      </trkpt>
      <trkpt lat="45.8354" lon="4.82554">
        <ele>229.4</ele>
        <time>2019-08-30T10:21:06Z</time>
      </trkpt>
      <trkpt lat="45.83538" lon="4.82561">
        <ele>229.8</ele>
        <time>2019-08-30T10:21:09Z</time>
      </trkpt>
      <trkpt lat="45.83538" lon="4.82564">
        <ele>230</ele>
        <time>2019-08-30T10:21:10Z</time>
      </trkpt>
      <trkpt lat="45.83534" lon="4.82574">
        <ele>230.7</ele>
        <time>2019-08-30T10:21:14Z</time>
      </trkpt>
      <trkpt lat="45.83532" lon="4.82582">
        <ele>231.2</ele>
        <time>2019-08-30T10:21:17Z</time>
      </trkpt>
      <trkpt lat="45.83531" lon="4.82587">
        <ele>231.6</ele>
        <time>2019-08-30T10:21:19Z</time>
      </trkpt>
      <trkpt lat="45.83527" lon="4.82599">
        <ele>232.5</ele>
        <time>2019-08-30T10:21:24Z</time>
      </trkpt>
      <trkpt lat="45.83527" lon="4.82602">
        <ele>232.7</ele>
        <time>2019-08-30T10:21:25Z</time>
      </trkpt>
      <trkpt lat="45.83524" lon="4.8261">
        <ele>233.2</ele>
        <time>2019-08-30T10:21:28Z</time>
      </trkpt>
      <trkpt lat="45.83521" lon="4.82619">
        <ele>233.9</ele>
        <time>2019-08-30T10:21:31Z</time>
      </trkpt>
      <trkpt lat="45.83519" lon="4.82625">
        <ele>234.3</ele>
        <time>2019-08-30T10:21:33Z</time>
      </trkpt>
      <trkpt lat="45.83518" lon="4.82627">
        <ele>234.5</ele>
        <time>2019-08-30T10:21:34Z</time>
      </trkpt>
      <trkpt lat="45.83514" lon="4.82635">
        <ele>235.1</ele>
        <time>2019-08-30T10:21:37Z</time>
      </trkpt>
      <trkpt lat="45.83509" lon="4.82647">
        <ele>235.9</ele>
        <time>2019-08-30T10:21:41Z</time>
      </trkpt>
      <trkpt lat="45.83495" lon="4.82667">
        <ele>237.5</ele>
        <time>2019-08-30T10:21:48Z</time>
      </trkpt>
      <trkpt lat="45.83494" lon="4.8267">
        <ele>237.7</ele>
        <time>2019-08-30T10:21:49Z</time>
      </trkpt>
      <trkpt lat="45.8348" lon="4.82694">
        <ele>239.7</ele>
        <time>2019-08-30T10:21:58Z</time>
      </trkpt>
      <trkpt lat="45.83479" lon="4.82697">
        <ele>240</ele>
        <time>2019-08-30T10:21:59Z</time>
      </trkpt>
      <trkpt lat="45.83472" lon="4.82709">
        <ele>241</ele>
        <time>2019-08-30T10:22:04Z</time>
      </trkpt>
      <trkpt lat="45.83468" lon="4.82717">
        <ele>241.4</ele>
        <time>2019-08-30T10:22:07Z</time>
      </trkpt>
      <trkpt lat="45.83466" lon="4.82721">
        <ele>241.7</ele>
        <time>2019-08-30T10:22:09Z</time>
      </trkpt>
      <trkpt lat="45.83459" lon="4.82733">
        <ele>242.5</ele>
        <time>2019-08-30T10:22:14Z</time>
      </trkpt>
      <trkpt lat="45.83458" lon="4.82735">
        <ele>242.6</ele>
        <time>2019-08-30T10:22:15Z</time>
      </trkpt>
      <trkpt lat="45.83454" lon="4.82742">
        <ele>243.2</ele>
        <time>2019-08-30T10:22:18Z</time>
      </trkpt>
      <trkpt lat="45.83449" lon="4.82758">
        <ele>244.6</ele>
        <time>2019-08-30T10:22:24Z</time>
      </trkpt>
      <trkpt lat="45.83446" lon="4.82773">
        <ele>245.4</ele>
        <time>2019-08-30T10:22:29Z</time>
      </trkpt>
      <trkpt lat="45.83444" lon="4.82786">
        <ele>246.1</ele>
        <time>2019-08-30T10:22:33Z</time>
      </trkpt>
      <trkpt lat="45.83443" lon="4.82792">
        <ele>246.4</ele>
        <time>2019-08-30T10:22:35Z</time>
      </trkpt>
      <trkpt lat="45.83443" lon="4.82804">
        <ele>246.7</ele>
        <time>2019-08-30T10:22:39Z</time>
      </trkpt>
      <trkpt lat="45.83444" lon="4.8281">
        <ele>246.8</ele>
        <time>2019-08-30T10:22:41Z</time>
      </trkpt>
      <trkpt lat="45.83444" lon="4.82817">
        <ele>246.9</ele>
        <time>2019-08-30T10:22:43Z</time>
      </trkpt>
      <trkpt lat="45.83444" lon="4.82827">
        <ele>247</ele>
        <time>2019-08-30T10:22:46Z</time>
      </trkpt>
      <trkpt lat="45.83444" lon="4.8283">
        <ele>247</ele>
        <time>2019-08-30T10:22:48Z</time>
      </trkpt>
      <trkpt lat="45.83438" lon="4.82855">
        <ele>247</ele>
        <time>2019-08-30T10:22:54Z</time>
      </trkpt>
      <trkpt lat="45.83432" lon="4.82877">
        <ele>247</ele>
        <time>2019-08-30T10:22:58Z</time>
      </trkpt>
      <trkpt lat="45.83428" lon="4.8289">
        <ele>247</ele>
        <time>2019-08-30T10:23:00Z</time>
      </trkpt>
      <trkpt lat="45.83426" lon="4.82897">
        <ele>247</ele>
        <time>2019-08-30T10:23:01Z</time>
      </trkpt>
      <trkpt lat="45.8342" lon="4.82919">
        <ele>247</ele>
        <time>2019-08-30T10:23:04Z</time>
      </trkpt>
      <trkpt lat="45.83414" lon="4.8294">
        <ele>247.9</ele>
        <time>2019-08-30T10:23:07Z</time>
      </trkpt>
      <trkpt lat="45.8341" lon="4.82952">
        <ele>248.4</ele>
        <time>2019-08-30T10:23:09Z</time>
      </trkpt>
      <trkpt lat="45.83402" lon="4.82966">
        <ele>249.3</ele>
        <time>2019-08-30T10:23:12Z</time>
      </trkpt>
      <trkpt lat="45.83385" lon="4.82982">
        <ele>251</ele>
        <time>2019-08-30T10:23:18Z</time>
      </trkpt>
      <trkpt lat="45.83364" lon="4.82999">
        <ele>253.4</ele>
        <time>2019-08-30T10:23:24Z</time>
      </trkpt>
      <trkpt lat="45.83357" lon="4.83007">
        <ele>253.9</ele>
        <time>2019-08-30T10:23:26Z</time>
      </trkpt>
      <trkpt lat="45.8335" lon="4.83017">
        <ele>254.4</ele>
        <time>2019-08-30T10:23:28Z</time>
      </trkpt>
      <trkpt lat="45.83344" lon="4.83029">
        <ele>254.9</ele>
        <time>2019-08-30T10:23:30Z</time>
      </trkpt>
      <trkpt lat="45.83328" lon="4.83063">
        <ele>256.5</ele>
        <time>2019-08-30T10:23:36Z</time>
      </trkpt>
      <trkpt lat="45.83323" lon="4.83074">
        <ele>257</ele>
        <time>2019-08-30T10:23:38Z</time>
      </trkpt>
      <trkpt lat="45.83311" lon="4.83101">
        <ele>258.1</ele>
        <time>2019-08-30T10:23:44Z</time>
      </trkpt>
      <trkpt lat="45.83309" lon="4.83105">
        <ele>258.2</ele>
        <time>2019-08-30T10:23:45Z</time>
      </trkpt>
      <trkpt lat="45.83301" lon="4.83123">
        <ele>258.7</ele>
        <time>2019-08-30T10:23:50Z</time>
      </trkpt>
      <trkpt lat="45.83298" lon="4.8313">
        <ele>258.9</ele>
        <time>2019-08-30T10:23:52Z</time>
      </trkpt>
      <trkpt lat="45.83293" lon="4.83139">
        <ele>259.1</ele>
        <time>2019-08-30T10:23:55Z</time>
      </trkpt>
      <trkpt lat="45.83286" lon="4.83149">
        <ele>259.4</ele>
        <time>2019-08-30T10:23:58Z</time>
      </trkpt>
      <trkpt lat="45.83261" lon="4.83175">
        <ele>260.6</ele>
        <time>2019-08-30T10:24:05Z</time>
      </trkpt>
      <trkpt lat="45.83254" lon="4.83184">
        <ele>260.8</ele>
        <time>2019-08-30T10:24:07Z</time>
      </trkpt>
      <trkpt lat="45.83249" lon="4.83194">
        <ele>260.8</ele>
        <time>2019-08-30T10:24:09Z</time>
      </trkpt>
      <trkpt lat="45.83243" lon="4.83205">
        <ele>260.8</ele>
        <time>2019-08-30T10:24:11Z</time>
      </trkpt>
      <trkpt lat="45.83221" lon="4.83246">
        <ele>261.2</ele>
        <time>2019-08-30T10:24:18Z</time>
      </trkpt>
      <trkpt lat="45.83203" lon="4.83273">
        <ele>261.7</ele>
        <time>2019-08-30T10:24:23Z</time>
      </trkpt>
      <trkpt lat="45.83196" lon="4.83284">
        <ele>261.9</ele>
        <time>2019-08-30T10:24:25Z</time>
      </trkpt>
      <trkpt lat="45.83183" lon="4.83306">
        <ele>262.5</ele>
        <time>2019-08-30T10:24:29Z</time>
      </trkpt>
      <trkpt lat="45.83176" lon="4.83315">
        <ele>262.8</ele>
        <time>2019-08-30T10:24:31Z</time>
      </trkpt>
      <trkpt lat="45.83167" lon="4.83325">
        <ele>263.1</ele>
        <time>2019-08-30T10:24:34Z</time>
      </trkpt>
      <trkpt lat="45.83161" lon="4.83332">
        <ele>263.3</ele>
        <time>2019-08-30T10:24:36Z</time>
      </trkpt>
      <trkpt lat="45.83138" lon="4.8336">
        <ele>264.2</ele>
        <time>2019-08-30T10:24:42Z</time>
      </trkpt>
      <trkpt lat="45.83136" lon="4.83368">
        <ele>264.3</ele>
        <time>2019-08-30T10:24:44Z</time>
      </trkpt>
      <trkpt lat="45.83135" lon="4.83372">
        <ele>264.3</ele>
        <time>2019-08-30T10:24:45Z</time>
      </trkpt>
      <trkpt lat="45.8313" lon="4.83391">
        <ele>260.8</ele>
        <time>2019-08-30T10:24:50Z</time>
      </trkpt>
      <trkpt lat="45.83132" lon="4.83393">
        <ele>260.5</ele>
        <time>2019-08-30T10:24:51Z</time>
      </trkpt>
      <trkpt lat="45.83138" lon="4.83394">
        <ele>259.6</ele>
        <time>2019-08-30T10:24:53Z</time>
      </trkpt>
      <trkpt lat="45.83153" lon="4.83396">
        <ele>257.4</ele>
        <time>2019-08-30T10:24:56Z</time>
      </trkpt>
      <trkpt lat="45.83158" lon="4.83394">
        <ele>256.7</ele>
        <time>2019-08-30T10:24:57Z</time>
      </trkpt>
      <trkpt lat="45.83171" lon="4.83389">
        <ele>255</ele>
        <time>2019-08-30T10:24:59Z</time>
      </trkpt>
      <trkpt lat="45.83179" lon="4.83386">
        <ele>254</ele>
        <time>2019-08-30T10:25:00Z</time>
      </trkpt>
      <trkpt lat="45.83187" lon="4.83382">
        <ele>253</ele>
        <time>2019-08-30T10:25:01Z</time>
      </trkpt>
      <trkpt lat="45.83195" lon="4.83376">
        <ele>252</ele>
        <time>2019-08-30T10:25:02Z</time>
      </trkpt>
      <trkpt lat="45.8321" lon="4.83364">
        <ele>250.5</ele>
        <time>2019-08-30T10:25:04Z</time>
      </trkpt>
      <trkpt lat="45.83217" lon="4.83357">
        <ele>249.7</ele>
        <time>2019-08-30T10:25:05Z</time>
      </trkpt>
      <trkpt lat="45.8324" lon="4.83331">
        <ele>246.7</ele>
        <time>2019-08-30T10:25:09Z</time>
      </trkpt>
      <trkpt lat="45.83248" lon="4.83318">
        <ele>245.7</ele>
        <time>2019-08-30T10:25:11Z</time>
      </trkpt>
      <trkpt lat="45.83267" lon="4.83276">
        <ele>242.5</ele>
        <time>2019-08-30T10:25:17Z</time>
      </trkpt>
      <trkpt lat="45.8327" lon="4.83269">
        <ele>241.5</ele>
        <time>2019-08-30T10:25:18Z</time>
      </trkpt>
      <trkpt lat="45.83279" lon="4.83252">
        <ele>239.3</ele>
        <time>2019-08-30T10:25:21Z</time>
      </trkpt>
      <trkpt lat="45.83284" lon="4.83247">
        <ele>238.5</ele>
        <time>2019-08-30T10:25:22Z</time>
      </trkpt>
      <trkpt lat="45.83302" lon="4.83237">
        <ele>236.4</ele>
        <time>2019-08-30T10:25:26Z</time>
      </trkpt>
      <trkpt lat="45.83321" lon="4.83236">
        <ele>234.7</ele>
        <time>2019-08-30T10:25:30Z</time>
      </trkpt>
      <trkpt lat="45.83327" lon="4.83236">
        <ele>234.4</ele>
        <time>2019-08-30T10:25:31Z</time>
      </trkpt>
      <trkpt lat="45.83343" lon="4.8324">
        <ele>233.4</ele>
        <time>2019-08-30T10:25:34Z</time>
      </trkpt>
      <trkpt lat="45.83359" lon="4.83246">
        <ele>232</ele>
        <time>2019-08-30T10:25:37Z</time>
      </trkpt>
      <trkpt lat="45.83376" lon="4.83254">
        <ele>230.8</ele>
        <time>2019-08-30T10:25:40Z</time>
      </trkpt>
      <trkpt lat="45.83388" lon="4.8326">
        <ele>229.9</ele>
        <time>2019-08-30T10:25:42Z</time>
      </trkpt>
      <trkpt lat="45.83401" lon="4.83268">
        <ele>229.2</ele>
        <time>2019-08-30T10:25:44Z</time>
      </trkpt>
      <trkpt lat="45.83407" lon="4.8327">
        <ele>228.7</ele>
        <time>2019-08-30T10:25:45Z</time>
      </trkpt>
      <trkpt lat="45.83424" lon="4.83273">
        <ele>226.4</ele>
        <time>2019-08-30T10:25:48Z</time>
      </trkpt>
      <trkpt lat="45.83438" lon="4.83271">
        <ele>223.8</ele>
        <time>2019-08-30T10:25:51Z</time>
      </trkpt>
      <trkpt lat="45.83442" lon="4.83268">
        <ele>222.8</ele>
        <time>2019-08-30T10:25:52Z</time>
      </trkpt>
      <trkpt lat="45.83446" lon="4.83261">
        <ele>221.7</ele>
        <time>2019-08-30T10:25:54Z</time>
      </trkpt>
      <trkpt lat="45.83447" lon="4.83257">
        <ele>221.2</ele>
        <time>2019-08-30T10:25:55Z</time>
      </trkpt>
      <trkpt lat="45.83446" lon="4.83243">
        <ele>219.3</ele>
        <time>2019-08-30T10:25:58Z</time>
      </trkpt>
      <trkpt lat="45.83442" lon="4.83227">
        <ele>216.7</ele>
        <time>2019-08-30T10:26:01Z</time>
      </trkpt>
      <trkpt lat="45.83438" lon="4.83216">
        <ele>215.1</ele>
        <time>2019-08-30T10:26:03Z</time>
      </trkpt>
      <trkpt lat="45.83437" lon="4.83211">
        <ele>214.5</ele>
        <time>2019-08-30T10:26:04Z</time>
      </trkpt>
      <trkpt lat="45.83436" lon="4.83207">
        <ele>214</ele>
        <time>2019-08-30T10:26:05Z</time>
      </trkpt>
      <trkpt lat="45.83438" lon="4.83201">
        <ele>213.3</ele>
        <time>2019-08-30T10:26:07Z</time>
      </trkpt>
      <trkpt lat="45.83439" lon="4.832">
        <ele>213.1</ele>
        <time>2019-08-30T10:26:08Z</time>
      </trkpt>
      <trkpt lat="45.8344" lon="4.83199">
        <ele>212.7</ele>
        <time>2019-08-30T10:26:09Z</time>
      </trkpt>
      <trkpt lat="45.83444" lon="4.83195">
        <ele>212</ele>
        <time>2019-08-30T10:26:11Z</time>
      </trkpt>
      <trkpt lat="45.83449" lon="4.83191">
        <ele>211</ele>
        <time>2019-08-30T10:26:13Z</time>
      </trkpt>
      <trkpt lat="45.83453" lon="4.83189">
        <ele>210.5</ele>
        <time>2019-08-30T10:26:14Z</time>
      </trkpt>
      <trkpt lat="45.83462" lon="4.83185">
        <ele>209.2</ele>
        <time>2019-08-30T10:26:16Z</time>
      </trkpt>
      <trkpt lat="45.83473" lon="4.83178">
        <ele>207.9</ele>
        <time>2019-08-30T10:26:18Z</time>
      </trkpt>
      <trkpt lat="45.8348" lon="4.83174">
        <ele>207.2</ele>
        <time>2019-08-30T10:26:19Z</time>
      </trkpt>
      <trkpt lat="45.83506" lon="4.83151">
        <ele>203.5</ele>
        <time>2019-08-30T10:26:23Z</time>
      </trkpt>
      <trkpt lat="45.83549" lon="4.83113">
        <ele>198.7</ele>
        <time>2019-08-30T10:26:29Z</time>
      </trkpt>
      <trkpt lat="45.83586" lon="4.83079">
        <ele>196.6</ele>
        <time>2019-08-30T10:26:33Z</time>
      </trkpt>
      <trkpt lat="45.83606" lon="4.83056">
        <ele>196.2</ele>
        <time>2019-08-30T10:26:36Z</time>
      </trkpt>
      <trkpt lat="45.83612" lon="4.83049">
        <ele>196.1</ele>
        <time>2019-08-30T10:26:37Z</time>
      </trkpt>
      <trkpt lat="45.83629" lon="4.83027">
        <ele>195.4</ele>
        <time>2019-08-30T10:26:40Z</time>
      </trkpt>
      <trkpt lat="45.83645" lon="4.83004">
        <ele>194.2</ele>
        <time>2019-08-30T10:26:43Z</time>
      </trkpt>
      <trkpt lat="45.8365" lon="4.82996">
        <ele>193.6</ele>
        <time>2019-08-30T10:26:44Z</time>
      </trkpt>
      <trkpt lat="45.83668" lon="4.82976">
        <ele>191.7</ele>
        <time>2019-08-30T10:26:47Z</time>
      </trkpt>
      <trkpt lat="45.83682" lon="4.82964">
        <ele>190.1</ele>
        <time>2019-08-30T10:26:49Z</time>
      </trkpt>
      <trkpt lat="45.83703" lon="4.82948">
        <ele>187.7</ele>
        <time>2019-08-30T10:26:52Z</time>
      </trkpt>
      <trkpt lat="45.83715" lon="4.82942">
        <ele>186.3</ele>
        <time>2019-08-30T10:26:54Z</time>
      </trkpt>
      <trkpt lat="45.83721" lon="4.8294">
        <ele>185.7</ele>
        <time>2019-08-30T10:26:55Z</time>
      </trkpt>
      <trkpt lat="45.83727" lon="4.82939">
        <ele>185.2</ele>
        <time>2019-08-30T10:26:56Z</time>
      </trkpt>
      <trkpt lat="45.83733" lon="4.82937">
        <ele>184.9</ele>
        <time>2019-08-30T10:26:57Z</time>
      </trkpt>
      <trkpt lat="45.83739" lon="4.82937">
        <ele>184.6</ele>
        <time>2019-08-30T10:26:58Z</time>
      </trkpt>
      <trkpt lat="45.83744" lon="4.82939">
        <ele>184.3</ele>
        <time>2019-08-30T10:26:59Z</time>
      </trkpt>
      <trkpt lat="45.83749" lon="4.82944">
        <ele>183.9</ele>
        <time>2019-08-30T10:27:00Z</time>
      </trkpt>
      <trkpt lat="45.83753" lon="4.8295">
        <ele>182.6</ele>
        <time>2019-08-30T10:27:01Z</time>
      </trkpt>
      <trkpt lat="45.83758" lon="4.82955">
        <ele>182.5</ele>
        <time>2019-08-30T10:27:02Z</time>
      </trkpt>
      <trkpt lat="45.83763" lon="4.82959">
        <ele>182.4</ele>
        <time>2019-08-30T10:27:03Z</time>
      </trkpt>
      <trkpt lat="45.83775" lon="4.82961">
        <ele>181.5</ele>
        <time>2019-08-30T10:27:05Z</time>
      </trkpt>
      <trkpt lat="45.83787" lon="4.82955">
        <ele>180.7</ele>
        <time>2019-08-30T10:27:07Z</time>
      </trkpt>
      <trkpt lat="45.83793" lon="4.82949">
        <ele>180.7</ele>
        <time>2019-08-30T10:27:08Z</time>
      </trkpt>
      <trkpt lat="45.83799" lon="4.82943">
        <ele>180.8</ele>
        <time>2019-08-30T10:27:09Z</time>
      </trkpt>
      <trkpt lat="45.83805" lon="4.82936">
        <ele>180.8</ele>
        <time>2019-08-30T10:27:10Z</time>
      </trkpt>
      <trkpt lat="45.83817" lon="4.82922">
        <ele>181</ele>
        <time>2019-08-30T10:27:12Z</time>
      </trkpt>
      <trkpt lat="45.83831" lon="4.82909">
        <ele>181.4</ele>
        <time>2019-08-30T10:27:14Z</time>
      </trkpt>
      <trkpt lat="45.83847" lon="4.82898">
        <ele>181.6</ele>
        <time>2019-08-30T10:27:16Z</time>
      </trkpt>
      <trkpt lat="45.83863" lon="4.82886">
        <ele>182.4</ele>
        <time>2019-08-30T10:27:18Z</time>
      </trkpt>
      <trkpt lat="45.83878" lon="4.82877">
        <ele>181.9</ele>
        <time>2019-08-30T10:27:20Z</time>
      </trkpt>
      <trkpt lat="45.83891" lon="4.8287">
        <ele>181.2</ele>
        <time>2019-08-30T10:27:22Z</time>
      </trkpt>
      <trkpt lat="45.83909" lon="4.82862">
        <ele>181.1</ele>
        <time>2019-08-30T10:27:25Z</time>
      </trkpt>
      <trkpt lat="45.83925" lon="4.82857">
        <ele>181.5</ele>
        <time>2019-08-30T10:27:28Z</time>
      </trkpt>
      <trkpt lat="45.83944" lon="4.8285">
        <ele>182.6</ele>
        <time>2019-08-30T10:27:32Z</time>
      </trkpt>
      <trkpt lat="45.83954" lon="4.82839">
        <ele>183.6</ele>
        <time>2019-08-30T10:27:35Z</time>
      </trkpt>
      <trkpt lat="45.8396" lon="4.82831">
        <ele>184</ele>
        <time>2019-08-30T10:27:37Z</time>
      </trkpt>
      <trkpt lat="45.83962" lon="4.82828">
        <ele>184.1</ele>
        <time>2019-08-30T10:27:38Z</time>
      </trkpt>
      <trkpt lat="45.83968" lon="4.82823">
        <ele>183.9</ele>
        <time>2019-08-30T10:27:40Z</time>
      </trkpt>
      <trkpt lat="45.83972" lon="4.82818">
        <ele>183.9</ele>
        <time>2019-08-30T10:27:43Z</time>
      </trkpt>
      <trkpt lat="45.83971" lon="4.82819">
        <ele>183.9</ele>
        <time>2019-08-30T10:27:45Z</time>
      </trkpt>
      <trkpt lat="45.8397" lon="4.82824">
        <ele>183.9</ele>
        <time>2019-08-30T10:27:46Z</time>
      </trkpt>
      <trkpt lat="45.83971" lon="4.82829">
        <ele>183.9</ele>
        <time>2019-08-30T10:27:47Z</time>
      </trkpt>
      <trkpt lat="45.83975" lon="4.8284">
        <ele>182</ele>
        <time>2019-08-30T10:27:49Z</time>
      </trkpt>
      <trkpt lat="45.83977" lon="4.82845">
        <ele>181.8</ele>
        <time>2019-08-30T10:27:50Z</time>
      </trkpt>
      <trkpt lat="45.83982" lon="4.82855">
        <ele>181.3</ele>
        <time>2019-08-30T10:27:53Z</time>
      </trkpt>
      <trkpt lat="45.83983" lon="4.82857">
        <ele>181.3</ele>
        <time>2019-08-30T10:27:54Z</time>
      </trkpt>
      <trkpt lat="45.83983" lon="4.82858">
        <ele>181.2</ele>
        <time>2019-08-30T10:27:55Z</time>
      </trkpt>
      <trkpt lat="45.83989" lon="4.82854">
        <ele>180.9</ele>
        <time>2019-08-30T10:28:04Z</time>
      </trkpt>
      <trkpt lat="45.8399" lon="4.82852">
        <ele>180.8</ele>
        <time>2019-08-30T10:28:05Z</time>
      </trkpt>
      <trkpt lat="45.84006" lon="4.82843">
        <ele>183.7</ele>
        <time>2019-08-30T10:28:12Z</time>
      </trkpt>
      <trkpt lat="45.84029" lon="4.82834">
        <ele>184</ele>
        <time>2019-08-30T10:28:18Z</time>
      </trkpt>
      <trkpt lat="45.84057" lon="4.82823">
        <ele>184.1</ele>
        <time>2019-08-30T10:28:26Z</time>
      </trkpt>
      <trkpt lat="45.84086" lon="4.82812">
        <ele>184.5</ele>
        <time>2019-08-30T10:28:34Z</time>
      </trkpt>
      <trkpt lat="45.84113" lon="4.82804">
        <ele>184.7</ele>
        <time>2019-08-30T10:28:41Z</time>
      </trkpt>
      <trkpt lat="45.84123" lon="4.82801">
        <ele>184.8</ele>
        <time>2019-08-30T10:28:44Z</time>
      </trkpt>
      <trkpt lat="45.84135" lon="4.828">
        <ele>185</ele>
        <time>2019-08-30T10:28:47Z</time>
      </trkpt>
      <trkpt lat="45.84142" lon="4.82799">
        <ele>185.2</ele>
        <time>2019-08-30T10:28:49Z</time>
      </trkpt>
      <trkpt lat="45.84177" lon="4.82792">
        <ele>184.9</ele>
        <time>2019-08-30T10:28:57Z</time>
      </trkpt>
      <trkpt lat="45.8422" lon="4.82787">
        <ele>184.5</ele>
        <time>2019-08-30T10:29:07Z</time>
      </trkpt>
      <trkpt lat="45.84254" lon="4.82786">
        <ele>183.6</ele>
        <time>2019-08-30T10:29:14Z</time>
      </trkpt>
      <trkpt lat="45.8429" lon="4.82785">
        <ele>183.5</ele>
        <time>2019-08-30T10:29:21Z</time>
      </trkpt>
      <trkpt lat="45.84317" lon="4.82784">
        <ele>183.5</ele>
        <time>2019-08-30T10:29:27Z</time>
      </trkpt>
      <trkpt lat="45.84326" lon="4.82784">
        <ele>183.5</ele>
        <time>2019-08-30T10:29:29Z</time>
      </trkpt>
      <trkpt lat="45.84344" lon="4.82786">
        <ele>183.9</ele>
        <time>2019-08-30T10:29:33Z</time>
      </trkpt>
      <trkpt lat="45.84367" lon="4.82787">
        <ele>184.5</ele>
        <time>2019-08-30T10:29:38Z</time>
      </trkpt>
      <trkpt lat="45.84384" lon="4.8279">
        <ele>184.5</ele>
        <time>2019-08-30T10:29:42Z</time>
      </trkpt>
      <trkpt lat="45.84388" lon="4.82792">
        <ele>184.5</ele>
        <time>2019-08-30T10:29:43Z</time>
      </trkpt>
      <trkpt lat="45.84392" lon="4.82795">
        <ele>184.5</ele>
        <time>2019-08-30T10:29:44Z</time>
      </trkpt>
      <trkpt lat="45.84397" lon="4.82797">
        <ele>184.6</ele>
        <time>2019-08-30T10:29:45Z</time>
      </trkpt>
      <trkpt lat="45.84417" lon="4.82803">
        <ele>185</ele>
        <time>2019-08-30T10:29:50Z</time>
      </trkpt>
      <trkpt lat="45.84428" lon="4.82804">
        <ele>185.2</ele>
        <time>2019-08-30T10:29:54Z</time>
      </trkpt>
      <trkpt lat="45.84431" lon="4.82806">
        <ele>185.3</ele>
        <time>2019-08-30T10:30:05Z</time>
      </trkpt>
      <trkpt lat="45.84439" lon="4.82808">
        <ele>185.5</ele>
        <time>2019-08-30T10:30:08Z</time>
      </trkpt>
      <trkpt lat="45.84461" lon="4.82814">
        <ele>186.5</ele>
        <time>2019-08-30T10:30:14Z</time>
      </trkpt>
      <trkpt lat="45.84475" lon="4.82812">
        <ele>186.9</ele>
        <time>2019-08-30T10:30:19Z</time>
      </trkpt>
      <trkpt lat="45.84477" lon="4.82811">
        <ele>186.9</ele>
        <time>2019-08-30T10:30:20Z</time>
      </trkpt>
      <trkpt lat="45.8448" lon="4.82812">
        <ele>187.1</ele>
        <time>2019-08-30T10:30:22Z</time>
      </trkpt>
      <trkpt lat="45.84481" lon="4.82814">
        <ele>187.1</ele>
        <time>2019-08-30T10:30:23Z</time>
      </trkpt>
      <trkpt lat="45.84482" lon="4.82816">
        <ele>186.4</ele>
        <time>2019-08-30T10:30:24Z</time>
      </trkpt>
      <trkpt lat="45.84487" lon="4.82833">
        <ele>186.1</ele>
        <time>2019-08-30T10:30:28Z</time>
      </trkpt>
      <trkpt lat="45.84488" lon="4.8284">
        <ele>185.9</ele>
        <time>2019-08-30T10:30:29Z</time>
      </trkpt>
      <trkpt lat="45.84489" lon="4.82869">
        <ele>181.9</ele>
        <time>2019-08-30T10:30:33Z</time>
      </trkpt>
      <trkpt lat="45.84489" lon="4.82877">
        <ele>181.4</ele>
        <time>2019-08-30T10:30:34Z</time>
      </trkpt>
      <trkpt lat="45.84488" lon="4.82892">
        <ele>180.5</ele>
        <time>2019-08-30T10:30:36Z</time>
      </trkpt>
      <trkpt lat="45.84488" lon="4.82903">
        <ele>179.9</ele>
        <time>2019-08-30T10:30:38Z</time>
      </trkpt>
      <trkpt lat="45.84491" lon="4.82912">
        <ele>179.4</ele>
        <time>2019-08-30T10:30:40Z</time>
      </trkpt>
      <trkpt lat="45.84495" lon="4.82922">
        <ele>178.8</ele>
        <time>2019-08-30T10:30:42Z</time>
      </trkpt>
      <trkpt lat="45.84497" lon="4.82927">
        <ele>178.5</ele>
        <time>2019-08-30T10:30:43Z</time>
      </trkpt>
      <trkpt lat="45.8451" lon="4.82962">
        <ele>176.8</ele>
        <time>2019-08-30T10:30:48Z</time>
      </trkpt>
      <trkpt lat="45.84515" lon="4.82979">
        <ele>175.9</ele>
        <time>2019-08-30T10:30:50Z</time>
      </trkpt>
      <trkpt lat="45.84524" lon="4.83016">
        <ele>174.4</ele>
        <time>2019-08-30T10:30:54Z</time>
      </trkpt>
      <trkpt lat="45.84528" lon="4.83035">
        <ele>173.6</ele>
        <time>2019-08-30T10:30:56Z</time>
      </trkpt>
      <trkpt lat="45.84531" lon="4.83051">
        <ele>172.7</ele>
        <time>2019-08-30T10:30:58Z</time>
      </trkpt>
      <trkpt lat="45.84533" lon="4.83065">
        <ele>172</ele>
        <time>2019-08-30T10:31:00Z</time>
      </trkpt>
      <trkpt lat="45.84535" lon="4.83072">
        <ele>171.6</ele>
        <time>2019-08-30T10:31:01Z</time>
      </trkpt>
      <trkpt lat="45.84539" lon="4.83094">
        <ele>171</ele>
        <time>2019-08-30T10:31:04Z</time>
      </trkpt>
      <trkpt lat="45.84543" lon="4.83115">
        <ele>170.7</ele>
        <time>2019-08-30T10:31:07Z</time>
      </trkpt>
      <trkpt lat="45.84545" lon="4.83128">
        <ele>170.5</ele>
        <time>2019-08-30T10:31:09Z</time>
      </trkpt>
      <trkpt lat="45.84548" lon="4.83146">
        <ele>170.3</ele>
        <time>2019-08-30T10:31:13Z</time>
      </trkpt>
      <trkpt lat="45.84548" lon="4.8315">
        <ele>170.2</ele>
        <time>2019-08-30T10:31:14Z</time>
      </trkpt>
      <trkpt lat="45.84546" lon="4.83163">
        <ele>170.1</ele>
        <time>2019-08-30T10:31:18Z</time>
      </trkpt>
      <trkpt lat="45.84544" lon="4.83164">
        <ele>170.1</ele>
        <time>2019-08-30T10:31:19Z</time>
      </trkpt>
      <trkpt lat="45.84533" lon="4.83169">
        <ele>170.2</ele>
        <time>2019-08-30T10:31:24Z</time>
      </trkpt>
      <trkpt lat="45.84528" lon="4.83189">
        <ele>170</ele>
        <time>2019-08-30T10:31:28Z</time>
      </trkpt>
      <trkpt lat="45.84528" lon="4.83199">
        <ele>169.9</ele>
        <time>2019-08-30T10:31:30Z</time>
      </trkpt>
      <trkpt lat="45.84525" lon="4.83214">
        <ele>169.6</ele>
        <time>2019-08-30T10:31:34Z</time>
      </trkpt>
      <trkpt lat="45.84524" lon="4.83225">
        <ele>169.1</ele>
        <time>2019-08-30T10:32:25Z</time>
      </trkpt>
      <trkpt lat="45.84524" lon="4.83229">
        <ele>168.9</ele>
        <time>2019-08-30T10:32:26Z</time>
      </trkpt>
      <trkpt lat="45.84523" lon="4.83234">
        <ele>168.7</ele>
        <time>2019-08-30T10:32:27Z</time>
      </trkpt>
      <trkpt lat="45.8452" lon="4.8325">
        <ele>167.4</ele>
        <time>2019-08-30T10:32:30Z</time>
      </trkpt>
      <trkpt lat="45.84518" lon="4.83261">
        <ele>167.4</ele>
        <time>2019-08-30T10:32:32Z</time>
      </trkpt>
      <trkpt lat="45.84516" lon="4.83272">
        <ele>167.4</ele>
        <time>2019-08-30T10:32:34Z</time>
      </trkpt>
      <trkpt lat="45.84514" lon="4.83282">
        <ele>167.4</ele>
        <time>2019-08-30T10:32:36Z</time>
      </trkpt>
      <trkpt lat="45.84513" lon="4.83288">
        <ele>167.4</ele>
        <time>2019-08-30T10:32:37Z</time>
      </trkpt>
      <trkpt lat="45.84512" lon="4.83293">
        <ele>167.4</ele>
        <time>2019-08-30T10:32:38Z</time>
      </trkpt>
      <trkpt lat="45.8451" lon="4.83305">
        <ele>167.4</ele>
        <time>2019-08-30T10:32:40Z</time>
      </trkpt>
      <trkpt lat="45.84507" lon="4.83329">
        <ele>167.4</ele>
        <time>2019-08-30T10:32:44Z</time>
      </trkpt>
      <trkpt lat="45.84506" lon="4.83341">
        <ele>167.4</ele>
        <time>2019-08-30T10:32:46Z</time>
      </trkpt>
      <trkpt lat="45.84501" lon="4.83376">
        <ele>167.4</ele>
        <time>2019-08-30T10:32:52Z</time>
      </trkpt>
      <trkpt lat="45.84496" lon="4.83401">
        <ele>167.3</ele>
        <time>2019-08-30T10:32:56Z</time>
      </trkpt>
      <trkpt lat="45.84494" lon="4.83413">
        <ele>167.3</ele>
        <time>2019-08-30T10:32:58Z</time>
      </trkpt>
      <trkpt lat="45.84492" lon="4.83431">
        <ele>167.1</ele>
        <time>2019-08-30T10:33:01Z</time>
      </trkpt>
      <trkpt lat="45.84491" lon="4.83437">
        <ele>167</ele>
        <time>2019-08-30T10:33:02Z</time>
      </trkpt>
      <trkpt lat="45.84487" lon="4.83462">
        <ele>166.5</ele>
        <time>2019-08-30T10:33:06Z</time>
      </trkpt>
      <trkpt lat="45.84483" lon="4.83475">
        <ele>165.6</ele>
        <time>2019-08-30T10:33:09Z</time>
      </trkpt>
      <trkpt lat="45.84482" lon="4.83479">
        <ele>165.5</ele>
        <time>2019-08-30T10:33:10Z</time>
      </trkpt>
      <trkpt lat="45.84481" lon="4.83482">
        <ele>165.5</ele>
        <time>2019-08-30T10:33:11Z</time>
      </trkpt>
      <trkpt lat="45.84471" lon="4.8348">
        <ele>167.6</ele>
        <time>2019-08-30T10:33:13Z</time>
      </trkpt>
      <trkpt lat="45.84467" lon="4.83478">
        <ele>167.7</ele>
        <time>2019-08-30T10:33:14Z</time>
      </trkpt>
      <trkpt lat="45.84463" lon="4.83476">
        <ele>167.8</ele>
        <time>2019-08-30T10:33:15Z</time>
      </trkpt>
      <trkpt lat="45.84459" lon="4.83473">
        <ele>167.8</ele>
        <time>2019-08-30T10:33:16Z</time>
      </trkpt>
      <trkpt lat="45.84452" lon="4.83465">
        <ele>167.8</ele>
        <time>2019-08-30T10:33:18Z</time>
      </trkpt>
      <trkpt lat="45.84439" lon="4.83452">
        <ele>167.3</ele>
        <time>2019-08-30T10:33:21Z</time>
      </trkpt>
      <trkpt lat="45.8443" lon="4.83443">
        <ele>166.6</ele>
        <time>2019-08-30T10:33:23Z</time>
      </trkpt>
      <trkpt lat="45.84413" lon="4.83428">
        <ele>165.5</ele>
        <time>2019-08-30T10:33:26Z</time>
      </trkpt>
      <trkpt lat="45.84406" lon="4.83424">
        <ele>165.1</ele>
        <time>2019-08-30T10:33:27Z</time>
      </trkpt>
      <trkpt lat="45.84399" lon="4.83421">
        <ele>165</ele>
        <time>2019-08-30T10:33:28Z</time>
      </trkpt>
      <trkpt lat="45.84357" lon="4.83407">
        <ele>164.8</ele>
        <time>2019-08-30T10:33:34Z</time>
      </trkpt>
      <trkpt lat="45.84318" lon="4.83393">
        <ele>164.8</ele>
        <time>2019-08-30T10:33:40Z</time>
      </trkpt>
      <trkpt lat="45.84294" lon="4.83385">
        <ele>164.9</ele>
        <time>2019-08-30T10:33:44Z</time>
      </trkpt>
      <trkpt lat="45.84276" lon="4.83381">
        <ele>165</ele>
        <time>2019-08-30T10:33:47Z</time>
      </trkpt>
      <trkpt lat="45.84225" lon="4.83363">
        <ele>165.2</ele>
        <time>2019-08-30T10:33:55Z</time>
      </trkpt>
      <trkpt lat="45.84212" lon="4.83358">
        <ele>165.2</ele>
        <time>2019-08-30T10:33:57Z</time>
      </trkpt>
      <trkpt lat="45.84181" lon="4.83347">
        <ele>165.2</ele>
        <time>2019-08-30T10:34:02Z</time>
      </trkpt>
      <trkpt lat="45.84127" lon="4.83328">
        <ele>165.1</ele>
        <time>2019-08-30T10:34:11Z</time>
      </trkpt>
      <trkpt lat="45.84122" lon="4.83326">
        <ele>165.1</ele>
        <time>2019-08-30T10:34:12Z</time>
      </trkpt>
      <trkpt lat="45.84082" lon="4.83313">
        <ele>164.9</ele>
        <time>2019-08-30T10:34:19Z</time>
      </trkpt>
      <trkpt lat="45.84047" lon="4.83308">
        <ele>164.8</ele>
        <time>2019-08-30T10:34:25Z</time>
      </trkpt>
      <trkpt lat="45.84037" lon="4.83307">
        <ele>164.8</ele>
        <time>2019-08-30T10:34:27Z</time>
      </trkpt>
      <trkpt lat="45.84035" lon="4.83312">
        <ele>164.8</ele>
        <time>2019-08-30T10:34:29Z</time>
      </trkpt>
      <trkpt lat="45.84039" lon="4.8331">
        <ele>164.8</ele>
        <time>2019-08-30T10:34:34Z</time>
      </trkpt>
      <trkpt lat="45.84038" lon="4.83308">
        <ele>164.8</ele>
        <time>2019-08-30T10:34:35Z</time>
      </trkpt>
      <trkpt lat="45.84029" lon="4.83309">
        <ele>164.8</ele>
        <time>2019-08-30T10:34:39Z</time>
      </trkpt>
      <trkpt lat="45.84025" lon="4.8331">
        <ele>164.7</ele>
        <time>2019-08-30T10:34:40Z</time>
      </trkpt>
      <trkpt lat="45.8402" lon="4.8331">
        <ele>164.7</ele>
        <time>2019-08-30T10:34:41Z</time>
      </trkpt>
      <trkpt lat="45.84011" lon="4.83309">
        <ele>164.7</ele>
        <time>2019-08-30T10:34:43Z</time>
      </trkpt>
      <trkpt lat="45.83975" lon="4.83311">
        <ele>164.3</ele>
        <time>2019-08-30T10:34:51Z</time>
      </trkpt>
      <trkpt lat="45.8396" lon="4.83313">
        <ele>164.3</ele>
        <time>2019-08-30T10:34:54Z</time>
      </trkpt>
      <trkpt lat="45.83937" lon="4.83318">
        <ele>164.6</ele>
        <time>2019-08-30T10:34:59Z</time>
      </trkpt>
      <trkpt lat="45.83929" lon="4.83321">
        <ele>164.7</ele>
        <time>2019-08-30T10:35:01Z</time>
      </trkpt>
      <trkpt lat="45.83927" lon="4.83326">
        <ele>164.8</ele>
        <time>2019-08-30T10:35:02Z</time>
      </trkpt>
      <trkpt lat="45.83925" lon="4.83331">
        <ele>164.8</ele>
        <time>2019-08-30T10:35:03Z</time>
      </trkpt>
      <trkpt lat="45.83927" lon="4.8335">
        <ele>167.9</ele>
        <time>2019-08-30T10:35:06Z</time>
      </trkpt>
      <trkpt lat="45.83932" lon="4.83366">
        <ele>169.4</ele>
        <time>2019-08-30T10:35:09Z</time>
      </trkpt>
      <trkpt lat="45.83933" lon="4.83372">
        <ele>169.4</ele>
        <time>2019-08-30T10:35:11Z</time>
      </trkpt>
      <trkpt lat="45.8394" lon="4.83394">
        <ele>169.8</ele>
        <time>2019-08-30T10:35:16Z</time>
      </trkpt>
      <trkpt lat="45.83949" lon="4.83435">
        <ele>170.4</ele>
        <time>2019-08-30T10:35:23Z</time>
      </trkpt>
      <trkpt lat="45.83948" lon="4.83439">
        <ele>170.4</ele>
        <time>2019-08-30T10:35:24Z</time>
      </trkpt>
      <trkpt lat="45.83941" lon="4.83444">
        <ele>170.3</ele>
        <time>2019-08-30T10:35:26Z</time>
      </trkpt>
      <trkpt lat="45.83932" lon="4.83447">
        <ele>170.2</ele>
        <time>2019-08-30T10:35:28Z</time>
      </trkpt>
      <trkpt lat="45.83921" lon="4.83451">
        <ele>170.1</ele>
        <time>2019-08-30T10:35:30Z</time>
      </trkpt>
      <trkpt lat="45.83916" lon="4.83453">
        <ele>170</ele>
        <time>2019-08-30T10:35:31Z</time>
      </trkpt>
      <trkpt lat="45.8389" lon="4.83471">
        <ele>169.6</ele>
        <time>2019-08-30T10:35:36Z</time>
      </trkpt>
      <trkpt lat="45.83843" lon="4.83505">
        <ele>168.7</ele>
        <time>2019-08-30T10:35:45Z</time>
      </trkpt>
      <trkpt lat="45.83812" lon="4.83534">
        <ele>168.2</ele>
        <time>2019-08-30T10:35:52Z</time>
      </trkpt>
      <trkpt lat="45.83778" lon="4.83575">
        <ele>167.8</ele>
        <time>2019-08-30T10:36:00Z</time>
      </trkpt>
      <trkpt lat="45.83743" lon="4.83624">
        <ele>168.4</ele>
        <time>2019-08-30T10:36:08Z</time>
      </trkpt>
      <trkpt lat="45.83706" lon="4.83681">
        <ele>169.3</ele>
        <time>2019-08-30T10:36:17Z</time>
      </trkpt>
      <trkpt lat="45.8367" lon="4.83735">
        <ele>169.9</ele>
        <time>2019-08-30T10:36:26Z</time>
      </trkpt>
      <trkpt lat="45.83656" lon="4.83757">
        <ele>170.7</ele>
        <time>2019-08-30T10:36:30Z</time>
      </trkpt>
      <trkpt lat="45.83653" lon="4.83769">
        <ele>171.4</ele>
        <time>2019-08-30T10:36:32Z</time>
      </trkpt>
      <trkpt lat="45.83659" lon="4.83784">
        <ele>172.4</ele>
        <time>2019-08-30T10:36:35Z</time>
      </trkpt>
      <trkpt lat="45.83669" lon="4.83794">
        <ele>173.4</ele>
        <time>2019-08-30T10:36:38Z</time>
      </trkpt>
      <trkpt lat="45.83677" lon="4.838">
        <ele>174.2</ele>
        <time>2019-08-30T10:36:40Z</time>
      </trkpt>
      <trkpt lat="45.83691" lon="4.83813">
        <ele>175.6</ele>
        <time>2019-08-30T10:36:44Z</time>
      </trkpt>
      <trkpt lat="45.83695" lon="4.83816">
        <ele>176</ele>
        <time>2019-08-30T10:36:45Z</time>
      </trkpt>
      <trkpt lat="45.83706" lon="4.83824">
        <ele>177.2</ele>
        <time>2019-08-30T10:36:48Z</time>
      </trkpt>
      <trkpt lat="45.83721" lon="4.83839">
        <ele>179</ele>
        <time>2019-08-30T10:36:53Z</time>
      </trkpt>
      <trkpt lat="45.83733" lon="4.8385">
        <ele>180.4</ele>
        <time>2019-08-30T10:36:57Z</time>
      </trkpt>
      <trkpt lat="45.83738" lon="4.83855">
        <ele>181</ele>
        <time>2019-08-30T10:36:59Z</time>
      </trkpt>
      <trkpt lat="45.83744" lon="4.83862">
        <ele>181.8</ele>
        <time>2019-08-30T10:37:03Z</time>
      </trkpt>
      <trkpt lat="45.83742" lon="4.8388">
        <ele>182</ele>
        <time>2019-08-30T10:37:09Z</time>
      </trkpt>
      <trkpt lat="45.83735" lon="4.83911">
        <ele>181.7</ele>
        <time>2019-08-30T10:37:15Z</time>
      </trkpt>
      <trkpt lat="45.83729" lon="4.83928">
        <ele>181.5</ele>
        <time>2019-08-30T10:37:20Z</time>
      </trkpt>
      <trkpt lat="45.83728" lon="4.83933">
        <ele>181.4</ele>
        <time>2019-08-30T10:37:28Z</time>
      </trkpt>
      <trkpt lat="45.83729" lon="4.83937">
        <ele>181.4</ele>
        <time>2019-08-30T10:37:29Z</time>
      </trkpt>
      <trkpt lat="45.83729" lon="4.83948">
        <ele>180.5</ele>
        <time>2019-08-30T10:37:31Z</time>
      </trkpt>
      <trkpt lat="45.83726" lon="4.83964">
        <ele>179.7</ele>
        <time>2019-08-30T10:37:34Z</time>
      </trkpt>
      <trkpt lat="45.83724" lon="4.8397">
        <ele>179.4</ele>
        <time>2019-08-30T10:37:35Z</time>
      </trkpt>
      <trkpt lat="45.83717" lon="4.84002">
        <ele>178.2</ele>
        <time>2019-08-30T10:37:40Z</time>
      </trkpt>
      <trkpt lat="45.83709" lon="4.84028">
        <ele>177.6</ele>
        <time>2019-08-30T10:37:44Z</time>
      </trkpt>
      <trkpt lat="45.83703" lon="4.8406">
        <ele>176.9</ele>
        <time>2019-08-30T10:37:49Z</time>
      </trkpt>
      <trkpt lat="45.83694" lon="4.84102">
        <ele>176.5</ele>
        <time>2019-08-30T10:37:56Z</time>
      </trkpt>
      <trkpt lat="45.83693" lon="4.84107">
        <ele>176.5</ele>
        <time>2019-08-30T10:37:57Z</time>
      </trkpt>
      <trkpt lat="45.83692" lon="4.84113">
        <ele>176.5</ele>
        <time>2019-08-30T10:37:58Z</time>
      </trkpt>
      <trkpt lat="45.83697" lon="4.8412">
        <ele>176.8</ele>
        <time>2019-08-30T10:38:00Z</time>
      </trkpt>
      <trkpt lat="45.83709" lon="4.84116">
        <ele>177.2</ele>
        <time>2019-08-30T10:38:03Z</time>
      </trkpt>
      <trkpt lat="45.83713" lon="4.84114">
        <ele>177.3</ele>
        <time>2019-08-30T10:38:04Z</time>
      </trkpt>
      <trkpt lat="45.83732" lon="4.84105">
        <ele>177.9</ele>
        <time>2019-08-30T10:38:09Z</time>
      </trkpt>
      <trkpt lat="45.83757" lon="4.84098">
        <ele>179.1</ele>
        <time>2019-08-30T10:38:16Z</time>
      </trkpt>
      <trkpt lat="45.83778" lon="4.84094">
        <ele>180.6</ele>
        <time>2019-08-30T10:38:22Z</time>
      </trkpt>
      <trkpt lat="45.83782" lon="4.84093">
        <ele>180.9</ele>
        <time>2019-08-30T10:38:23Z</time>
      </trkpt>
      <trkpt lat="45.83792" lon="4.84093">
        <ele>181.7</ele>
        <time>2019-08-30T10:38:26Z</time>
      </trkpt>
      <trkpt lat="45.83801" lon="4.84099">
        <ele>183</ele>
        <time>2019-08-30T10:38:29Z</time>
      </trkpt>
      <trkpt lat="45.83814" lon="4.84119">
        <ele>184.4</ele>
        <time>2019-08-30T10:38:34Z</time>
      </trkpt>
      <trkpt lat="45.83826" lon="4.8415">
        <ele>185.7</ele>
        <time>2019-08-30T10:38:40Z</time>
      </trkpt>
      <trkpt lat="45.83843" lon="4.84192">
        <ele>187</ele>
        <time>2019-08-30T10:38:47Z</time>
      </trkpt>
      <trkpt lat="45.83846" lon="4.84204">
        <ele>187.4</ele>
        <time>2019-08-30T10:38:49Z</time>
      </trkpt>
      <trkpt lat="45.83862" lon="4.84251">
        <ele>188.8</ele>
        <time>2019-08-30T10:38:57Z</time>
      </trkpt>
      <trkpt lat="45.83871" lon="4.84276">
        <ele>190</ele>
        <time>2019-08-30T10:39:01Z</time>
      </trkpt>
      <trkpt lat="45.83875" lon="4.84287">
        <ele>190.4</ele>
        <time>2019-08-30T10:39:03Z</time>
      </trkpt>
      <trkpt lat="45.83879" lon="4.84298">
        <ele>190.9</ele>
        <time>2019-08-30T10:39:05Z</time>
      </trkpt>
      <trkpt lat="45.8389" lon="4.84327">
        <ele>191.5</ele>
        <time>2019-08-30T10:39:10Z</time>
      </trkpt>
      <trkpt lat="45.83892" lon="4.84332">
        <ele>191.6</ele>
        <time>2019-08-30T10:39:11Z</time>
      </trkpt>
      <trkpt lat="45.83898" lon="4.84342">
        <ele>191.8</ele>
        <time>2019-08-30T10:39:13Z</time>
      </trkpt>
      <trkpt lat="45.83902" lon="4.84347">
        <ele>191.8</ele>
        <time>2019-08-30T10:39:14Z</time>
      </trkpt>
      <trkpt lat="45.83911" lon="4.8436">
        <ele>191.9</ele>
        <time>2019-08-30T10:39:17Z</time>
      </trkpt>
      <trkpt lat="45.83915" lon="4.84364">
        <ele>191.9</ele>
        <time>2019-08-30T10:39:18Z</time>
      </trkpt>
      <trkpt lat="45.83923" lon="4.84372">
        <ele>191.9</ele>
        <time>2019-08-30T10:39:20Z</time>
      </trkpt>
      <trkpt lat="45.83935" lon="4.84384">
        <ele>191.9</ele>
        <time>2019-08-30T10:39:23Z</time>
      </trkpt>
      <trkpt lat="45.83945" lon="4.84396">
        <ele>191.9</ele>
        <time>2019-08-30T10:39:26Z</time>
      </trkpt>
      <trkpt lat="45.83952" lon="4.84404">
        <ele>191.9</ele>
        <time>2019-08-30T10:39:28Z</time>
      </trkpt>
      <trkpt lat="45.83957" lon="4.84414">
        <ele>191.9</ele>
        <time>2019-08-30T10:39:30Z</time>
      </trkpt>
      <trkpt lat="45.8396" lon="4.84419">
        <ele>191.9</ele>
        <time>2019-08-30T10:39:31Z</time>
      </trkpt>
      <trkpt lat="45.83962" lon="4.84425">
        <ele>191.9</ele>
        <time>2019-08-30T10:39:32Z</time>
      </trkpt>
      <trkpt lat="45.83974" lon="4.84449">
        <ele>189</ele>
        <time>2019-08-30T10:39:36Z</time>
      </trkpt>
      <trkpt lat="45.83985" lon="4.84474">
        <ele>188.5</ele>
        <time>2019-08-30T10:39:40Z</time>
      </trkpt>
      <trkpt lat="45.83997" lon="4.84506">
        <ele>189</ele>
        <time>2019-08-30T10:39:45Z</time>
      </trkpt>
      <trkpt lat="45.84001" lon="4.8452">
        <ele>189.1</ele>
        <time>2019-08-30T10:39:47Z</time>
      </trkpt>
      <trkpt lat="45.84008" lon="4.84551">
        <ele>188.7</ele>
        <time>2019-08-30T10:39:51Z</time>
      </trkpt>
      <trkpt lat="45.84014" lon="4.84578">
        <ele>188.4</ele>
        <time>2019-08-30T10:39:55Z</time>
      </trkpt>
      <trkpt lat="45.84023" lon="4.8464">
        <ele>188.7</ele>
        <time>2019-08-30T10:40:03Z</time>
      </trkpt>
      <trkpt lat="45.84029" lon="4.84698">
        <ele>188.6</ele>
        <time>2019-08-30T10:40:11Z</time>
      </trkpt>
      <trkpt lat="45.84035" lon="4.84745">
        <ele>188.7</ele>
        <time>2019-08-30T10:40:18Z</time>
      </trkpt>
      <trkpt lat="45.84041" lon="4.84816">
        <ele>189.2</ele>
        <time>2019-08-30T10:40:28Z</time>
      </trkpt>
      <trkpt lat="45.84042" lon="4.84835">
        <ele>189</ele>
        <time>2019-08-30T10:40:31Z</time>
      </trkpt>
      <trkpt lat="45.84041" lon="4.84852">
        <ele>189</ele>
        <time>2019-08-30T10:40:34Z</time>
      </trkpt>
      <trkpt lat="45.84051" lon="4.84863">
        <ele>188.4</ele>
        <time>2019-08-30T10:40:37Z</time>
      </trkpt>
      <trkpt lat="45.84065" lon="4.84869">
        <ele>188.6</ele>
        <time>2019-08-30T10:40:40Z</time>
      </trkpt>
      <trkpt lat="45.84077" lon="4.84871">
        <ele>188.7</ele>
        <time>2019-08-30T10:40:42Z</time>
      </trkpt>
      <trkpt lat="45.84116" lon="4.84886">
        <ele>188.9</ele>
        <time>2019-08-30T10:40:49Z</time>
      </trkpt>
      <trkpt lat="45.8412" lon="4.8489">
        <ele>188.9</ele>
        <time>2019-08-30T10:40:50Z</time>
      </trkpt>
      <trkpt lat="45.84133" lon="4.84905">
        <ele>189.5</ele>
        <time>2019-08-30T10:40:53Z</time>
      </trkpt>
      <trkpt lat="45.84146" lon="4.84922">
        <ele>190.1</ele>
        <time>2019-08-30T10:40:56Z</time>
      </trkpt>
      <trkpt lat="45.84173" lon="4.84958">
        <ele>191.6</ele>
        <time>2019-08-30T10:41:02Z</time>
      </trkpt>
      <trkpt lat="45.84194" lon="4.84986">
        <ele>193</ele>
        <time>2019-08-30T10:41:07Z</time>
      </trkpt>
      <trkpt lat="45.84197" lon="4.84993">
        <ele>193.2</ele>
        <time>2019-08-30T10:41:08Z</time>
      </trkpt>
      <trkpt lat="45.84209" lon="4.85013">
        <ele>193.9</ele>
        <time>2019-08-30T10:41:11Z</time>
      </trkpt>
      <trkpt lat="45.84224" lon="4.85039">
        <ele>194.6</ele>
        <time>2019-08-30T10:41:15Z</time>
      </trkpt>
      <trkpt lat="45.84231" lon="4.85052">
        <ele>195</ele>
        <time>2019-08-30T10:41:17Z</time>
      </trkpt>
      <trkpt lat="45.84249" lon="4.85087">
        <ele>195.9</ele>
        <time>2019-08-30T10:41:23Z</time>
      </trkpt>
      <trkpt lat="45.84263" lon="4.85113">
        <ele>196.6</ele>
        <time>2019-08-30T10:41:28Z</time>
      </trkpt>
      <trkpt lat="45.84272" lon="4.85129">
        <ele>197.4</ele>
        <time>2019-08-30T10:41:31Z</time>
      </trkpt>
      <trkpt lat="45.84274" lon="4.85134">
        <ele>197.6</ele>
        <time>2019-08-30T10:41:32Z</time>
      </trkpt>
      <trkpt lat="45.84291" lon="4.85167">
        <ele>198.1</ele>
        <time>2019-08-30T10:41:38Z</time>
      </trkpt>
      <trkpt lat="45.84297" lon="4.85177">
        <ele>198.2</ele>
        <time>2019-08-30T10:41:40Z</time>
      </trkpt>
      <trkpt lat="45.84305" lon="4.85192">
        <ele>198.2</ele>
        <time>2019-08-30T10:41:43Z</time>
      </trkpt>
      <trkpt lat="45.84317" lon="4.85215">
        <ele>198.2</ele>
        <time>2019-08-30T10:41:47Z</time>
      </trkpt>
      <trkpt lat="45.84343" lon="4.85263">
        <ele>198.6</ele>
        <time>2019-08-30T10:41:55Z</time>
      </trkpt>
      <trkpt lat="45.84379" lon="4.8533">
        <ele>199.8</ele>
        <time>2019-08-30T10:42:06Z</time>
      </trkpt>
      <trkpt lat="45.84381" lon="4.85336">
        <ele>199.9</ele>
        <time>2019-08-30T10:42:07Z</time>
      </trkpt>
      <trkpt lat="45.84401" lon="4.85374">
        <ele>200.6</ele>
        <time>2019-08-30T10:42:14Z</time>
      </trkpt>
      <trkpt lat="45.84407" lon="4.85385">
        <ele>200.8</ele>
        <time>2019-08-30T10:42:16Z</time>
      </trkpt>
      <trkpt lat="45.84425" lon="4.85422">
        <ele>202</ele>
        <time>2019-08-30T10:42:23Z</time>
      </trkpt>
      <trkpt lat="45.84431" lon="4.85434">
        <ele>202.6</ele>
        <time>2019-08-30T10:42:26Z</time>
      </trkpt>
      <trkpt lat="45.84441" lon="4.85448">
        <ele>203.6</ele>
        <time>2019-08-30T10:42:30Z</time>
      </trkpt>
      <trkpt lat="45.84451" lon="4.85445">
        <ele>204.3</ele>
        <time>2019-08-30T10:42:33Z</time>
      </trkpt>
      <trkpt lat="45.84453" lon="4.8544">
        <ele>204.6</ele>
        <time>2019-08-30T10:42:34Z</time>
      </trkpt>
      <trkpt lat="45.84462" lon="4.85435">
        <ele>205.4</ele>
        <time>2019-08-30T10:42:37Z</time>
      </trkpt>
      <trkpt lat="45.84465" lon="4.85433">
        <ele>205.6</ele>
        <time>2019-08-30T10:42:38Z</time>
      </trkpt>
      <trkpt lat="45.84469" lon="4.85432">
        <ele>205.8</ele>
        <time>2019-08-30T10:42:39Z</time>
      </trkpt>
      <trkpt lat="45.84472" lon="4.85427">
        <ele>206.2</ele>
        <time>2019-08-30T10:42:41Z</time>
      </trkpt>
      <trkpt lat="45.8447" lon="4.85419">
        <ele>206.5</ele>
        <time>2019-08-30T10:42:43Z</time>
      </trkpt>
      <trkpt lat="45.84462" lon="4.85404">
        <ele>206.5</ele>
        <time>2019-08-30T10:42:47Z</time>
      </trkpt>
      <trkpt lat="45.8446" lon="4.854">
        <ele>206.5</ele>
        <time>2019-08-30T10:42:48Z</time>
      </trkpt>
      <trkpt lat="45.84458" lon="4.85398">
        <ele>206.5</ele>
        <time>2019-08-30T10:42:49Z</time>
      </trkpt>
    </trkseg>
  </trk>
</gpx>